<?xml version='1.0' encoding='UTF-8'?><gpx version="1.1" creator="JPX - https://github.com/jenetics/jpx" xmlns="http://www.topografix.com/GPX/1/1"><trk><trkseg><trkpt lat="45.0119397" lon="9.2519668"><ele>136.0</ele><time>2026-04-18T06:43:41.762Z</time></trkpt><trkpt lat="45.0119183" lon="9.2518167"><ele>136.0</ele><time>2026-04-18T06:43:44.874Z</time></trkpt><trkpt lat="45.0118603" lon="9.2517705"><ele>136.0</ele><time>2026-04-18T06:44:44.882Z</time></trkpt><trkpt lat="45.0117884" lon="9.2518316"><ele>136.0</ele><time>2026-04-18T06:44:48.89Z</time></trkpt><trkpt lat="45.0117166" lon="9.2518911"><ele>136.0</ele><time>2026-04-18T06:44:52.879Z</time></trkpt><trkpt lat="45.0116873" lon="9.2519891"><ele>136.0</ele><time>2026-04-18T06:44:55.876Z</time></trkpt><trkpt lat="45.0116547" lon="9.2520772"><ele>136.16666666666669</ele><time>2026-04-18T06:44:58.879Z</time></trkpt><trkpt lat="45.0115839" lon="9.2521336"><ele>136.33333333333334</ele><time>2026-04-18T06:45:01.959Z</time></trkpt><trkpt lat="45.0115032" lon="9.2521932"><ele>136.5</ele><time>2026-04-18T06:45:04.882Z</time></trkpt><trkpt lat="45.011433" lon="9.2522644"><ele>136.66666666666666</ele><time>2026-04-18T06:45:07.889Z</time></trkpt><trkpt lat="45.0113551" lon="9.2523041"><ele>136.83333333333331</ele><time>2026-04-18T06:45:10.876Z</time></trkpt><trkpt lat="45.0112706" lon="9.2522622"><ele>137.0</ele><time>2026-04-18T06:45:13.878Z</time></trkpt><trkpt lat="45.0112009" lon="9.2521763"><ele>137.0</ele><time>2026-04-18T06:45:16.88Z</time></trkpt><trkpt lat="45.0111494" lon="9.2521199"><ele>137.0</ele><time>2026-04-18T06:45:18.884Z</time></trkpt><trkpt lat="45.0110894" lon="9.2520914"><ele>137.0</ele><time>2026-04-18T06:45:20.877Z</time></trkpt><trkpt lat="45.0109953" lon="9.2521135"><ele>137.0</ele><time>2026-04-18T06:45:23.892Z</time></trkpt><trkpt lat="45.0109142" lon="9.2521508"><ele>137.0</ele><time>2026-04-18T06:45:25.876Z</time></trkpt><trkpt lat="45.0108469" lon="9.2521724"><ele>137.0</ele><time>2026-04-18T06:45:27.878Z</time></trkpt><trkpt lat="45.010779" lon="9.2522042"><ele>137.57142857142858</ele><time>2026-04-18T06:45:29.886Z</time></trkpt><trkpt lat="45.0107176" lon="9.2522309"><ele>138.14285714285714</ele><time>2026-04-18T06:45:31.889Z</time></trkpt><trkpt lat="45.0106558" lon="9.2522636"><ele>138.71428571428572</ele><time>2026-04-18T06:45:33.896Z</time></trkpt><trkpt lat="45.0105918" lon="9.2522903"><ele>139.28571428571428</ele><time>2026-04-18T06:45:35.887Z</time></trkpt><trkpt lat="45.0105295" lon="9.2523132"><ele>139.85714285714286</ele><time>2026-04-18T06:45:37.87Z</time></trkpt><trkpt lat="45.0104563" lon="9.2523605"><ele>140.42857142857144</ele><time>2026-04-18T06:45:39.88Z</time></trkpt><trkpt lat="45.0103807" lon="9.2523819"><ele>141.0</ele><time>2026-04-18T06:45:41.875Z</time></trkpt><trkpt lat="45.0103169" lon="9.2524117"><ele>141.0</ele><time>2026-04-18T06:45:43.896Z</time></trkpt><trkpt lat="45.0102487" lon="9.2524384"><ele>141.0</ele><time>2026-04-18T06:45:45.884Z</time></trkpt><trkpt lat="45.0101829" lon="9.2524654"><ele>141.0</ele><time>2026-04-18T06:45:47.873Z</time></trkpt><trkpt lat="45.0101163" lon="9.2524912"><ele>141.0</ele><time>2026-04-18T06:45:49.892Z</time></trkpt><trkpt lat="45.0100511" lon="9.2525263"><ele>141.0</ele><time>2026-04-18T06:45:51.891Z</time></trkpt><trkpt lat="45.0099789" lon="9.2525536"><ele>141.0</ele><time>2026-04-18T06:45:53.902Z</time></trkpt><trkpt lat="45.0099059" lon="9.2525872"><ele>141.0</ele><time>2026-04-18T06:45:55.874Z</time></trkpt><trkpt lat="45.0098341" lon="9.2526295"><ele>142.57142857142858</ele><time>2026-04-18T06:45:57.878Z</time></trkpt><trkpt lat="45.0097664" lon="9.252657"><ele>144.14285714285714</ele><time>2026-04-18T06:45:59.89Z</time></trkpt><trkpt lat="45.0096874" lon="9.2526886"><ele>145.71428571428572</ele><time>2026-04-18T06:46:01.878Z</time></trkpt><trkpt lat="45.0096195" lon="9.2527232"><ele>147.28571428571428</ele><time>2026-04-18T06:46:03.885Z</time></trkpt><trkpt lat="45.0095502" lon="9.2527533"><ele>148.85714285714286</ele><time>2026-04-18T06:46:05.891Z</time></trkpt><trkpt lat="45.0094801" lon="9.2527752"><ele>150.42857142857142</ele><time>2026-04-18T06:46:07.875Z</time></trkpt><trkpt lat="45.009415" lon="9.2528068"><ele>152.0</ele><time>2026-04-18T06:46:09.88Z</time></trkpt><trkpt lat="45.0093505" lon="9.2528381"><ele>152.0</ele><time>2026-04-18T06:46:11.878Z</time></trkpt><trkpt lat="45.0092841" lon="9.2528761"><ele>152.0</ele><time>2026-04-18T06:46:13.886Z</time></trkpt><trkpt lat="45.0092226" lon="9.2529169"><ele>152.0</ele><time>2026-04-18T06:46:15.887Z</time></trkpt><trkpt lat="45.0091581" lon="9.2529487"><ele>152.0</ele><time>2026-04-18T06:46:17.885Z</time></trkpt><trkpt lat="45.0090882" lon="9.2529834"><ele>152.0</ele><time>2026-04-18T06:46:19.88Z</time></trkpt><trkpt lat="45.0090123" lon="9.25302"><ele>152.0</ele><time>2026-04-18T06:46:21.88Z</time></trkpt><trkpt lat="45.0089447" lon="9.2530493"><ele>152.0</ele><time>2026-04-18T06:46:23.877Z</time></trkpt><trkpt lat="45.0088649" lon="9.2530724"><ele>153.14285714285714</ele><time>2026-04-18T06:46:25.882Z</time></trkpt><trkpt lat="45.008793" lon="9.2531122"><ele>154.2857142857143</ele><time>2026-04-18T06:46:27.88Z</time></trkpt><trkpt lat="45.0087204" lon="9.2531515"><ele>155.42857142857144</ele><time>2026-04-18T06:46:29.883Z</time></trkpt><trkpt lat="45.0086401" lon="9.2531819"><ele>156.57142857142856</ele><time>2026-04-18T06:46:31.87Z</time></trkpt><trkpt lat="45.0085684" lon="9.2532013"><ele>157.71428571428572</ele><time>2026-04-18T06:46:33.882Z</time></trkpt><trkpt lat="45.0084988" lon="9.2532101"><ele>158.85714285714286</ele><time>2026-04-18T06:46:35.882Z</time></trkpt><trkpt lat="45.0084363" lon="9.2531873"><ele>160.0</ele><time>2026-04-18T06:46:37.87Z</time></trkpt><trkpt lat="45.0083591" lon="9.2531129"><ele>160.57142857142856</ele><time>2026-04-18T06:46:40.881Z</time></trkpt><trkpt lat="45.0083313" lon="9.2530253"><ele>161.14285714285714</ele><time>2026-04-18T06:46:42.88Z</time></trkpt><trkpt lat="45.0083172" lon="9.2529327"><ele>161.71428571428572</ele><time>2026-04-18T06:46:44.883Z</time></trkpt><trkpt lat="45.0083143" lon="9.2528324"><ele>162.28571428571428</ele><time>2026-04-18T06:46:46.88Z</time></trkpt><trkpt lat="45.0083218" lon="9.2527276"><ele>162.85714285714286</ele><time>2026-04-18T06:46:48.951Z</time></trkpt><trkpt lat="45.0083306" lon="9.2526238"><ele>163.42857142857142</ele><time>2026-04-18T06:46:50.876Z</time></trkpt><trkpt lat="45.0083379" lon="9.2525135"><ele>164.0</ele><time>2026-04-18T06:46:52.875Z</time></trkpt><trkpt lat="45.0083497" lon="9.2524041"><ele>163.99999999999997</ele><time>2026-04-18T06:46:54.878Z</time></trkpt><trkpt lat="45.0083634" lon="9.2523019"><ele>164.0</ele><time>2026-04-18T06:46:56.88Z</time></trkpt><trkpt lat="45.0083703" lon="9.2521984"><ele>164.0</ele><time>2026-04-18T06:46:58.89Z</time></trkpt><trkpt lat="45.0083835" lon="9.2520953"><ele>164.0</ele><time>2026-04-18T06:47:00.876Z</time></trkpt><trkpt lat="45.0083924" lon="9.2519904"><ele>164.0</ele><time>2026-04-18T06:47:02.952Z</time></trkpt><trkpt lat="45.0084047" lon="9.251885"><ele>163.99999999999997</ele><time>2026-04-18T06:47:04.879Z</time></trkpt><trkpt lat="45.0084142" lon="9.25179"><ele>164.0</ele><time>2026-04-18T06:47:06.88Z</time></trkpt><trkpt lat="45.0084306" lon="9.2516887"><ele>164.7142857142857</ele><time>2026-04-18T06:47:08.883Z</time></trkpt><trkpt lat="45.0084489" lon="9.2515785"><ele>165.42857142857142</ele><time>2026-04-18T06:47:10.883Z</time></trkpt><trkpt lat="45.0084498" lon="9.2514696"><ele>166.14285714285714</ele><time>2026-04-18T06:47:12.874Z</time></trkpt><trkpt lat="45.0084499" lon="9.2513674"><ele>166.85714285714283</ele><time>2026-04-18T06:47:14.948Z</time></trkpt><trkpt lat="45.0084445" lon="9.2512677"><ele>167.57142857142856</ele><time>2026-04-18T06:47:16.884Z</time></trkpt><trkpt lat="45.0084127" lon="9.2511804"><ele>168.28571428571428</ele><time>2026-04-18T06:47:18.881Z</time></trkpt><trkpt lat="45.0083392" lon="9.251147"><ele>169.0</ele><time>2026-04-18T06:47:20.875Z</time></trkpt><trkpt lat="45.0082711" lon="9.2511508"><ele>171.42857142857144</ele><time>2026-04-18T06:47:22.872Z</time></trkpt><trkpt lat="45.0082161" lon="9.2511958"><ele>173.85714285714286</ele><time>2026-04-18T06:47:24.878Z</time></trkpt><trkpt lat="45.0081442" lon="9.2512546"><ele>176.28571428571428</ele><time>2026-04-18T06:47:26.887Z</time></trkpt><trkpt lat="45.008096" lon="9.2513323"><ele>178.71428571428572</ele><time>2026-04-18T06:47:28.887Z</time></trkpt><trkpt lat="45.00805" lon="9.2514169"><ele>181.14285714285714</ele><time>2026-04-18T06:47:30.883Z</time></trkpt><trkpt lat="45.0080031" lon="9.2515023"><ele>183.57142857142858</ele><time>2026-04-18T06:47:32.88Z</time></trkpt><trkpt lat="45.0079518" lon="9.2515837"><ele>186.0</ele><time>2026-04-18T06:47:34.885Z</time></trkpt><trkpt lat="45.0078963" lon="9.2516609"><ele>186.0</ele><time>2026-04-18T06:47:36.892Z</time></trkpt><trkpt lat="45.0078483" lon="9.2517425"><ele>186.0</ele><time>2026-04-18T06:47:38.893Z</time></trkpt><trkpt lat="45.0077969" lon="9.2518162"><ele>186.0</ele><time>2026-04-18T06:47:40.883Z</time></trkpt><trkpt lat="45.0077501" lon="9.2518984"><ele>186.0</ele><time>2026-04-18T06:47:42.878Z</time></trkpt><trkpt lat="45.0076886" lon="9.2519835"><ele>186.0</ele><time>2026-04-18T06:47:44.891Z</time></trkpt><trkpt lat="45.0076171" lon="9.2520595"><ele>186.0</ele><time>2026-04-18T06:47:46.889Z</time></trkpt><trkpt lat="45.0075621" lon="9.2521312"><ele>186.0</ele><time>2026-04-18T06:47:48.878Z</time></trkpt><trkpt lat="45.0075088" lon="9.252191"><ele>186.0</ele><time>2026-04-18T06:47:50.896Z</time></trkpt><trkpt lat="45.0074319" lon="9.2522338"><ele>186.0</ele><time>2026-04-18T06:47:52.881Z</time></trkpt><trkpt lat="45.0073745" lon="9.2521694"><ele>186.0</ele><time>2026-04-18T06:47:54.878Z</time></trkpt><trkpt lat="45.0073425" lon="9.2520691"><ele>186.0</ele><time>2026-04-18T06:47:56.879Z</time></trkpt><trkpt lat="45.0073391" lon="9.2519565"><ele>186.0</ele><time>2026-04-18T06:47:58.882Z</time></trkpt><trkpt lat="45.0073366" lon="9.2518579"><ele>188.16666666666666</ele><time>2026-04-18T06:48:00.881Z</time></trkpt><trkpt lat="45.0073415" lon="9.2517622"><ele>190.33333333333331</ele><time>2026-04-18T06:48:02.875Z</time></trkpt><trkpt lat="45.0073416" lon="9.251662"><ele>192.5</ele><time>2026-04-18T06:48:04.882Z</time></trkpt><trkpt lat="45.0073461" lon="9.251554"><ele>194.66666666666666</ele><time>2026-04-18T06:48:06.88Z</time></trkpt><trkpt lat="45.0073418" lon="9.2514499"><ele>196.83333333333331</ele><time>2026-04-18T06:48:08.883Z</time></trkpt><trkpt lat="45.0073424" lon="9.2513366"><ele>199.0</ele><time>2026-04-18T06:48:10.883Z</time></trkpt><trkpt lat="45.0073451" lon="9.2512225"><ele>200.33333333333331</ele><time>2026-04-18T06:48:12.872Z</time></trkpt><trkpt lat="45.0073493" lon="9.2511125"><ele>201.66666666666666</ele><time>2026-04-18T06:48:14.88Z</time></trkpt><trkpt lat="45.0073563" lon="9.2509906"><ele>203.0</ele><time>2026-04-18T06:48:16.878Z</time></trkpt><trkpt lat="45.0073666" lon="9.2508862"><ele>204.33333333333331</ele><time>2026-04-18T06:48:18.869Z</time></trkpt><trkpt lat="45.0073632" lon="9.2507775"><ele>205.66666666666666</ele><time>2026-04-18T06:48:20.884Z</time></trkpt><trkpt lat="45.0073681" lon="9.2506685"><ele>207.0</ele><time>2026-04-18T06:48:22.875Z</time></trkpt><trkpt lat="45.0073613" lon="9.2505596"><ele>207.00000000000003</ele><time>2026-04-18T06:48:24.883Z</time></trkpt><trkpt lat="45.0073366" lon="9.250469"><ele>207.0</ele><time>2026-04-18T06:48:26.875Z</time></trkpt><trkpt lat="45.007295" lon="9.2503925"><ele>207.0</ele><time>2026-04-18T06:48:28.872Z</time></trkpt><trkpt lat="45.007227" lon="9.2503565"><ele>207.0</ele><time>2026-04-18T06:48:30.876Z</time></trkpt><trkpt lat="45.0071409" lon="9.250376"><ele>207.0</ele><time>2026-04-18T06:48:32.885Z</time></trkpt><trkpt lat="45.0070852" lon="9.2504348"><ele>207.00000000000003</ele><time>2026-04-18T06:48:34.872Z</time></trkpt><trkpt lat="45.0070436" lon="9.2505153"><ele>207.0</ele><time>2026-04-18T06:48:36.879Z</time></trkpt><trkpt lat="45.0070063" lon="9.2505962"><ele>207.0</ele><time>2026-04-18T06:48:38.886Z</time></trkpt><trkpt lat="45.0069676" lon="9.2506939"><ele>207.0</ele><time>2026-04-18T06:48:40.884Z</time></trkpt><trkpt lat="45.0069296" lon="9.2507837"><ele>207.0</ele><time>2026-04-18T06:48:42.874Z</time></trkpt><trkpt lat="45.0068932" lon="9.2508675"><ele>207.0</ele><time>2026-04-18T06:48:44.878Z</time></trkpt><trkpt lat="45.0068595" lon="9.2509565"><ele>207.0</ele><time>2026-04-18T06:48:46.881Z</time></trkpt><trkpt lat="45.0068209" lon="9.2510593"><ele>207.0</ele><time>2026-04-18T06:48:48.879Z</time></trkpt><trkpt lat="45.006774" lon="9.251147"><ele>207.0</ele><time>2026-04-18T06:48:50.881Z</time></trkpt><trkpt lat="45.0067191" lon="9.2512278"><ele>207.0</ele><time>2026-04-18T06:48:52.886Z</time></trkpt><trkpt lat="45.0066399" lon="9.2512706"><ele>207.0</ele><time>2026-04-18T06:48:54.887Z</time></trkpt><trkpt lat="45.0065628" lon="9.2512703"><ele>207.0</ele><time>2026-04-18T06:48:56.878Z</time></trkpt><trkpt lat="45.0064847" lon="9.2512607"><ele>207.0</ele><time>2026-04-18T06:48:58.882Z</time></trkpt><trkpt lat="45.0064029" lon="9.25123"><ele>207.0</ele><time>2026-04-18T06:49:00.883Z</time></trkpt><trkpt lat="45.0063252" lon="9.2512031"><ele>208.83333333333334</ele><time>2026-04-18T06:49:02.884Z</time></trkpt><trkpt lat="45.0062511" lon="9.2511645"><ele>210.66666666666669</ele><time>2026-04-18T06:49:04.88Z</time></trkpt><trkpt lat="45.0061775" lon="9.2511486"><ele>212.5</ele><time>2026-04-18T06:49:06.872Z</time></trkpt><trkpt lat="45.0061073" lon="9.2511238"><ele>214.33333333333334</ele><time>2026-04-18T06:49:08.879Z</time></trkpt><trkpt lat="45.0060431" lon="9.2510981"><ele>216.16666666666669</ele><time>2026-04-18T06:49:10.875Z</time></trkpt><trkpt lat="45.0059652" lon="9.2510573"><ele>218.0</ele><time>2026-04-18T06:49:12.883Z</time></trkpt><trkpt lat="45.0058801" lon="9.251021"><ele>219.16666666666669</ele><time>2026-04-18T06:49:14.898Z</time></trkpt><trkpt lat="45.0058012" lon="9.2509932"><ele>220.33333333333334</ele><time>2026-04-18T06:49:16.877Z</time></trkpt><trkpt lat="45.0057341" lon="9.2509441"><ele>221.5</ele><time>2026-04-18T06:49:18.883Z</time></trkpt><trkpt lat="45.0056921" lon="9.2508736"><ele>222.66666666666669</ele><time>2026-04-18T06:49:20.879Z</time></trkpt><trkpt lat="45.0056976" lon="9.2507505"><ele>223.83333333333334</ele><time>2026-04-18T06:49:22.885Z</time></trkpt><trkpt lat="45.0057381" lon="9.2506704"><ele>225.0</ele><time>2026-04-18T06:49:24.88Z</time></trkpt><trkpt lat="45.0058062" lon="9.2506148"><ele>224.5714285714286</ele><time>2026-04-18T06:49:26.957Z</time></trkpt><trkpt lat="45.0058819" lon="9.2505955"><ele>224.14285714285717</ele><time>2026-04-18T06:49:28.877Z</time></trkpt><trkpt lat="45.0059553" lon="9.2505762"><ele>223.71428571428572</ele><time>2026-04-18T06:49:30.884Z</time></trkpt><trkpt lat="45.0060263" lon="9.2505569"><ele>223.2857142857143</ele><time>2026-04-18T06:49:32.878Z</time></trkpt><trkpt lat="45.0060844" lon="9.2505107"><ele>222.8571428571429</ele><time>2026-04-18T06:49:34.879Z</time></trkpt><trkpt lat="45.006127" lon="9.2504311"><ele>222.42857142857142</ele><time>2026-04-18T06:49:36.869Z</time></trkpt><trkpt lat="45.0061475" lon="9.2503174"><ele>222.0</ele><time>2026-04-18T06:49:38.872Z</time></trkpt><trkpt lat="45.0061291" lon="9.2502173"><ele>222.0</ele><time>2026-04-18T06:49:40.877Z</time></trkpt><trkpt lat="45.0060882" lon="9.2501447"><ele>222.0</ele><time>2026-04-18T06:49:42.878Z</time></trkpt><trkpt lat="45.006011" lon="9.2500957"><ele>222.0</ele><time>2026-04-18T06:49:44.876Z</time></trkpt><trkpt lat="45.0059217" lon="9.250057"><ele>222.0</ele><time>2026-04-18T06:49:46.879Z</time></trkpt><trkpt lat="45.0058416" lon="9.2500253"><ele>222.0</ele><time>2026-04-18T06:49:48.882Z</time></trkpt><trkpt lat="45.0057624" lon="9.2499984"><ele>222.0</ele><time>2026-04-18T06:49:50.879Z</time></trkpt><trkpt lat="45.0056783" lon="9.249976"><ele>223.83333333333334</ele><time>2026-04-18T06:49:52.879Z</time></trkpt><trkpt lat="45.0055896" lon="9.2499459"><ele>225.66666666666669</ele><time>2026-04-18T06:49:54.953Z</time></trkpt><trkpt lat="45.0055002" lon="9.2499167"><ele>227.5</ele><time>2026-04-18T06:49:56.885Z</time></trkpt><trkpt lat="45.0054145" lon="9.2498872"><ele>229.33333333333334</ele><time>2026-04-18T06:49:58.889Z</time></trkpt><trkpt lat="45.005336" lon="9.2498588"><ele>231.16666666666669</ele><time>2026-04-18T06:50:00.878Z</time></trkpt><trkpt lat="45.0052421" lon="9.2498259"><ele>233.0</ele><time>2026-04-18T06:50:02.892Z</time></trkpt><trkpt lat="45.0051692" lon="9.2498093"><ele>232.83333333333334</ele><time>2026-04-18T06:50:04.875Z</time></trkpt><trkpt lat="45.005093" lon="9.2497798"><ele>232.66666666666669</ele><time>2026-04-18T06:50:06.878Z</time></trkpt><trkpt lat="45.0050127" lon="9.2497631"><ele>232.5</ele><time>2026-04-18T06:50:08.873Z</time></trkpt><trkpt lat="45.0049316" lon="9.2497378"><ele>232.33333333333331</ele><time>2026-04-18T06:50:10.879Z</time></trkpt><trkpt lat="45.0048524" lon="9.2497204"><ele>232.16666666666666</ele><time>2026-04-18T06:50:12.881Z</time></trkpt><trkpt lat="45.0047729" lon="9.2496876"><ele>232.0</ele><time>2026-04-18T06:50:14.876Z</time></trkpt><trkpt lat="45.0046975" lon="9.2496523"><ele>234.49999999999997</ele><time>2026-04-18T06:50:16.883Z</time></trkpt><trkpt lat="45.0046199" lon="9.2496141"><ele>237.0</ele><time>2026-04-18T06:50:18.876Z</time></trkpt><trkpt lat="45.004551" lon="9.2495655"><ele>239.5</ele><time>2026-04-18T06:50:20.958Z</time></trkpt><trkpt lat="45.0044867" lon="9.2494883"><ele>242.0</ele><time>2026-04-18T06:50:22.88Z</time></trkpt><trkpt lat="45.0044243" lon="9.2493784"><ele>244.49999999999997</ele><time>2026-04-18T06:50:24.883Z</time></trkpt><trkpt lat="45.0043777" lon="9.2492923"><ele>247.0</ele><time>2026-04-18T06:50:26.891Z</time></trkpt><trkpt lat="45.0043471" lon="9.2491873"><ele>246.99999999999997</ele><time>2026-04-18T06:50:28.889Z</time></trkpt><trkpt lat="45.0043174" lon="9.2490748"><ele>247.0</ele><time>2026-04-18T06:50:30.88Z</time></trkpt><trkpt lat="45.0042908" lon="9.248952"><ele>247.0</ele><time>2026-04-18T06:50:32.879Z</time></trkpt><trkpt lat="45.0042803" lon="9.2488336"><ele>247.0</ele><time>2026-04-18T06:50:34.887Z</time></trkpt><trkpt lat="45.0042836" lon="9.2487172"><ele>246.99999999999997</ele><time>2026-04-18T06:50:36.889Z</time></trkpt><trkpt lat="45.0042934" lon="9.2486082"><ele>247.0</ele><time>2026-04-18T06:50:38.888Z</time></trkpt><trkpt lat="45.0042952" lon="9.2484936"><ele>248.16666666666666</ele><time>2026-04-18T06:50:40.874Z</time></trkpt><trkpt lat="45.0042978" lon="9.2483801"><ele>249.33333333333331</ele><time>2026-04-18T06:50:42.876Z</time></trkpt><trkpt lat="45.0043046" lon="9.2482736"><ele>250.5</ele><time>2026-04-18T06:50:44.886Z</time></trkpt><trkpt lat="45.0043041" lon="9.2481808"><ele>251.66666666666669</ele><time>2026-04-18T06:50:46.876Z</time></trkpt><trkpt lat="45.0042334" lon="9.2481239"><ele>252.83333333333334</ele><time>2026-04-18T06:50:49.884Z</time></trkpt><trkpt lat="45.0041767" lon="9.2481716"><ele>254.0</ele><time>2026-04-18T06:50:51.877Z</time></trkpt><trkpt lat="45.0041278" lon="9.2482636"><ele>256.0</ele><time>2026-04-18T06:50:53.88Z</time></trkpt><trkpt lat="45.0040638" lon="9.2483646"><ele>258.0</ele><time>2026-04-18T06:50:55.897Z</time></trkpt><trkpt lat="45.0040063" lon="9.2484314"><ele>260.0</ele><time>2026-04-18T06:50:57.875Z</time></trkpt><trkpt lat="45.003932" lon="9.248478"><ele>262.0</ele><time>2026-04-18T06:50:59.885Z</time></trkpt><trkpt lat="45.0038458" lon="9.2485151"><ele>264.0</ele><time>2026-04-18T06:51:01.877Z</time></trkpt><trkpt lat="45.003761" lon="9.2485419"><ele>266.0</ele><time>2026-04-18T06:51:03.893Z</time></trkpt><trkpt lat="45.0036766" lon="9.2485687"><ele>266.0</ele><time>2026-04-18T06:51:05.88Z</time></trkpt><trkpt lat="45.0035904" lon="9.2486029"><ele>266.0</ele><time>2026-04-18T06:51:07.877Z</time></trkpt><trkpt lat="45.003503" lon="9.2486393"><ele>266.0</ele><time>2026-04-18T06:51:09.884Z</time></trkpt><trkpt lat="45.0034184" lon="9.2486827"><ele>266.0</ele><time>2026-04-18T06:51:11.886Z</time></trkpt><trkpt lat="45.0033328" lon="9.2487284"><ele>266.0</ele><time>2026-04-18T06:51:13.877Z</time></trkpt><trkpt lat="45.0032523" lon="9.2487386"><ele>266.0</ele><time>2026-04-18T06:51:15.873Z</time></trkpt><trkpt lat="45.0031724" lon="9.2486847"><ele>266.0</ele><time>2026-04-18T06:51:17.886Z</time></trkpt><trkpt lat="45.0031613" lon="9.2485806"><ele>266.0</ele><time>2026-04-18T06:51:19.877Z</time></trkpt><trkpt lat="45.0031868" lon="9.2484926"><ele>266.0</ele><time>2026-04-18T06:51:21.883Z</time></trkpt><trkpt lat="45.0032424" lon="9.248407"><ele>266.0</ele><time>2026-04-18T06:51:23.883Z</time></trkpt><trkpt lat="45.0032979" lon="9.2483131"><ele>266.0</ele><time>2026-04-18T06:51:25.873Z</time></trkpt><trkpt lat="45.0033502" lon="9.2482237"><ele>266.0</ele><time>2026-04-18T06:51:27.878Z</time></trkpt><trkpt lat="45.0034033" lon="9.2481288"><ele>265.6666666666667</ele><time>2026-04-18T06:51:29.885Z</time></trkpt><trkpt lat="45.0034476" lon="9.2480351"><ele>265.33333333333337</ele><time>2026-04-18T06:51:31.872Z</time></trkpt><trkpt lat="45.0034553" lon="9.2479401"><ele>265.0</ele><time>2026-04-18T06:51:33.887Z</time></trkpt><trkpt lat="45.0034219" lon="9.2478362"><ele>264.6666666666667</ele><time>2026-04-18T06:51:35.88Z</time></trkpt><trkpt lat="45.003353" lon="9.2477764"><ele>264.3333333333333</ele><time>2026-04-18T06:51:37.875Z</time></trkpt><trkpt lat="45.0032784" lon="9.2477725"><ele>264.0</ele><time>2026-04-18T06:51:39.872Z</time></trkpt><trkpt lat="45.0032002" lon="9.2477833"><ele>266.3333333333333</ele><time>2026-04-18T06:51:41.879Z</time></trkpt><trkpt lat="45.0031247" lon="9.2478116"><ele>268.6666666666667</ele><time>2026-04-18T06:51:43.89Z</time></trkpt><trkpt lat="45.0030364" lon="9.2478224"><ele>271.0</ele><time>2026-04-18T06:51:45.88Z</time></trkpt><trkpt lat="45.0029534" lon="9.2478417"><ele>273.33333333333337</ele><time>2026-04-18T06:51:47.874Z</time></trkpt><trkpt lat="45.0028616" lon="9.2478447"><ele>275.6666666666667</ele><time>2026-04-18T06:51:49.876Z</time></trkpt><trkpt lat="45.0027751" lon="9.2478402"><ele>278.0</ele><time>2026-04-18T06:51:51.879Z</time></trkpt><trkpt lat="45.0026759" lon="9.2478337"><ele>278.0</ele><time>2026-04-18T06:51:53.96Z</time></trkpt><trkpt lat="45.0025886" lon="9.2478039"><ele>278.0</ele><time>2026-04-18T06:51:55.898Z</time></trkpt><trkpt lat="45.0025093" lon="9.2477551"><ele>278.0</ele><time>2026-04-18T06:51:57.878Z</time></trkpt><trkpt lat="45.0024305" lon="9.247704"><ele>278.0</ele><time>2026-04-18T06:51:59.875Z</time></trkpt><trkpt lat="45.0023508" lon="9.2476643"><ele>278.0</ele><time>2026-04-18T06:52:01.875Z</time></trkpt><trkpt lat="45.0022635" lon="9.2476339"><ele>278.0</ele><time>2026-04-18T06:52:03.902Z</time></trkpt><trkpt lat="45.0021803" lon="9.2476052"><ele>279.6666666666667</ele><time>2026-04-18T06:52:05.89Z</time></trkpt><trkpt lat="45.0020969" lon="9.2475689"><ele>281.33333333333337</ele><time>2026-04-18T06:52:07.872Z</time></trkpt><trkpt lat="45.0020154" lon="9.247528"><ele>283.0</ele><time>2026-04-18T06:52:09.877Z</time></trkpt><trkpt lat="45.0019376" lon="9.2475082"><ele>284.6666666666667</ele><time>2026-04-18T06:52:11.883Z</time></trkpt><trkpt lat="45.0018611" lon="9.2475074"><ele>286.3333333333333</ele><time>2026-04-18T06:52:13.887Z</time></trkpt><trkpt lat="45.0017755" lon="9.2475361"><ele>288.0</ele><time>2026-04-18T06:52:15.889Z</time></trkpt><trkpt lat="45.0016935" lon="9.2475742"><ele>290.6666666666667</ele><time>2026-04-18T06:52:17.965Z</time></trkpt><trkpt lat="45.0016153" lon="9.2476275"><ele>293.3333333333333</ele><time>2026-04-18T06:52:19.948Z</time></trkpt><trkpt lat="45.0015328" lon="9.2476783"><ele>296.0</ele><time>2026-04-18T06:52:21.878Z</time></trkpt><trkpt lat="45.0014615" lon="9.2477274"><ele>298.66666666666663</ele><time>2026-04-18T06:52:23.879Z</time></trkpt><trkpt lat="45.0013903" lon="9.2477737"><ele>301.3333333333333</ele><time>2026-04-18T06:52:25.878Z</time></trkpt><trkpt lat="45.0013172" lon="9.2478254"><ele>304.0</ele><time>2026-04-18T06:52:27.883Z</time></trkpt><trkpt lat="45.0012378" lon="9.2478726"><ele>304.0</ele><time>2026-04-18T06:52:29.877Z</time></trkpt><trkpt lat="45.0011702" lon="9.2479145"><ele>304.0</ele><time>2026-04-18T06:52:31.877Z</time></trkpt><trkpt lat="45.0010943" lon="9.2479757"><ele>304.0</ele><time>2026-04-18T06:52:33.955Z</time></trkpt><trkpt lat="45.0010201" lon="9.2480277"><ele>304.0</ele><time>2026-04-18T06:52:35.89Z</time></trkpt><trkpt lat="45.0009527" lon="9.2480692"><ele>304.0</ele><time>2026-04-18T06:52:37.879Z</time></trkpt><trkpt lat="45.0008812" lon="9.2481138"><ele>304.0</ele><time>2026-04-18T06:52:39.872Z</time></trkpt><trkpt lat="45.0007941" lon="9.2481584"><ele>303.8333333333333</ele><time>2026-04-18T06:52:41.882Z</time></trkpt><trkpt lat="45.0006997" lon="9.2481824"><ele>303.66666666666663</ele><time>2026-04-18T06:52:43.944Z</time></trkpt><trkpt lat="45.000603" lon="9.2481755"><ele>303.5</ele><time>2026-04-18T06:52:45.898Z</time></trkpt><trkpt lat="45.0005212" lon="9.2481529"><ele>303.3333333333333</ele><time>2026-04-18T06:52:47.887Z</time></trkpt><trkpt lat="45.0004527" lon="9.2481282"><ele>303.1666666666667</ele><time>2026-04-18T06:52:49.882Z</time></trkpt><trkpt lat="45.0003772" lon="9.2480771"><ele>303.0</ele><time>2026-04-18T06:52:51.87Z</time></trkpt><trkpt lat="45.0003072" lon="9.2480142"><ele>303.0</ele><time>2026-04-18T06:52:53.887Z</time></trkpt><trkpt lat="45.0002603" lon="9.2479201"><ele>303.0</ele><time>2026-04-18T06:52:55.889Z</time></trkpt><trkpt lat="45.0002539" lon="9.2477857"><ele>303.0</ele><time>2026-04-18T06:52:57.879Z</time></trkpt><trkpt lat="45.0002423" lon="9.2476527"><ele>303.0</ele><time>2026-04-18T06:52:59.876Z</time></trkpt><trkpt lat="45.0002355" lon="9.247532"><ele>303.0</ele><time>2026-04-18T06:53:01.88Z</time></trkpt><trkpt lat="45.0002381" lon="9.2474116"><ele>303.0</ele><time>2026-04-18T06:53:03.887Z</time></trkpt><trkpt lat="45.0002194" lon="9.2473037"><ele>302.5</ele><time>2026-04-18T06:53:05.874Z</time></trkpt><trkpt lat="45.0001797" lon="9.2472231"><ele>302.0</ele><time>2026-04-18T06:53:07.896Z</time></trkpt><trkpt lat="45.0000901" lon="9.2471833"><ele>301.5</ele><time>2026-04-18T06:53:09.886Z</time></trkpt><trkpt lat="44.9999947" lon="9.2471799"><ele>301.0</ele><time>2026-04-18T06:53:11.887Z</time></trkpt><trkpt lat="44.9998945" lon="9.2471863"><ele>300.5</ele><time>2026-04-18T06:53:13.877Z</time></trkpt><trkpt lat="44.9998099" lon="9.2471796"><ele>300.0</ele><time>2026-04-18T06:53:15.868Z</time></trkpt><trkpt lat="44.9997093" lon="9.2471663"><ele>300.0</ele><time>2026-04-18T06:53:17.887Z</time></trkpt><trkpt lat="44.9996143" lon="9.2471727"><ele>300.0</ele><time>2026-04-18T06:53:19.878Z</time></trkpt><trkpt lat="44.9995219" lon="9.2471733"><ele>300.0</ele><time>2026-04-18T06:53:21.872Z</time></trkpt><trkpt lat="44.9994342" lon="9.2471742"><ele>300.0</ele><time>2026-04-18T06:53:23.879Z</time></trkpt><trkpt lat="44.9993465" lon="9.2471749"><ele>300.0</ele><time>2026-04-18T06:53:25.889Z</time></trkpt><trkpt lat="44.999253" lon="9.247184"><ele>300.6666666666667</ele><time>2026-04-18T06:53:27.904Z</time></trkpt><trkpt lat="44.9991612" lon="9.2471735"><ele>301.3333333333333</ele><time>2026-04-18T06:53:29.879Z</time></trkpt><trkpt lat="44.9990728" lon="9.2471668"><ele>302.0</ele><time>2026-04-18T06:53:31.877Z</time></trkpt><trkpt lat="44.9989839" lon="9.2471616"><ele>302.66666666666663</ele><time>2026-04-18T06:53:33.883Z</time></trkpt><trkpt lat="44.9989009" lon="9.2471405"><ele>303.3333333333333</ele><time>2026-04-18T06:53:35.889Z</time></trkpt><trkpt lat="44.9988129" lon="9.247128"><ele>304.0</ele><time>2026-04-18T06:53:37.872Z</time></trkpt><trkpt lat="44.9987284" lon="9.2471105"><ele>304.0</ele><time>2026-04-18T06:53:39.885Z</time></trkpt><trkpt lat="44.9986502" lon="9.2470628"><ele>304.0</ele><time>2026-04-18T06:53:41.885Z</time></trkpt><trkpt lat="44.9985677" lon="9.2470279"><ele>304.0</ele><time>2026-04-18T06:53:43.874Z</time></trkpt><trkpt lat="44.9984872" lon="9.2469862"><ele>304.0</ele><time>2026-04-18T06:53:45.873Z</time></trkpt><trkpt lat="44.9984116" lon="9.2469406"><ele>304.0</ele><time>2026-04-18T06:53:47.884Z</time></trkpt><trkpt lat="44.9983224" lon="9.2469077"><ele>304.0</ele><time>2026-04-18T06:53:49.894Z</time></trkpt><trkpt lat="44.9982275" lon="9.2468929"><ele>306.16666666666663</ele><time>2026-04-18T06:53:51.876Z</time></trkpt><trkpt lat="44.9981423" lon="9.2468706"><ele>308.3333333333333</ele><time>2026-04-18T06:53:53.886Z</time></trkpt><trkpt lat="44.9980584" lon="9.2468377"><ele>310.5</ele><time>2026-04-18T06:53:55.88Z</time></trkpt><trkpt lat="44.9979725" lon="9.2468147"><ele>312.6666666666667</ele><time>2026-04-18T06:53:57.875Z</time></trkpt><trkpt lat="44.997881" lon="9.2467785"><ele>314.83333333333337</ele><time>2026-04-18T06:53:59.865Z</time></trkpt><trkpt lat="44.9977974" lon="9.2467453"><ele>317.0</ele><time>2026-04-18T06:54:01.88Z</time></trkpt><trkpt lat="44.9977206" lon="9.2467072"><ele>317.0</ele><time>2026-04-18T06:54:03.891Z</time></trkpt><trkpt lat="44.9976407" lon="9.2466923"><ele>317.0</ele><time>2026-04-18T06:54:05.887Z</time></trkpt><trkpt lat="44.9975622" lon="9.2466902"><ele>317.0</ele><time>2026-04-18T06:54:07.88Z</time></trkpt><trkpt lat="44.9974852" lon="9.246678"><ele>317.0</ele><time>2026-04-18T06:54:09.877Z</time></trkpt><trkpt lat="44.9974097" lon="9.2466612"><ele>317.0</ele><time>2026-04-18T06:54:11.88Z</time></trkpt><trkpt lat="44.9973371" lon="9.2466462"><ele>317.0</ele><time>2026-04-18T06:54:13.87Z</time></trkpt><trkpt lat="44.9972569" lon="9.2466325"><ele>318.5</ele><time>2026-04-18T06:54:15.876Z</time></trkpt><trkpt lat="44.9971861" lon="9.2466097"><ele>320.0</ele><time>2026-04-18T06:54:17.877Z</time></trkpt><trkpt lat="44.9971181" lon="9.2465987"><ele>321.5</ele><time>2026-04-18T06:54:19.881Z</time></trkpt><trkpt lat="44.9970483" lon="9.2465398"><ele>323.0</ele><time>2026-04-18T06:54:22.878Z</time></trkpt><trkpt lat="44.9970097" lon="9.2464659"><ele>324.5</ele><time>2026-04-18T06:54:24.87Z</time></trkpt><trkpt lat="44.9969832" lon="9.2463281"><ele>326.0</ele><time>2026-04-18T06:54:27.883Z</time></trkpt><trkpt lat="44.9969817" lon="9.2462239"><ele>325.6666666666667</ele><time>2026-04-18T06:54:29.88Z</time></trkpt><trkpt lat="44.9969686" lon="9.2461246"><ele>325.33333333333337</ele><time>2026-04-18T06:54:31.871Z</time></trkpt><trkpt lat="44.9969516" lon="9.2460136"><ele>325.0</ele><time>2026-04-18T06:54:33.872Z</time></trkpt><trkpt lat="44.9969386" lon="9.2459035"><ele>324.6666666666667</ele><time>2026-04-18T06:54:35.881Z</time></trkpt><trkpt lat="44.9969313" lon="9.2458036"><ele>324.3333333333333</ele><time>2026-04-18T06:54:37.868Z</time></trkpt><trkpt lat="44.9969161" lon="9.2456938"><ele>324.0</ele><time>2026-04-18T06:54:39.87Z</time></trkpt><trkpt lat="44.9968987" lon="9.2455881"><ele>324.0</ele><time>2026-04-18T06:54:41.899Z</time></trkpt><trkpt lat="44.9968816" lon="9.2454661"><ele>324.0</ele><time>2026-04-18T06:54:43.884Z</time></trkpt><trkpt lat="44.9968611" lon="9.2453482"><ele>324.0</ele><time>2026-04-18T06:54:45.877Z</time></trkpt><trkpt lat="44.9968347" lon="9.245247"><ele>324.0</ele><time>2026-04-18T06:54:47.88Z</time></trkpt><trkpt lat="44.9968047" lon="9.2451472"><ele>324.0</ele><time>2026-04-18T06:54:49.871Z</time></trkpt><trkpt lat="44.9967393" lon="9.2450606"><ele>324.0</ele><time>2026-04-18T06:54:51.955Z</time></trkpt><trkpt lat="44.9966808" lon="9.2449541"><ele>325.2857142857143</ele><time>2026-04-18T06:54:53.901Z</time></trkpt><trkpt lat="44.9966288" lon="9.2448651"><ele>326.57142857142856</ele><time>2026-04-18T06:54:55.875Z</time></trkpt><trkpt lat="44.9965891" lon="9.2447857"><ele>327.8571428571429</ele><time>2026-04-18T06:54:57.88Z</time></trkpt><trkpt lat="44.9965499" lon="9.2446919"><ele>329.1428571428571</ele><time>2026-04-18T06:54:59.881Z</time></trkpt><trkpt lat="44.9965107" lon="9.2446022"><ele>330.4285714285714</ele><time>2026-04-18T06:55:01.872Z</time></trkpt><trkpt lat="44.9964635" lon="9.2445211"><ele>331.7142857142857</ele><time>2026-04-18T06:55:03.873Z</time></trkpt><trkpt lat="44.9964178" lon="9.2444458"><ele>333.0</ele><time>2026-04-18T06:55:05.873Z</time></trkpt><trkpt lat="44.9963656" lon="9.2443427"><ele>333.0</ele><time>2026-04-18T06:55:07.88Z</time></trkpt><trkpt lat="44.9963154" lon="9.2442352"><ele>333.0</ele><time>2026-04-18T06:55:09.879Z</time></trkpt><trkpt lat="44.9962635" lon="9.2441396"><ele>333.0</ele><time>2026-04-18T06:55:11.88Z</time></trkpt><trkpt lat="44.9962151" lon="9.2440523"><ele>333.0</ele><time>2026-04-18T06:55:13.894Z</time></trkpt><trkpt lat="44.9961674" lon="9.2439545"><ele>333.0</ele><time>2026-04-18T06:55:15.877Z</time></trkpt><trkpt lat="44.9961223" lon="9.2438428"><ele>333.0</ele><time>2026-04-18T06:55:17.875Z</time></trkpt><trkpt lat="44.9960719" lon="9.2437434"><ele>332.5714285714286</ele><time>2026-04-18T06:55:19.875Z</time></trkpt><trkpt lat="44.9960362" lon="9.2436551"><ele>332.1428571428571</ele><time>2026-04-18T06:55:21.879Z</time></trkpt><trkpt lat="44.9959924" lon="9.2435777"><ele>331.7142857142857</ele><time>2026-04-18T06:55:23.886Z</time></trkpt><trkpt lat="44.9959423" lon="9.2435042"><ele>331.28571428571433</ele><time>2026-04-18T06:55:26.879Z</time></trkpt><trkpt lat="44.9958697" lon="9.2434543"><ele>330.8571428571429</ele><time>2026-04-18T06:55:29.877Z</time></trkpt><trkpt lat="44.9958079" lon="9.2434149"><ele>330.42857142857144</ele><time>2026-04-18T06:55:31.95Z</time></trkpt><trkpt lat="44.9957381" lon="9.2433751"><ele>330.0</ele><time>2026-04-18T06:55:34.877Z</time></trkpt><trkpt lat="44.9956608" lon="9.2433275"><ele>332.1666666666667</ele><time>2026-04-18T06:55:37.87Z</time></trkpt><trkpt lat="44.9955992" lon="9.2432724"><ele>334.3333333333333</ele><time>2026-04-18T06:55:40.884Z</time></trkpt><trkpt lat="44.9955264" lon="9.2432043"><ele>336.5</ele><time>2026-04-18T06:55:43.879Z</time></trkpt><trkpt lat="44.9954589" lon="9.2431235"><ele>338.66666666666663</ele><time>2026-04-18T06:55:46.879Z</time></trkpt><trkpt lat="44.9953956" lon="9.2430325"><ele>340.8333333333333</ele><time>2026-04-18T06:55:49.905Z</time></trkpt><trkpt lat="44.9953579" lon="9.2429599"><ele>343.0</ele><time>2026-04-18T06:55:51.886Z</time></trkpt><trkpt lat="44.9953078" lon="9.2428569"><ele>343.0</ele><time>2026-04-18T06:55:54.881Z</time></trkpt><trkpt lat="44.9952562" lon="9.2427539"><ele>343.0</ele><time>2026-04-18T06:55:57.887Z</time></trkpt><trkpt lat="44.9952223" lon="9.2426719"><ele>343.0</ele><time>2026-04-18T06:55:59.897Z</time></trkpt><trkpt lat="44.9951838" lon="9.242595"><ele>343.0</ele><time>2026-04-18T06:56:01.878Z</time></trkpt><trkpt lat="44.9951359" lon="9.2424765"><ele>343.0</ele><time>2026-04-18T06:56:04.884Z</time></trkpt><trkpt lat="44.9951104" lon="9.2423873"><ele>343.0</ele><time>2026-04-18T06:56:06.881Z</time></trkpt><trkpt lat="44.9950738" lon="9.2423114"><ele>342.0</ele><time>2026-04-18T06:56:08.882Z</time></trkpt><trkpt lat="44.9950403" lon="9.2422327"><ele>341.0</ele><time>2026-04-18T06:56:10.955Z</time></trkpt><trkpt lat="44.9950044" lon="9.2421392"><ele>340.0</ele><time>2026-04-18T06:56:12.874Z</time></trkpt><trkpt lat="44.9949632" lon="9.2420197"><ele>339.0</ele><time>2026-04-18T06:56:15.886Z</time></trkpt><trkpt lat="44.9949332" lon="9.2419041"><ele>338.0</ele><time>2026-04-18T06:56:18.876Z</time></trkpt><trkpt lat="44.9949243" lon="9.241767"><ele>337.0</ele><time>2026-04-18T06:56:21.88Z</time></trkpt><trkpt lat="44.9949119" lon="9.24163"><ele>340.8571428571429</ele><time>2026-04-18T06:56:24.876Z</time></trkpt><trkpt lat="44.9948982" lon="9.2415363"><ele>344.7142857142857</ele><time>2026-04-18T06:56:26.87Z</time></trkpt><trkpt lat="44.9948786" lon="9.241444"><ele>348.57142857142856</ele><time>2026-04-18T06:56:28.878Z</time></trkpt><trkpt lat="44.9948493" lon="9.2413623"><ele>352.42857142857144</ele><time>2026-04-18T06:56:30.878Z</time></trkpt><trkpt lat="44.9948027" lon="9.2412483"><ele>356.2857142857143</ele><time>2026-04-18T06:56:33.878Z</time></trkpt><trkpt lat="44.9947691" lon="9.2411676"><ele>360.14285714285717</ele><time>2026-04-18T06:56:35.875Z</time></trkpt><trkpt lat="44.9947263" lon="9.2410847"><ele>364.0</ele><time>2026-04-18T06:56:37.874Z</time></trkpt><trkpt lat="44.9946947" lon="9.2410039"><ele>364.14285714285717</ele><time>2026-04-18T06:56:39.885Z</time></trkpt><trkpt lat="44.9946612" lon="9.2409268"><ele>364.2857142857143</ele><time>2026-04-18T06:56:41.889Z</time></trkpt><trkpt lat="44.9946225" lon="9.2408055"><ele>364.42857142857144</ele><time>2026-04-18T06:56:44.876Z</time></trkpt><trkpt lat="44.9945923" lon="9.2407196"><ele>364.57142857142856</ele><time>2026-04-18T06:56:46.881Z</time></trkpt><trkpt lat="44.9945666" lon="9.2406341"><ele>364.7142857142857</ele><time>2026-04-18T06:56:48.882Z</time></trkpt><trkpt lat="44.9945525" lon="9.2405335"><ele>364.8571428571429</ele><time>2026-04-18T06:56:50.873Z</time></trkpt><trkpt lat="44.9945397" lon="9.2404453"><ele>365.0</ele><time>2026-04-18T06:56:52.875Z</time></trkpt><trkpt lat="44.9945363" lon="9.240355"><ele>365.33333333333337</ele><time>2026-04-18T06:56:54.884Z</time></trkpt><trkpt lat="44.9945187" lon="9.2402187"><ele>365.6666666666667</ele><time>2026-04-18T06:56:57.868Z</time></trkpt><trkpt lat="44.9945039" lon="9.2401213"><ele>366.0</ele><time>2026-04-18T06:56:59.875Z</time></trkpt><trkpt lat="44.9945025" lon="9.2400221"><ele>366.3333333333333</ele><time>2026-04-18T06:57:01.885Z</time></trkpt><trkpt lat="44.9944956" lon="9.2399239"><ele>366.66666666666663</ele><time>2026-04-18T06:57:03.874Z</time></trkpt><trkpt lat="44.9944891" lon="9.2398278"><ele>367.0</ele><time>2026-04-18T06:57:05.872Z</time></trkpt><trkpt lat="44.9944767" lon="9.2397035"><ele>368.3333333333333</ele><time>2026-04-18T06:57:07.874Z</time></trkpt><trkpt lat="44.9944969" lon="9.2396051"><ele>369.66666666666663</ele><time>2026-04-18T06:57:09.891Z</time></trkpt><trkpt lat="44.9945172" lon="9.2394973"><ele>371.0</ele><time>2026-04-18T06:57:11.877Z</time></trkpt><trkpt lat="44.9945468" lon="9.2393967"><ele>372.3333333333333</ele><time>2026-04-18T06:57:13.88Z</time></trkpt><trkpt lat="44.9945815" lon="9.2393164"><ele>373.6666666666667</ele><time>2026-04-18T06:57:15.875Z</time></trkpt><trkpt lat="44.9946265" lon="9.2391936"><ele>375.0</ele><time>2026-04-18T06:57:17.883Z</time></trkpt><trkpt lat="44.994667" lon="9.2390926"><ele>375.0</ele><time>2026-04-18T06:57:19.876Z</time></trkpt><trkpt lat="44.9947026" lon="9.2389874"><ele>375.0</ele><time>2026-04-18T06:57:21.869Z</time></trkpt><trkpt lat="44.9947414" lon="9.2388866"><ele>375.0</ele><time>2026-04-18T06:57:23.882Z</time></trkpt><trkpt lat="44.9947837" lon="9.2387963"><ele>375.0</ele><time>2026-04-18T06:57:25.88Z</time></trkpt><trkpt lat="44.994824" lon="9.2387063"><ele>375.0</ele><time>2026-04-18T06:57:27.911Z</time></trkpt><trkpt lat="44.9948636" lon="9.2386193"><ele>375.0</ele><time>2026-04-18T06:57:29.878Z</time></trkpt><trkpt lat="44.9948978" lon="9.2385261"><ele>374.8571428571429</ele><time>2026-04-18T06:57:31.883Z</time></trkpt><trkpt lat="44.9949289" lon="9.238441"><ele>374.71428571428567</ele><time>2026-04-18T06:57:33.876Z</time></trkpt><trkpt lat="44.9949548" lon="9.2383497"><ele>374.57142857142856</ele><time>2026-04-18T06:57:35.876Z</time></trkpt><trkpt lat="44.9949814" lon="9.2382551"><ele>374.42857142857144</ele><time>2026-04-18T06:57:37.874Z</time></trkpt><trkpt lat="44.9950099" lon="9.2381548"><ele>374.28571428571433</ele><time>2026-04-18T06:57:39.883Z</time></trkpt><trkpt lat="44.9950175" lon="9.2380595"><ele>374.1428571428571</ele><time>2026-04-18T06:57:41.876Z</time></trkpt><trkpt lat="44.9950256" lon="9.2379668"><ele>374.0</ele><time>2026-04-18T06:57:43.906Z</time></trkpt><trkpt lat="44.9950308" lon="9.2378715"><ele>374.0</ele><time>2026-04-18T06:57:45.869Z</time></trkpt><trkpt lat="44.9950336" lon="9.2377723"><ele>374.0</ele><time>2026-04-18T06:57:47.879Z</time></trkpt><trkpt lat="44.9950285" lon="9.2376734"><ele>374.0</ele><time>2026-04-18T06:57:49.883Z</time></trkpt><trkpt lat="44.9950169" lon="9.2375761"><ele>374.0</ele><time>2026-04-18T06:57:51.877Z</time></trkpt><trkpt lat="44.9950095" lon="9.2374852"><ele>374.0</ele><time>2026-04-18T06:57:53.88Z</time></trkpt><trkpt lat="44.9950079" lon="9.2373875"><ele>374.0</ele><time>2026-04-18T06:57:55.884Z</time></trkpt><trkpt lat="44.9949876" lon="9.2372869"><ele>374.0</ele><time>2026-04-18T06:57:57.878Z</time></trkpt><trkpt lat="44.9949391" lon="9.2371841"><ele>376.33333333333337</ele><time>2026-04-18T06:57:59.876Z</time></trkpt><trkpt lat="44.9949164" lon="9.2370715"><ele>378.6666666666667</ele><time>2026-04-18T06:58:01.88Z</time></trkpt><trkpt lat="44.9948931" lon="9.2369406"><ele>381.0</ele><time>2026-04-18T06:58:04.875Z</time></trkpt><trkpt lat="44.9948915" lon="9.2368453"><ele>383.33333333333337</ele><time>2026-04-18T06:58:06.87Z</time></trkpt><trkpt lat="44.9949074" lon="9.2367282"><ele>385.6666666666667</ele><time>2026-04-18T06:58:09.878Z</time></trkpt><trkpt lat="44.9949255" lon="9.2366065"><ele>388.0</ele><time>2026-04-18T06:58:12.879Z</time></trkpt><trkpt lat="44.9949247" lon="9.2364874"><ele>388.0</ele><time>2026-04-18T06:58:15.886Z</time></trkpt><trkpt lat="44.9949142" lon="9.2363979"><ele>388.0</ele><time>2026-04-18T06:58:17.88Z</time></trkpt><trkpt lat="44.9948865" lon="9.2363033"><ele>388.0</ele><time>2026-04-18T06:58:19.889Z</time></trkpt><trkpt lat="44.9948693" lon="9.2361992"><ele>388.0</ele><time>2026-04-18T06:58:21.876Z</time></trkpt><trkpt lat="44.9948662" lon="9.2360949"><ele>388.0</ele><time>2026-04-18T06:58:23.872Z</time></trkpt><trkpt lat="44.9948606" lon="9.235999"><ele>388.0</ele><time>2026-04-18T06:58:25.873Z</time></trkpt><trkpt lat="44.9948446" lon="9.2358984"><ele>388.0</ele><time>2026-04-18T06:58:27.875Z</time></trkpt><trkpt lat="44.9948314" lon="9.2357992"><ele>388.0</ele><time>2026-04-18T06:58:29.878Z</time></trkpt><trkpt lat="44.9948196" lon="9.2356916"><ele>388.0</ele><time>2026-04-18T06:58:31.892Z</time></trkpt><trkpt lat="44.9948123" lon="9.2355843"><ele>388.0</ele><time>2026-04-18T06:58:33.888Z</time></trkpt><trkpt lat="44.9948048" lon="9.2354773"><ele>388.0</ele><time>2026-04-18T06:58:35.908Z</time></trkpt><trkpt lat="44.9947867" lon="9.2353812"><ele>388.0</ele><time>2026-04-18T06:58:37.905Z</time></trkpt><trkpt lat="44.9947658" lon="9.235282"><ele>388.0</ele><time>2026-04-18T06:58:39.891Z</time></trkpt><trkpt lat="44.9947502" lon="9.2351873"><ele>388.0</ele><time>2026-04-18T06:58:41.89Z</time></trkpt><trkpt lat="44.9947324" lon="9.2350985"><ele>388.2857142857143</ele><time>2026-04-18T06:58:43.907Z</time></trkpt><trkpt lat="44.9947228" lon="9.235007"><ele>388.5714285714286</ele><time>2026-04-18T06:58:45.907Z</time></trkpt><trkpt lat="44.9947065" lon="9.2349123"><ele>388.8571428571429</ele><time>2026-04-18T06:58:47.883Z</time></trkpt><trkpt lat="44.9946867" lon="9.2348189"><ele>389.1428571428571</ele><time>2026-04-18T06:58:49.879Z</time></trkpt><trkpt lat="44.9946455" lon="9.2347301"><ele>389.42857142857144</ele><time>2026-04-18T06:58:51.879Z</time></trkpt><trkpt lat="44.9945975" lon="9.2346537"><ele>389.7142857142857</ele><time>2026-04-18T06:58:53.87Z</time></trkpt><trkpt lat="44.9945379" lon="9.2345857"><ele>390.0</ele><time>2026-04-18T06:58:55.875Z</time></trkpt><trkpt lat="44.9944772" lon="9.2345303"><ele>389.3333333333333</ele><time>2026-04-18T06:58:57.872Z</time></trkpt><trkpt lat="44.994412" lon="9.2344911"><ele>388.66666666666663</ele><time>2026-04-18T06:58:59.888Z</time></trkpt><trkpt lat="44.9943487" lon="9.2344558"><ele>388.0</ele><time>2026-04-18T06:59:01.879Z</time></trkpt><trkpt lat="44.9942738" lon="9.2344084"><ele>387.3333333333333</ele><time>2026-04-18T06:59:04.88Z</time></trkpt><trkpt lat="44.9942022" lon="9.234365"><ele>386.66666666666663</ele><time>2026-04-18T06:59:07.87Z</time></trkpt><trkpt lat="44.9941244" lon="9.2343016"><ele>386.0</ele><time>2026-04-18T06:59:10.871Z</time></trkpt><trkpt lat="44.9940727" lon="9.2342404"><ele>385.8</ele><time>2026-04-18T06:59:12.874Z</time></trkpt><trkpt lat="44.9940192" lon="9.2341707"><ele>385.6</ele><time>2026-04-18T06:59:14.879Z</time></trkpt><trkpt lat="44.9939333" lon="9.234083"><ele>385.4</ele><time>2026-04-18T06:59:16.873Z</time></trkpt><trkpt lat="44.993842" lon="9.233955"><ele>385.2</ele><time>2026-04-18T06:59:18.884Z</time></trkpt><trkpt lat="44.9937873" lon="9.2338935"><ele>385.0</ele><time>2026-04-18T06:59:19.883Z</time></trkpt><trkpt lat="44.993737" lon="9.2338095"><ele>385.00000000000006</ele><time>2026-04-18T06:59:20.888Z</time></trkpt><trkpt lat="44.9936793" lon="9.2337222"><ele>385.0</ele><time>2026-04-18T06:59:21.879Z</time></trkpt><trkpt lat="44.9936285" lon="9.2336257"><ele>385.0</ele><time>2026-04-18T06:59:22.873Z</time></trkpt><trkpt lat="44.9935728" lon="9.2335326"><ele>385.0</ele><time>2026-04-18T06:59:23.871Z</time></trkpt><trkpt lat="44.9935186" lon="9.2334376"><ele>385.00000000000006</ele><time>2026-04-18T06:59:24.872Z</time></trkpt><trkpt lat="44.9934574" lon="9.2333428"><ele>385.0</ele><time>2026-04-18T06:59:25.88Z</time></trkpt><trkpt lat="44.9933959" lon="9.2332501"><ele>385.00000000000006</ele><time>2026-04-18T06:59:26.872Z</time></trkpt><trkpt lat="44.9933462" lon="9.2331555"><ele>385.0</ele><time>2026-04-18T06:59:27.884Z</time></trkpt><trkpt lat="44.9932919" lon="9.2330512"><ele>385.0</ele><time>2026-04-18T06:59:28.879Z</time></trkpt><trkpt lat="44.9932446" lon="9.2329476"><ele>385.0</ele><time>2026-04-18T06:59:29.881Z</time></trkpt><trkpt lat="44.9931887" lon="9.2328531"><ele>385.00000000000006</ele><time>2026-04-18T06:59:30.88Z</time></trkpt><trkpt lat="44.9931304" lon="9.2327566"><ele>385.0</ele><time>2026-04-18T06:59:31.889Z</time></trkpt><trkpt lat="44.9930733" lon="9.2326648"><ele>384.6666666666667</ele><time>2026-04-18T06:59:32.874Z</time></trkpt><trkpt lat="44.9930154" lon="9.2325808"><ele>384.33333333333337</ele><time>2026-04-18T06:59:33.881Z</time></trkpt><trkpt lat="44.9929511" lon="9.232498"><ele>384.0</ele><time>2026-04-18T06:59:34.877Z</time></trkpt><trkpt lat="44.9928882" lon="9.2324175"><ele>383.6666666666667</ele><time>2026-04-18T06:59:35.875Z</time></trkpt><trkpt lat="44.992823" lon="9.2323512"><ele>383.33333333333337</ele><time>2026-04-18T06:59:36.881Z</time></trkpt><trkpt lat="44.9927561" lon="9.2322846"><ele>383.0</ele><time>2026-04-18T06:59:37.878Z</time></trkpt><trkpt lat="44.9926931" lon="9.2322314"><ele>382.0</ele><time>2026-04-18T06:59:38.883Z</time></trkpt><trkpt lat="44.9926255" lon="9.2321809"><ele>381.0</ele><time>2026-04-18T06:59:39.877Z</time></trkpt><trkpt lat="44.9925513" lon="9.2321389"><ele>380.0</ele><time>2026-04-18T06:59:40.888Z</time></trkpt><trkpt lat="44.9924681" lon="9.2321003"><ele>379.0</ele><time>2026-04-18T06:59:41.882Z</time></trkpt><trkpt lat="44.9923974" lon="9.2320656"><ele>378.0</ele><time>2026-04-18T06:59:42.871Z</time></trkpt><trkpt lat="44.992334" lon="9.2320383"><ele>377.0</ele><time>2026-04-18T06:59:43.877Z</time></trkpt><trkpt lat="44.9922726" lon="9.2320131"><ele>376.0</ele><time>2026-04-18T06:59:44.871Z</time></trkpt><trkpt lat="44.9921588" lon="9.2319464"><ele>376.0</ele><time>2026-04-18T06:59:46.881Z</time></trkpt><trkpt lat="44.9920662" lon="9.2318671"><ele>376.0</ele><time>2026-04-18T06:59:48.874Z</time></trkpt><trkpt lat="44.9919785" lon="9.2317892"><ele>376.0</ele><time>2026-04-18T06:59:50.87Z</time></trkpt><trkpt lat="44.9919011" lon="9.2317044"><ele>376.0</ele><time>2026-04-18T06:59:52.874Z</time></trkpt><trkpt lat="44.9918392" lon="9.2316342"><ele>376.0</ele><time>2026-04-18T06:59:54.871Z</time></trkpt><trkpt lat="44.9917543" lon="9.2315688"><ele>376.0</ele><time>2026-04-18T06:59:56.87Z</time></trkpt><trkpt lat="44.991681" lon="9.2315184"><ele>376.0</ele><time>2026-04-18T06:59:58.899Z</time></trkpt><trkpt lat="44.9915966" lon="9.2314777"><ele>376.0</ele><time>2026-04-18T07:00:00.883Z</time></trkpt><trkpt lat="44.9915222" lon="9.2314451"><ele>376.0</ele><time>2026-04-18T07:00:02.899Z</time></trkpt><trkpt lat="44.9914446" lon="9.2314269"><ele>376.0</ele><time>2026-04-18T07:00:04.901Z</time></trkpt><trkpt lat="44.9913599" lon="9.2314155"><ele>376.0</ele><time>2026-04-18T07:00:06.894Z</time></trkpt><trkpt lat="44.9912714" lon="9.2314019"><ele>376.16666666666663</ele><time>2026-04-18T07:00:08.878Z</time></trkpt><trkpt lat="44.9911969" lon="9.2313516"><ele>376.3333333333333</ele><time>2026-04-18T07:00:10.877Z</time></trkpt><trkpt lat="44.9911187" lon="9.2313008"><ele>376.5</ele><time>2026-04-18T07:00:12.865Z</time></trkpt><trkpt lat="44.9910345" lon="9.2312299"><ele>376.6666666666667</ele><time>2026-04-18T07:00:14.874Z</time></trkpt><trkpt lat="44.9909504" lon="9.2311648"><ele>376.83333333333337</ele><time>2026-04-18T07:00:16.871Z</time></trkpt><trkpt lat="44.9908791" lon="9.2310958"><ele>377.0</ele><time>2026-04-18T07:00:18.878Z</time></trkpt><trkpt lat="44.9908031" lon="9.2310116"><ele>377.0</ele><time>2026-04-18T07:00:20.881Z</time></trkpt><trkpt lat="44.9907303" lon="9.2309253"><ele>377.0</ele><time>2026-04-18T07:00:22.889Z</time></trkpt><trkpt lat="44.9906599" lon="9.2308397"><ele>377.0</ele><time>2026-04-18T07:00:24.949Z</time></trkpt><trkpt lat="44.9905924" lon="9.2307481"><ele>377.0</ele><time>2026-04-18T07:00:26.876Z</time></trkpt><trkpt lat="44.9905119" lon="9.2306695"><ele>377.0</ele><time>2026-04-18T07:00:28.879Z</time></trkpt><trkpt lat="44.9904353" lon="9.2305909"><ele>375.5</ele><time>2026-04-18T07:00:30.883Z</time></trkpt><trkpt lat="44.9903627" lon="9.2305104"><ele>374.0</ele><time>2026-04-18T07:00:32.871Z</time></trkpt><trkpt lat="44.9902865" lon="9.2304341"><ele>372.5</ele><time>2026-04-18T07:00:34.877Z</time></trkpt><trkpt lat="44.9902251" lon="9.2303593"><ele>371.0</ele><time>2026-04-18T07:00:36.879Z</time></trkpt><trkpt lat="44.9901555" lon="9.2302805"><ele>369.5</ele><time>2026-04-18T07:00:38.876Z</time></trkpt><trkpt lat="44.9900845" lon="9.2301965"><ele>368.0</ele><time>2026-04-18T07:00:40.881Z</time></trkpt><trkpt lat="44.9900151" lon="9.2301258"><ele>367.5</ele><time>2026-04-18T07:00:42.885Z</time></trkpt><trkpt lat="44.9899497" lon="9.2300426"><ele>367.0</ele><time>2026-04-18T07:00:44.879Z</time></trkpt><trkpt lat="44.9898923" lon="9.2299854"><ele>366.5</ele><time>2026-04-18T07:00:46.875Z</time></trkpt><trkpt lat="44.989832" lon="9.2299307"><ele>366.0</ele><time>2026-04-18T07:00:48.874Z</time></trkpt><trkpt lat="44.989772" lon="9.2298799"><ele>365.5</ele><time>2026-04-18T07:00:50.879Z</time></trkpt><trkpt lat="44.989704" lon="9.2298168"><ele>365.0</ele><time>2026-04-18T07:00:52.879Z</time></trkpt><trkpt lat="44.989627" lon="9.2297661"><ele>365.0</ele><time>2026-04-18T07:00:54.879Z</time></trkpt><trkpt lat="44.9895526" lon="9.2297261"><ele>365.0</ele><time>2026-04-18T07:00:56.88Z</time></trkpt><trkpt lat="44.9894891" lon="9.2296867"><ele>365.0</ele><time>2026-04-18T07:00:58.879Z</time></trkpt><trkpt lat="44.9894158" lon="9.2296361"><ele>365.0</ele><time>2026-04-18T07:01:00.89Z</time></trkpt><trkpt lat="44.9893509" lon="9.2295862"><ele>365.0</ele><time>2026-04-18T07:01:02.877Z</time></trkpt><trkpt lat="44.9892847" lon="9.229542"><ele>365.0</ele><time>2026-04-18T07:01:04.879Z</time></trkpt><trkpt lat="44.989213" lon="9.2294994"><ele>367.6</ele><time>2026-04-18T07:01:06.875Z</time></trkpt><trkpt lat="44.9891309" lon="9.2294386"><ele>370.2</ele><time>2026-04-18T07:01:08.877Z</time></trkpt><trkpt lat="44.9890508" lon="9.229381"><ele>372.79999999999995</ele><time>2026-04-18T07:01:10.882Z</time></trkpt><trkpt lat="44.9889612" lon="9.2293208"><ele>375.4</ele><time>2026-04-18T07:01:12.878Z</time></trkpt><trkpt lat="44.9888709" lon="9.2292575"><ele>378.0</ele><time>2026-04-18T07:01:14.874Z</time></trkpt><trkpt lat="44.9887742" lon="9.2291839"><ele>378.0</ele><time>2026-04-18T07:01:16.884Z</time></trkpt><trkpt lat="44.9886779" lon="9.2291095"><ele>378.0</ele><time>2026-04-18T07:01:18.888Z</time></trkpt><trkpt lat="44.9885732" lon="9.2290413"><ele>378.0</ele><time>2026-04-18T07:01:20.882Z</time></trkpt><trkpt lat="44.988453" lon="9.2289953"><ele>378.0</ele><time>2026-04-18T07:01:22.877Z</time></trkpt><trkpt lat="44.988339" lon="9.2289499"><ele>376.0</ele><time>2026-04-18T07:01:24.947Z</time></trkpt><trkpt lat="44.9882761" lon="9.2289261"><ele>374.0</ele><time>2026-04-18T07:01:25.884Z</time></trkpt><trkpt lat="44.9882118" lon="9.2289035"><ele>372.0</ele><time>2026-04-18T07:01:26.886Z</time></trkpt><trkpt lat="44.9880979" lon="9.2288616"><ele>370.0</ele><time>2026-04-18T07:01:28.876Z</time></trkpt><trkpt lat="44.987986" lon="9.2288361"><ele>368.0</ele><time>2026-04-18T07:01:30.881Z</time></trkpt><trkpt lat="44.9878668" lon="9.2288452"><ele>368.0</ele><time>2026-04-18T07:01:32.871Z</time></trkpt><trkpt lat="44.9877532" lon="9.2288601"><ele>368.0</ele><time>2026-04-18T07:01:34.873Z</time></trkpt><trkpt lat="44.9876425" lon="9.2288611"><ele>368.0</ele><time>2026-04-18T07:01:36.874Z</time></trkpt><trkpt lat="44.9875277" lon="9.2288647"><ele>368.0</ele><time>2026-04-18T07:01:38.954Z</time></trkpt><trkpt lat="44.9874142" lon="9.2288751"><ele>367.59999999999997</ele><time>2026-04-18T07:01:40.869Z</time></trkpt><trkpt lat="44.9873009" lon="9.2288816"><ele>367.2</ele><time>2026-04-18T07:01:42.876Z</time></trkpt><trkpt lat="44.9871804" lon="9.2288853"><ele>366.8</ele><time>2026-04-18T07:01:44.899Z</time></trkpt><trkpt lat="44.9871168" lon="9.2288874"><ele>366.4</ele><time>2026-04-18T07:01:45.879Z</time></trkpt><trkpt lat="44.9870005" lon="9.2289025"><ele>366.0</ele><time>2026-04-18T07:01:47.88Z</time></trkpt><trkpt lat="44.9869344" lon="9.2289159"><ele>366.0</ele><time>2026-04-18T07:01:48.88Z</time></trkpt><trkpt lat="44.9868114" lon="9.2289258"><ele>366.0</ele><time>2026-04-18T07:01:50.958Z</time></trkpt><trkpt lat="44.9866855" lon="9.2289362"><ele>366.0</ele><time>2026-04-18T07:01:52.88Z</time></trkpt><trkpt lat="44.9866209" lon="9.2289492"><ele>366.0</ele><time>2026-04-18T07:01:53.882Z</time></trkpt><trkpt lat="44.9865582" lon="9.2289581"><ele>366.0</ele><time>2026-04-18T07:01:54.874Z</time></trkpt><trkpt lat="44.9864416" lon="9.2289605"><ele>366.6</ele><time>2026-04-18T07:01:56.88Z</time></trkpt><trkpt lat="44.9863342" lon="9.2289663"><ele>367.20000000000005</ele><time>2026-04-18T07:01:58.882Z</time></trkpt><trkpt lat="44.9862423" lon="9.2289676"><ele>367.79999999999995</ele><time>2026-04-18T07:02:00.882Z</time></trkpt><trkpt lat="44.9861454" lon="9.2289775"><ele>368.4</ele><time>2026-04-18T07:02:02.877Z</time></trkpt><trkpt lat="44.9860428" lon="9.2289693"><ele>369.0</ele><time>2026-04-18T07:02:04.884Z</time></trkpt><trkpt lat="44.985935" lon="9.2289568"><ele>367.4</ele><time>2026-04-18T07:02:06.879Z</time></trkpt><trkpt lat="44.9858352" lon="9.2289579"><ele>365.79999999999995</ele><time>2026-04-18T07:02:08.881Z</time></trkpt><trkpt lat="44.9857377" lon="9.22895"><ele>364.20000000000005</ele><time>2026-04-18T07:02:10.883Z</time></trkpt><trkpt lat="44.9856322" lon="9.2289232"><ele>362.6</ele><time>2026-04-18T07:02:12.879Z</time></trkpt><trkpt lat="44.9855311" lon="9.228899"><ele>361.0</ele><time>2026-04-18T07:02:14.881Z</time></trkpt><trkpt lat="44.9854401" lon="9.2288512"><ele>361.0</ele><time>2026-04-18T07:02:16.88Z</time></trkpt><trkpt lat="44.9853478" lon="9.2287994"><ele>361.0</ele><time>2026-04-18T07:02:18.876Z</time></trkpt><trkpt lat="44.9852614" lon="9.2287341"><ele>361.0</ele><time>2026-04-18T07:02:20.87Z</time></trkpt><trkpt lat="44.9851772" lon="9.2286551"><ele>361.0</ele><time>2026-04-18T07:02:22.878Z</time></trkpt><trkpt lat="44.9850885" lon="9.2285801"><ele>361.0</ele><time>2026-04-18T07:02:24.877Z</time></trkpt><trkpt lat="44.9850298" lon="9.2285462"><ele>360.8</ele><time>2026-04-18T07:02:25.878Z</time></trkpt><trkpt lat="44.9849391" lon="9.2284715"><ele>360.6</ele><time>2026-04-18T07:02:27.876Z</time></trkpt><trkpt lat="44.9848466" lon="9.228383"><ele>360.4</ele><time>2026-04-18T07:02:29.904Z</time></trkpt><trkpt lat="44.9847747" lon="9.2282775"><ele>360.2</ele><time>2026-04-18T07:02:31.868Z</time></trkpt><trkpt lat="44.9847099" lon="9.228169"><ele>360.0</ele><time>2026-04-18T07:02:33.868Z</time></trkpt><trkpt lat="44.9846475" lon="9.2280557"><ele>360.0</ele><time>2026-04-18T07:02:35.874Z</time></trkpt><trkpt lat="44.9845831" lon="9.2279471"><ele>360.0</ele><time>2026-04-18T07:02:37.877Z</time></trkpt><trkpt lat="44.9845195" lon="9.2278406"><ele>360.0</ele><time>2026-04-18T07:02:39.878Z</time></trkpt><trkpt lat="44.9844531" lon="9.227732"><ele>360.0</ele><time>2026-04-18T07:02:41.96Z</time></trkpt><trkpt lat="44.9843806" lon="9.2276272"><ele>360.0</ele><time>2026-04-18T07:02:43.89Z</time></trkpt><trkpt lat="44.9843091" lon="9.2275296"><ele>360.0</ele><time>2026-04-18T07:02:45.874Z</time></trkpt><trkpt lat="44.9842467" lon="9.2274303"><ele>360.0</ele><time>2026-04-18T07:02:47.879Z</time></trkpt><trkpt lat="44.9841799" lon="9.2273343"><ele>360.0</ele><time>2026-04-18T07:02:49.879Z</time></trkpt><trkpt lat="44.9841141" lon="9.2272409"><ele>360.0</ele><time>2026-04-18T07:02:51.881Z</time></trkpt><trkpt lat="44.9840457" lon="9.2271472"><ele>360.0</ele><time>2026-04-18T07:02:53.875Z</time></trkpt><trkpt lat="44.9839608" lon="9.2270528"><ele>360.8</ele><time>2026-04-18T07:02:55.881Z</time></trkpt><trkpt lat="44.9838749" lon="9.2269688"><ele>361.6</ele><time>2026-04-18T07:02:57.874Z</time></trkpt><trkpt lat="44.9837973" lon="9.2268783"><ele>362.4</ele><time>2026-04-18T07:02:59.878Z</time></trkpt><trkpt lat="44.9837257" lon="9.2267988"><ele>363.2</ele><time>2026-04-18T07:03:01.88Z</time></trkpt><trkpt lat="44.9836549" lon="9.2267166"><ele>364.0</ele><time>2026-04-18T07:03:03.905Z</time></trkpt><trkpt lat="44.9835831" lon="9.2266464"><ele>364.0</ele><time>2026-04-18T07:03:05.87Z</time></trkpt><trkpt lat="44.9835168" lon="9.2265771"><ele>364.0</ele><time>2026-04-18T07:03:07.89Z</time></trkpt><trkpt lat="44.9834373" lon="9.2265301"><ele>364.0</ele><time>2026-04-18T07:03:09.882Z</time></trkpt><trkpt lat="44.9833459" lon="9.2265047"><ele>364.0</ele><time>2026-04-18T07:03:11.875Z</time></trkpt><trkpt lat="44.9832534" lon="9.22649"><ele>364.0</ele><time>2026-04-18T07:03:13.878Z</time></trkpt><trkpt lat="44.9831614" lon="9.2264824"><ele>364.0</ele><time>2026-04-18T07:03:15.949Z</time></trkpt><trkpt lat="44.9830665" lon="9.226483"><ele>364.2</ele><time>2026-04-18T07:03:17.876Z</time></trkpt><trkpt lat="44.9829728" lon="9.226475"><ele>364.4</ele><time>2026-04-18T07:03:19.876Z</time></trkpt><trkpt lat="44.9828805" lon="9.2264707"><ele>364.6</ele><time>2026-04-18T07:03:21.89Z</time></trkpt><trkpt lat="44.9827819" lon="9.2264794"><ele>364.8</ele><time>2026-04-18T07:03:23.893Z</time></trkpt><trkpt lat="44.9826832" lon="9.2264797"><ele>365.0</ele><time>2026-04-18T07:03:25.887Z</time></trkpt><trkpt lat="44.9825907" lon="9.2264704"><ele>365.0</ele><time>2026-04-18T07:03:27.874Z</time></trkpt><trkpt lat="44.9824887" lon="9.2264671"><ele>365.0</ele><time>2026-04-18T07:03:29.969Z</time></trkpt><trkpt lat="44.982388" lon="9.2264515"><ele>365.0</ele><time>2026-04-18T07:03:31.884Z</time></trkpt><trkpt lat="44.9822982" lon="9.2264264"><ele>365.0</ele><time>2026-04-18T07:03:33.872Z</time></trkpt><trkpt lat="44.9822053" lon="9.2263846"><ele>365.0</ele><time>2026-04-18T07:03:35.879Z</time></trkpt><trkpt lat="44.9821153" lon="9.2263322"><ele>365.0</ele><time>2026-04-18T07:03:37.878Z</time></trkpt><trkpt lat="44.9820308" lon="9.2262779"><ele>365.0</ele><time>2026-04-18T07:03:39.889Z</time></trkpt><trkpt lat="44.9819419" lon="9.2262141"><ele>365.0</ele><time>2026-04-18T07:03:41.89Z</time></trkpt><trkpt lat="44.9818649" lon="9.2261375"><ele>365.0</ele><time>2026-04-18T07:03:43.878Z</time></trkpt><trkpt lat="44.9817927" lon="9.2260532"><ele>365.0</ele><time>2026-04-18T07:03:45.874Z</time></trkpt><trkpt lat="44.9817183" lon="9.2259674"><ele>364.6</ele><time>2026-04-18T07:03:47.889Z</time></trkpt><trkpt lat="44.9816439" lon="9.2258749"><ele>364.2</ele><time>2026-04-18T07:03:49.889Z</time></trkpt><trkpt lat="44.9815766" lon="9.2257868"><ele>363.79999999999995</ele><time>2026-04-18T07:03:51.879Z</time></trkpt><trkpt lat="44.9815045" lon="9.2256778"><ele>363.4</ele><time>2026-04-18T07:03:53.879Z</time></trkpt><trkpt lat="44.9814406" lon="9.2255796"><ele>363.0</ele><time>2026-04-18T07:03:55.871Z</time></trkpt><trkpt lat="44.9813655" lon="9.2254874"><ele>363.0</ele><time>2026-04-18T07:03:57.883Z</time></trkpt><trkpt lat="44.9812892" lon="9.2253958"><ele>363.0</ele><time>2026-04-18T07:03:59.892Z</time></trkpt><trkpt lat="44.9812138" lon="9.2252961"><ele>363.0</ele><time>2026-04-18T07:04:01.876Z</time></trkpt><trkpt lat="44.9811357" lon="9.2251948"><ele>363.0</ele><time>2026-04-18T07:04:03.886Z</time></trkpt><trkpt lat="44.9810625" lon="9.2251126"><ele>363.0</ele><time>2026-04-18T07:04:05.879Z</time></trkpt><trkpt lat="44.9809872" lon="9.2250251"><ele>363.0</ele><time>2026-04-18T07:04:07.876Z</time></trkpt><trkpt lat="44.9809097" lon="9.2249379"><ele>363.0</ele><time>2026-04-18T07:04:09.876Z</time></trkpt><trkpt lat="44.9808331" lon="9.2248366"><ele>363.0</ele><time>2026-04-18T07:04:11.89Z</time></trkpt><trkpt lat="44.9807487" lon="9.2247425"><ele>363.0</ele><time>2026-04-18T07:04:13.876Z</time></trkpt><trkpt lat="44.9806663" lon="9.2246867"><ele>363.0</ele><time>2026-04-18T07:04:15.883Z</time></trkpt><trkpt lat="44.9805711" lon="9.2246361"><ele>364.59999999999997</ele><time>2026-04-18T07:04:17.882Z</time></trkpt><trkpt lat="44.9804899" lon="9.2245812"><ele>366.2</ele><time>2026-04-18T07:04:19.874Z</time></trkpt><trkpt lat="44.9803967" lon="9.2245336"><ele>367.8</ele><time>2026-04-18T07:04:21.884Z</time></trkpt><trkpt lat="44.9803134" lon="9.224474"><ele>369.4</ele><time>2026-04-18T07:04:23.881Z</time></trkpt><trkpt lat="44.98023" lon="9.2244203"><ele>371.0</ele><time>2026-04-18T07:04:25.88Z</time></trkpt><trkpt lat="44.9801562" lon="9.2243803"><ele>371.0</ele><time>2026-04-18T07:04:27.885Z</time></trkpt><trkpt lat="44.9800734" lon="9.2243313"><ele>371.0</ele><time>2026-04-18T07:04:29.953Z</time></trkpt><trkpt lat="44.9799874" lon="9.2242785"><ele>371.0</ele><time>2026-04-18T07:04:31.948Z</time></trkpt><trkpt lat="44.9799059" lon="9.2242446"><ele>371.0</ele><time>2026-04-18T07:04:33.876Z</time></trkpt><trkpt lat="44.9798273" lon="9.2241919"><ele>371.0</ele><time>2026-04-18T07:04:35.879Z</time></trkpt><trkpt lat="44.9797418" lon="9.2241395"><ele>371.0</ele><time>2026-04-18T07:04:37.869Z</time></trkpt><trkpt lat="44.9796585" lon="9.2240949"><ele>370.83333333333337</ele><time>2026-04-18T07:04:39.886Z</time></trkpt><trkpt lat="44.9795675" lon="9.2240516"><ele>370.6666666666667</ele><time>2026-04-18T07:04:41.891Z</time></trkpt><trkpt lat="44.9794898" lon="9.224008"><ele>370.5</ele><time>2026-04-18T07:04:43.878Z</time></trkpt><trkpt lat="44.9794068" lon="9.2239357"><ele>370.3333333333333</ele><time>2026-04-18T07:04:45.884Z</time></trkpt><trkpt lat="44.9793292" lon="9.2238897"><ele>370.16666666666663</ele><time>2026-04-18T07:04:47.885Z</time></trkpt><trkpt lat="44.9792496" lon="9.2238467"><ele>370.0</ele><time>2026-04-18T07:04:49.9Z</time></trkpt><trkpt lat="44.9791669" lon="9.2238026"><ele>373.0</ele><time>2026-04-18T07:04:51.874Z</time></trkpt><trkpt lat="44.9790834" lon="9.2237539"><ele>376.0</ele><time>2026-04-18T07:04:53.885Z</time></trkpt><trkpt lat="44.9790035" lon="9.2237129"><ele>379.0</ele><time>2026-04-18T07:04:55.884Z</time></trkpt><trkpt lat="44.9789202" lon="9.2236439"><ele>382.0</ele><time>2026-04-18T07:04:57.881Z</time></trkpt><trkpt lat="44.9788442" lon="9.2235603"><ele>385.0</ele><time>2026-04-18T07:04:59.879Z</time></trkpt><trkpt lat="44.9787729" lon="9.2234811"><ele>385.00000000000006</ele><time>2026-04-18T07:05:01.875Z</time></trkpt><trkpt lat="44.9786982" lon="9.2234088"><ele>385.0</ele><time>2026-04-18T07:05:03.871Z</time></trkpt><trkpt lat="44.9786272" lon="9.2233425"><ele>385.0</ele><time>2026-04-18T07:05:05.882Z</time></trkpt><trkpt lat="44.9785549" lon="9.2232934"><ele>385.0</ele><time>2026-04-18T07:05:07.872Z</time></trkpt><trkpt lat="44.9784785" lon="9.2232512"><ele>385.00000000000006</ele><time>2026-04-18T07:05:09.883Z</time></trkpt><trkpt lat="44.9783958" lon="9.2232141"><ele>385.0</ele><time>2026-04-18T07:05:11.877Z</time></trkpt><trkpt lat="44.9783016" lon="9.2231831"><ele>386.8</ele><time>2026-04-18T07:05:13.876Z</time></trkpt><trkpt lat="44.978204" lon="9.2231577"><ele>388.6</ele><time>2026-04-18T07:05:15.883Z</time></trkpt><trkpt lat="44.9781065" lon="9.223122"><ele>390.4</ele><time>2026-04-18T07:05:17.879Z</time></trkpt><trkpt lat="44.9780227" lon="9.2230846"><ele>392.2</ele><time>2026-04-18T07:05:19.886Z</time></trkpt><trkpt lat="44.9779267" lon="9.223052"><ele>394.0</ele><time>2026-04-18T07:05:21.874Z</time></trkpt><trkpt lat="44.9778334" lon="9.2230148"><ele>394.0</ele><time>2026-04-18T07:05:23.884Z</time></trkpt><trkpt lat="44.9777395" lon="9.2229945"><ele>394.0</ele><time>2026-04-18T07:05:25.879Z</time></trkpt><trkpt lat="44.9776532" lon="9.2229716"><ele>394.0</ele><time>2026-04-18T07:05:27.89Z</time></trkpt><trkpt lat="44.9775649" lon="9.2229407"><ele>394.0</ele><time>2026-04-18T07:05:29.883Z</time></trkpt><trkpt lat="44.9774738" lon="9.2229098"><ele>394.0</ele><time>2026-04-18T07:05:31.876Z</time></trkpt><trkpt lat="44.9773814" lon="9.2228775"><ele>395.0</ele><time>2026-04-18T07:05:33.865Z</time></trkpt><trkpt lat="44.9772899" lon="9.2228489"><ele>396.0</ele><time>2026-04-18T07:05:35.875Z</time></trkpt><trkpt lat="44.977203" lon="9.2227956"><ele>397.0</ele><time>2026-04-18T07:05:37.876Z</time></trkpt><trkpt lat="44.9771208" lon="9.2227329"><ele>398.0</ele><time>2026-04-18T07:05:39.875Z</time></trkpt><trkpt lat="44.9770579" lon="9.2226498"><ele>399.0</ele><time>2026-04-18T07:05:41.878Z</time></trkpt><trkpt lat="44.9770039" lon="9.2225619"><ele>399.0</ele><time>2026-04-18T07:05:43.898Z</time></trkpt><trkpt lat="44.9769586" lon="9.2224547"><ele>399.0</ele><time>2026-04-18T07:05:45.878Z</time></trkpt><trkpt lat="44.9769315" lon="9.2223227"><ele>399.0</ele><time>2026-04-18T07:05:47.868Z</time></trkpt><trkpt lat="44.9769076" lon="9.2222007"><ele>399.0</ele><time>2026-04-18T07:05:49.891Z</time></trkpt><trkpt lat="44.9768926" lon="9.2220725"><ele>399.0</ele><time>2026-04-18T07:05:51.875Z</time></trkpt><trkpt lat="44.9768956" lon="9.2219608"><ele>399.0</ele><time>2026-04-18T07:05:53.877Z</time></trkpt><trkpt lat="44.9769001" lon="9.221844"><ele>398.0</ele><time>2026-04-18T07:05:55.87Z</time></trkpt><trkpt lat="44.9768995" lon="9.2217358"><ele>397.0</ele><time>2026-04-18T07:05:57.875Z</time></trkpt><trkpt lat="44.976903" lon="9.2216073"><ele>396.0</ele><time>2026-04-18T07:05:59.865Z</time></trkpt><trkpt lat="44.9769028" lon="9.2214821"><ele>395.0</ele><time>2026-04-18T07:06:01.881Z</time></trkpt><trkpt lat="44.9769049" lon="9.2213343"><ele>394.0</ele><time>2026-04-18T07:06:03.886Z</time></trkpt><trkpt lat="44.9769016" lon="9.2211799"><ele>393.75</ele><time>2026-04-18T07:06:05.869Z</time></trkpt><trkpt lat="44.9768927" lon="9.2210275"><ele>393.5</ele><time>2026-04-18T07:06:07.879Z</time></trkpt><trkpt lat="44.9768814" lon="9.2208628"><ele>393.25</ele><time>2026-04-18T07:06:09.885Z</time></trkpt><trkpt lat="44.976878" lon="9.2207086"><ele>393.0</ele><time>2026-04-18T07:06:11.892Z</time></trkpt><trkpt lat="44.9768768" lon="9.2205345"><ele>392.6666666666667</ele><time>2026-04-18T07:06:13.883Z</time></trkpt><trkpt lat="44.9768747" lon="9.2203539"><ele>392.33333333333337</ele><time>2026-04-18T07:06:15.87Z</time></trkpt><trkpt lat="44.976872" lon="9.2202632"><ele>392.0</ele><time>2026-04-18T07:06:16.878Z</time></trkpt><trkpt lat="44.9768724" lon="9.2201667"><ele>391.6666666666667</ele><time>2026-04-18T07:06:17.875Z</time></trkpt><trkpt lat="44.9768721" lon="9.2200754"><ele>391.33333333333337</ele><time>2026-04-18T07:06:18.879Z</time></trkpt><trkpt lat="44.9768712" lon="9.2199839"><ele>391.0</ele><time>2026-04-18T07:06:19.881Z</time></trkpt><trkpt lat="44.9768638" lon="9.2198048"><ele>390.71428571428567</ele><time>2026-04-18T07:06:21.946Z</time></trkpt><trkpt lat="44.9768583" lon="9.2196988"><ele>390.42857142857144</ele><time>2026-04-18T07:06:22.88Z</time></trkpt><trkpt lat="44.9768549" lon="9.2196019"><ele>390.1428571428571</ele><time>2026-04-18T07:06:23.889Z</time></trkpt><trkpt lat="44.9768507" lon="9.2194963"><ele>389.85714285714283</ele><time>2026-04-18T07:06:24.872Z</time></trkpt><trkpt lat="44.9768501" lon="9.2193948"><ele>389.57142857142856</ele><time>2026-04-18T07:06:25.875Z</time></trkpt><trkpt lat="44.9768492" lon="9.2192876"><ele>389.2857142857143</ele><time>2026-04-18T07:06:26.88Z</time></trkpt><trkpt lat="44.9768464" lon="9.2191773"><ele>389.0</ele><time>2026-04-18T07:06:27.879Z</time></trkpt><trkpt lat="44.9768452" lon="9.2190758"><ele>388.8333333333333</ele><time>2026-04-18T07:06:28.894Z</time></trkpt><trkpt lat="44.9768408" lon="9.2189717"><ele>388.66666666666663</ele><time>2026-04-18T07:06:29.873Z</time></trkpt><trkpt lat="44.9768434" lon="9.2188688"><ele>388.5</ele><time>2026-04-18T07:06:30.873Z</time></trkpt><trkpt lat="44.976844" lon="9.2187721"><ele>388.33333333333337</ele><time>2026-04-18T07:06:31.881Z</time></trkpt><trkpt lat="44.9768485" lon="9.2186774"><ele>388.1666666666667</ele><time>2026-04-18T07:06:32.871Z</time></trkpt><trkpt lat="44.9768751" lon="9.2185065"><ele>388.0</ele><time>2026-04-18T07:06:34.874Z</time></trkpt><trkpt lat="44.9769107" lon="9.2183454"><ele>388.0</ele><time>2026-04-18T07:06:36.875Z</time></trkpt><trkpt lat="44.9769445" lon="9.2181886"><ele>388.0</ele><time>2026-04-18T07:06:38.888Z</time></trkpt><trkpt lat="44.9769807" lon="9.2180367"><ele>388.0</ele><time>2026-04-18T07:06:40.874Z</time></trkpt><trkpt lat="44.9770104" lon="9.2178898"><ele>388.0</ele><time>2026-04-18T07:06:42.886Z</time></trkpt><trkpt lat="44.9770412" lon="9.2177499"><ele>388.0</ele><time>2026-04-18T07:06:44.891Z</time></trkpt><trkpt lat="44.977068" lon="9.2176036"><ele>387.79999999999995</ele><time>2026-04-18T07:06:46.871Z</time></trkpt><trkpt lat="44.9770906" lon="9.2174601"><ele>387.6</ele><time>2026-04-18T07:06:48.88Z</time></trkpt><trkpt lat="44.9771194" lon="9.2173092"><ele>387.4</ele><time>2026-04-18T07:06:50.874Z</time></trkpt><trkpt lat="44.9771506" lon="9.2171882"><ele>387.20000000000005</ele><time>2026-04-18T07:06:52.883Z</time></trkpt><trkpt lat="44.9771798" lon="9.2170589"><ele>387.0</ele><time>2026-04-18T07:06:54.881Z</time></trkpt><trkpt lat="44.9772199" lon="9.2169281"><ele>386.8</ele><time>2026-04-18T07:06:56.878Z</time></trkpt><trkpt lat="44.9772687" lon="9.2167991"><ele>386.6</ele><time>2026-04-18T07:06:58.879Z</time></trkpt><trkpt lat="44.9773225" lon="9.2166665"><ele>386.40000000000003</ele><time>2026-04-18T07:07:00.873Z</time></trkpt><trkpt lat="44.9773773" lon="9.2165412"><ele>386.20000000000005</ele><time>2026-04-18T07:07:02.872Z</time></trkpt><trkpt lat="44.9774312" lon="9.2164189"><ele>386.0</ele><time>2026-04-18T07:07:04.871Z</time></trkpt><trkpt lat="44.9774894" lon="9.2162858"><ele>385.0</ele><time>2026-04-18T07:07:06.879Z</time></trkpt><trkpt lat="44.9775529" lon="9.2161579"><ele>384.0</ele><time>2026-04-18T07:07:08.879Z</time></trkpt><trkpt lat="44.9776087" lon="9.2160487"><ele>383.0</ele><time>2026-04-18T07:07:10.939Z</time></trkpt><trkpt lat="44.9776632" lon="9.2159423"><ele>382.0</ele><time>2026-04-18T07:07:12.88Z</time></trkpt><trkpt lat="44.9777131" lon="9.2158318"><ele>381.0</ele><time>2026-04-18T07:07:14.878Z</time></trkpt><trkpt lat="44.9777656" lon="9.2157123"><ele>381.6</ele><time>2026-04-18T07:07:16.874Z</time></trkpt><trkpt lat="44.9778147" lon="9.2155884"><ele>382.20000000000005</ele><time>2026-04-18T07:07:18.873Z</time></trkpt><trkpt lat="44.9778748" lon="9.2154774"><ele>382.79999999999995</ele><time>2026-04-18T07:07:20.872Z</time></trkpt><trkpt lat="44.9779259" lon="9.2153624"><ele>383.4</ele><time>2026-04-18T07:07:22.95Z</time></trkpt><trkpt lat="44.9779734" lon="9.2152384"><ele>384.0</ele><time>2026-04-18T07:07:24.887Z</time></trkpt><trkpt lat="44.9780186" lon="9.2151186"><ele>384.0</ele><time>2026-04-18T07:07:26.884Z</time></trkpt><trkpt lat="44.9780763" lon="9.2149998"><ele>384.0</ele><time>2026-04-18T07:07:28.877Z</time></trkpt><trkpt lat="44.9781441" lon="9.2148883"><ele>384.0</ele><time>2026-04-18T07:07:30.874Z</time></trkpt><trkpt lat="44.9781929" lon="9.2147647"><ele>384.0</ele><time>2026-04-18T07:07:32.875Z</time></trkpt><trkpt lat="44.9782405" lon="9.2146394"><ele>384.0</ele><time>2026-04-18T07:07:34.889Z</time></trkpt><trkpt lat="44.9782727" lon="9.2144982"><ele>384.6</ele><time>2026-04-18T07:07:36.882Z</time></trkpt><trkpt lat="44.9783061" lon="9.2143559"><ele>385.2</ele><time>2026-04-18T07:07:38.876Z</time></trkpt><trkpt lat="44.978329" lon="9.2142151"><ele>385.8</ele><time>2026-04-18T07:07:40.88Z</time></trkpt><trkpt lat="44.9783371" lon="9.2140563"><ele>386.40000000000003</ele><time>2026-04-18T07:07:42.897Z</time></trkpt><trkpt lat="44.9783453" lon="9.2138905"><ele>387.0</ele><time>2026-04-18T07:07:44.877Z</time></trkpt><trkpt lat="44.9783618" lon="9.2137341"><ele>385.6</ele><time>2026-04-18T07:07:46.87Z</time></trkpt><trkpt lat="44.9783678" lon="9.2135699"><ele>384.20000000000005</ele><time>2026-04-18T07:07:48.876Z</time></trkpt><trkpt lat="44.978368" lon="9.2134804"><ele>382.8</ele><time>2026-04-18T07:07:49.88Z</time></trkpt><trkpt lat="44.9783719" lon="9.2133176"><ele>381.4</ele><time>2026-04-18T07:07:51.882Z</time></trkpt><trkpt lat="44.978392" lon="9.213156"><ele>380.0</ele><time>2026-04-18T07:07:53.873Z</time></trkpt><trkpt lat="44.9784141" lon="9.2129943"><ele>380.0</ele><time>2026-04-18T07:07:55.869Z</time></trkpt><trkpt lat="44.9784343" lon="9.2128269"><ele>380.0</ele><time>2026-04-18T07:07:57.884Z</time></trkpt><trkpt lat="44.9784475" lon="9.2126705"><ele>380.0</ele><time>2026-04-18T07:07:59.961Z</time></trkpt><trkpt lat="44.9785021" lon="9.2125281"><ele>380.0</ele><time>2026-04-18T07:08:01.886Z</time></trkpt><trkpt lat="44.9785551" lon="9.2123959"><ele>380.6666666666667</ele><time>2026-04-18T07:08:03.873Z</time></trkpt><trkpt lat="44.9786009" lon="9.2122749"><ele>381.33333333333337</ele><time>2026-04-18T07:08:05.875Z</time></trkpt><trkpt lat="44.9786363" lon="9.212158"><ele>382.0</ele><time>2026-04-18T07:08:07.878Z</time></trkpt><trkpt lat="44.9786486" lon="9.2120674"><ele>382.6666666666667</ele><time>2026-04-18T07:08:08.882Z</time></trkpt><trkpt lat="44.9786771" lon="9.2119419"><ele>383.3333333333333</ele><time>2026-04-18T07:08:10.884Z</time></trkpt><trkpt lat="44.9787021" lon="9.2118119"><ele>384.0</ele><time>2026-04-18T07:08:12.88Z</time></trkpt><trkpt lat="44.9787219" lon="9.211686"><ele>384.0</ele><time>2026-04-18T07:08:14.873Z</time></trkpt><trkpt lat="44.9787546" lon="9.2115752"><ele>384.0</ele><time>2026-04-18T07:08:16.875Z</time></trkpt><trkpt lat="44.978807" lon="9.2114697"><ele>384.0</ele><time>2026-04-18T07:08:18.888Z</time></trkpt><trkpt lat="44.9788442" lon="9.2113673"><ele>384.0</ele><time>2026-04-18T07:08:20.874Z</time></trkpt><trkpt lat="44.9788889" lon="9.2112551"><ele>384.0</ele><time>2026-04-18T07:08:22.882Z</time></trkpt><trkpt lat="44.9789317" lon="9.211146"><ele>384.0</ele><time>2026-04-18T07:08:24.878Z</time></trkpt><trkpt lat="44.9789789" lon="9.2110232"><ele>384.2</ele><time>2026-04-18T07:08:26.885Z</time></trkpt><trkpt lat="44.9790255" lon="9.2108966"><ele>384.4</ele><time>2026-04-18T07:08:28.881Z</time></trkpt><trkpt lat="44.9790646" lon="9.2107818"><ele>384.6</ele><time>2026-04-18T07:08:30.875Z</time></trkpt><trkpt lat="44.9791048" lon="9.2106509"><ele>384.8</ele><time>2026-04-18T07:08:32.883Z</time></trkpt><trkpt lat="44.9791502" lon="9.2105111"><ele>385.0</ele><time>2026-04-18T07:08:34.881Z</time></trkpt><trkpt lat="44.9791905" lon="9.2103587"><ele>383.0</ele><time>2026-04-18T07:08:36.943Z</time></trkpt><trkpt lat="44.9792306" lon="9.2102054"><ele>381.0</ele><time>2026-04-18T07:08:38.886Z</time></trkpt><trkpt lat="44.9792766" lon="9.2100629"><ele>379.0</ele><time>2026-04-18T07:08:40.868Z</time></trkpt><trkpt lat="44.9793268" lon="9.2099189"><ele>377.0</ele><time>2026-04-18T07:08:42.882Z</time></trkpt><trkpt lat="44.9793603" lon="9.2097954"><ele>375.0</ele><time>2026-04-18T07:08:44.884Z</time></trkpt><trkpt lat="44.9793937" lon="9.2096799"><ele>375.0</ele><time>2026-04-18T07:08:46.878Z</time></trkpt><trkpt lat="44.9793886" lon="9.2095772"><ele>375.0</ele><time>2026-04-18T07:08:48.888Z</time></trkpt><trkpt lat="44.9793188" lon="9.2095053"><ele>375.0</ele><time>2026-04-18T07:08:50.883Z</time></trkpt><trkpt lat="44.9792081" lon="9.2094755"><ele>375.0</ele><time>2026-04-18T07:08:52.882Z</time></trkpt><trkpt lat="44.9790983" lon="9.2094475"><ele>375.0</ele><time>2026-04-18T07:08:54.876Z</time></trkpt><trkpt lat="44.9790317" lon="9.2094492"><ele>375.5</ele><time>2026-04-18T07:08:55.88Z</time></trkpt><trkpt lat="44.9789603" lon="9.2094478"><ele>376.0</ele><time>2026-04-18T07:08:56.873Z</time></trkpt><trkpt lat="44.9788817" lon="9.2094436"><ele>376.5</ele><time>2026-04-18T07:08:57.864Z</time></trkpt><trkpt lat="44.9787945" lon="9.2094387"><ele>377.0</ele><time>2026-04-18T07:08:58.952Z</time></trkpt><trkpt lat="44.9787066" lon="9.2094344"><ele>377.5</ele><time>2026-04-18T07:08:59.877Z</time></trkpt><trkpt lat="44.9786155" lon="9.2094284"><ele>378.0</ele><time>2026-04-18T07:09:00.889Z</time></trkpt><trkpt lat="44.978518" lon="9.2094145"><ele>378.0</ele><time>2026-04-18T07:09:01.943Z</time></trkpt><trkpt lat="44.9784218" lon="9.2093952"><ele>378.0</ele><time>2026-04-18T07:09:02.871Z</time></trkpt><trkpt lat="44.9783243" lon="9.2093826"><ele>378.0</ele><time>2026-04-18T07:09:03.892Z</time></trkpt><trkpt lat="44.9782319" lon="9.2093721"><ele>378.0</ele><time>2026-04-18T07:09:04.876Z</time></trkpt><trkpt lat="44.9781353" lon="9.2093649"><ele>378.0</ele><time>2026-04-18T07:09:05.878Z</time></trkpt><trkpt lat="44.9780411" lon="9.2093567"><ele>375.4</ele><time>2026-04-18T07:09:06.883Z</time></trkpt><trkpt lat="44.9779389" lon="9.2093515"><ele>372.79999999999995</ele><time>2026-04-18T07:09:07.88Z</time></trkpt><trkpt lat="44.977838" lon="9.2093485"><ele>370.2</ele><time>2026-04-18T07:09:08.876Z</time></trkpt><trkpt lat="44.9777304" lon="9.2093398"><ele>367.6</ele><time>2026-04-18T07:09:09.889Z</time></trkpt><trkpt lat="44.9776198" lon="9.2093289"><ele>365.0</ele><time>2026-04-18T07:09:10.872Z</time></trkpt><trkpt lat="44.9775105" lon="9.2093206"><ele>362.8</ele><time>2026-04-18T07:09:11.876Z</time></trkpt><trkpt lat="44.977412" lon="9.209317"><ele>360.6</ele><time>2026-04-18T07:09:12.872Z</time></trkpt><trkpt lat="44.9773192" lon="9.209306"><ele>358.4</ele><time>2026-04-18T07:09:13.865Z</time></trkpt><trkpt lat="44.9772293" lon="9.2092828"><ele>356.2</ele><time>2026-04-18T07:09:14.877Z</time></trkpt><trkpt lat="44.977143" lon="9.2092372"><ele>354.0</ele><time>2026-04-18T07:09:15.875Z</time></trkpt><trkpt lat="44.9770474" lon="9.2091891"><ele>354.0</ele><time>2026-04-18T07:09:16.871Z</time></trkpt><trkpt lat="44.9769626" lon="9.2091397"><ele>354.0</ele><time>2026-04-18T07:09:17.875Z</time></trkpt><trkpt lat="44.9768676" lon="9.2090957"><ele>354.0</ele><time>2026-04-18T07:09:18.873Z</time></trkpt><trkpt lat="44.976775" lon="9.209059"><ele>354.0</ele><time>2026-04-18T07:09:19.864Z</time></trkpt><trkpt lat="44.9766967" lon="9.2090316"><ele>354.0</ele><time>2026-04-18T07:09:20.876Z</time></trkpt><trkpt lat="44.9766163" lon="9.2090054"><ele>352.4</ele><time>2026-04-18T07:09:21.877Z</time></trkpt><trkpt lat="44.976531" lon="9.2089986"><ele>350.79999999999995</ele><time>2026-04-18T07:09:22.887Z</time></trkpt><trkpt lat="44.9764362" lon="9.2089902"><ele>349.20000000000005</ele><time>2026-04-18T07:09:23.867Z</time></trkpt><trkpt lat="44.9763362" lon="9.2089637"><ele>347.6</ele><time>2026-04-18T07:09:24.875Z</time></trkpt><trkpt lat="44.9762384" lon="9.20892"><ele>346.0</ele><time>2026-04-18T07:09:25.874Z</time></trkpt><trkpt lat="44.9761484" lon="9.208855"><ele>344.4</ele><time>2026-04-18T07:09:26.873Z</time></trkpt><trkpt lat="44.9760568" lon="9.2087844"><ele>342.8</ele><time>2026-04-18T07:09:27.87Z</time></trkpt><trkpt lat="44.9759849" lon="9.2087032"><ele>341.2</ele><time>2026-04-18T07:09:28.865Z</time></trkpt><trkpt lat="44.975916" lon="9.2086534"><ele>339.59999999999997</ele><time>2026-04-18T07:09:29.878Z</time></trkpt><trkpt lat="44.9758449" lon="9.2086462"><ele>338.0</ele><time>2026-04-18T07:09:30.875Z</time></trkpt><trkpt lat="44.9757145" lon="9.2087306"><ele>336.33333333333337</ele><time>2026-04-18T07:09:32.877Z</time></trkpt><trkpt lat="44.9756403" lon="9.2087916"><ele>334.6666666666667</ele><time>2026-04-18T07:09:33.876Z</time></trkpt><trkpt lat="44.9755649" lon="9.2088541"><ele>333.0</ele><time>2026-04-18T07:09:34.876Z</time></trkpt><trkpt lat="44.9754981" lon="9.2089035"><ele>331.3333333333333</ele><time>2026-04-18T07:09:35.873Z</time></trkpt><trkpt lat="44.9754283" lon="9.2089529"><ele>329.66666666666663</ele><time>2026-04-18T07:09:36.878Z</time></trkpt><trkpt lat="44.9753419" lon="9.2089702"><ele>328.0</ele><time>2026-04-18T07:09:37.873Z</time></trkpt><trkpt lat="44.9752492" lon="9.2089665"><ele>328.0</ele><time>2026-04-18T07:09:38.943Z</time></trkpt><trkpt lat="44.9751443" lon="9.2089415"><ele>328.0</ele><time>2026-04-18T07:09:39.866Z</time></trkpt><trkpt lat="44.9750451" lon="9.2089058"><ele>328.0</ele><time>2026-04-18T07:09:40.883Z</time></trkpt><trkpt lat="44.9749425" lon="9.2088768"><ele>328.0</ele><time>2026-04-18T07:09:41.887Z</time></trkpt><trkpt lat="44.9748491" lon="9.208842"><ele>328.0</ele><time>2026-04-18T07:09:42.874Z</time></trkpt><trkpt lat="44.9747468" lon="9.208806"><ele>326.3333333333333</ele><time>2026-04-18T07:09:43.874Z</time></trkpt><trkpt lat="44.9746478" lon="9.2087812"><ele>324.66666666666663</ele><time>2026-04-18T07:09:44.876Z</time></trkpt><trkpt lat="44.9745553" lon="9.2087631"><ele>323.0</ele><time>2026-04-18T07:09:45.877Z</time></trkpt><trkpt lat="44.9744695" lon="9.2087623"><ele>321.3333333333333</ele><time>2026-04-18T07:09:46.88Z</time></trkpt><trkpt lat="44.9743953" lon="9.2087793"><ele>319.6666666666667</ele><time>2026-04-18T07:09:47.884Z</time></trkpt><trkpt lat="44.9743233" lon="9.20882"><ele>318.0</ele><time>2026-04-18T07:09:48.874Z</time></trkpt><trkpt lat="44.9742548" lon="9.2088683"><ele>318.0</ele><time>2026-04-18T07:09:49.894Z</time></trkpt><trkpt lat="44.974193" lon="9.20892"><ele>318.0</ele><time>2026-04-18T07:09:50.939Z</time></trkpt><trkpt lat="44.974136" lon="9.2089674"><ele>318.0</ele><time>2026-04-18T07:09:51.875Z</time></trkpt><trkpt lat="44.9740382" lon="9.2089965"><ele>318.0</ele><time>2026-04-18T07:09:53.886Z</time></trkpt><trkpt lat="44.9739589" lon="9.2089238"><ele>318.0</ele><time>2026-04-18T07:09:55.875Z</time></trkpt><trkpt lat="44.9738949" lon="9.2088294"><ele>318.0</ele><time>2026-04-18T07:09:57.886Z</time></trkpt><trkpt lat="44.9738417" lon="9.2087626"><ele>317.6666666666667</ele><time>2026-04-18T07:09:59.899Z</time></trkpt><trkpt lat="44.9738013" lon="9.2086786"><ele>317.3333333333333</ele><time>2026-04-18T07:10:01.874Z</time></trkpt><trkpt lat="44.9737641" lon="9.2085887"><ele>317.0</ele><time>2026-04-18T07:10:03.881Z</time></trkpt><trkpt lat="44.9737214" lon="9.2084918"><ele>316.66666666666663</ele><time>2026-04-18T07:10:05.879Z</time></trkpt><trkpt lat="44.9736996" lon="9.2083731"><ele>316.3333333333333</ele><time>2026-04-18T07:10:07.888Z</time></trkpt><trkpt lat="44.9737023" lon="9.2082328"><ele>316.0</ele><time>2026-04-18T07:10:09.893Z</time></trkpt><trkpt lat="44.9737538" lon="9.2081019"><ele>315.0</ele><time>2026-04-18T07:10:11.874Z</time></trkpt><trkpt lat="44.9737905" lon="9.2080263"><ele>314.0</ele><time>2026-04-18T07:10:12.881Z</time></trkpt><trkpt lat="44.9738216" lon="9.2079473"><ele>313.0</ele><time>2026-04-18T07:10:13.874Z</time></trkpt><trkpt lat="44.9738641" lon="9.2077777"><ele>312.0</ele><time>2026-04-18T07:10:15.948Z</time></trkpt><trkpt lat="44.9738704" lon="9.2076836"><ele>311.0</ele><time>2026-04-18T07:10:16.873Z</time></trkpt><trkpt lat="44.9738702" lon="9.2075894"><ele>310.0</ele><time>2026-04-18T07:10:17.878Z</time></trkpt><trkpt lat="44.9738562" lon="9.2075019"><ele>310.0</ele><time>2026-04-18T07:10:18.876Z</time></trkpt><trkpt lat="44.9738253" lon="9.2074114"><ele>310.0</ele><time>2026-04-18T07:10:19.874Z</time></trkpt><trkpt lat="44.9737892" lon="9.2073066"><ele>310.0</ele><time>2026-04-18T07:10:20.875Z</time></trkpt><trkpt lat="44.9737481" lon="9.2072015"><ele>310.0</ele><time>2026-04-18T07:10:21.883Z</time></trkpt><trkpt lat="44.9737148" lon="9.2070867"><ele>310.0</ele><time>2026-04-18T07:10:22.872Z</time></trkpt><trkpt lat="44.97369" lon="9.2069744"><ele>310.0</ele><time>2026-04-18T07:10:23.89Z</time></trkpt><trkpt lat="44.9736768" lon="9.2068512"><ele>309.3333333333333</ele><time>2026-04-18T07:10:24.873Z</time></trkpt><trkpt lat="44.9736688" lon="9.2067209"><ele>308.66666666666663</ele><time>2026-04-18T07:10:25.873Z</time></trkpt><trkpt lat="44.9736544" lon="9.2066042"><ele>308.0</ele><time>2026-04-18T07:10:26.881Z</time></trkpt><trkpt lat="44.9736332" lon="9.2065032"><ele>307.3333333333333</ele><time>2026-04-18T07:10:27.95Z</time></trkpt><trkpt lat="44.9735994" lon="9.2064027"><ele>306.6666666666667</ele><time>2026-04-18T07:10:28.876Z</time></trkpt><trkpt lat="44.9735438" lon="9.2063203"><ele>306.0</ele><time>2026-04-18T07:10:29.881Z</time></trkpt><trkpt lat="44.9734827" lon="9.20624"><ele>305.0</ele><time>2026-04-18T07:10:30.873Z</time></trkpt><trkpt lat="44.9734188" lon="9.2061493"><ele>304.0</ele><time>2026-04-18T07:10:31.877Z</time></trkpt><trkpt lat="44.9733576" lon="9.2060699"><ele>303.0</ele><time>2026-04-18T07:10:32.876Z</time></trkpt><trkpt lat="44.9732891" lon="9.2059913"><ele>302.0</ele><time>2026-04-18T07:10:33.869Z</time></trkpt><trkpt lat="44.9732167" lon="9.2059107"><ele>301.0</ele><time>2026-04-18T07:10:34.874Z</time></trkpt><trkpt lat="44.9731434" lon="9.2058282"><ele>300.0</ele><time>2026-04-18T07:10:35.876Z</time></trkpt><trkpt lat="44.973071" lon="9.2057417"><ele>298.1666666666667</ele><time>2026-04-18T07:10:36.948Z</time></trkpt><trkpt lat="44.9730005" lon="9.2056578"><ele>296.3333333333333</ele><time>2026-04-18T07:10:37.871Z</time></trkpt><trkpt lat="44.9729326" lon="9.2055666"><ele>294.5</ele><time>2026-04-18T07:10:38.883Z</time></trkpt><trkpt lat="44.9728738" lon="9.2054711"><ele>292.66666666666663</ele><time>2026-04-18T07:10:39.953Z</time></trkpt><trkpt lat="44.9728266" lon="9.2053657"><ele>290.8333333333333</ele><time>2026-04-18T07:10:40.867Z</time></trkpt><trkpt lat="44.9727927" lon="9.2052561"><ele>289.0</ele><time>2026-04-18T07:10:41.88Z</time></trkpt><trkpt lat="44.9727634" lon="9.20514"><ele>289.0</ele><time>2026-04-18T07:10:42.869Z</time></trkpt><trkpt lat="44.9727338" lon="9.2050224"><ele>289.0</ele><time>2026-04-18T07:10:43.874Z</time></trkpt><trkpt lat="44.9726936" lon="9.2048917"><ele>289.0</ele><time>2026-04-18T07:10:44.879Z</time></trkpt><trkpt lat="44.9726453" lon="9.2047701"><ele>289.0</ele><time>2026-04-18T07:10:45.874Z</time></trkpt><trkpt lat="44.9725818" lon="9.2046443"><ele>289.0</ele><time>2026-04-18T07:10:46.881Z</time></trkpt><trkpt lat="44.9725147" lon="9.2045187"><ele>286.4</ele><time>2026-04-18T07:10:47.876Z</time></trkpt><trkpt lat="44.9724473" lon="9.2043983"><ele>283.79999999999995</ele><time>2026-04-18T07:10:48.872Z</time></trkpt><trkpt lat="44.9723701" lon="9.2043045"><ele>281.20000000000005</ele><time>2026-04-18T07:10:49.868Z</time></trkpt><trkpt lat="44.9722902" lon="9.2042211"><ele>278.6</ele><time>2026-04-18T07:10:50.87Z</time></trkpt><trkpt lat="44.9721955" lon="9.2041602"><ele>276.0</ele><time>2026-04-18T07:10:51.872Z</time></trkpt><trkpt lat="44.9720903" lon="9.2041319"><ele>276.0</ele><time>2026-04-18T07:10:52.877Z</time></trkpt><trkpt lat="44.9719799" lon="9.2041082"><ele>276.0</ele><time>2026-04-18T07:10:53.886Z</time></trkpt><trkpt lat="44.9718697" lon="9.2041018"><ele>276.0</ele><time>2026-04-18T07:10:54.879Z</time></trkpt><trkpt lat="44.9717576" lon="9.2040918"><ele>276.0</ele><time>2026-04-18T07:10:55.893Z</time></trkpt><trkpt lat="44.971649" lon="9.2040855"><ele>276.0</ele><time>2026-04-18T07:10:56.867Z</time></trkpt><trkpt lat="44.9715287" lon="9.2040784"><ele>273.75</ele><time>2026-04-18T07:10:57.876Z</time></trkpt><trkpt lat="44.9714137" lon="9.2040695"><ele>271.5</ele><time>2026-04-18T07:10:58.878Z</time></trkpt><trkpt lat="44.971298" lon="9.2040567"><ele>269.25</ele><time>2026-04-18T07:10:59.877Z</time></trkpt><trkpt lat="44.9711823" lon="9.2040455"><ele>267.0</ele><time>2026-04-18T07:11:00.878Z</time></trkpt><trkpt lat="44.9710628" lon="9.2040333"><ele>267.0</ele><time>2026-04-18T07:11:01.877Z</time></trkpt><trkpt lat="44.9709465" lon="9.2040204"><ele>267.0</ele><time>2026-04-18T07:11:02.87Z</time></trkpt><trkpt lat="44.9708294" lon="9.2040116"><ele>267.0</ele><time>2026-04-18T07:11:03.884Z</time></trkpt><trkpt lat="44.970705" lon="9.204001"><ele>267.0</ele><time>2026-04-18T07:11:04.872Z</time></trkpt><trkpt lat="44.9705828" lon="9.2039917"><ele>262.0</ele><time>2026-04-18T07:11:05.872Z</time></trkpt><trkpt lat="44.970454" lon="9.203986"><ele>257.0</ele><time>2026-04-18T07:11:06.878Z</time></trkpt><trkpt lat="44.9703211" lon="9.2039783"><ele>252.0</ele><time>2026-04-18T07:11:07.87Z</time></trkpt><trkpt lat="44.9701908" lon="9.2039757"><ele>247.0</ele><time>2026-04-18T07:11:08.88Z</time></trkpt><trkpt lat="44.9700703" lon="9.2039666"><ele>244.8</ele><time>2026-04-18T07:11:09.869Z</time></trkpt><trkpt lat="44.9699615" lon="9.2039664"><ele>242.6</ele><time>2026-04-18T07:11:10.882Z</time></trkpt><trkpt lat="44.9698547" lon="9.2039763"><ele>240.40000000000003</ele><time>2026-04-18T07:11:11.873Z</time></trkpt><trkpt lat="44.9697591" lon="9.2039704"><ele>238.20000000000002</ele><time>2026-04-18T07:11:12.881Z</time></trkpt><trkpt lat="44.9696668" lon="9.2039506"><ele>236.0</ele><time>2026-04-18T07:11:13.88Z</time></trkpt><trkpt lat="44.9695753" lon="9.2039208"><ele>236.0</ele><time>2026-04-18T07:11:14.88Z</time></trkpt><trkpt lat="44.9694862" lon="9.2038816"><ele>236.00000000000003</ele><time>2026-04-18T07:11:15.868Z</time></trkpt><trkpt lat="44.9694014" lon="9.2038317"><ele>236.00000000000003</ele><time>2026-04-18T07:11:16.878Z</time></trkpt><trkpt lat="44.9693102" lon="9.2037778"><ele>236.0</ele><time>2026-04-18T07:11:17.878Z</time></trkpt><trkpt lat="44.9692247" lon="9.203722"><ele>236.0</ele><time>2026-04-18T07:11:18.949Z</time></trkpt><trkpt lat="44.9691344" lon="9.2036652"><ele>234.20000000000002</ele><time>2026-04-18T07:11:19.876Z</time></trkpt><trkpt lat="44.9690504" lon="9.2036132"><ele>232.40000000000003</ele><time>2026-04-18T07:11:20.891Z</time></trkpt><trkpt lat="44.9689639" lon="9.2035748"><ele>230.6</ele><time>2026-04-18T07:11:21.886Z</time></trkpt><trkpt lat="44.9688756" lon="9.2035317"><ele>228.8</ele><time>2026-04-18T07:11:22.871Z</time></trkpt><trkpt lat="44.9687858" lon="9.2034987"><ele>227.0</ele><time>2026-04-18T07:11:23.883Z</time></trkpt><trkpt lat="44.9686974" lon="9.2034772"><ele>227.0</ele><time>2026-04-18T07:11:24.87Z</time></trkpt><trkpt lat="44.9685985" lon="9.203457"><ele>227.0</ele><time>2026-04-18T07:11:25.878Z</time></trkpt><trkpt lat="44.9684951" lon="9.2034424"><ele>227.0</ele><time>2026-04-18T07:11:26.871Z</time></trkpt><trkpt lat="44.9683931" lon="9.2034298"><ele>227.0</ele><time>2026-04-18T07:11:27.887Z</time></trkpt><trkpt lat="44.9682874" lon="9.2034264"><ele>227.0</ele><time>2026-04-18T07:11:28.877Z</time></trkpt><trkpt lat="44.9681773" lon="9.2034345"><ele>225.8</ele><time>2026-04-18T07:11:29.878Z</time></trkpt><trkpt lat="44.9680711" lon="9.2034389"><ele>224.6</ele><time>2026-04-18T07:11:30.948Z</time></trkpt><trkpt lat="44.9679677" lon="9.2034424"><ele>223.40000000000003</ele><time>2026-04-18T07:11:31.878Z</time></trkpt><trkpt lat="44.9678634" lon="9.2034368"><ele>222.20000000000002</ele><time>2026-04-18T07:11:32.888Z</time></trkpt><trkpt lat="44.9677602" lon="9.2034319"><ele>221.0</ele><time>2026-04-18T07:11:33.882Z</time></trkpt><trkpt lat="44.9676625" lon="9.2034272"><ele>221.00000000000003</ele><time>2026-04-18T07:11:34.876Z</time></trkpt><trkpt lat="44.9675742" lon="9.20343"><ele>221.0</ele><time>2026-04-18T07:11:35.889Z</time></trkpt><trkpt lat="44.9674938" lon="9.2034323"><ele>221.0</ele><time>2026-04-18T07:11:36.873Z</time></trkpt><trkpt lat="44.9674135" lon="9.2034355"><ele>221.0</ele><time>2026-04-18T07:11:37.893Z</time></trkpt><trkpt lat="44.967332" lon="9.2034381"><ele>221.00000000000003</ele><time>2026-04-18T07:11:38.873Z</time></trkpt><trkpt lat="44.9672551" lon="9.203448"><ele>221.0</ele><time>2026-04-18T07:11:39.886Z</time></trkpt><trkpt lat="44.9671789" lon="9.2034687"><ele>219.33333333333334</ele><time>2026-04-18T07:11:40.874Z</time></trkpt><trkpt lat="44.9671066" lon="9.2035031"><ele>217.66666666666669</ele><time>2026-04-18T07:11:41.878Z</time></trkpt><trkpt lat="44.9670343" lon="9.2035426"><ele>216.0</ele><time>2026-04-18T07:11:42.874Z</time></trkpt><trkpt lat="44.9669574" lon="9.2035943"><ele>214.33333333333331</ele><time>2026-04-18T07:11:43.873Z</time></trkpt><trkpt lat="44.9668803" lon="9.2036504"><ele>212.66666666666666</ele><time>2026-04-18T07:11:44.878Z</time></trkpt><trkpt lat="44.9668033" lon="9.2037059"><ele>211.0</ele><time>2026-04-18T07:11:45.877Z</time></trkpt><trkpt lat="44.9667227" lon="9.2037577"><ele>209.83333333333331</ele><time>2026-04-18T07:11:46.874Z</time></trkpt><trkpt lat="44.9666465" lon="9.2038055"><ele>208.66666666666666</ele><time>2026-04-18T07:11:47.897Z</time></trkpt><trkpt lat="44.966573" lon="9.2038468"><ele>207.5</ele><time>2026-04-18T07:11:48.88Z</time></trkpt><trkpt lat="44.9665095" lon="9.203881"><ele>206.33333333333331</ele><time>2026-04-18T07:11:49.88Z</time></trkpt><trkpt lat="44.9664505" lon="9.2039132"><ele>205.16666666666666</ele><time>2026-04-18T07:11:50.875Z</time></trkpt><trkpt lat="44.9663483" lon="9.203967"><ele>204.0</ele><time>2026-04-18T07:11:52.885Z</time></trkpt><trkpt lat="44.9662528" lon="9.2039347"><ele>204.0</ele><time>2026-04-18T07:11:54.952Z</time></trkpt><trkpt lat="44.9661969" lon="9.2038862"><ele>204.0</ele><time>2026-04-18T07:11:56.944Z</time></trkpt><trkpt lat="44.9661428" lon="9.20382"><ele>204.0</ele><time>2026-04-18T07:11:59.88Z</time></trkpt><trkpt lat="44.9660752" lon="9.2037285"><ele>204.0</ele><time>2026-04-18T07:12:02.879Z</time></trkpt><trkpt lat="44.9660212" lon="9.2036294"><ele>204.0</ele><time>2026-04-18T07:12:04.886Z</time></trkpt><trkpt lat="44.965964" lon="9.2035352"><ele>204.0</ele><time>2026-04-18T07:12:06.89Z</time></trkpt><trkpt lat="44.9659077" lon="9.2034258"><ele>203.0</ele><time>2026-04-18T07:12:08.888Z</time></trkpt><trkpt lat="44.9658497" lon="9.2033074"><ele>202.0</ele><time>2026-04-18T07:12:10.891Z</time></trkpt><trkpt lat="44.9657891" lon="9.2031925"><ele>201.0</ele><time>2026-04-18T07:12:12.874Z</time></trkpt><trkpt lat="44.9657138" lon="9.203048"><ele>200.0</ele><time>2026-04-18T07:12:14.881Z</time></trkpt><trkpt lat="44.9656722" lon="9.2029682"><ele>199.0</ele><time>2026-04-18T07:12:15.878Z</time></trkpt><trkpt lat="44.9656257" lon="9.2028922"><ele>198.57142857142856</ele><time>2026-04-18T07:12:16.88Z</time></trkpt><trkpt lat="44.9655753" lon="9.2028095"><ele>198.14285714285714</ele><time>2026-04-18T07:12:17.873Z</time></trkpt><trkpt lat="44.9655303" lon="9.202729"><ele>197.71428571428572</ele><time>2026-04-18T07:12:18.88Z</time></trkpt><trkpt lat="44.9654775" lon="9.2026502"><ele>197.28571428571428</ele><time>2026-04-18T07:12:19.876Z</time></trkpt><trkpt lat="44.9654234" lon="9.2025688"><ele>196.85714285714286</ele><time>2026-04-18T07:12:20.879Z</time></trkpt><trkpt lat="44.9653789" lon="9.2024842"><ele>196.42857142857142</ele><time>2026-04-18T07:12:21.882Z</time></trkpt><trkpt lat="44.9653508" lon="9.2024035"><ele>196.0</ele><time>2026-04-18T07:12:22.881Z</time></trkpt><trkpt lat="44.96532" lon="9.2023078"><ele>195.16666666666666</ele><time>2026-04-18T07:12:23.883Z</time></trkpt><trkpt lat="44.9652944" lon="9.2022248"><ele>194.33333333333331</ele><time>2026-04-18T07:12:24.877Z</time></trkpt><trkpt lat="44.9652439" lon="9.2020789"><ele>193.5</ele><time>2026-04-18T07:12:26.873Z</time></trkpt><trkpt lat="44.9652113" lon="9.2019718"><ele>192.66666666666666</ele><time>2026-04-18T07:12:28.878Z</time></trkpt><trkpt lat="44.9651791" lon="9.2018818"><ele>191.83333333333331</ele><time>2026-04-18T07:12:30.873Z</time></trkpt><trkpt lat="44.96514" lon="9.2017675"><ele>191.0</ele><time>2026-04-18T07:12:32.874Z</time></trkpt><trkpt lat="44.9651179" lon="9.2016328"><ele>191.0</ele><time>2026-04-18T07:12:34.95Z</time></trkpt><trkpt lat="44.9651023" lon="9.2015022"><ele>191.0</ele><time>2026-04-18T07:12:36.884Z</time></trkpt><trkpt lat="44.965103" lon="9.2013966"><ele>191.0</ele><time>2026-04-18T07:12:38.88Z</time></trkpt><trkpt lat="44.965104" lon="9.2013004"><ele>191.0</ele><time>2026-04-18T07:12:40.873Z</time></trkpt><trkpt lat="44.9651018" lon="9.2012039"><ele>191.0</ele><time>2026-04-18T07:12:42.868Z</time></trkpt><trkpt lat="44.9651032" lon="9.2010985"><ele>191.0</ele><time>2026-04-18T07:12:44.875Z</time></trkpt><trkpt lat="44.9651187" lon="9.2009962"><ele>191.0</ele><time>2026-04-18T07:12:46.877Z</time></trkpt><trkpt lat="44.9651307" lon="9.2009011"><ele>191.0</ele><time>2026-04-18T07:12:48.873Z</time></trkpt><trkpt lat="44.965141" lon="9.2008035"><ele>191.0</ele><time>2026-04-18T07:12:50.88Z</time></trkpt><trkpt lat="44.9651501" lon="9.2006953"><ele>191.0</ele><time>2026-04-18T07:12:52.88Z</time></trkpt><trkpt lat="44.9651566" lon="9.200594"><ele>191.0</ele><time>2026-04-18T07:12:54.87Z</time></trkpt><trkpt lat="44.9651512" lon="9.2004694"><ele>191.0</ele><time>2026-04-18T07:12:56.871Z</time></trkpt><trkpt lat="44.9651424" lon="9.2003565"><ele>191.0</ele><time>2026-04-18T07:12:58.871Z</time></trkpt><trkpt lat="44.9651366" lon="9.2002605"><ele>191.0</ele><time>2026-04-18T07:13:00.878Z</time></trkpt><trkpt lat="44.965124" lon="9.2001593"><ele>191.0</ele><time>2026-04-18T07:13:02.867Z</time></trkpt><trkpt lat="44.96511" lon="9.2000703"><ele>191.0</ele><time>2026-04-18T07:13:04.871Z</time></trkpt><trkpt lat="44.9650936" lon="9.1999822"><ele>191.0</ele><time>2026-04-18T07:13:06.876Z</time></trkpt><trkpt lat="44.9650728" lon="9.1998571"><ele>191.0</ele><time>2026-04-18T07:13:09.876Z</time></trkpt><trkpt lat="44.965055" lon="9.1997382"><ele>191.0</ele><time>2026-04-18T07:13:12.947Z</time></trkpt><trkpt lat="44.9650349" lon="9.1996536"><ele>194.66666666666666</ele><time>2026-04-18T07:13:14.889Z</time></trkpt><trkpt lat="44.9650115" lon="9.1995332"><ele>198.33333333333331</ele><time>2026-04-18T07:13:17.874Z</time></trkpt><trkpt lat="44.9649823" lon="9.1994514"><ele>202.0</ele><time>2026-04-18T07:13:19.885Z</time></trkpt><trkpt lat="44.9649517" lon="9.199324"><ele>205.66666666666666</ele><time>2026-04-18T07:13:22.876Z</time></trkpt><trkpt lat="44.9649177" lon="9.1992062"><ele>209.33333333333334</ele><time>2026-04-18T07:13:25.951Z</time></trkpt><trkpt lat="44.964892" lon="9.19912"><ele>213.0</ele><time>2026-04-18T07:13:27.877Z</time></trkpt><trkpt lat="44.9648451" lon="9.1990459"><ele>212.99999999999997</ele><time>2026-04-18T07:13:29.879Z</time></trkpt><trkpt lat="44.9647943" lon="9.1989929"><ele>213.0</ele><time>2026-04-18T07:13:32.877Z</time></trkpt><trkpt lat="44.9647161" lon="9.1990428"><ele>213.0</ele><time>2026-04-18T07:13:36.868Z</time></trkpt><trkpt lat="44.9646709" lon="9.1991051"><ele>213.0</ele><time>2026-04-18T07:13:38.882Z</time></trkpt><trkpt lat="44.9646219" lon="9.199167"><ele>213.0</ele><time>2026-04-18T07:13:40.879Z</time></trkpt><trkpt lat="44.9645733" lon="9.1992253"><ele>212.99999999999997</ele><time>2026-04-18T07:13:42.874Z</time></trkpt><trkpt lat="44.9645135" lon="9.1992789"><ele>213.0</ele><time>2026-04-18T07:13:44.872Z</time></trkpt><trkpt lat="44.9644558" lon="9.1993205"><ele>213.0</ele><time>2026-04-18T07:13:46.873Z</time></trkpt><trkpt lat="44.9643728" lon="9.1993792"><ele>213.0</ele><time>2026-04-18T07:13:49.867Z</time></trkpt><trkpt lat="44.9642954" lon="9.1994366"><ele>213.0</ele><time>2026-04-18T07:13:52.882Z</time></trkpt><trkpt lat="44.9642365" lon="9.199484"><ele>213.0</ele><time>2026-04-18T07:13:54.882Z</time></trkpt><trkpt lat="44.964176" lon="9.1995282"><ele>213.0</ele><time>2026-04-18T07:13:56.877Z</time></trkpt><trkpt lat="44.9641146" lon="9.1995672"><ele>213.0</ele><time>2026-04-18T07:13:58.865Z</time></trkpt><trkpt lat="44.9640414" lon="9.1995818"><ele>217.16666666666666</ele><time>2026-04-18T07:14:00.879Z</time></trkpt><trkpt lat="44.9639535" lon="9.199545"><ele>221.33333333333331</ele><time>2026-04-18T07:14:03.88Z</time></trkpt><trkpt lat="44.9638731" lon="9.1995081"><ele>225.5</ele><time>2026-04-18T07:14:06.877Z</time></trkpt><trkpt lat="44.9637921" lon="9.1994731"><ele>229.66666666666666</ele><time>2026-04-18T07:14:09.889Z</time></trkpt><trkpt lat="44.9637074" lon="9.1994726"><ele>233.83333333333331</ele><time>2026-04-18T07:14:12.881Z</time></trkpt><trkpt lat="44.9636414" lon="9.1994235"><ele>238.0</ele><time>2026-04-18T07:14:15.878Z</time></trkpt><trkpt lat="44.9636784" lon="9.1993267"><ele>237.99999999999997</ele><time>2026-04-18T07:14:18.874Z</time></trkpt><trkpt lat="44.9637" lon="9.1992103"><ele>238.0</ele><time>2026-04-18T07:14:21.884Z</time></trkpt><trkpt lat="44.9636442" lon="9.1991195"><ele>238.0</ele><time>2026-04-18T07:14:24.875Z</time></trkpt><trkpt lat="44.9635715" lon="9.1990316"><ele>238.0</ele><time>2026-04-18T07:14:27.958Z</time></trkpt><trkpt lat="44.9635146" lon="9.1989692"><ele>237.99999999999997</ele><time>2026-04-18T07:14:29.95Z</time></trkpt><trkpt lat="44.9634475" lon="9.1988833"><ele>238.0</ele><time>2026-04-18T07:14:32.878Z</time></trkpt><trkpt lat="44.9633757" lon="9.1988076"><ele>240.0</ele><time>2026-04-18T07:14:35.877Z</time></trkpt><trkpt lat="44.9633152" lon="9.1987679"><ele>242.0</ele><time>2026-04-18T07:14:37.879Z</time></trkpt><trkpt lat="44.9632542" lon="9.1987265"><ele>244.0</ele><time>2026-04-18T07:14:39.883Z</time></trkpt><trkpt lat="44.9632011" lon="9.1986778"><ele>246.0</ele><time>2026-04-18T07:14:41.876Z</time></trkpt><trkpt lat="44.9631462" lon="9.1986305"><ele>248.0</ele><time>2026-04-18T07:14:43.883Z</time></trkpt><trkpt lat="44.963066" lon="9.1985648"><ele>250.0</ele><time>2026-04-18T07:14:46.87Z</time></trkpt><trkpt lat="44.9629863" lon="9.1984973"><ele>252.0</ele><time>2026-04-18T07:14:49.873Z</time></trkpt><trkpt lat="44.9629087" lon="9.1984264"><ele>252.0</ele><time>2026-04-18T07:14:52.878Z</time></trkpt><trkpt lat="44.9628522" lon="9.1983746"><ele>252.0</ele><time>2026-04-18T07:14:54.872Z</time></trkpt><trkpt lat="44.9627743" lon="9.1983052"><ele>252.0</ele><time>2026-04-18T07:14:57.879Z</time></trkpt><trkpt lat="44.9626966" lon="9.1982441"><ele>252.0</ele><time>2026-04-18T07:15:00.874Z</time></trkpt><trkpt lat="44.9626155" lon="9.1981905"><ele>252.0</ele><time>2026-04-18T07:15:03.883Z</time></trkpt><trkpt lat="44.9625579" lon="9.1981494"><ele>252.0</ele><time>2026-04-18T07:15:05.873Z</time></trkpt><trkpt lat="44.9624792" lon="9.1980935"><ele>255.33333333333334</ele><time>2026-04-18T07:15:08.881Z</time></trkpt><trkpt lat="44.9623946" lon="9.1980497"><ele>258.6666666666667</ele><time>2026-04-18T07:15:11.886Z</time></trkpt><trkpt lat="44.9623336" lon="9.1980259"><ele>262.0</ele><time>2026-04-18T07:15:13.887Z</time></trkpt><trkpt lat="44.9622573" lon="9.1979705"><ele>265.33333333333337</ele><time>2026-04-18T07:15:16.881Z</time></trkpt><trkpt lat="44.9621745" lon="9.1979058"><ele>268.6666666666667</ele><time>2026-04-18T07:15:19.887Z</time></trkpt><trkpt lat="44.9621248" lon="9.1978463"><ele>272.0</ele><time>2026-04-18T07:15:21.881Z</time></trkpt><trkpt lat="44.9620669" lon="9.1977631"><ele>272.0</ele><time>2026-04-18T07:15:24.874Z</time></trkpt><trkpt lat="44.9620267" lon="9.1976941"><ele>272.0</ele><time>2026-04-18T07:15:26.882Z</time></trkpt><trkpt lat="44.9619872" lon="9.1976189"><ele>272.0</ele><time>2026-04-18T07:15:28.875Z</time></trkpt><trkpt lat="44.9619293" lon="9.1975165"><ele>272.0</ele><time>2026-04-18T07:15:31.875Z</time></trkpt><trkpt lat="44.9618714" lon="9.1974204"><ele>272.0</ele><time>2026-04-18T07:15:34.871Z</time></trkpt><trkpt lat="44.9618352" lon="9.1973381"><ele>272.0</ele><time>2026-04-18T07:15:36.874Z</time></trkpt><trkpt lat="44.9617964" lon="9.1972298"><ele>272.5</ele><time>2026-04-18T07:15:39.872Z</time></trkpt><trkpt lat="44.9617641" lon="9.1971226"><ele>273.0</ele><time>2026-04-18T07:15:42.874Z</time></trkpt><trkpt lat="44.9617273" lon="9.19701"><ele>273.5</ele><time>2026-04-18T07:15:45.878Z</time></trkpt><trkpt lat="44.9616881" lon="9.1969017"><ele>274.0</ele><time>2026-04-18T07:15:48.875Z</time></trkpt><trkpt lat="44.9616466" lon="9.196803"><ele>274.5</ele><time>2026-04-18T07:15:51.873Z</time></trkpt><trkpt lat="44.9616105" lon="9.1967052"><ele>275.0</ele><time>2026-04-18T07:15:54.875Z</time></trkpt><trkpt lat="44.961555" lon="9.1965969"><ele>279.0</ele><time>2026-04-18T07:15:57.949Z</time></trkpt><trkpt lat="44.9615086" lon="9.1964988"><ele>283.0</ele><time>2026-04-18T07:16:00.87Z</time></trkpt><trkpt lat="44.9614558" lon="9.1963952"><ele>287.0</ele><time>2026-04-18T07:16:03.873Z</time></trkpt><trkpt lat="44.9613969" lon="9.1962886"><ele>291.0</ele><time>2026-04-18T07:16:06.894Z</time></trkpt><trkpt lat="44.9613603" lon="9.1962104"><ele>295.0</ele><time>2026-04-18T07:16:08.872Z</time></trkpt><trkpt lat="44.9613113" lon="9.1961027"><ele>299.0</ele><time>2026-04-18T07:16:11.879Z</time></trkpt><trkpt lat="44.961276" lon="9.196029"><ele>299.0</ele><time>2026-04-18T07:16:13.876Z</time></trkpt><trkpt lat="44.9612364" lon="9.1959068"><ele>299.0</ele><time>2026-04-18T07:16:16.876Z</time></trkpt><trkpt lat="44.9612145" lon="9.1958212"><ele>299.0</ele><time>2026-04-18T07:16:18.877Z</time></trkpt><trkpt lat="44.961179" lon="9.1956989"><ele>299.0</ele><time>2026-04-18T07:16:21.874Z</time></trkpt><trkpt lat="44.9611609" lon="9.1956128"><ele>299.0</ele><time>2026-04-18T07:16:23.875Z</time></trkpt><trkpt lat="44.9611285" lon="9.1954836"><ele>299.0</ele><time>2026-04-18T07:16:26.876Z</time></trkpt><trkpt lat="44.9611032" lon="9.1954"><ele>299.1666666666667</ele><time>2026-04-18T07:16:28.88Z</time></trkpt><trkpt lat="44.9610788" lon="9.1953153"><ele>299.33333333333337</ele><time>2026-04-18T07:16:30.875Z</time></trkpt><trkpt lat="44.9610468" lon="9.1951899"><ele>299.5</ele><time>2026-04-18T07:16:33.88Z</time></trkpt><trkpt lat="44.9610198" lon="9.1950919"><ele>299.6666666666667</ele><time>2026-04-18T07:16:35.951Z</time></trkpt><trkpt lat="44.9609906" lon="9.1949706"><ele>299.8333333333333</ele><time>2026-04-18T07:16:38.877Z</time></trkpt><trkpt lat="44.9609627" lon="9.1948381"><ele>300.0</ele><time>2026-04-18T07:16:41.874Z</time></trkpt><trkpt lat="44.9609389" lon="9.1947047"><ele>298.8333333333333</ele><time>2026-04-18T07:16:44.876Z</time></trkpt><trkpt lat="44.9609081" lon="9.1946185"><ele>297.6666666666667</ele><time>2026-04-18T07:16:46.876Z</time></trkpt><trkpt lat="44.9608586" lon="9.1945061"><ele>296.5</ele><time>2026-04-18T07:16:49.885Z</time></trkpt><trkpt lat="44.9608137" lon="9.1944405"><ele>295.33333333333337</ele><time>2026-04-18T07:16:51.879Z</time></trkpt><trkpt lat="44.9607628" lon="9.1943777"><ele>294.1666666666667</ele><time>2026-04-18T07:16:53.876Z</time></trkpt><trkpt lat="44.9606944" lon="9.1943101"><ele>293.0</ele><time>2026-04-18T07:16:56.888Z</time></trkpt><trkpt lat="44.9606129" lon="9.1942507"><ele>296.71428571428567</ele><time>2026-04-18T07:16:59.886Z</time></trkpt><trkpt lat="44.9605491" lon="9.1942244"><ele>300.42857142857144</ele><time>2026-04-18T07:17:01.892Z</time></trkpt><trkpt lat="44.9604807" lon="9.1942057"><ele>304.1428571428571</ele><time>2026-04-18T07:17:03.876Z</time></trkpt><trkpt lat="44.9604137" lon="9.1942011"><ele>307.85714285714283</ele><time>2026-04-18T07:17:05.879Z</time></trkpt><trkpt lat="44.9603419" lon="9.1942019"><ele>311.57142857142856</ele><time>2026-04-18T07:17:07.871Z</time></trkpt><trkpt lat="44.9602696" lon="9.194211"><ele>315.2857142857143</ele><time>2026-04-18T07:17:09.878Z</time></trkpt><trkpt lat="44.960192" lon="9.1941904"><ele>319.0</ele><time>2026-04-18T07:17:11.874Z</time></trkpt><trkpt lat="44.9601171" lon="9.1941881"><ele>319.0</ele><time>2026-04-18T07:17:13.878Z</time></trkpt><trkpt lat="44.9600413" lon="9.1941865"><ele>319.0</ele><time>2026-04-18T07:17:15.877Z</time></trkpt><trkpt lat="44.9599734" lon="9.1941783"><ele>319.0</ele><time>2026-04-18T07:17:17.885Z</time></trkpt><trkpt lat="44.9598896" lon="9.1941625"><ele>319.0</ele><time>2026-04-18T07:17:19.876Z</time></trkpt><trkpt lat="44.9598096" lon="9.1941543"><ele>319.0</ele><time>2026-04-18T07:17:21.883Z</time></trkpt><trkpt lat="44.9597369" lon="9.1941332"><ele>319.0</ele><time>2026-04-18T07:17:23.872Z</time></trkpt><trkpt lat="44.9596664" lon="9.1941182"><ele>320.42857142857144</ele><time>2026-04-18T07:17:25.878Z</time></trkpt><trkpt lat="44.9596002" lon="9.1940963"><ele>321.85714285714283</ele><time>2026-04-18T07:17:27.895Z</time></trkpt><trkpt lat="44.9595355" lon="9.1940582"><ele>323.2857142857143</ele><time>2026-04-18T07:17:29.871Z</time></trkpt><trkpt lat="44.9594762" lon="9.1940166"><ele>324.7142857142857</ele><time>2026-04-18T07:17:31.879Z</time></trkpt><trkpt lat="44.9594147" lon="9.1939673"><ele>326.1428571428571</ele><time>2026-04-18T07:17:33.872Z</time></trkpt><trkpt lat="44.9593579" lon="9.1939122"><ele>327.57142857142856</ele><time>2026-04-18T07:17:35.954Z</time></trkpt><trkpt lat="44.9592969" lon="9.1938508"><ele>329.0</ele><time>2026-04-18T07:17:37.895Z</time></trkpt><trkpt lat="44.9592425" lon="9.1937818"><ele>332.33333333333337</ele><time>2026-04-18T07:17:39.878Z</time></trkpt><trkpt lat="44.9591745" lon="9.1936938"><ele>335.6666666666667</ele><time>2026-04-18T07:17:42.881Z</time></trkpt><trkpt lat="44.9591025" lon="9.1936176"><ele>339.0</ele><time>2026-04-18T07:17:45.877Z</time></trkpt><trkpt lat="44.9590368" lon="9.1935501"><ele>342.3333333333333</ele><time>2026-04-18T07:17:48.873Z</time></trkpt><trkpt lat="44.9589796" lon="9.1934763"><ele>345.66666666666663</ele><time>2026-04-18T07:17:51.87Z</time></trkpt><trkpt lat="44.9589252" lon="9.1934125"><ele>349.0</ele><time>2026-04-18T07:17:54.875Z</time></trkpt><trkpt lat="44.9588714" lon="9.1933441"><ele>349.0</ele><time>2026-04-18T07:17:57.869Z</time></trkpt><trkpt lat="44.958812" lon="9.1932799"><ele>349.0</ele><time>2026-04-18T07:18:00.876Z</time></trkpt><trkpt lat="44.9587633" lon="9.1932021"><ele>349.0</ele><time>2026-04-18T07:18:03.873Z</time></trkpt><trkpt lat="44.9587538" lon="9.1930914"><ele>349.0</ele><time>2026-04-18T07:18:06.868Z</time></trkpt><trkpt lat="44.9587792" lon="9.1929785"><ele>349.0</ele><time>2026-04-18T07:18:10.881Z</time></trkpt><trkpt lat="44.9587905" lon="9.1928848"><ele>349.0</ele><time>2026-04-18T07:18:13.888Z</time></trkpt><trkpt lat="44.9587992" lon="9.1927592"><ele>350.3333333333333</ele><time>2026-04-18T07:18:17.87Z</time></trkpt><trkpt lat="44.9588086" lon="9.1926422"><ele>351.66666666666663</ele><time>2026-04-18T07:18:20.876Z</time></trkpt><trkpt lat="44.9588183" lon="9.1925257"><ele>353.0</ele><time>2026-04-18T07:18:23.895Z</time></trkpt><trkpt lat="44.9588304" lon="9.1924142"><ele>354.3333333333333</ele><time>2026-04-18T07:18:26.869Z</time></trkpt><trkpt lat="44.9588439" lon="9.1923228"><ele>355.6666666666667</ele><time>2026-04-18T07:18:29.951Z</time></trkpt><trkpt lat="44.9588589" lon="9.192229"><ele>357.0</ele><time>2026-04-18T07:18:32.875Z</time></trkpt><trkpt lat="44.9588726" lon="9.1921128"><ele>357.3333333333333</ele><time>2026-04-18T07:18:35.867Z</time></trkpt><trkpt lat="44.9588801" lon="9.1919871"><ele>357.6666666666667</ele><time>2026-04-18T07:18:38.872Z</time></trkpt><trkpt lat="44.9588753" lon="9.1918547"><ele>358.0</ele><time>2026-04-18T07:18:41.899Z</time></trkpt><trkpt lat="44.9588588" lon="9.1917246"><ele>358.33333333333337</ele><time>2026-04-18T07:18:44.877Z</time></trkpt><trkpt lat="44.9588378" lon="9.1916373"><ele>358.6666666666667</ele><time>2026-04-18T07:18:46.874Z</time></trkpt><trkpt lat="44.9587942" lon="9.191529"><ele>359.0</ele><time>2026-04-18T07:18:49.875Z</time></trkpt><trkpt lat="44.9587536" lon="9.1914514"><ele>359.6666666666667</ele><time>2026-04-18T07:18:52.879Z</time></trkpt><trkpt lat="44.9587196" lon="9.1913663"><ele>360.33333333333337</ele><time>2026-04-18T07:18:55.896Z</time></trkpt><trkpt lat="44.9586818" lon="9.1912849"><ele>361.0</ele><time>2026-04-18T07:18:58.88Z</time></trkpt><trkpt lat="44.9586331" lon="9.1912041"><ele>361.6666666666667</ele><time>2026-04-18T07:19:36.874Z</time></trkpt><trkpt lat="44.9586092" lon="9.1910958"><ele>362.3333333333333</ele><time>2026-04-18T07:19:41.873Z</time></trkpt><trkpt lat="44.9585957" lon="9.190981"><ele>363.0</ele><time>2026-04-18T07:19:44.873Z</time></trkpt><trkpt lat="44.9585838" lon="9.1908738"><ele>363.0</ele><time>2026-04-18T07:19:47.872Z</time></trkpt><trkpt lat="44.9585433" lon="9.1907503"><ele>363.0</ele><time>2026-04-18T07:19:50.875Z</time></trkpt><trkpt lat="44.9584919" lon="9.1906828"><ele>363.0</ele><time>2026-04-18T07:19:52.869Z</time></trkpt><trkpt lat="44.9584606" lon="9.1905873"><ele>363.0</ele><time>2026-04-18T07:19:54.876Z</time></trkpt><trkpt lat="44.9584459" lon="9.1904922"><ele>363.0</ele><time>2026-04-18T07:19:56.888Z</time></trkpt><trkpt lat="44.9584437" lon="9.1903738"><ele>363.0</ele><time>2026-04-18T07:19:59.872Z</time></trkpt><trkpt lat="44.9584589" lon="9.1902677"><ele>363.71428571428567</ele><time>2026-04-18T07:20:02.874Z</time></trkpt><trkpt lat="44.9584366" lon="9.1901724"><ele>364.42857142857144</ele><time>2026-04-18T07:20:04.872Z</time></trkpt><trkpt lat="44.9584099" lon="9.1900849"><ele>365.1428571428571</ele><time>2026-04-18T07:20:06.875Z</time></trkpt><trkpt lat="44.9583727" lon="9.1900107"><ele>365.85714285714283</ele><time>2026-04-18T07:20:08.871Z</time></trkpt><trkpt lat="44.9583217" lon="9.1899186"><ele>366.57142857142856</ele><time>2026-04-18T07:20:11.877Z</time></trkpt><trkpt lat="44.9582837" lon="9.1898476"><ele>367.2857142857143</ele><time>2026-04-18T07:20:13.873Z</time></trkpt><trkpt lat="44.9582299" lon="9.1897741"><ele>368.0</ele><time>2026-04-18T07:20:15.863Z</time></trkpt><trkpt lat="44.9581525" lon="9.1897067"><ele>364.0</ele><time>2026-04-18T07:20:18.875Z</time></trkpt><trkpt lat="44.9580844" lon="9.1896903"><ele>360.0</ele><time>2026-04-18T07:20:21.876Z</time></trkpt><trkpt lat="44.9580188" lon="9.1896675"><ele>356.0</ele><time>2026-04-18T07:20:23.874Z</time></trkpt><trkpt lat="44.9579399" lon="9.1896394"><ele>352.0</ele><time>2026-04-18T07:20:25.874Z</time></trkpt><trkpt lat="44.9578488" lon="9.1895811"><ele>348.0</ele><time>2026-04-18T07:20:27.878Z</time></trkpt><trkpt lat="44.9577639" lon="9.1895017"><ele>344.0</ele><time>2026-04-18T07:20:29.882Z</time></trkpt><trkpt lat="44.9576768" lon="9.1894216"><ele>344.0</ele><time>2026-04-18T07:20:31.888Z</time></trkpt><trkpt lat="44.9575949" lon="9.1893425"><ele>344.0</ele><time>2026-04-18T07:20:33.875Z</time></trkpt><trkpt lat="44.9575053" lon="9.1892453"><ele>344.0</ele><time>2026-04-18T07:20:35.877Z</time></trkpt><trkpt lat="44.9574115" lon="9.1891515"><ele>344.0</ele><time>2026-04-18T07:20:37.871Z</time></trkpt><trkpt lat="44.957304" lon="9.1890716"><ele>344.0</ele><time>2026-04-18T07:20:39.879Z</time></trkpt><trkpt lat="44.9572429" lon="9.1890383"><ele>341.0</ele><time>2026-04-18T07:20:40.875Z</time></trkpt><trkpt lat="44.9571384" lon="9.1889557"><ele>338.0</ele><time>2026-04-18T07:20:42.873Z</time></trkpt><trkpt lat="44.9570849" lon="9.1889033"><ele>335.0</ele><time>2026-04-18T07:20:43.872Z</time></trkpt><trkpt lat="44.9570328" lon="9.1888499"><ele>332.0</ele><time>2026-04-18T07:20:44.874Z</time></trkpt><trkpt lat="44.956983" lon="9.1887954"><ele>329.0</ele><time>2026-04-18T07:20:45.875Z</time></trkpt><trkpt lat="44.9568951" lon="9.1886914"><ele>326.0</ele><time>2026-04-18T07:20:47.873Z</time></trkpt><trkpt lat="44.9568501" lon="9.1885826"><ele>326.0</ele><time>2026-04-18T07:20:49.874Z</time></trkpt><trkpt lat="44.9568364" lon="9.1884719"><ele>326.0</ele><time>2026-04-18T07:20:51.878Z</time></trkpt><trkpt lat="44.9568483" lon="9.188336"><ele>326.0</ele><time>2026-04-18T07:20:53.874Z</time></trkpt><trkpt lat="44.956867" lon="9.1882052"><ele>326.0</ele><time>2026-04-18T07:20:55.876Z</time></trkpt><trkpt lat="44.9568669" lon="9.1880641"><ele>326.0</ele><time>2026-04-18T07:20:57.869Z</time></trkpt><trkpt lat="44.9568717" lon="9.1879163"><ele>323.40000000000003</ele><time>2026-04-18T07:20:59.88Z</time></trkpt><trkpt lat="44.9568763" lon="9.1877436"><ele>320.8</ele><time>2026-04-18T07:21:01.873Z</time></trkpt><trkpt lat="44.9568794" lon="9.1876521"><ele>318.20000000000005</ele><time>2026-04-18T07:21:02.872Z</time></trkpt><trkpt lat="44.9568803" lon="9.1875624"><ele>315.6</ele><time>2026-04-18T07:21:03.885Z</time></trkpt><trkpt lat="44.9568824" lon="9.187405"><ele>313.0</ele><time>2026-04-18T07:21:05.871Z</time></trkpt><trkpt lat="44.9568845" lon="9.1872607"><ele>310.66666666666663</ele><time>2026-04-18T07:21:07.871Z</time></trkpt><trkpt lat="44.9568713" lon="9.1871499"><ele>308.3333333333333</ele><time>2026-04-18T07:21:09.884Z</time></trkpt><trkpt lat="44.9568518" lon="9.187057"><ele>306.0</ele><time>2026-04-18T07:21:11.872Z</time></trkpt><trkpt lat="44.9568304" lon="9.1869379"><ele>303.6666666666667</ele><time>2026-04-18T07:21:13.874Z</time></trkpt><trkpt lat="44.9568059" lon="9.1868193"><ele>301.33333333333337</ele><time>2026-04-18T07:21:15.869Z</time></trkpt><trkpt lat="44.9567855" lon="9.186696"><ele>299.0</ele><time>2026-04-18T07:21:17.959Z</time></trkpt><trkpt lat="44.9567635" lon="9.1865681"><ele>297.59999999999997</ele><time>2026-04-18T07:21:19.882Z</time></trkpt><trkpt lat="44.9567293" lon="9.186434"><ele>296.2</ele><time>2026-04-18T07:21:21.872Z</time></trkpt><trkpt lat="44.9566957" lon="9.1862993"><ele>294.79999999999995</ele><time>2026-04-18T07:21:23.88Z</time></trkpt><trkpt lat="44.9566667" lon="9.1861666"><ele>293.4</ele><time>2026-04-18T07:21:25.877Z</time></trkpt><trkpt lat="44.9566322" lon="9.1860307"><ele>292.0</ele><time>2026-04-18T07:21:27.878Z</time></trkpt><trkpt lat="44.956596" lon="9.1858831"><ele>292.0</ele><time>2026-04-18T07:21:29.871Z</time></trkpt><trkpt lat="44.9565765" lon="9.185751"><ele>292.0</ele><time>2026-04-18T07:21:31.875Z</time></trkpt><trkpt lat="44.9565841" lon="9.1856281"><ele>292.0</ele><time>2026-04-18T07:21:33.946Z</time></trkpt><trkpt lat="44.9565784" lon="9.1855233"><ele>292.0</ele><time>2026-04-18T07:21:35.868Z</time></trkpt><trkpt lat="44.9565481" lon="9.185432"><ele>292.0</ele><time>2026-04-18T07:21:37.868Z</time></trkpt><trkpt lat="44.9564716" lon="9.1853787"><ele>292.0</ele><time>2026-04-18T07:21:40.867Z</time></trkpt><trkpt lat="44.9564152" lon="9.1852971"><ele>289.6</ele><time>2026-04-18T07:21:42.936Z</time></trkpt><trkpt lat="44.9563863" lon="9.185199"><ele>287.2</ele><time>2026-04-18T07:21:44.871Z</time></trkpt><trkpt lat="44.9563668" lon="9.1850977"><ele>284.8</ele><time>2026-04-18T07:21:46.875Z</time></trkpt><trkpt lat="44.9563483" lon="9.1849645"><ele>282.4</ele><time>2026-04-18T07:21:48.879Z</time></trkpt><trkpt lat="44.956322" lon="9.1848058"><ele>280.0</ele><time>2026-04-18T07:21:50.877Z</time></trkpt><trkpt lat="44.9562957" lon="9.1846515"><ele>277.8333333333333</ele><time>2026-04-18T07:21:52.877Z</time></trkpt><trkpt lat="44.9562742" lon="9.1845142"><ele>275.66666666666663</ele><time>2026-04-18T07:21:54.867Z</time></trkpt><trkpt lat="44.9562586" lon="9.1844062"><ele>273.5</ele><time>2026-04-18T07:21:56.875Z</time></trkpt><trkpt lat="44.9562297" lon="9.184314"><ele>271.3333333333333</ele><time>2026-04-18T07:21:58.872Z</time></trkpt><trkpt lat="44.9561942" lon="9.1841887"><ele>269.1666666666667</ele><time>2026-04-18T07:22:01.868Z</time></trkpt><trkpt lat="44.9562088" lon="9.184094"><ele>267.0</ele><time>2026-04-18T07:22:05.868Z</time></trkpt><trkpt lat="44.9562661" lon="9.1840174"><ele>264.5</ele><time>2026-04-18T07:22:09.87Z</time></trkpt><trkpt lat="44.9563287" lon="9.1839542"><ele>262.0</ele><time>2026-04-18T07:22:12.865Z</time></trkpt><trkpt lat="44.9563948" lon="9.1838609"><ele>259.5</ele><time>2026-04-18T07:22:15.871Z</time></trkpt><trkpt lat="44.9564408" lon="9.1837972"><ele>257.0</ele><time>2026-04-18T07:22:17.87Z</time></trkpt><trkpt lat="44.9564864" lon="9.1837346"><ele>254.5</ele><time>2026-04-18T07:22:19.876Z</time></trkpt><trkpt lat="44.9565195" lon="9.1836261"><ele>252.0</ele><time>2026-04-18T07:22:22.875Z</time></trkpt><trkpt lat="44.9564686" lon="9.1835435"><ele>252.0</ele><time>2026-04-18T07:22:24.873Z</time></trkpt><trkpt lat="44.9564239" lon="9.1834554"><ele>252.0</ele><time>2026-04-18T07:22:26.877Z</time></trkpt><trkpt lat="44.956365" lon="9.1833779"><ele>252.0</ele><time>2026-04-18T07:22:28.87Z</time></trkpt><trkpt lat="44.9562848" lon="9.1832787"><ele>252.0</ele><time>2026-04-18T07:22:30.871Z</time></trkpt><trkpt lat="44.95619" lon="9.1831766"><ele>252.0</ele><time>2026-04-18T07:22:32.869Z</time></trkpt><trkpt lat="44.9561411" lon="9.1831166"><ele>252.0</ele><time>2026-04-18T07:22:33.94Z</time></trkpt><trkpt lat="44.9560704" lon="9.1830071"><ele>249.16666666666666</ele><time>2026-04-18T07:22:35.889Z</time></trkpt><trkpt lat="44.9560034" lon="9.1829455"><ele>246.33333333333331</ele><time>2026-04-18T07:22:37.877Z</time></trkpt><trkpt lat="44.9559087" lon="9.1829331"><ele>243.5</ele><time>2026-04-18T07:22:39.87Z</time></trkpt><trkpt lat="44.9558046" lon="9.1829422"><ele>240.66666666666666</ele><time>2026-04-18T07:22:41.861Z</time></trkpt><trkpt lat="44.9557334" lon="9.1829358"><ele>237.83333333333331</ele><time>2026-04-18T07:22:42.876Z</time></trkpt><trkpt lat="44.9556652" lon="9.1829306"><ele>235.0</ele><time>2026-04-18T07:22:43.867Z</time></trkpt><trkpt lat="44.9555964" lon="9.1829165"><ele>234.99999999999997</ele><time>2026-04-18T07:22:44.861Z</time></trkpt><trkpt lat="44.955522" lon="9.1829014"><ele>235.0</ele><time>2026-04-18T07:22:45.872Z</time></trkpt><trkpt lat="44.9554451" lon="9.1828944"><ele>235.0</ele><time>2026-04-18T07:22:46.872Z</time></trkpt><trkpt lat="44.955378" lon="9.1829046"><ele>235.0</ele><time>2026-04-18T07:22:47.865Z</time></trkpt><trkpt lat="44.955276" lon="9.1829126"><ele>234.99999999999997</ele><time>2026-04-18T07:22:49.873Z</time></trkpt><trkpt lat="44.9552006" lon="9.1828955"><ele>235.0</ele><time>2026-04-18T07:22:51.871Z</time></trkpt><trkpt lat="44.9551323" lon="9.1829325"><ele>234.99999999999997</ele><time>2026-04-18T07:22:58.865Z</time></trkpt><trkpt lat="44.9550819" lon="9.1829895"><ele>235.0</ele><time>2026-04-18T07:23:01.942Z</time></trkpt><trkpt lat="44.9550133" lon="9.1830487"><ele>235.0</ele><time>2026-04-18T07:23:04.875Z</time></trkpt><trkpt lat="44.9549531" lon="9.1831011"><ele>235.0</ele><time>2026-04-18T07:23:07.87Z</time></trkpt><trkpt lat="44.9548839" lon="9.1831585"><ele>234.99999999999997</ele><time>2026-04-18T07:23:10.867Z</time></trkpt><trkpt lat="44.9548114" lon="9.1832235"><ele>235.0</ele><time>2026-04-18T07:23:13.937Z</time></trkpt><trkpt lat="44.9547347" lon="9.1832445"><ele>235.33333333333331</ele><time>2026-04-18T07:23:16.874Z</time></trkpt><trkpt lat="44.9546588" lon="9.1831842"><ele>235.66666666666666</ele><time>2026-04-18T07:23:19.865Z</time></trkpt><trkpt lat="44.9546085" lon="9.1830789"><ele>236.0</ele><time>2026-04-18T07:23:22.869Z</time></trkpt><trkpt lat="44.9545615" lon="9.1829907"><ele>236.33333333333331</ele><time>2026-04-18T07:23:24.868Z</time></trkpt><trkpt lat="44.9544873" lon="9.1828928"><ele>236.66666666666666</ele><time>2026-04-18T07:23:26.931Z</time></trkpt><trkpt lat="44.9544284" lon="9.1827939"><ele>237.0</ele><time>2026-04-18T07:23:28.868Z</time></trkpt><trkpt lat="44.9543682" lon="9.1827229"><ele>235.66666666666666</ele><time>2026-04-18T07:23:30.875Z</time></trkpt><trkpt lat="44.9542922" lon="9.1826892"><ele>234.33333333333331</ele><time>2026-04-18T07:23:33.882Z</time></trkpt><trkpt lat="44.9542285" lon="9.1827146"><ele>233.0</ele><time>2026-04-18T07:23:36.868Z</time></trkpt><trkpt lat="44.954149" lon="9.1827331"><ele>231.66666666666666</ele><time>2026-04-18T07:23:39.872Z</time></trkpt><trkpt lat="44.954076" lon="9.1827655"><ele>230.33333333333331</ele><time>2026-04-18T07:23:42.868Z</time></trkpt><trkpt lat="44.9540069" lon="9.1828489"><ele>229.0</ele><time>2026-04-18T07:23:45.869Z</time></trkpt><trkpt lat="44.9539365" lon="9.1828967"><ele>227.66666666666666</ele><time>2026-04-18T07:23:48.874Z</time></trkpt><trkpt lat="44.953874" lon="9.1829612"><ele>226.33333333333331</ele><time>2026-04-18T07:23:51.944Z</time></trkpt><trkpt lat="44.9538066" lon="9.1830271"><ele>225.0</ele><time>2026-04-18T07:23:54.868Z</time></trkpt><trkpt lat="44.9537387" lon="9.183086"><ele>223.66666666666669</ele><time>2026-04-18T07:23:57.872Z</time></trkpt><trkpt lat="44.9536789" lon="9.1830222"><ele>222.33333333333334</ele><time>2026-04-18T07:24:00.87Z</time></trkpt><trkpt lat="44.9536248" lon="9.1829434"><ele>221.0</ele><time>2026-04-18T07:24:02.876Z</time></trkpt><trkpt lat="44.9535863" lon="9.1828688"><ele>221.00000000000003</ele><time>2026-04-18T07:24:04.947Z</time></trkpt><trkpt lat="44.9535167" lon="9.182794"><ele>221.0</ele><time>2026-04-18T07:24:07.865Z</time></trkpt><trkpt lat="44.9534518" lon="9.1827087"><ele>221.0</ele><time>2026-04-18T07:24:10.874Z</time></trkpt><trkpt lat="44.9533973" lon="9.1826574"><ele>221.0</ele><time>2026-04-18T07:24:12.868Z</time></trkpt><trkpt lat="44.9533267" lon="9.1825869"><ele>221.00000000000003</ele><time>2026-04-18T07:24:14.87Z</time></trkpt><trkpt lat="44.9532846" lon="9.1824965"><ele>221.0</ele><time>2026-04-18T07:24:16.862Z</time></trkpt><trkpt lat="44.9532203" lon="9.1824286"><ele>219.8</ele><time>2026-04-18T07:24:18.873Z</time></trkpt><trkpt lat="44.9531394" lon="9.1823706"><ele>218.60000000000002</ele><time>2026-04-18T07:24:20.862Z</time></trkpt><trkpt lat="44.9530546" lon="9.1823118"><ele>217.4</ele><time>2026-04-18T07:24:22.872Z</time></trkpt><trkpt lat="44.9529694" lon="9.1822494"><ele>216.2</ele><time>2026-04-18T07:24:24.867Z</time></trkpt><trkpt lat="44.9528841" lon="9.1821979"><ele>215.0</ele><time>2026-04-18T07:24:26.868Z</time></trkpt><trkpt lat="44.9528127" lon="9.1821577"><ele>213.50000000000003</ele><time>2026-04-18T07:24:28.869Z</time></trkpt><trkpt lat="44.9527465" lon="9.1821212"><ele>212.0</ele><time>2026-04-18T07:24:30.876Z</time></trkpt><trkpt lat="44.9526636" lon="9.1821223"><ele>210.5</ele><time>2026-04-18T07:24:32.876Z</time></trkpt><trkpt lat="44.9525751" lon="9.1821344"><ele>209.0</ele><time>2026-04-18T07:24:34.871Z</time></trkpt><trkpt lat="44.9524988" lon="9.1821334"><ele>207.50000000000003</ele><time>2026-04-18T07:24:36.873Z</time></trkpt><trkpt lat="44.952425" lon="9.182134"><ele>206.0</ele><time>2026-04-18T07:24:38.874Z</time></trkpt><trkpt lat="44.9523386" lon="9.1821277"><ele>204.83333333333334</ele><time>2026-04-18T07:24:41.874Z</time></trkpt><trkpt lat="44.9522515" lon="9.1821312"><ele>203.66666666666669</ele><time>2026-04-18T07:24:44.874Z</time></trkpt><trkpt lat="44.9521705" lon="9.1820741"><ele>202.5</ele><time>2026-04-18T07:24:47.87Z</time></trkpt><trkpt lat="44.9520923" lon="9.1820422"><ele>201.33333333333331</ele><time>2026-04-18T07:24:50.87Z</time></trkpt><trkpt lat="44.9520361" lon="9.1820935"><ele>200.16666666666666</ele><time>2026-04-18T07:24:53.873Z</time></trkpt><trkpt lat="44.9519843" lon="9.182182"><ele>199.0</ele><time>2026-04-18T07:24:56.867Z</time></trkpt><trkpt lat="44.9519362" lon="9.1822781"><ele>199.7142857142857</ele><time>2026-04-18T07:24:59.867Z</time></trkpt><trkpt lat="44.9518902" lon="9.1823732"><ele>200.42857142857142</ele><time>2026-04-18T07:25:02.874Z</time></trkpt><trkpt lat="44.951855" lon="9.1824498"><ele>201.14285714285714</ele><time>2026-04-18T07:25:04.871Z</time></trkpt><trkpt lat="44.951816" lon="9.1825214"><ele>201.85714285714283</ele><time>2026-04-18T07:25:06.873Z</time></trkpt><trkpt lat="44.95178" lon="9.1825987"><ele>202.57142857142858</ele><time>2026-04-18T07:25:08.869Z</time></trkpt><trkpt lat="44.9517406" lon="9.182689"><ele>203.28571428571428</ele><time>2026-04-18T07:25:10.876Z</time></trkpt><trkpt lat="44.9517007" lon="9.182774"><ele>204.0</ele><time>2026-04-18T07:25:12.866Z</time></trkpt><trkpt lat="44.9516638" lon="9.1828547"><ele>202.83333333333334</ele><time>2026-04-18T07:25:14.87Z</time></trkpt><trkpt lat="44.9516301" lon="9.1829475"><ele>201.66666666666669</ele><time>2026-04-18T07:25:16.868Z</time></trkpt><trkpt lat="44.9515841" lon="9.1830289"><ele>200.5</ele><time>2026-04-18T07:25:18.87Z</time></trkpt><trkpt lat="44.9515511" lon="9.1831124"><ele>199.33333333333334</ele><time>2026-04-18T07:25:20.866Z</time></trkpt><trkpt lat="44.9515038" lon="9.1832027"><ele>198.16666666666669</ele><time>2026-04-18T07:25:22.875Z</time></trkpt><trkpt lat="44.9514443" lon="9.1832882"><ele>197.0</ele><time>2026-04-18T07:25:24.871Z</time></trkpt><trkpt lat="44.9513883" lon="9.1833859"><ele>197.00000000000003</ele><time>2026-04-18T07:25:26.871Z</time></trkpt><trkpt lat="44.9513361" lon="9.1834693"><ele>197.0</ele><time>2026-04-18T07:25:28.867Z</time></trkpt><trkpt lat="44.9512709" lon="9.1835629"><ele>197.0</ele><time>2026-04-18T07:25:30.872Z</time></trkpt><trkpt lat="44.9512197" lon="9.1836527"><ele>197.0</ele><time>2026-04-18T07:25:32.873Z</time></trkpt><trkpt lat="44.9511739" lon="9.1837298"><ele>197.00000000000003</ele><time>2026-04-18T07:25:34.934Z</time></trkpt><trkpt lat="44.9511257" lon="9.1838051"><ele>197.0</ele><time>2026-04-18T07:25:36.886Z</time></trkpt><trkpt lat="44.9510776" lon="9.1838916"><ele>197.00000000000003</ele><time>2026-04-18T07:25:38.872Z</time></trkpt><trkpt lat="44.9510241" lon="9.1839714"><ele>197.0</ele><time>2026-04-18T07:25:40.869Z</time></trkpt><trkpt lat="44.9509743" lon="9.1840468"><ele>197.0</ele><time>2026-04-18T07:25:42.868Z</time></trkpt><trkpt lat="44.9509201" lon="9.1841214"><ele>197.0</ele><time>2026-04-18T07:25:44.871Z</time></trkpt><trkpt lat="44.9508654" lon="9.1842175"><ele>197.00000000000003</ele><time>2026-04-18T07:25:46.872Z</time></trkpt><trkpt lat="44.9508064" lon="9.1843039"><ele>197.0</ele><time>2026-04-18T07:25:48.933Z</time></trkpt><trkpt lat="44.9507519" lon="9.1843872"><ele>196.83333333333334</ele><time>2026-04-18T07:25:50.876Z</time></trkpt><trkpt lat="44.9506974" lon="9.1844667"><ele>196.66666666666669</ele><time>2026-04-18T07:25:52.867Z</time></trkpt><trkpt lat="44.9506525" lon="9.1845352"><ele>196.5</ele><time>2026-04-18T07:25:54.872Z</time></trkpt><trkpt lat="44.9506054" lon="9.1846245"><ele>196.33333333333331</ele><time>2026-04-18T07:25:56.872Z</time></trkpt><trkpt lat="44.9505504" lon="9.1847147"><ele>196.16666666666666</ele><time>2026-04-18T07:25:58.871Z</time></trkpt><trkpt lat="44.9504909" lon="9.1848006"><ele>196.0</ele><time>2026-04-18T07:26:00.865Z</time></trkpt><trkpt lat="44.9504246" lon="9.1848909"><ele>197.20000000000002</ele><time>2026-04-18T07:26:02.87Z</time></trkpt><trkpt lat="44.9503648" lon="9.1849793"><ele>198.4</ele><time>2026-04-18T07:26:04.868Z</time></trkpt><trkpt lat="44.9503063" lon="9.1850651"><ele>199.6</ele><time>2026-04-18T07:26:06.873Z</time></trkpt><trkpt lat="44.9502488" lon="9.1851581"><ele>200.8</ele><time>2026-04-18T07:26:08.868Z</time></trkpt><trkpt lat="44.9501814" lon="9.1852642"><ele>202.0</ele><time>2026-04-18T07:26:10.869Z</time></trkpt><trkpt lat="44.9501173" lon="9.1853542"><ele>202.0</ele><time>2026-04-18T07:26:12.87Z</time></trkpt><trkpt lat="44.9500541" lon="9.1854458"><ele>202.0</ele><time>2026-04-18T07:26:14.874Z</time></trkpt><trkpt lat="44.949997" lon="9.1855373"><ele>202.0</ele><time>2026-04-18T07:26:16.871Z</time></trkpt><trkpt lat="44.9499308" lon="9.1856396"><ele>202.0</ele><time>2026-04-18T07:26:18.872Z</time></trkpt><trkpt lat="44.9498628" lon="9.1857413"><ele>202.0</ele><time>2026-04-18T07:26:20.881Z</time></trkpt><trkpt lat="44.9497859" lon="9.1858339"><ele>201.49999999999997</ele><time>2026-04-18T07:26:22.869Z</time></trkpt><trkpt lat="44.9497046" lon="9.1859398"><ele>201.0</ele><time>2026-04-18T07:26:24.866Z</time></trkpt><trkpt lat="44.9496366" lon="9.1860371"><ele>200.5</ele><time>2026-04-18T07:26:26.867Z</time></trkpt><trkpt lat="44.9495764" lon="9.1861249"><ele>200.0</ele><time>2026-04-18T07:26:28.868Z</time></trkpt><trkpt lat="44.9495285" lon="9.1862081"><ele>199.49999999999997</ele><time>2026-04-18T07:26:30.87Z</time></trkpt><trkpt lat="44.9494787" lon="9.1862798"><ele>199.0</ele><time>2026-04-18T07:26:32.873Z</time></trkpt><trkpt lat="44.949421" lon="9.1863756"><ele>198.99999999999997</ele><time>2026-04-18T07:26:34.881Z</time></trkpt><trkpt lat="44.949363" lon="9.1864588"><ele>199.0</ele><time>2026-04-18T07:26:36.879Z</time></trkpt><trkpt lat="44.9492995" lon="9.1865402"><ele>199.0</ele><time>2026-04-18T07:26:38.867Z</time></trkpt><trkpt lat="44.9492405" lon="9.186626"><ele>199.0</ele><time>2026-04-18T07:26:40.869Z</time></trkpt><trkpt lat="44.9491793" lon="9.1867091"><ele>198.99999999999997</ele><time>2026-04-18T07:26:42.87Z</time></trkpt><trkpt lat="44.9491103" lon="9.1867958"><ele>199.0</ele><time>2026-04-18T07:26:44.868Z</time></trkpt><trkpt lat="44.9490633" lon="9.1868855"><ele>198.99999999999997</ele><time>2026-04-18T07:26:46.864Z</time></trkpt><trkpt lat="44.9490109" lon="9.1869653"><ele>199.0</ele><time>2026-04-18T07:26:48.868Z</time></trkpt><trkpt lat="44.9489639" lon="9.1870486"><ele>199.0</ele><time>2026-04-18T07:26:50.874Z</time></trkpt><trkpt lat="44.9489028" lon="9.1871436"><ele>199.0</ele><time>2026-04-18T07:26:53.873Z</time></trkpt><trkpt lat="44.9488579" lon="9.1872252"><ele>198.99999999999997</ele><time>2026-04-18T07:26:55.87Z</time></trkpt><trkpt lat="44.9487995" lon="9.1873096"><ele>199.0</ele><time>2026-04-18T07:26:57.869Z</time></trkpt><trkpt lat="44.9487355" lon="9.1874007"><ele>199.2</ele><time>2026-04-18T07:26:59.871Z</time></trkpt><trkpt lat="44.9486712" lon="9.1875058"><ele>199.39999999999998</ele><time>2026-04-18T07:27:01.879Z</time></trkpt><trkpt lat="44.9485991" lon="9.1876027"><ele>199.6</ele><time>2026-04-18T07:27:03.886Z</time></trkpt><trkpt lat="44.9485216" lon="9.1876927"><ele>199.8</ele><time>2026-04-18T07:27:05.865Z</time></trkpt><trkpt lat="44.9484612" lon="9.1877896"><ele>200.0</ele><time>2026-04-18T07:27:07.865Z</time></trkpt><trkpt lat="44.9483907" lon="9.1878833"><ele>200.16666666666669</ele><time>2026-04-18T07:27:09.876Z</time></trkpt><trkpt lat="44.948332" lon="9.1879766"><ele>200.33333333333334</ele><time>2026-04-18T07:27:11.866Z</time></trkpt><trkpt lat="44.948274" lon="9.1880676"><ele>200.5</ele><time>2026-04-18T07:27:13.865Z</time></trkpt><trkpt lat="44.9482185" lon="9.188168"><ele>200.66666666666669</ele><time>2026-04-18T07:27:15.875Z</time></trkpt><trkpt lat="44.9481601" lon="9.1882713"><ele>200.83333333333334</ele><time>2026-04-18T07:27:17.864Z</time></trkpt><trkpt lat="44.9480984" lon="9.1883612"><ele>201.0</ele><time>2026-04-18T07:27:19.873Z</time></trkpt><trkpt lat="44.9480439" lon="9.1884438"><ele>201.0</ele><time>2026-04-18T07:27:21.866Z</time></trkpt><trkpt lat="44.9479945" lon="9.1885097"><ele>201.0</ele><time>2026-04-18T07:27:23.874Z</time></trkpt><trkpt lat="44.947926" lon="9.188608"><ele>201.0</ele><time>2026-04-18T07:27:26.872Z</time></trkpt><trkpt lat="44.9478583" lon="9.1886785"><ele>201.0</ele><time>2026-04-18T07:27:28.875Z</time></trkpt><trkpt lat="44.9477849" lon="9.188751"><ele>201.0</ele><time>2026-04-18T07:27:30.869Z</time></trkpt><trkpt lat="44.9477043" lon="9.1888287"><ele>201.0</ele><time>2026-04-18T07:27:32.865Z</time></trkpt><trkpt lat="44.9476312" lon="9.1889063"><ele>201.0</ele><time>2026-04-18T07:27:34.873Z</time></trkpt><trkpt lat="44.9475541" lon="9.1889739"><ele>201.0</ele><time>2026-04-18T07:27:36.876Z</time></trkpt><trkpt lat="44.947479" lon="9.1890443"><ele>201.0</ele><time>2026-04-18T07:27:38.863Z</time></trkpt><trkpt lat="44.9474014" lon="9.1891091"><ele>201.0</ele><time>2026-04-18T07:27:40.876Z</time></trkpt><trkpt lat="44.9473221" lon="9.1891757"><ele>201.0</ele><time>2026-04-18T07:27:42.871Z</time></trkpt><trkpt lat="44.9472595" lon="9.1892323"><ele>201.0</ele><time>2026-04-18T07:27:44.859Z</time></trkpt><trkpt lat="44.9472075" lon="9.1892982"><ele>201.66666666666666</ele><time>2026-04-18T07:27:47.862Z</time></trkpt><trkpt lat="44.9472665" lon="9.1893716"><ele>202.33333333333331</ele><time>2026-04-18T07:27:52.864Z</time></trkpt><trkpt lat="44.9473361" lon="9.1893926"><ele>203.0</ele><time>2026-04-18T07:27:54.873Z</time></trkpt><trkpt lat="44.9474124" lon="9.1894237"><ele>203.66666666666666</ele><time>2026-04-18T07:27:56.869Z</time></trkpt><trkpt lat="44.9474928" lon="9.1894572"><ele>204.33333333333331</ele><time>2026-04-18T07:27:58.87Z</time></trkpt><trkpt lat="44.9475704" lon="9.189475"><ele>205.0</ele><time>2026-04-18T07:28:00.878Z</time></trkpt><trkpt lat="44.9476559" lon="9.1894938"><ele>205.16666666666666</ele><time>2026-04-18T07:28:02.873Z</time></trkpt><trkpt lat="44.9477493" lon="9.1895246"><ele>205.33333333333331</ele><time>2026-04-18T07:28:04.867Z</time></trkpt><trkpt lat="44.9478317" lon="9.1895389"><ele>205.5</ele><time>2026-04-18T07:28:06.876Z</time></trkpt><trkpt lat="44.9479195" lon="9.189557"><ele>205.66666666666669</ele><time>2026-04-18T07:28:08.87Z</time></trkpt><trkpt lat="44.9479982" lon="9.1895448"><ele>205.83333333333334</ele><time>2026-04-18T07:28:10.868Z</time></trkpt><trkpt lat="44.9480879" lon="9.1895264"><ele>206.0</ele><time>2026-04-18T07:28:12.869Z</time></trkpt><trkpt lat="44.9481564" lon="9.1895161"><ele>205.99999999999997</ele><time>2026-04-18T07:28:14.872Z</time></trkpt><trkpt lat="44.9482345" lon="9.1895055"><ele>206.0</ele><time>2026-04-18T07:28:16.861Z</time></trkpt><trkpt lat="44.948324" lon="9.1895044"><ele>206.0</ele><time>2026-04-18T07:28:18.864Z</time></trkpt><trkpt lat="44.9483909" lon="9.1895213"><ele>206.0</ele><time>2026-04-18T07:28:20.875Z</time></trkpt><trkpt lat="44.9484585" lon="9.1895373"><ele>206.0</ele><time>2026-04-18T07:28:22.869Z</time></trkpt><trkpt lat="44.9485188" lon="9.1895818"><ele>205.99999999999997</ele><time>2026-04-18T07:28:24.877Z</time></trkpt><trkpt lat="44.9485592" lon="9.1896552"><ele>206.0</ele><time>2026-04-18T07:28:26.873Z</time></trkpt><trkpt lat="44.9485788" lon="9.1897411"><ele>206.00000000000003</ele><time>2026-04-18T07:28:28.873Z</time></trkpt><trkpt lat="44.9485917" lon="9.1898323"><ele>206.0</ele><time>2026-04-18T07:28:30.875Z</time></trkpt><trkpt lat="44.9485911" lon="9.1899657"><ele>206.0</ele><time>2026-04-18T07:28:33.879Z</time></trkpt><trkpt lat="44.9486039" lon="9.1900923"><ele>206.0</ele><time>2026-04-18T07:28:36.867Z</time></trkpt><trkpt lat="44.948623" lon="9.1901979"><ele>206.00000000000003</ele><time>2026-04-18T07:28:39.88Z</time></trkpt><trkpt lat="44.9486696" lon="9.1902946"><ele>206.0</ele><time>2026-04-18T07:28:42.874Z</time></trkpt><trkpt lat="44.9487206" lon="9.1903957"><ele>206.42857142857142</ele><time>2026-04-18T07:28:45.865Z</time></trkpt><trkpt lat="44.9487715" lon="9.1905053"><ele>206.85714285714286</ele><time>2026-04-18T07:28:48.866Z</time></trkpt><trkpt lat="44.9488007" lon="9.1905868"><ele>207.28571428571428</ele><time>2026-04-18T07:28:50.863Z</time></trkpt><trkpt lat="44.9488312" lon="9.1906684"><ele>207.71428571428572</ele><time>2026-04-18T07:28:52.871Z</time></trkpt><trkpt lat="44.9488558" lon="9.1907654"><ele>208.14285714285714</ele><time>2026-04-18T07:28:54.866Z</time></trkpt><trkpt lat="44.9488642" lon="9.1908539"><ele>208.57142857142856</ele><time>2026-04-18T07:28:56.868Z</time></trkpt><trkpt lat="44.9488635" lon="9.1909507"><ele>209.0</ele><time>2026-04-18T07:28:58.87Z</time></trkpt><trkpt lat="44.9488724" lon="9.1910858"><ele>209.71428571428572</ele><time>2026-04-18T07:29:01.866Z</time></trkpt><trkpt lat="44.9489046" lon="9.1911689"><ele>210.42857142857142</ele><time>2026-04-18T07:29:03.867Z</time></trkpt><trkpt lat="44.9489506" lon="9.1912481"><ele>211.14285714285717</ele><time>2026-04-18T07:29:05.871Z</time></trkpt><trkpt lat="44.9489877" lon="9.1913233"><ele>211.85714285714286</ele><time>2026-04-18T07:29:07.866Z</time></trkpt><trkpt lat="44.9490208" lon="9.1914082"><ele>212.57142857142858</ele><time>2026-04-18T07:29:09.869Z</time></trkpt><trkpt lat="44.9490388" lon="9.1915028"><ele>213.2857142857143</ele><time>2026-04-18T07:29:11.867Z</time></trkpt><trkpt lat="44.949051" lon="9.1916062"><ele>214.0</ele><time>2026-04-18T07:29:13.864Z</time></trkpt><trkpt lat="44.9490534" lon="9.1917095"><ele>215.71428571428572</ele><time>2026-04-18T07:29:15.863Z</time></trkpt><trkpt lat="44.9490386" lon="9.1917974"><ele>217.42857142857144</ele><time>2026-04-18T07:29:17.864Z</time></trkpt><trkpt lat="44.9490117" lon="9.19188"><ele>219.14285714285717</ele><time>2026-04-18T07:29:19.869Z</time></trkpt><trkpt lat="44.9489405" lon="9.1919518"><ele>220.85714285714286</ele><time>2026-04-18T07:29:22.923Z</time></trkpt><trkpt lat="44.9488765" lon="9.1919585"><ele>222.57142857142856</ele><time>2026-04-18T07:29:24.925Z</time></trkpt><trkpt lat="44.9488112" lon="9.1919452"><ele>224.2857142857143</ele><time>2026-04-18T07:29:26.862Z</time></trkpt><trkpt lat="44.9487147" lon="9.1919292"><ele>226.0</ele><time>2026-04-18T07:29:29.865Z</time></trkpt><trkpt lat="44.948646" lon="9.1919188"><ele>225.99999999999997</ele><time>2026-04-18T07:29:31.866Z</time></trkpt><trkpt lat="44.9485758" lon="9.1919014"><ele>226.0</ele><time>2026-04-18T07:29:33.877Z</time></trkpt><trkpt lat="44.9484831" lon="9.1918768"><ele>226.0</ele><time>2026-04-18T07:29:36.868Z</time></trkpt><trkpt lat="44.9484057" lon="9.1918135"><ele>226.0</ele><time>2026-04-18T07:29:39.865Z</time></trkpt><trkpt lat="44.9483504" lon="9.1917574"><ele>225.99999999999997</ele><time>2026-04-18T07:29:41.866Z</time></trkpt><trkpt lat="44.9482576" lon="9.191729"><ele>226.0</ele><time>2026-04-18T07:29:44.862Z</time></trkpt><trkpt lat="44.9481963" lon="9.1917503"><ele>228.4</ele><time>2026-04-18T07:29:46.863Z</time></trkpt><trkpt lat="44.9481398" lon="9.1918466"><ele>230.8</ele><time>2026-04-18T07:29:49.865Z</time></trkpt><trkpt lat="44.9480923" lon="9.1919505"><ele>233.20000000000002</ele><time>2026-04-18T07:29:52.861Z</time></trkpt><trkpt lat="44.9480423" lon="9.1920633"><ele>235.60000000000002</ele><time>2026-04-18T07:29:55.876Z</time></trkpt><trkpt lat="44.947998" lon="9.1921688"><ele>238.0</ele><time>2026-04-18T07:29:58.87Z</time></trkpt><trkpt lat="44.9479435" lon="9.1922776"><ele>240.99999999999997</ele><time>2026-04-18T07:30:01.865Z</time></trkpt><trkpt lat="44.9478985" lon="9.1923864"><ele>244.0</ele><time>2026-04-18T07:30:04.874Z</time></trkpt><trkpt lat="44.9478581" lon="9.1925024"><ele>247.0</ele><time>2026-04-18T07:30:07.879Z</time></trkpt><trkpt lat="44.9478176" lon="9.192596"><ele>250.0</ele><time>2026-04-18T07:30:10.862Z</time></trkpt><trkpt lat="44.9477919" lon="9.1926778"><ele>252.99999999999997</ele><time>2026-04-18T07:30:12.867Z</time></trkpt><trkpt lat="44.9477475" lon="9.1927842"><ele>256.0</ele><time>2026-04-18T07:30:15.862Z</time></trkpt><trkpt lat="44.9477028" lon="9.1928976"><ele>256.0</ele><time>2026-04-18T07:30:18.862Z</time></trkpt><trkpt lat="44.94766" lon="9.1930199"><ele>255.99999999999997</ele><time>2026-04-18T07:30:21.866Z</time></trkpt><trkpt lat="44.9476209" lon="9.1930981"><ele>256.0</ele><time>2026-04-18T07:30:23.862Z</time></trkpt><trkpt lat="44.9475755" lon="9.1931928"><ele>256.0</ele><time>2026-04-18T07:30:26.861Z</time></trkpt><trkpt lat="44.9475396" lon="9.1932775"><ele>255.99999999999997</ele><time>2026-04-18T07:30:28.859Z</time></trkpt><trkpt lat="44.9474982" lon="9.1933449"><ele>256.0</ele><time>2026-04-18T07:30:30.871Z</time></trkpt><trkpt lat="44.9474444" lon="9.1934032"><ele>256.0</ele><time>2026-04-18T07:30:32.863Z</time></trkpt><trkpt lat="44.947394" lon="9.1934585"><ele>256.8333333333333</ele><time>2026-04-18T07:30:34.864Z</time></trkpt><trkpt lat="44.9473239" lon="9.1935446"><ele>257.66666666666663</ele><time>2026-04-18T07:30:37.872Z</time></trkpt><trkpt lat="44.947283" lon="9.193621"><ele>258.5</ele><time>2026-04-18T07:30:39.867Z</time></trkpt><trkpt lat="44.9472643" lon="9.1937141"><ele>259.3333333333333</ele><time>2026-04-18T07:30:41.866Z</time></trkpt><trkpt lat="44.9472527" lon="9.1938461"><ele>260.1666666666667</ele><time>2026-04-18T07:30:44.872Z</time></trkpt><trkpt lat="44.9472366" lon="9.1939651"><ele>261.0</ele><time>2026-04-18T07:30:47.863Z</time></trkpt><trkpt lat="44.9472472" lon="9.1940653"><ele>262.7142857142857</ele><time>2026-04-18T07:30:50.872Z</time></trkpt><trkpt lat="44.9472933" lon="9.1941351"><ele>264.42857142857144</ele><time>2026-04-18T07:30:53.923Z</time></trkpt><trkpt lat="44.9473582" lon="9.1941988"><ele>266.1428571428571</ele><time>2026-04-18T07:30:56.887Z</time></trkpt><trkpt lat="44.9474164" lon="9.1942375"><ele>267.8571428571429</ele><time>2026-04-18T07:30:59.869Z</time></trkpt><trkpt lat="44.9474835" lon="9.1942936"><ele>269.57142857142856</ele><time>2026-04-18T07:31:02.869Z</time></trkpt><trkpt lat="44.9475402" lon="9.1943486"><ele>271.2857142857143</ele><time>2026-04-18T07:31:05.869Z</time></trkpt><trkpt lat="44.9476046" lon="9.1944069"><ele>273.0</ele><time>2026-04-18T07:31:08.866Z</time></trkpt><trkpt lat="44.947668" lon="9.1944676"><ele>277.5</ele><time>2026-04-18T07:31:11.874Z</time></trkpt><trkpt lat="44.9477297" lon="9.1945282"><ele>282.0</ele><time>2026-04-18T07:31:14.872Z</time></trkpt><trkpt lat="44.9478086" lon="9.1945834"><ele>286.5</ele><time>2026-04-18T07:31:18.864Z</time></trkpt><trkpt lat="44.947862" lon="9.1946824"><ele>291.0</ele><time>2026-04-18T07:31:21.859Z</time></trkpt><trkpt lat="44.9478983" lon="9.1947884"><ele>295.5</ele><time>2026-04-18T07:31:24.867Z</time></trkpt><trkpt lat="44.9479207" lon="9.1948935"><ele>300.0</ele><time>2026-04-18T07:31:27.864Z</time></trkpt><trkpt lat="44.9479313" lon="9.1950153"><ele>300.3333333333333</ele><time>2026-04-18T07:31:30.864Z</time></trkpt><trkpt lat="44.9479446" lon="9.195126"><ele>300.6666666666667</ele><time>2026-04-18T07:31:33.866Z</time></trkpt><trkpt lat="44.9479747" lon="9.1952203"><ele>301.0</ele><time>2026-04-18T07:31:36.865Z</time></trkpt><trkpt lat="44.9480089" lon="9.195316"><ele>301.33333333333337</ele><time>2026-04-18T07:31:39.884Z</time></trkpt><trkpt lat="44.9480546" lon="9.1953842"><ele>301.6666666666667</ele><time>2026-04-18T07:31:42.923Z</time></trkpt><trkpt lat="44.9481093" lon="9.1954731"><ele>302.0</ele><time>2026-04-18T07:31:46.866Z</time></trkpt><trkpt lat="44.9481646" lon="9.1955381"><ele>302.00000000000006</ele><time>2026-04-18T07:31:50.862Z</time></trkpt><trkpt lat="44.9482199" lon="9.1955852"><ele>302.0</ele><time>2026-04-18T07:31:53.872Z</time></trkpt><trkpt lat="44.9482741" lon="9.1956357"><ele>302.0</ele><time>2026-04-18T07:31:56.853Z</time></trkpt><trkpt lat="44.948327" lon="9.195698"><ele>302.0</ele><time>2026-04-18T07:31:59.866Z</time></trkpt><trkpt lat="44.9483694" lon="9.1957719"><ele>302.0</ele><time>2026-04-18T07:32:02.866Z</time></trkpt><trkpt lat="44.9484108" lon="9.1958444"><ele>302.00000000000006</ele><time>2026-04-18T07:32:06.862Z</time></trkpt><trkpt lat="44.9484559" lon="9.1959287"><ele>302.0</ele><time>2026-04-18T07:32:10.869Z</time></trkpt><trkpt lat="44.9484859" lon="9.1960407"><ele>303.00000000000006</ele><time>2026-04-18T07:32:14.872Z</time></trkpt><trkpt lat="44.9485213" lon="9.1961173"><ele>304.0</ele><time>2026-04-18T07:32:18.861Z</time></trkpt><trkpt lat="44.9485859" lon="9.1961709"><ele>305.0</ele><time>2026-04-18T07:32:22.866Z</time></trkpt><trkpt lat="44.948662" lon="9.1961851"><ele>306.0</ele><time>2026-04-18T07:32:25.875Z</time></trkpt><trkpt lat="44.948739" lon="9.1961969"><ele>307.0</ele><time>2026-04-18T07:32:28.867Z</time></trkpt><trkpt lat="44.9488069" lon="9.1962065"><ele>308.00000000000006</ele><time>2026-04-18T07:32:31.867Z</time></trkpt><trkpt lat="44.9488887" lon="9.1962083"><ele>309.0</ele><time>2026-04-18T07:32:36.932Z</time></trkpt><trkpt lat="44.9489644" lon="9.1962164"><ele>309.00000000000006</ele><time>2026-04-18T07:32:39.875Z</time></trkpt><trkpt lat="44.9490284" lon="9.1962386"><ele>309.0</ele><time>2026-04-18T07:32:42.861Z</time></trkpt><trkpt lat="44.9490886" lon="9.1962672"><ele>309.0</ele><time>2026-04-18T07:32:45.862Z</time></trkpt><trkpt lat="44.9491506" lon="9.1963052"><ele>309.0</ele><time>2026-04-18T07:32:48.862Z</time></trkpt><trkpt lat="44.9492189" lon="9.1963338"><ele>309.0</ele><time>2026-04-18T07:32:51.885Z</time></trkpt><trkpt lat="44.9492916" lon="9.1963852"><ele>309.00000000000006</ele><time>2026-04-18T07:32:54.861Z</time></trkpt><trkpt lat="44.9493648" lon="9.196416"><ele>309.0</ele><time>2026-04-18T07:32:57.868Z</time></trkpt><trkpt lat="44.9494228" lon="9.1964636"><ele>308.28571428571433</ele><time>2026-04-18T07:33:00.87Z</time></trkpt><trkpt lat="44.9494932" lon="9.1964979"><ele>307.57142857142856</ele><time>2026-04-18T07:33:04.871Z</time></trkpt><trkpt lat="44.9495699" lon="9.1965527"><ele>306.8571428571429</ele><time>2026-04-18T07:33:07.874Z</time></trkpt><trkpt lat="44.9496294" lon="9.1965986"><ele>306.14285714285717</ele><time>2026-04-18T07:33:09.866Z</time></trkpt><trkpt lat="44.9496942" lon="9.1966326"><ele>305.42857142857144</ele><time>2026-04-18T07:33:12.876Z</time></trkpt><trkpt lat="44.9497371" lon="9.1967043"><ele>304.7142857142857</ele><time>2026-04-18T07:33:16.864Z</time></trkpt><trkpt lat="44.9497702" lon="9.1968055"><ele>304.0</ele><time>2026-04-18T07:33:20.872Z</time></trkpt><trkpt lat="44.9497778" lon="9.1969065"><ele>305.57142857142856</ele><time>2026-04-18T07:33:23.872Z</time></trkpt><trkpt lat="44.9497634" lon="9.1970056"><ele>307.14285714285717</ele><time>2026-04-18T07:33:27.939Z</time></trkpt><trkpt lat="44.9497598" lon="9.1971117"><ele>308.7142857142857</ele><time>2026-04-18T07:33:31.867Z</time></trkpt><trkpt lat="44.9497945" lon="9.197209"><ele>310.2857142857143</ele><time>2026-04-18T07:33:34.865Z</time></trkpt><trkpt lat="44.9497962" lon="9.1972995"><ele>311.8571428571429</ele><time>2026-04-18T07:33:37.864Z</time></trkpt><trkpt lat="44.9497982" lon="9.1974098"><ele>313.42857142857144</ele><time>2026-04-18T07:33:41.871Z</time></trkpt><trkpt lat="44.9498031" lon="9.1975167"><ele>315.0</ele><time>2026-04-18T07:33:45.856Z</time></trkpt><trkpt lat="44.9497994" lon="9.1976292"><ele>316.8333333333333</ele><time>2026-04-18T07:33:50.866Z</time></trkpt><trkpt lat="44.9497559" lon="9.1977135"><ele>318.6666666666667</ele><time>2026-04-18T07:33:56.869Z</time></trkpt><trkpt lat="44.9496953" lon="9.1977723"><ele>320.5</ele><time>2026-04-18T07:34:01.873Z</time></trkpt><trkpt lat="44.9496302" lon="9.1978363"><ele>322.33333333333337</ele><time>2026-04-18T07:34:05.869Z</time></trkpt><trkpt lat="44.9495689" lon="9.1979029"><ele>324.1666666666667</ele><time>2026-04-18T07:34:09.885Z</time></trkpt><trkpt lat="44.949512" lon="9.1979826"><ele>326.0</ele><time>2026-04-18T07:34:13.882Z</time></trkpt><trkpt lat="44.9494522" lon="9.1980538"><ele>326.0</ele><time>2026-04-18T07:34:17.873Z</time></trkpt><trkpt lat="44.9493906" lon="9.1981152"><ele>326.0</ele><time>2026-04-18T07:34:21.87Z</time></trkpt><trkpt lat="44.9493254" lon="9.1981765"><ele>326.0</ele><time>2026-04-18T07:34:26.865Z</time></trkpt><trkpt lat="44.9492968" lon="9.1982589"><ele>326.0</ele><time>2026-04-18T07:34:30.884Z</time></trkpt><trkpt lat="44.9492881" lon="9.1983498"><ele>326.0</ele><time>2026-04-18T07:34:33.87Z</time></trkpt><trkpt lat="44.9492936" lon="9.1984541"><ele>326.0</ele><time>2026-04-18T07:34:37.864Z</time></trkpt><trkpt lat="44.9493115" lon="9.1985559"><ele>326.0</ele><time>2026-04-18T07:34:40.87Z</time></trkpt><trkpt lat="44.9493175" lon="9.198659"><ele>326.83333333333337</ele><time>2026-04-18T07:34:43.872Z</time></trkpt><trkpt lat="44.9493404" lon="9.1987653"><ele>327.6666666666667</ele><time>2026-04-18T07:34:46.874Z</time></trkpt><trkpt lat="44.9493838" lon="9.1988584"><ele>328.5</ele><time>2026-04-18T07:34:49.868Z</time></trkpt><trkpt lat="44.9494219" lon="9.1989297"><ele>329.3333333333333</ele><time>2026-04-18T07:34:52.871Z</time></trkpt><trkpt lat="44.9494474" lon="9.1990225"><ele>330.16666666666663</ele><time>2026-04-18T07:34:56.874Z</time></trkpt><trkpt lat="44.9494492" lon="9.1991386"><ele>331.0</ele><time>2026-04-18T07:35:00.874Z</time></trkpt><trkpt lat="44.9494415" lon="9.1992522"><ele>332.3333333333333</ele><time>2026-04-18T07:35:04.866Z</time></trkpt><trkpt lat="44.9494314" lon="9.1993515"><ele>333.66666666666663</ele><time>2026-04-18T07:35:07.862Z</time></trkpt><trkpt lat="44.9494045" lon="9.1994702"><ele>335.0</ele><time>2026-04-18T07:35:11.865Z</time></trkpt><trkpt lat="44.949403" lon="9.1995606"><ele>336.3333333333333</ele><time>2026-04-18T07:35:14.871Z</time></trkpt><trkpt lat="44.9493966" lon="9.1996611"><ele>337.6666666666667</ele><time>2026-04-18T07:35:17.866Z</time></trkpt><trkpt lat="44.9494073" lon="9.1997696"><ele>339.0</ele><time>2026-04-18T07:35:21.865Z</time></trkpt><trkpt lat="44.9494415" lon="9.199873"><ele>341.0</ele><time>2026-04-18T07:35:25.867Z</time></trkpt><trkpt lat="44.9494738" lon="9.1999525"><ele>343.0</ele><time>2026-04-18T07:35:28.869Z</time></trkpt><trkpt lat="44.9495073" lon="9.2000351"><ele>345.0</ele><time>2026-04-18T07:35:31.941Z</time></trkpt><trkpt lat="44.9495535" lon="9.2001098"><ele>347.0</ele><time>2026-04-18T07:35:34.866Z</time></trkpt><trkpt lat="44.9495904" lon="9.2002015"><ele>349.0</ele><time>2026-04-18T07:35:37.866Z</time></trkpt><trkpt lat="44.9496215" lon="9.2002849"><ele>351.0</ele><time>2026-04-18T07:35:40.866Z</time></trkpt><trkpt lat="44.9496613" lon="9.2003792"><ele>353.0</ele><time>2026-04-18T07:35:43.871Z</time></trkpt><trkpt lat="44.9496915" lon="9.2004801"><ele>353.0</ele><time>2026-04-18T07:35:46.87Z</time></trkpt><trkpt lat="44.9497129" lon="9.2005852"><ele>353.0</ele><time>2026-04-18T07:35:49.868Z</time></trkpt><trkpt lat="44.9497326" lon="9.2006894"><ele>353.0</ele><time>2026-04-18T07:35:52.865Z</time></trkpt><trkpt lat="44.9497454" lon="9.200798"><ele>353.0</ele><time>2026-04-18T07:35:55.861Z</time></trkpt><trkpt lat="44.9497646" lon="9.2009054"><ele>353.0</ele><time>2026-04-18T07:35:58.867Z</time></trkpt><trkpt lat="44.9497772" lon="9.201006"><ele>353.0</ele><time>2026-04-18T07:36:01.861Z</time></trkpt><trkpt lat="44.9497888" lon="9.2010967"><ele>353.0</ele><time>2026-04-18T07:36:04.883Z</time></trkpt><trkpt lat="44.9498046" lon="9.2011871"><ele>354.7142857142857</ele><time>2026-04-18T07:36:07.874Z</time></trkpt><trkpt lat="44.9498206" lon="9.2012885"><ele>356.42857142857144</ele><time>2026-04-18T07:36:10.866Z</time></trkpt><trkpt lat="44.9498357" lon="9.2013809"><ele>358.14285714285717</ele><time>2026-04-18T07:36:13.868Z</time></trkpt><trkpt lat="44.9498452" lon="9.2014896"><ele>359.8571428571429</ele><time>2026-04-18T07:36:16.865Z</time></trkpt><trkpt lat="44.9498496" lon="9.2015956"><ele>361.57142857142856</ele><time>2026-04-18T07:36:19.867Z</time></trkpt><trkpt lat="44.9498482" lon="9.2016955"><ele>363.28571428571433</ele><time>2026-04-18T07:36:22.878Z</time></trkpt><trkpt lat="44.9498486" lon="9.2017852"><ele>365.0</ele><time>2026-04-18T07:36:26.872Z</time></trkpt><trkpt lat="44.9498373" lon="9.2018773"><ele>365.8571428571429</ele><time>2026-04-18T07:36:32.866Z</time></trkpt><trkpt lat="44.9498227" lon="9.2019758"><ele>366.7142857142857</ele><time>2026-04-18T07:37:08.869Z</time></trkpt><trkpt lat="44.9498111" lon="9.2020797"><ele>367.57142857142856</ele><time>2026-04-18T07:37:13.869Z</time></trkpt><trkpt lat="44.949798" lon="9.202171"><ele>368.42857142857144</ele><time>2026-04-18T07:37:17.873Z</time></trkpt><trkpt lat="44.9497823" lon="9.2022775"><ele>369.2857142857143</ele><time>2026-04-18T07:37:21.874Z</time></trkpt><trkpt lat="44.949773" lon="9.2023771"><ele>370.14285714285717</ele><time>2026-04-18T07:37:24.876Z</time></trkpt><trkpt lat="44.9497902" lon="9.2024856"><ele>371.0</ele><time>2026-04-18T07:37:28.866Z</time></trkpt><trkpt lat="44.9498243" lon="9.2025789"><ele>371.85714285714283</ele><time>2026-04-18T07:37:31.87Z</time></trkpt><trkpt lat="44.9498553" lon="9.2026636"><ele>372.7142857142857</ele><time>2026-04-18T07:37:34.871Z</time></trkpt><trkpt lat="44.9498939" lon="9.2027672"><ele>373.57142857142856</ele><time>2026-04-18T07:37:38.866Z</time></trkpt><trkpt lat="44.9499188" lon="9.2028601"><ele>374.42857142857144</ele><time>2026-04-18T07:37:41.867Z</time></trkpt><trkpt lat="44.949958" lon="9.2029453"><ele>375.2857142857143</ele><time>2026-04-18T07:37:44.87Z</time></trkpt><trkpt lat="44.9499967" lon="9.20302"><ele>376.1428571428571</ele><time>2026-04-18T07:37:47.895Z</time></trkpt><trkpt lat="44.9500347" lon="9.2031133"><ele>377.0</ele><time>2026-04-18T07:37:50.877Z</time></trkpt><trkpt lat="44.9500722" lon="9.2032217"><ele>377.57142857142856</ele><time>2026-04-18T07:37:53.874Z</time></trkpt><trkpt lat="44.9501154" lon="9.2033104"><ele>378.1428571428571</ele><time>2026-04-18T07:37:56.879Z</time></trkpt><trkpt lat="44.9501492" lon="9.203397"><ele>378.71428571428567</ele><time>2026-04-18T07:37:59.871Z</time></trkpt><trkpt lat="44.9501823" lon="9.2034785"><ele>379.2857142857143</ele><time>2026-04-18T07:38:02.866Z</time></trkpt><trkpt lat="44.9502082" lon="9.2035689"><ele>379.8571428571429</ele><time>2026-04-18T07:38:05.877Z</time></trkpt><trkpt lat="44.950235" lon="9.2036537"><ele>380.4285714285714</ele><time>2026-04-18T07:38:08.875Z</time></trkpt><trkpt lat="44.9502731" lon="9.2037558"><ele>381.0</ele><time>2026-04-18T07:38:12.876Z</time></trkpt><trkpt lat="44.9503021" lon="9.2038491"><ele>381.0</ele><time>2026-04-18T07:38:16.865Z</time></trkpt><trkpt lat="44.9503317" lon="9.2039381"><ele>381.0</ele><time>2026-04-18T07:38:20.87Z</time></trkpt><trkpt lat="44.950341" lon="9.2040368"><ele>381.0</ele><time>2026-04-18T07:38:36.863Z</time></trkpt><trkpt lat="44.9503632" lon="9.2041286"><ele>381.0</ele><time>2026-04-18T07:38:41.874Z</time></trkpt><trkpt lat="44.950381" lon="9.2042246"><ele>381.0</ele><time>2026-04-18T07:38:45.869Z</time></trkpt><trkpt lat="44.9503945" lon="9.204322"><ele>381.0</ele><time>2026-04-18T07:38:49.87Z</time></trkpt><trkpt lat="44.950405" lon="9.2044244"><ele>381.0</ele><time>2026-04-18T07:38:53.877Z</time></trkpt><trkpt lat="44.9504236" lon="9.2045218"><ele>382.7142857142857</ele><time>2026-04-18T07:38:58.874Z</time></trkpt><trkpt lat="44.9504285" lon="9.2046144"><ele>384.42857142857144</ele><time>2026-04-18T07:39:02.867Z</time></trkpt><trkpt lat="44.950444" lon="9.2047116"><ele>386.14285714285717</ele><time>2026-04-18T07:39:06.867Z</time></trkpt><trkpt lat="44.9504534" lon="9.2048022"><ele>387.8571428571429</ele><time>2026-04-18T07:39:10.866Z</time></trkpt><trkpt lat="44.950435" lon="9.2049086"><ele>389.57142857142856</ele><time>2026-04-18T07:39:15.87Z</time></trkpt><trkpt lat="44.9504001" lon="9.2049899"><ele>391.28571428571433</ele><time>2026-04-18T07:39:19.873Z</time></trkpt><trkpt lat="44.9503527" lon="9.2050502"><ele>393.0</ele><time>2026-04-18T07:39:23.879Z</time></trkpt><trkpt lat="44.9503064" lon="9.2051162"><ele>393.5714285714286</ele><time>2026-04-18T07:39:27.874Z</time></trkpt><trkpt lat="44.9502489" lon="9.2051716"><ele>394.14285714285717</ele><time>2026-04-18T07:39:32.879Z</time></trkpt><trkpt lat="44.9501957" lon="9.2052196"><ele>394.7142857142857</ele><time>2026-04-18T07:39:36.862Z</time></trkpt><trkpt lat="44.9501332" lon="9.2052589"><ele>395.28571428571433</ele><time>2026-04-18T07:39:40.87Z</time></trkpt><trkpt lat="44.9500593" lon="9.2052902"><ele>395.85714285714283</ele><time>2026-04-18T07:39:45.869Z</time></trkpt><trkpt lat="44.9499861" lon="9.2053035"><ele>396.42857142857144</ele><time>2026-04-18T07:39:49.869Z</time></trkpt><trkpt lat="44.9499268" lon="9.2053391"><ele>397.0</ele><time>2026-04-18T07:39:52.864Z</time></trkpt><trkpt lat="44.9498518" lon="9.2054009"><ele>398.2857142857143</ele><time>2026-04-18T07:39:55.875Z</time></trkpt><trkpt lat="44.949782" lon="9.2054665"><ele>399.57142857142856</ele><time>2026-04-18T07:39:58.865Z</time></trkpt><trkpt lat="44.9497248" lon="9.2055229"><ele>400.8571428571429</ele><time>2026-04-18T07:40:02.869Z</time></trkpt><trkpt lat="44.9496588" lon="9.2055772"><ele>402.1428571428571</ele><time>2026-04-18T07:40:06.871Z</time></trkpt><trkpt lat="44.9495935" lon="9.2056195"><ele>403.42857142857144</ele><time>2026-04-18T07:40:09.874Z</time></trkpt><trkpt lat="44.9495316" lon="9.2056544"><ele>404.7142857142857</ele><time>2026-04-18T07:40:11.883Z</time></trkpt><trkpt lat="44.9494733" lon="9.2056894"><ele>406.0</ele><time>2026-04-18T07:40:13.876Z</time></trkpt><trkpt lat="44.9494012" lon="9.2057372"><ele>406.50000000000006</ele><time>2026-04-18T07:40:16.875Z</time></trkpt><trkpt lat="44.9493366" lon="9.2058215"><ele>407.0</ele><time>2026-04-18T07:40:19.87Z</time></trkpt><trkpt lat="44.9492818" lon="9.2058794"><ele>407.5</ele><time>2026-04-18T07:40:21.876Z</time></trkpt><trkpt lat="44.9492022" lon="9.2059207"><ele>408.0</ele><time>2026-04-18T07:40:24.877Z</time></trkpt><trkpt lat="44.9491374" lon="9.2059616"><ele>408.50000000000006</ele><time>2026-04-18T07:40:28.878Z</time></trkpt><trkpt lat="44.9490775" lon="9.2059994"><ele>409.0</ele><time>2026-04-18T07:40:31.873Z</time></trkpt><trkpt lat="44.9489996" lon="9.2060375"><ele>408.1428571428571</ele><time>2026-04-18T07:40:35.862Z</time></trkpt><trkpt lat="44.9489399" lon="9.20607"><ele>407.28571428571433</ele><time>2026-04-18T07:40:38.868Z</time></trkpt><trkpt lat="44.9488785" lon="9.2061098"><ele>406.42857142857144</ele><time>2026-04-18T07:40:41.936Z</time></trkpt><trkpt lat="44.948812" lon="9.2061364"><ele>405.57142857142856</ele><time>2026-04-18T07:40:45.867Z</time></trkpt><trkpt lat="44.9487439" lon="9.2061737"><ele>404.71428571428567</ele><time>2026-04-18T07:40:49.874Z</time></trkpt><trkpt lat="44.9486761" lon="9.2062002"><ele>403.8571428571429</ele><time>2026-04-18T07:40:53.87Z</time></trkpt><trkpt lat="44.9485986" lon="9.2062295"><ele>403.0</ele><time>2026-04-18T07:40:57.872Z</time></trkpt><trkpt lat="44.9485273" lon="9.2062477"><ele>403.0</ele><time>2026-04-18T07:41:00.874Z</time></trkpt><trkpt lat="44.9484601" lon="9.2062747"><ele>403.0</ele><time>2026-04-18T07:41:03.875Z</time></trkpt><trkpt lat="44.9484006" lon="9.2063063"><ele>403.0</ele><time>2026-04-18T07:41:06.864Z</time></trkpt><trkpt lat="44.9483442" lon="9.2063483"><ele>403.0</ele><time>2026-04-18T07:41:09.883Z</time></trkpt><trkpt lat="44.9482827" lon="9.206384"><ele>403.0</ele><time>2026-04-18T07:41:12.879Z</time></trkpt><trkpt lat="44.9482057" lon="9.2064369"><ele>403.0</ele><time>2026-04-18T07:41:16.956Z</time></trkpt><trkpt lat="44.9481327" lon="9.2064726"><ele>403.0</ele><time>2026-04-18T07:41:20.873Z</time></trkpt><trkpt lat="44.9480642" lon="9.2065115"><ele>404.14285714285717</ele><time>2026-04-18T07:41:24.867Z</time></trkpt><trkpt lat="44.94799" lon="9.2065399"><ele>405.2857142857143</ele><time>2026-04-18T07:41:29.883Z</time></trkpt><trkpt lat="44.9479183" lon="9.2065778"><ele>406.42857142857144</ele><time>2026-04-18T07:41:34.87Z</time></trkpt><trkpt lat="44.9478426" lon="9.206624"><ele>407.57142857142856</ele><time>2026-04-18T07:41:39.873Z</time></trkpt><trkpt lat="44.9477811" lon="9.2066613"><ele>408.71428571428567</ele><time>2026-04-18T07:41:43.876Z</time></trkpt><trkpt lat="44.9477185" lon="9.2067207"><ele>409.85714285714283</ele><time>2026-04-18T07:41:48.867Z</time></trkpt><trkpt lat="44.9476566" lon="9.2067487"><ele>411.0</ele><time>2026-04-18T07:41:52.865Z</time></trkpt><trkpt lat="44.9475862" lon="9.2067747"><ele>411.85714285714283</ele><time>2026-04-18T07:41:57.87Z</time></trkpt><trkpt lat="44.9475217" lon="9.2068208"><ele>412.71428571428567</ele><time>2026-04-18T07:42:01.866Z</time></trkpt><trkpt lat="44.9474629" lon="9.2068667"><ele>413.57142857142856</ele><time>2026-04-18T07:42:05.878Z</time></trkpt><trkpt lat="44.9474016" lon="9.2069228"><ele>414.42857142857144</ele><time>2026-04-18T07:42:09.883Z</time></trkpt><trkpt lat="44.9473268" lon="9.2069689"><ele>415.2857142857143</ele><time>2026-04-18T07:42:14.869Z</time></trkpt><trkpt lat="44.9472651" lon="9.2070139"><ele>416.14285714285717</ele><time>2026-04-18T07:42:18.869Z</time></trkpt><trkpt lat="44.9472051" lon="9.2070753"><ele>417.0</ele><time>2026-04-18T07:42:22.87Z</time></trkpt><trkpt lat="44.9471507" lon="9.20713"><ele>417.0</ele><time>2026-04-18T07:42:25.86Z</time></trkpt><trkpt lat="44.947085" lon="9.2071863"><ele>417.0</ele><time>2026-04-18T07:42:28.875Z</time></trkpt><trkpt lat="44.9470042" lon="9.2072343"><ele>417.0</ele><time>2026-04-18T07:42:31.873Z</time></trkpt><trkpt lat="44.9469281" lon="9.2072921"><ele>417.0</ele><time>2026-04-18T07:42:34.867Z</time></trkpt><trkpt lat="44.9468398" lon="9.2073439"><ele>417.0</ele><time>2026-04-18T07:42:37.871Z</time></trkpt><trkpt lat="44.9467658" lon="9.2073981"><ele>417.0</ele><time>2026-04-18T07:42:40.86Z</time></trkpt><trkpt lat="44.9467167" lon="9.2074558"><ele>417.7142857142857</ele><time>2026-04-18T07:42:43.871Z</time></trkpt><trkpt lat="44.946652" lon="9.2075289"><ele>418.4285714285714</ele><time>2026-04-18T07:42:47.88Z</time></trkpt><trkpt lat="44.9465954" lon="9.2075715"><ele>419.1428571428571</ele><time>2026-04-18T07:42:49.869Z</time></trkpt><trkpt lat="44.9465316" lon="9.207591"><ele>419.8571428571429</ele><time>2026-04-18T07:42:51.867Z</time></trkpt><trkpt lat="44.9464628" lon="9.2076147"><ele>420.57142857142856</ele><time>2026-04-18T07:42:53.866Z</time></trkpt><trkpt lat="44.9463914" lon="9.2076357"><ele>421.2857142857143</ele><time>2026-04-18T07:42:55.875Z</time></trkpt><trkpt lat="44.9463182" lon="9.2076751"><ele>422.0</ele><time>2026-04-18T07:42:59.864Z</time></trkpt><trkpt lat="44.9462439" lon="9.2077281"><ele>422.0</ele><time>2026-04-18T07:43:03.873Z</time></trkpt><trkpt lat="44.946183" lon="9.2077597"><ele>422.0</ele><time>2026-04-18T07:43:06.865Z</time></trkpt><trkpt lat="44.9461205" lon="9.2078024"><ele>422.0</ele><time>2026-04-18T07:43:09.872Z</time></trkpt><trkpt lat="44.9460447" lon="9.2078517"><ele>422.0</ele><time>2026-04-18T07:43:13.863Z</time></trkpt><trkpt lat="44.945989" lon="9.207894"><ele>422.0</ele><time>2026-04-18T07:43:16.963Z</time></trkpt><trkpt lat="44.9459271" lon="9.2079359"><ele>422.0</ele><time>2026-04-18T07:43:19.867Z</time></trkpt><trkpt lat="44.9458684" lon="9.207978"><ele>422.0</ele><time>2026-04-18T07:43:22.875Z</time></trkpt><trkpt lat="44.9458044" lon="9.2080124"><ele>421.99999999999994</ele><time>2026-04-18T07:43:25.869Z</time></trkpt><trkpt lat="44.9457301" lon="9.2080677"><ele>422.0</ele><time>2026-04-18T07:43:28.94Z</time></trkpt><trkpt lat="44.9456701" lon="9.2081039"><ele>422.0</ele><time>2026-04-18T07:43:31.876Z</time></trkpt><trkpt lat="44.9455956" lon="9.2081271"><ele>422.0</ele><time>2026-04-18T07:43:35.871Z</time></trkpt><trkpt lat="44.9455261" lon="9.2081348"><ele>421.99999999999994</ele><time>2026-04-18T07:43:38.939Z</time></trkpt><trkpt lat="44.9454486" lon="9.2081457"><ele>422.0</ele><time>2026-04-18T07:43:42.865Z</time></trkpt><trkpt lat="44.945989" lon="9.207894"><ele>422.0</ele><time>2026-04-18T07:43:16.963Z</time></trkpt><trkpt lat="44.9459271" lon="9.2079359"><ele>422.0</ele><time>2026-04-18T07:43:19.867Z</time></trkpt><trkpt lat="44.9458684" lon="9.207978"><ele>422.0</ele><time>2026-04-18T07:43:22.875Z</time></trkpt><trkpt lat="44.9458044" lon="9.2080124"><ele>422.0</ele><time>2026-04-18T07:43:25.869Z</time></trkpt><trkpt lat="44.9457301" lon="9.2080677"><ele>422.0</ele><time>2026-04-18T07:43:28.94Z</time></trkpt><trkpt lat="44.9456701" lon="9.2081039"><ele>422.0</ele><time>2026-04-18T07:43:31.876Z</time></trkpt><trkpt lat="44.9455956" lon="9.2081271"><ele>422.0</ele><time>2026-04-18T07:43:35.871Z</time></trkpt><trkpt lat="44.9455261" lon="9.2081348"><ele>422.2857142857143</ele><time>2026-04-18T07:43:38.939Z</time></trkpt><trkpt lat="44.9454486" lon="9.2081457"><ele>422.57142857142856</ele><time>2026-04-18T07:43:42.865Z</time></trkpt><trkpt lat="44.9453744" lon="9.2081571"><ele>422.8571428571429</ele><time>2026-04-18T07:43:46.867Z</time></trkpt><trkpt lat="44.9453076" lon="9.2081859"><ele>423.1428571428571</ele><time>2026-04-18T07:43:49.892Z</time></trkpt><trkpt lat="44.9452451" lon="9.2082135"><ele>423.4285714285714</ele><time>2026-04-18T07:43:52.869Z</time></trkpt><trkpt lat="44.9451851" lon="9.2082646"><ele>423.7142857142857</ele><time>2026-04-18T07:43:55.937Z</time></trkpt><trkpt lat="44.9451337" lon="9.2083271"><ele>424.0</ele><time>2026-04-18T07:43:58.868Z</time></trkpt><trkpt lat="44.9450651" lon="9.2083556"><ele>425.0</ele><time>2026-04-18T07:44:01.873Z</time></trkpt><trkpt lat="44.9449998" lon="9.2083618"><ele>426.0</ele><time>2026-04-18T07:44:04.87Z</time></trkpt><trkpt lat="44.9449353" lon="9.2083797"><ele>427.0</ele><time>2026-04-18T07:44:07.927Z</time></trkpt><trkpt lat="44.9448616" lon="9.2084077"><ele>428.0</ele><time>2026-04-18T07:44:11.869Z</time></trkpt><trkpt lat="44.9447967" lon="9.2084424"><ele>429.0</ele><time>2026-04-18T07:44:15.863Z</time></trkpt><trkpt lat="44.9447321" lon="9.2084646"><ele>430.0</ele><time>2026-04-18T07:44:20.939Z</time></trkpt><trkpt lat="44.9446401" lon="9.2084569"><ele>431.0</ele><time>2026-04-18T07:44:35.867Z</time></trkpt><trkpt lat="44.9445717" lon="9.2084783"><ele>431.0</ele><time>2026-04-18T07:44:40.86Z</time></trkpt><trkpt lat="44.9444916" lon="9.2084883"><ele>431.0</ele><time>2026-04-18T07:44:45.865Z</time></trkpt><trkpt lat="44.9444139" lon="9.2084908"><ele>431.0</ele><time>2026-04-18T07:45:08.872Z</time></trkpt><trkpt lat="44.9443572" lon="9.2085628"><ele>431.0</ele><time>2026-04-18T07:45:13.866Z</time></trkpt><trkpt lat="44.9442949" lon="9.2085869"><ele>431.0</ele><time>2026-04-18T07:45:17.87Z</time></trkpt><trkpt lat="44.9442443" lon="9.2086468"><ele>431.0</ele><time>2026-04-18T07:45:23.863Z</time></trkpt><trkpt lat="44.9441957" lon="9.2087271"><ele>431.0</ele><time>2026-04-18T07:45:28.855Z</time></trkpt><trkpt lat="44.9441676" lon="9.2088148"><ele>432.14285714285717</ele><time>2026-04-18T07:45:32.863Z</time></trkpt><trkpt lat="44.9441579" lon="9.208916"><ele>433.2857142857143</ele><time>2026-04-18T07:45:36.859Z</time></trkpt><trkpt lat="44.9441432" lon="9.2090259"><ele>434.42857142857144</ele><time>2026-04-18T07:45:41.869Z</time></trkpt><trkpt lat="44.9441324" lon="9.2091342"><ele>435.57142857142856</ele><time>2026-04-18T07:45:55.87Z</time></trkpt><trkpt lat="44.9440989" lon="9.2092286"><ele>436.71428571428567</ele><time>2026-04-18T07:46:10.874Z</time></trkpt><trkpt lat="44.9440366" lon="9.2092724"><ele>437.85714285714283</ele><time>2026-04-18T07:46:16.942Z</time></trkpt><trkpt lat="44.94398" lon="9.2093256"><ele>439.0</ele><time>2026-04-18T07:46:22.867Z</time></trkpt><trkpt lat="44.9439288" lon="9.2093903"><ele>439.85714285714283</ele><time>2026-04-18T07:46:27.869Z</time></trkpt><trkpt lat="44.9438901" lon="9.2094761"><ele>440.71428571428567</ele><time>2026-04-18T07:46:31.875Z</time></trkpt><trkpt lat="44.9438435" lon="9.2095579"><ele>441.57142857142856</ele><time>2026-04-18T07:46:35.861Z</time></trkpt><trkpt lat="44.9437941" lon="9.2096314"><ele>442.42857142857144</ele><time>2026-04-18T07:46:39.881Z</time></trkpt><trkpt lat="44.9437418" lon="9.2097085"><ele>443.2857142857143</ele><time>2026-04-18T07:46:43.941Z</time></trkpt><trkpt lat="44.943699" lon="9.2097848"><ele>444.14285714285717</ele><time>2026-04-18T07:46:47.864Z</time></trkpt><trkpt lat="44.9436591" lon="9.2098702"><ele>445.0</ele><time>2026-04-18T07:46:51.872Z</time></trkpt><trkpt lat="44.94362" lon="9.2099767"><ele>445.0</ele><time>2026-04-18T07:46:56.863Z</time></trkpt><trkpt lat="44.9435849" lon="9.2100607"><ele>445.0</ele><time>2026-04-18T07:47:01.874Z</time></trkpt><trkpt lat="44.9435411" lon="9.2101251"><ele>445.0</ele><time>2026-04-18T07:47:05.864Z</time></trkpt><trkpt lat="44.9434706" lon="9.2101744"><ele>445.0</ele><time>2026-04-18T07:47:10.875Z</time></trkpt><trkpt lat="44.9434033" lon="9.2102014"><ele>445.0</ele><time>2026-04-18T07:47:15.869Z</time></trkpt><trkpt lat="44.9433352" lon="9.2102447"><ele>445.0</ele><time>2026-04-18T07:47:20.877Z</time></trkpt><trkpt lat="44.9432795" lon="9.2102993"><ele>445.0</ele><time>2026-04-18T07:47:24.871Z</time></trkpt><trkpt lat="44.9432184" lon="9.2103447"><ele>446.57142857142856</ele><time>2026-04-18T07:47:28.865Z</time></trkpt><trkpt lat="44.943143" lon="9.2103763"><ele>448.1428571428571</ele><time>2026-04-18T07:47:33.947Z</time></trkpt><trkpt lat="44.9430818" lon="9.2104017"><ele>449.71428571428567</ele><time>2026-04-18T07:47:37.868Z</time></trkpt><trkpt lat="44.9430096" lon="9.2104212"><ele>451.2857142857143</ele><time>2026-04-18T07:47:42.872Z</time></trkpt><trkpt lat="44.9429414" lon="9.2104643"><ele>452.8571428571428</ele><time>2026-04-18T07:47:46.934Z</time></trkpt><trkpt lat="44.9428772" lon="9.2104815"><ele>454.4285714285714</ele><time>2026-04-18T07:47:50.882Z</time></trkpt><trkpt lat="44.9428108" lon="9.2105214"><ele>456.0</ele><time>2026-04-18T07:47:54.874Z</time></trkpt><trkpt lat="44.9427516" lon="9.2105753"><ele>456.0</ele><time>2026-04-18T07:47:58.871Z</time></trkpt><trkpt lat="44.9426862" lon="9.2106139"><ele>455.99999999999994</ele><time>2026-04-18T07:48:11.937Z</time></trkpt><trkpt lat="44.9426229" lon="9.2106539"><ele>456.0</ele><time>2026-04-18T07:48:15.863Z</time></trkpt><trkpt lat="44.9425527" lon="9.2106443"><ele>456.0</ele><time>2026-04-18T07:48:19.865Z</time></trkpt><trkpt lat="44.9424804" lon="9.2106789"><ele>455.99999999999994</ele><time>2026-04-18T07:48:23.861Z</time></trkpt><trkpt lat="44.9424188" lon="9.2107176"><ele>456.0</ele><time>2026-04-18T07:48:27.869Z</time></trkpt><trkpt lat="44.9423445" lon="9.2107229"><ele>456.0</ele><time>2026-04-18T07:48:31.872Z</time></trkpt><trkpt lat="44.9422679" lon="9.2107472"><ele>458.6666666666667</ele><time>2026-04-18T07:48:35.873Z</time></trkpt><trkpt lat="44.9421945" lon="9.2107873"><ele>461.33333333333337</ele><time>2026-04-18T07:48:39.868Z</time></trkpt><trkpt lat="44.9421186" lon="9.2108155"><ele>464.0</ele><time>2026-04-18T07:48:43.87Z</time></trkpt><trkpt lat="44.9420428" lon="9.2108555"><ele>466.6666666666667</ele><time>2026-04-18T07:48:47.885Z</time></trkpt><trkpt lat="44.9419736" lon="9.2108899"><ele>469.33333333333337</ele><time>2026-04-18T07:48:51.867Z</time></trkpt><trkpt lat="44.9418944" lon="9.2109296"><ele>472.0</ele><time>2026-04-18T07:48:55.864Z</time></trkpt><trkpt lat="44.9418263" lon="9.2109522"><ele>472.00000000000006</ele><time>2026-04-18T07:48:58.886Z</time></trkpt><trkpt lat="44.9417522" lon="9.210988"><ele>472.0</ele><time>2026-04-18T07:49:02.943Z</time></trkpt><trkpt lat="44.9416726" lon="9.2110106"><ele>472.0</ele><time>2026-04-18T07:49:06.866Z</time></trkpt><trkpt lat="44.9416" lon="9.2110444"><ele>472.0</ele><time>2026-04-18T07:49:10.875Z</time></trkpt><trkpt lat="44.9415247" lon="9.2110812"><ele>472.00000000000006</ele><time>2026-04-18T07:49:14.859Z</time></trkpt><trkpt lat="44.9414488" lon="9.2111211"><ele>472.0</ele><time>2026-04-18T07:49:19.867Z</time></trkpt><trkpt lat="44.9413869" lon="9.2111956"><ele>473.71428571428567</ele><time>2026-04-18T07:49:23.864Z</time></trkpt><trkpt lat="44.9413272" lon="9.2112718"><ele>475.42857142857144</ele><time>2026-04-18T07:49:27.871Z</time></trkpt><trkpt lat="44.9412663" lon="9.211329"><ele>477.1428571428571</ele><time>2026-04-18T07:49:32.863Z</time></trkpt><trkpt lat="44.9411976" lon="9.2113678"><ele>478.85714285714283</ele><time>2026-04-18T07:49:36.864Z</time></trkpt><trkpt lat="44.9411266" lon="9.2113975"><ele>480.57142857142856</ele><time>2026-04-18T07:49:41.88Z</time></trkpt><trkpt lat="44.9410596" lon="9.211424"><ele>482.2857142857143</ele><time>2026-04-18T07:49:46.866Z</time></trkpt><trkpt lat="44.9410103" lon="9.2114823"><ele>484.0</ele><time>2026-04-18T07:49:50.879Z</time></trkpt><trkpt lat="44.9409504" lon="9.2115128"><ele>483.85714285714283</ele><time>2026-04-18T07:49:54.878Z</time></trkpt><trkpt lat="44.9408808" lon="9.2115539"><ele>483.71428571428567</ele><time>2026-04-18T07:49:58.868Z</time></trkpt><trkpt lat="44.9408187" lon="9.2115722"><ele>483.57142857142856</ele><time>2026-04-18T07:50:03.867Z</time></trkpt><trkpt lat="44.9407443" lon="9.2115748"><ele>483.42857142857144</ele><time>2026-04-18T07:50:08.865Z</time></trkpt><trkpt lat="44.9406698" lon="9.2116153"><ele>483.2857142857143</ele><time>2026-04-18T07:50:12.876Z</time></trkpt><trkpt lat="44.9406039" lon="9.2116522"><ele>483.1428571428571</ele><time>2026-04-18T07:50:16.861Z</time></trkpt><trkpt lat="44.9405374" lon="9.2116847"><ele>483.0</ele><time>2026-04-18T07:50:20.868Z</time></trkpt><trkpt lat="44.9404747" lon="9.2117294"><ele>483.0</ele><time>2026-04-18T07:50:23.864Z</time></trkpt><trkpt lat="44.9404136" lon="9.2117838"><ele>483.0</ele><time>2026-04-18T07:50:26.866Z</time></trkpt><trkpt lat="44.9403653" lon="9.2118449"><ele>483.0</ele><time>2026-04-18T07:50:29.874Z</time></trkpt><trkpt lat="44.9403197" lon="9.2119358"><ele>483.0</ele><time>2026-04-18T07:50:33.933Z</time></trkpt><trkpt lat="44.9402596" lon="9.2120012"><ele>483.0</ele><time>2026-04-18T07:50:37.864Z</time></trkpt><trkpt lat="44.9402022" lon="9.212069"><ele>483.0</ele><time>2026-04-18T07:50:41.861Z</time></trkpt><trkpt lat="44.9401499" lon="9.2121307"><ele>483.0</ele><time>2026-04-18T07:50:45.942Z</time></trkpt><trkpt lat="44.9400908" lon="9.2122022"><ele>483.0</ele><time>2026-04-18T07:50:49.861Z</time></trkpt><trkpt lat="44.9400332" lon="9.2122485"><ele>483.0</ele><time>2026-04-18T07:50:53.871Z</time></trkpt><trkpt lat="44.9399645" lon="9.2122816"><ele>483.0</ele><time>2026-04-18T07:50:57.862Z</time></trkpt><trkpt lat="44.9399347" lon="9.2121852"><ele>483.0</ele><time>2026-04-18T07:51:05.872Z</time></trkpt><trkpt lat="44.9399582" lon="9.2120735"><ele>483.0</ele><time>2026-04-18T07:51:08.854Z</time></trkpt><trkpt lat="44.9399986" lon="9.2119721"><ele>483.0</ele><time>2026-04-18T07:51:11.94Z</time></trkpt><trkpt lat="44.940034" lon="9.211885"><ele>483.0</ele><time>2026-04-18T07:51:14.87Z</time></trkpt><trkpt lat="44.9400638" lon="9.2118022"><ele>483.0</ele><time>2026-04-18T07:51:18.873Z</time></trkpt><trkpt lat="44.9400737" lon="9.2116993"><ele>483.0</ele><time>2026-04-18T07:51:42.857Z</time></trkpt><trkpt lat="44.9400836" lon="9.2115887"><ele>483.0</ele><time>2026-04-18T07:51:45.853Z</time></trkpt><trkpt lat="44.940092" lon="9.2114788"><ele>483.0</ele><time>2026-04-18T07:51:49.861Z</time></trkpt><trkpt lat="44.9401016" lon="9.2113814"><ele>483.0</ele><time>2026-04-18T07:51:54.862Z</time></trkpt><trkpt lat="44.940087" lon="9.2112721"><ele>483.0</ele><time>2026-04-18T07:51:59.86Z</time></trkpt><trkpt lat="44.9400624" lon="9.2111755"><ele>478.0</ele><time>2026-04-18T07:52:03.874Z</time></trkpt><trkpt lat="44.9400248" lon="9.2110605"><ele>473.0</ele><time>2026-04-18T07:52:07.865Z</time></trkpt><trkpt lat="44.9399755" lon="9.2109473"><ele>468.0</ele><time>2026-04-18T07:52:10.862Z</time></trkpt><trkpt lat="44.9399541" lon="9.2108591"><ele>463.0</ele><time>2026-04-18T07:52:12.864Z</time></trkpt><trkpt lat="44.9399158" lon="9.2107427"><ele>458.0</ele><time>2026-04-18T07:52:16.867Z</time></trkpt><trkpt lat="44.939876" lon="9.2106527"><ele>453.0</ele><time>2026-04-18T07:52:20.873Z</time></trkpt><trkpt lat="44.9398354" lon="9.2105757"><ele>450.8333333333333</ele><time>2026-04-18T07:52:25.863Z</time></trkpt><trkpt lat="44.9397764" lon="9.2105187"><ele>448.66666666666663</ele><time>2026-04-18T07:52:31.864Z</time></trkpt><trkpt lat="44.9397145" lon="9.2104472"><ele>446.5</ele><time>2026-04-18T07:52:36.856Z</time></trkpt><trkpt lat="44.9396523" lon="9.2103723"><ele>444.3333333333333</ele><time>2026-04-18T07:52:40.861Z</time></trkpt><trkpt lat="44.9396132" lon="9.210281"><ele>442.16666666666663</ele><time>2026-04-18T07:52:45.86Z</time></trkpt><trkpt lat="44.9395884" lon="9.2101824"><ele>440.0</ele><time>2026-04-18T07:52:51.866Z</time></trkpt><trkpt lat="44.9395526" lon="9.2100994"><ele>439.99999999999994</ele><time>2026-04-18T07:52:55.929Z</time></trkpt><trkpt lat="44.939528" lon="9.2100021"><ele>440.0</ele><time>2026-04-18T07:53:01.862Z</time></trkpt><trkpt lat="44.9395" lon="9.209903"><ele>440.0</ele><time>2026-04-18T07:53:07.864Z</time></trkpt><trkpt lat="44.9394567" lon="9.2098127"><ele>440.0</ele><time>2026-04-18T07:53:12.872Z</time></trkpt><trkpt lat="44.9394261" lon="9.209715"><ele>440.0</ele><time>2026-04-18T07:53:16.857Z</time></trkpt><trkpt lat="44.9393967" lon="9.2096295"><ele>439.99999999999994</ele><time>2026-04-18T07:53:20.858Z</time></trkpt><trkpt lat="44.9393821" lon="9.2095372"><ele>440.0</ele><time>2026-04-18T07:53:23.929Z</time></trkpt><trkpt lat="44.9393561" lon="9.209452"><ele>437.2857142857143</ele><time>2026-04-18T07:53:26.866Z</time></trkpt><trkpt lat="44.9393329" lon="9.2093666"><ele>434.57142857142856</ele><time>2026-04-18T07:53:29.872Z</time></trkpt><trkpt lat="44.9392988" lon="9.209274"><ele>431.8571428571429</ele><time>2026-04-18T07:53:34.934Z</time></trkpt><trkpt lat="44.9392755" lon="9.2091899"><ele>429.1428571428571</ele><time>2026-04-18T07:53:38.862Z</time></trkpt><trkpt lat="44.9392436" lon="9.2090876"><ele>426.42857142857144</ele><time>2026-04-18T07:53:42.86Z</time></trkpt><trkpt lat="44.9392123" lon="9.2089801"><ele>423.7142857142857</ele><time>2026-04-18T07:53:47.866Z</time></trkpt><trkpt lat="44.9391751" lon="9.2088849"><ele>421.0</ele><time>2026-04-18T07:53:50.869Z</time></trkpt><trkpt lat="44.9391564" lon="9.2087974"><ele>417.14285714285717</ele><time>2026-04-18T07:53:53.858Z</time></trkpt><trkpt lat="44.9391245" lon="9.2087022"><ele>413.2857142857143</ele><time>2026-04-18T07:53:56.862Z</time></trkpt><trkpt lat="44.9390895" lon="9.2086157"><ele>409.42857142857144</ele><time>2026-04-18T07:53:59.868Z</time></trkpt><trkpt lat="44.9390487" lon="9.2085219"><ele>405.57142857142856</ele><time>2026-04-18T07:54:03.868Z</time></trkpt><trkpt lat="44.9390275" lon="9.2084283"><ele>401.7142857142857</ele><time>2026-04-18T07:54:07.863Z</time></trkpt><trkpt lat="44.9390064" lon="9.2083426"><ele>397.8571428571429</ele><time>2026-04-18T07:54:11.866Z</time></trkpt><trkpt lat="44.9389688" lon="9.2082649"><ele>394.0</ele><time>2026-04-18T07:54:15.941Z</time></trkpt><trkpt lat="44.9389311" lon="9.2081867"><ele>391.57142857142856</ele><time>2026-04-18T07:54:19.864Z</time></trkpt><trkpt lat="44.9388741" lon="9.2081152"><ele>389.14285714285717</ele><time>2026-04-18T07:54:24.872Z</time></trkpt><trkpt lat="44.9388248" lon="9.208043"><ele>386.71428571428567</ele><time>2026-04-18T07:54:28.861Z</time></trkpt><trkpt lat="44.9387714" lon="9.2079865"><ele>384.2857142857143</ele><time>2026-04-18T07:54:42.867Z</time></trkpt><trkpt lat="44.9387259" lon="9.2079168"><ele>381.85714285714283</ele><time>2026-04-18T07:54:46.875Z</time></trkpt><trkpt lat="44.938682" lon="9.2078504"><ele>379.4285714285714</ele><time>2026-04-18T07:54:53.864Z</time></trkpt><trkpt lat="44.938642" lon="9.2077744"><ele>377.0</ele><time>2026-04-18T07:54:59.876Z</time></trkpt><trkpt lat="44.9385966" lon="9.2076893"><ele>376.99999999999994</ele><time>2026-04-18T07:55:03.863Z</time></trkpt><trkpt lat="44.9385461" lon="9.2076029"><ele>377.0</ele><time>2026-04-18T07:55:07.938Z</time></trkpt><trkpt lat="44.9385079" lon="9.2075203"><ele>377.0</ele><time>2026-04-18T07:55:10.862Z</time></trkpt><trkpt lat="44.9384521" lon="9.2074392"><ele>377.0</ele><time>2026-04-18T07:55:14.876Z</time></trkpt><trkpt lat="44.9383913" lon="9.2073559"><ele>377.0</ele><time>2026-04-18T07:55:18.864Z</time></trkpt><trkpt lat="44.9383444" lon="9.207289"><ele>376.99999999999994</ele><time>2026-04-18T07:55:21.872Z</time></trkpt><trkpt lat="44.9382911" lon="9.2072343"><ele>377.0</ele><time>2026-04-18T07:55:24.86Z</time></trkpt><trkpt lat="44.9382199" lon="9.2071764"><ele>374.2857142857143</ele><time>2026-04-18T07:55:28.871Z</time></trkpt><trkpt lat="44.9381636" lon="9.2071299"><ele>371.57142857142856</ele><time>2026-04-18T07:55:31.863Z</time></trkpt><trkpt lat="44.9381203" lon="9.2070543"><ele>368.8571428571429</ele><time>2026-04-18T07:55:34.877Z</time></trkpt><trkpt lat="44.9380663" lon="9.2069919"><ele>366.1428571428571</ele><time>2026-04-18T07:55:38.868Z</time></trkpt><trkpt lat="44.9379978" lon="9.2069458"><ele>363.42857142857144</ele><time>2026-04-18T07:55:42.861Z</time></trkpt><trkpt lat="44.937942" lon="9.206883"><ele>360.7142857142857</ele><time>2026-04-18T07:55:50.873Z</time></trkpt><trkpt lat="44.9378917" lon="9.2068088"><ele>358.0</ele><time>2026-04-18T07:55:56.878Z</time></trkpt><trkpt lat="44.9378677" lon="9.2067093"><ele>358.00000000000006</ele><time>2026-04-18T07:56:01.915Z</time></trkpt><trkpt lat="44.9378537" lon="9.20661"><ele>358.0</ele><time>2026-04-18T07:56:07.863Z</time></trkpt><trkpt lat="44.9378048" lon="9.2065225"><ele>358.0</ele><time>2026-04-18T07:56:11.872Z</time></trkpt><trkpt lat="44.9377339" lon="9.2064558"><ele>358.0</ele><time>2026-04-18T07:56:14.859Z</time></trkpt><trkpt lat="44.937666" lon="9.2064066"><ele>358.0</ele><time>2026-04-18T07:56:18.861Z</time></trkpt><trkpt lat="44.9376138" lon="9.2063447"><ele>358.00000000000006</ele><time>2026-04-18T07:56:21.863Z</time></trkpt><trkpt lat="44.9375718" lon="9.206275"><ele>358.0</ele><time>2026-04-18T07:56:24.863Z</time></trkpt><trkpt lat="44.9375182" lon="9.2062027"><ele>355.00000000000006</ele><time>2026-04-18T07:56:27.869Z</time></trkpt><trkpt lat="44.9374621" lon="9.2061376"><ele>352.0</ele><time>2026-04-18T07:56:30.863Z</time></trkpt><trkpt lat="44.9374003" lon="9.2060679"><ele>349.0</ele><time>2026-04-18T07:56:34.875Z</time></trkpt><trkpt lat="44.9373427" lon="9.2060147"><ele>346.0</ele><time>2026-04-18T07:56:37.866Z</time></trkpt><trkpt lat="44.937291" lon="9.2059605"><ele>343.0</ele><time>2026-04-18T07:56:40.864Z</time></trkpt><trkpt lat="44.93722" lon="9.205915"><ele>340.00000000000006</ele><time>2026-04-18T07:56:44.863Z</time></trkpt><trkpt lat="44.9371491" lon="9.2058986"><ele>337.0</ele><time>2026-04-18T07:56:54.866Z</time></trkpt><trkpt lat="44.9370923" lon="9.2059448"><ele>337.00000000000006</ele><time>2026-04-18T07:56:59.858Z</time></trkpt><trkpt lat="44.9370302" lon="9.2059788"><ele>337.0</ele><time>2026-04-18T07:57:03.852Z</time></trkpt><trkpt lat="44.9369752" lon="9.2060224"><ele>337.0</ele><time>2026-04-18T07:57:05.865Z</time></trkpt><trkpt lat="44.9369077" lon="9.2060895"><ele>337.0</ele><time>2026-04-18T07:57:08.86Z</time></trkpt><trkpt lat="44.9368587" lon="9.2061539"><ele>337.0</ele><time>2026-04-18T07:57:11.867Z</time></trkpt><trkpt lat="44.9368152" lon="9.2062223"><ele>337.00000000000006</ele><time>2026-04-18T07:57:14.856Z</time></trkpt><trkpt lat="44.9367701" lon="9.2062978"><ele>337.0</ele><time>2026-04-18T07:57:17.863Z</time></trkpt><trkpt lat="44.9367069" lon="9.2063663"><ele>335.42857142857144</ele><time>2026-04-18T07:57:20.867Z</time></trkpt><trkpt lat="44.9366363" lon="9.2063915"><ele>333.8571428571429</ele><time>2026-04-18T07:57:22.868Z</time></trkpt><trkpt lat="44.9365487" lon="9.2063937"><ele>332.28571428571433</ele><time>2026-04-18T07:57:24.857Z</time></trkpt><trkpt lat="44.9364765" lon="9.2063971"><ele>330.7142857142857</ele><time>2026-04-18T07:57:26.853Z</time></trkpt><trkpt lat="44.9364142" lon="9.2064302"><ele>329.1428571428571</ele><time>2026-04-18T07:57:28.863Z</time></trkpt><trkpt lat="44.9363484" lon="9.2064799"><ele>327.5714285714286</ele><time>2026-04-18T07:57:30.865Z</time></trkpt><trkpt lat="44.9362909" lon="9.2065382"><ele>326.0</ele><time>2026-04-18T07:57:32.913Z</time></trkpt><trkpt lat="44.9362264" lon="9.2065961"><ele>326.0</ele><time>2026-04-18T07:57:36.86Z</time></trkpt><trkpt lat="44.9361634" lon="9.2065516"><ele>326.0</ele><time>2026-04-18T07:57:39.866Z</time></trkpt><trkpt lat="44.9361401" lon="9.2064613"><ele>326.0</ele><time>2026-04-18T07:57:42.873Z</time></trkpt><trkpt lat="44.9361076" lon="9.2063837"><ele>326.0</ele><time>2026-04-18T07:57:46.86Z</time></trkpt><trkpt lat="44.936056" lon="9.2063077"><ele>326.0</ele><time>2026-04-18T07:57:49.864Z</time></trkpt><trkpt lat="44.935989" lon="9.206225"><ele>326.0</ele><time>2026-04-18T07:57:52.856Z</time></trkpt><trkpt lat="44.9359167" lon="9.2061682"><ele>326.0</ele><time>2026-04-18T07:57:54.854Z</time></trkpt><trkpt lat="44.9358451" lon="9.2060991"><ele>323.5</ele><time>2026-04-18T07:57:56.862Z</time></trkpt><trkpt lat="44.9357707" lon="9.2060491"><ele>321.0</ele><time>2026-04-18T07:57:58.87Z</time></trkpt><trkpt lat="44.9356963" lon="9.206026"><ele>318.5</ele><time>2026-04-18T07:58:00.856Z</time></trkpt><trkpt lat="44.9356323" lon="9.2059914"><ele>316.0</ele><time>2026-04-18T07:58:02.859Z</time></trkpt><trkpt lat="44.9355587" lon="9.2059394"><ele>313.5</ele><time>2026-04-18T07:58:04.858Z</time></trkpt><trkpt lat="44.9354916" lon="9.2058586"><ele>311.0</ele><time>2026-04-18T07:58:06.866Z</time></trkpt><trkpt lat="44.9354329" lon="9.2057589"><ele>309.6</ele><time>2026-04-18T07:58:08.872Z</time></trkpt><trkpt lat="44.9353967" lon="9.2056343"><ele>308.20000000000005</ele><time>2026-04-18T07:58:10.863Z</time></trkpt><trkpt lat="44.9353668" lon="9.2055036"><ele>306.79999999999995</ele><time>2026-04-18T07:58:12.868Z</time></trkpt><trkpt lat="44.9353476" lon="9.2053705"><ele>305.4</ele><time>2026-04-18T07:58:14.862Z</time></trkpt><trkpt lat="44.9353225" lon="9.2052153"><ele>304.0</ele><time>2026-04-18T07:58:16.867Z</time></trkpt><trkpt lat="44.9353182" lon="9.2050538"><ele>304.0</ele><time>2026-04-18T07:58:18.866Z</time></trkpt><trkpt lat="44.9353392" lon="9.2048939"><ele>304.0</ele><time>2026-04-18T07:58:20.865Z</time></trkpt><trkpt lat="44.9353511" lon="9.2047602"><ele>304.0</ele><time>2026-04-18T07:58:22.86Z</time></trkpt><trkpt lat="44.9353476" lon="9.2046435"><ele>304.0</ele><time>2026-04-18T07:58:24.864Z</time></trkpt><trkpt lat="44.9353495" lon="9.2045353"><ele>304.0</ele><time>2026-04-18T07:58:26.934Z</time></trkpt><trkpt lat="44.9353381" lon="9.2044195"><ele>302.5</ele><time>2026-04-18T07:58:28.863Z</time></trkpt><trkpt lat="44.9353181" lon="9.2042922"><ele>301.0</ele><time>2026-04-18T07:58:30.859Z</time></trkpt><trkpt lat="44.9352972" lon="9.2041777"><ele>299.5</ele><time>2026-04-18T07:58:32.863Z</time></trkpt><trkpt lat="44.9352708" lon="9.2040697"><ele>298.0</ele><time>2026-04-18T07:58:34.868Z</time></trkpt><trkpt lat="44.9352423" lon="9.2039757"><ele>296.5</ele><time>2026-04-18T07:58:36.858Z</time></trkpt><trkpt lat="44.9352119" lon="9.2038824"><ele>295.0</ele><time>2026-04-18T07:58:38.866Z</time></trkpt><trkpt lat="44.935171" lon="9.2037735"><ele>293.66666666666663</ele><time>2026-04-18T07:58:40.874Z</time></trkpt><trkpt lat="44.9351367" lon="9.2036737"><ele>292.3333333333333</ele><time>2026-04-18T07:58:42.863Z</time></trkpt><trkpt lat="44.9350879" lon="9.2035795"><ele>291.0</ele><time>2026-04-18T07:58:44.864Z</time></trkpt><trkpt lat="44.93504" lon="9.2034906"><ele>289.6666666666667</ele><time>2026-04-18T07:58:46.87Z</time></trkpt><trkpt lat="44.9350044" lon="9.2033947"><ele>288.33333333333337</ele><time>2026-04-18T07:58:48.864Z</time></trkpt><trkpt lat="44.9349699" lon="9.2032911"><ele>287.0</ele><time>2026-04-18T07:58:50.871Z</time></trkpt><trkpt lat="44.9349576" lon="9.2031739"><ele>284.2</ele><time>2026-04-18T07:58:52.861Z</time></trkpt><trkpt lat="44.9349414" lon="9.2030425"><ele>281.4</ele><time>2026-04-18T07:58:54.859Z</time></trkpt><trkpt lat="44.934913" lon="9.2029148"><ele>278.6</ele><time>2026-04-18T07:58:56.864Z</time></trkpt><trkpt lat="44.934883" lon="9.2027751"><ele>275.8</ele><time>2026-04-18T07:58:58.864Z</time></trkpt><trkpt lat="44.9348473" lon="9.2026466"><ele>273.0</ele><time>2026-04-18T07:59:00.867Z</time></trkpt><trkpt lat="44.93481" lon="9.2025336"><ele>273.0</ele><time>2026-04-18T07:59:02.858Z</time></trkpt><trkpt lat="44.93477" lon="9.2024294"><ele>273.0</ele><time>2026-04-18T07:59:04.865Z</time></trkpt><trkpt lat="44.9347397" lon="9.2023223"><ele>273.0</ele><time>2026-04-18T07:59:06.859Z</time></trkpt><trkpt lat="44.9346757" lon="9.2021943"><ele>273.0</ele><time>2026-04-18T07:59:08.864Z</time></trkpt><trkpt lat="44.9345961" lon="9.2020597"><ele>273.0</ele><time>2026-04-18T07:59:10.864Z</time></trkpt><trkpt lat="44.9345556" lon="9.2019791"><ele>271.0</ele><time>2026-04-18T07:59:11.866Z</time></trkpt><trkpt lat="44.9345219" lon="9.2019031"><ele>269.0</ele><time>2026-04-18T07:59:12.863Z</time></trkpt><trkpt lat="44.9344853" lon="9.2018237"><ele>267.0</ele><time>2026-04-18T07:59:13.868Z</time></trkpt><trkpt lat="44.9344441" lon="9.2017479"><ele>265.0</ele><time>2026-04-18T07:59:14.859Z</time></trkpt><trkpt lat="44.9343996" lon="9.2016697"><ele>263.0</ele><time>2026-04-18T07:59:15.861Z</time></trkpt><trkpt lat="44.9343613" lon="9.2015983"><ele>261.0</ele><time>2026-04-18T07:59:16.862Z</time></trkpt><trkpt lat="44.9342905" lon="9.2014485"><ele>259.6</ele><time>2026-04-18T07:59:18.867Z</time></trkpt><trkpt lat="44.9342161" lon="9.2013241"><ele>258.20000000000005</ele><time>2026-04-18T07:59:20.87Z</time></trkpt><trkpt lat="44.9341458" lon="9.2012129"><ele>256.79999999999995</ele><time>2026-04-18T07:59:22.863Z</time></trkpt><trkpt lat="44.9340815" lon="9.2011074"><ele>255.39999999999998</ele><time>2026-04-18T07:59:24.864Z</time></trkpt><trkpt lat="44.9340272" lon="9.2010175"><ele>254.0</ele><time>2026-04-18T07:59:26.855Z</time></trkpt><trkpt lat="44.9339771" lon="9.2009155"><ele>254.0</ele><time>2026-04-18T07:59:29.864Z</time></trkpt><trkpt lat="44.9339857" lon="9.2008208"><ele>254.0</ele><time>2026-04-18T07:59:32.861Z</time></trkpt><trkpt lat="44.9340441" lon="9.2007544"><ele>254.0</ele><time>2026-04-18T07:59:35.865Z</time></trkpt><trkpt lat="44.9340949" lon="9.2006833"><ele>254.0</ele><time>2026-04-18T07:59:38.863Z</time></trkpt><trkpt lat="44.9341192" lon="9.2005971"><ele>254.0</ele><time>2026-04-18T07:59:41.857Z</time></trkpt><trkpt lat="44.9341387" lon="9.2005123"><ele>254.0</ele><time>2026-04-18T07:59:44.863Z</time></trkpt><trkpt lat="44.9341577" lon="9.2003907"><ele>254.0</ele><time>2026-04-18T07:59:47.859Z</time></trkpt><trkpt lat="44.9341572" lon="9.2003017"><ele>254.00000000000003</ele><time>2026-04-18T07:59:49.867Z</time></trkpt><trkpt lat="44.9341555" lon="9.2001786"><ele>254.0</ele><time>2026-04-18T07:59:52.863Z</time></trkpt><trkpt lat="44.934149" lon="9.2000532"><ele>254.0</ele><time>2026-04-18T07:59:55.857Z</time></trkpt><trkpt lat="44.9341388" lon="9.1999352"><ele>254.0</ele><time>2026-04-18T07:59:58.881Z</time></trkpt><trkpt lat="44.9341406" lon="9.1998147"><ele>254.00000000000003</ele><time>2026-04-18T08:00:01.868Z</time></trkpt><trkpt lat="44.9341793" lon="9.1997127"><ele>254.0</ele><time>2026-04-18T08:00:04.865Z</time></trkpt><trkpt lat="44.9342257" lon="9.1996169"><ele>254.00000000000003</ele><time>2026-04-18T08:00:07.868Z</time></trkpt><trkpt lat="44.9342422" lon="9.1994946"><ele>254.0</ele><time>2026-04-18T08:00:10.862Z</time></trkpt><trkpt lat="44.9342258" lon="9.1994084"><ele>254.0</ele><time>2026-04-18T08:00:12.868Z</time></trkpt><trkpt lat="44.934204" lon="9.199314"><ele>254.0</ele><time>2026-04-18T08:00:14.86Z</time></trkpt><trkpt lat="44.934178" lon="9.1992206"><ele>254.00000000000003</ele><time>2026-04-18T08:00:16.861Z</time></trkpt><trkpt lat="44.9341436" lon="9.1990977"><ele>254.0</ele><time>2026-04-18T08:00:19.867Z</time></trkpt><trkpt lat="44.9341217" lon="9.1990136"><ele>254.33333333333334</ele><time>2026-04-18T08:00:21.854Z</time></trkpt><trkpt lat="44.9340993" lon="9.1989091"><ele>254.66666666666669</ele><time>2026-04-18T08:00:24.877Z</time></trkpt><trkpt lat="44.9340762" lon="9.1987873"><ele>255.0</ele><time>2026-04-18T08:00:27.863Z</time></trkpt><trkpt lat="44.9340527" lon="9.1986719"><ele>255.33333333333331</ele><time>2026-04-18T08:00:30.862Z</time></trkpt><trkpt lat="44.9340273" lon="9.1985562"><ele>255.66666666666666</ele><time>2026-04-18T08:00:33.867Z</time></trkpt><trkpt lat="44.9339965" lon="9.1984502"><ele>256.0</ele><time>2026-04-18T08:00:36.866Z</time></trkpt><trkpt lat="44.9339385" lon="9.1983539"><ele>255.99999999999997</ele><time>2026-04-18T08:00:39.868Z</time></trkpt><trkpt lat="44.9338752" lon="9.198267"><ele>256.0</ele><time>2026-04-18T08:00:42.86Z</time></trkpt><trkpt lat="44.9338203" lon="9.1982169"><ele>256.0</ele><time>2026-04-18T08:00:44.867Z</time></trkpt><trkpt lat="44.933749" lon="9.1981566"><ele>256.0</ele><time>2026-04-18T08:00:47.86Z</time></trkpt><trkpt lat="44.9336816" lon="9.198095"><ele>255.99999999999997</ele><time>2026-04-18T08:00:50.855Z</time></trkpt><trkpt lat="44.9336155" lon="9.198013"><ele>256.0</ele><time>2026-04-18T08:00:53.865Z</time></trkpt><trkpt lat="44.9335542" lon="9.1979169"><ele>256.5</ele><time>2026-04-18T08:00:56.861Z</time></trkpt><trkpt lat="44.9335134" lon="9.1978109"><ele>257.0</ele><time>2026-04-18T08:00:59.868Z</time></trkpt><trkpt lat="44.9334696" lon="9.1977084"><ele>257.5</ele><time>2026-04-18T08:01:02.866Z</time></trkpt><trkpt lat="44.9334375" lon="9.1976305"><ele>258.0</ele><time>2026-04-18T08:01:04.87Z</time></trkpt><trkpt lat="44.9334064" lon="9.1975259"><ele>258.5</ele><time>2026-04-18T08:01:07.866Z</time></trkpt><trkpt lat="44.9333776" lon="9.1974026"><ele>259.0</ele><time>2026-04-18T08:01:10.867Z</time></trkpt><trkpt lat="44.933354" lon="9.1972842"><ele>262.66666666666663</ele><time>2026-04-18T08:01:13.87Z</time></trkpt><trkpt lat="44.9333375" lon="9.1971782"><ele>266.3333333333333</ele><time>2026-04-18T08:01:16.862Z</time></trkpt><trkpt lat="44.9333277" lon="9.1970671"><ele>270.0</ele><time>2026-04-18T08:01:19.857Z</time></trkpt><trkpt lat="44.9333175" lon="9.196949"><ele>273.6666666666667</ele><time>2026-04-18T08:01:22.866Z</time></trkpt><trkpt lat="44.9333198" lon="9.1968286"><ele>277.33333333333337</ele><time>2026-04-18T08:01:25.861Z</time></trkpt><trkpt lat="44.9333306" lon="9.1967386"><ele>281.0</ele><time>2026-04-18T08:01:27.868Z</time></trkpt><trkpt lat="44.9333575" lon="9.1966581"><ele>281.0</ele><time>2026-04-18T08:01:29.862Z</time></trkpt><trkpt lat="44.9333871" lon="9.1965719"><ele>281.0</ele><time>2026-04-18T08:01:31.86Z</time></trkpt><trkpt lat="44.9334064" lon="9.1964457"><ele>281.0</ele><time>2026-04-18T08:01:34.863Z</time></trkpt><trkpt lat="44.9334192" lon="9.1963532"><ele>281.0</ele><time>2026-04-18T08:01:36.867Z</time></trkpt><trkpt lat="44.9334173" lon="9.1962533"><ele>281.0</ele><time>2026-04-18T08:01:38.876Z</time></trkpt><trkpt lat="44.9333978" lon="9.1961234"><ele>281.0</ele><time>2026-04-18T08:01:41.867Z</time></trkpt><trkpt lat="44.9333682" lon="9.1960389"><ele>281.28571428571433</ele><time>2026-04-18T08:01:43.938Z</time></trkpt><trkpt lat="44.9333262" lon="9.1959463"><ele>281.57142857142856</ele><time>2026-04-18T08:01:45.866Z</time></trkpt><trkpt lat="44.9332868" lon="9.1958684"><ele>281.8571428571429</ele><time>2026-04-18T08:01:47.867Z</time></trkpt><trkpt lat="44.9332527" lon="9.1957928"><ele>282.14285714285717</ele><time>2026-04-18T08:01:49.864Z</time></trkpt><trkpt lat="44.9332233" lon="9.1957096"><ele>282.42857142857144</ele><time>2026-04-18T08:01:51.871Z</time></trkpt><trkpt lat="44.9331999" lon="9.1956257"><ele>282.7142857142857</ele><time>2026-04-18T08:01:53.864Z</time></trkpt><trkpt lat="44.9331806" lon="9.1955398"><ele>283.0</ele><time>2026-04-18T08:01:55.866Z</time></trkpt><trkpt lat="44.9331635" lon="9.1954261"><ele>283.0</ele><time>2026-04-18T08:01:58.95Z</time></trkpt><trkpt lat="44.9331301" lon="9.1953087"><ele>283.0</ele><time>2026-04-18T08:02:01.859Z</time></trkpt><trkpt lat="44.9330907" lon="9.1951861"><ele>283.0</ele><time>2026-04-18T08:02:04.868Z</time></trkpt><trkpt lat="44.9330573" lon="9.1950999"><ele>283.0</ele><time>2026-04-18T08:02:06.865Z</time></trkpt><trkpt lat="44.9330097" lon="9.1950296"><ele>283.0</ele><time>2026-04-18T08:02:08.861Z</time></trkpt><trkpt lat="44.932958" lon="9.1949566"><ele>283.0</ele><time>2026-04-18T08:02:10.866Z</time></trkpt><trkpt lat="44.9328877" lon="9.1948883"><ele>283.0</ele><time>2026-04-18T08:02:13.863Z</time></trkpt><trkpt lat="44.9328268" lon="9.1948332"><ele>283.0</ele><time>2026-04-18T08:02:17.883Z</time></trkpt><trkpt lat="44.9328749" lon="9.1947654"><ele>283.0</ele><time>2026-04-18T08:02:31.865Z</time></trkpt><trkpt lat="44.9329509" lon="9.1947348"><ele>283.0</ele><time>2026-04-18T08:02:34.865Z</time></trkpt><trkpt lat="44.9330379" lon="9.1947026"><ele>283.0</ele><time>2026-04-18T08:02:36.865Z</time></trkpt><trkpt lat="44.9331173" lon="9.1946693"><ele>283.0</ele><time>2026-04-18T08:02:38.863Z</time></trkpt><trkpt lat="44.9331971" lon="9.1946677"><ele>283.0</ele><time>2026-04-18T08:02:40.863Z</time></trkpt><trkpt lat="44.9332812" lon="9.1946582"><ele>283.0</ele><time>2026-04-18T08:02:42.867Z</time></trkpt><trkpt lat="44.9333698" lon="9.194662"><ele>283.0</ele><time>2026-04-18T08:02:44.861Z</time></trkpt><trkpt lat="44.933454" lon="9.1946625"><ele>283.0</ele><time>2026-04-18T08:02:46.863Z</time></trkpt><trkpt lat="44.9335431" lon="9.1946581"><ele>283.0</ele><time>2026-04-18T08:02:48.863Z</time></trkpt><trkpt lat="44.9336404" lon="9.1946599"><ele>283.0</ele><time>2026-04-18T08:02:50.931Z</time></trkpt><trkpt lat="44.9337393" lon="9.1946698"><ele>280.8</ele><time>2026-04-18T08:02:52.864Z</time></trkpt><trkpt lat="44.9338407" lon="9.194688"><ele>278.6</ele><time>2026-04-18T08:02:54.868Z</time></trkpt><trkpt lat="44.9339226" lon="9.1946946"><ele>276.4</ele><time>2026-04-18T08:02:56.851Z</time></trkpt><trkpt lat="44.9340027" lon="9.19471"><ele>274.2</ele><time>2026-04-18T08:02:59.861Z</time></trkpt><trkpt lat="44.9341011" lon="9.1947292"><ele>272.0</ele><time>2026-04-18T08:03:02.86Z</time></trkpt><trkpt lat="44.9341872" lon="9.1947485"><ele>269.4</ele><time>2026-04-18T08:03:04.872Z</time></trkpt><trkpt lat="44.9342818" lon="9.1947608"><ele>266.79999999999995</ele><time>2026-04-18T08:03:06.86Z</time></trkpt><trkpt lat="44.9343751" lon="9.1947787"><ele>264.2</ele><time>2026-04-18T08:03:08.871Z</time></trkpt><trkpt lat="44.9344681" lon="9.1948091"><ele>261.59999999999997</ele><time>2026-04-18T08:03:10.864Z</time></trkpt><trkpt lat="44.9345593" lon="9.1948259"><ele>259.0</ele><time>2026-04-18T08:03:12.863Z</time></trkpt><trkpt lat="44.9346454" lon="9.1948443"><ele>258.3333333333333</ele><time>2026-04-18T08:03:14.938Z</time></trkpt><trkpt lat="44.934739" lon="9.1948697"><ele>257.66666666666663</ele><time>2026-04-18T08:03:16.871Z</time></trkpt><trkpt lat="44.9348236" lon="9.1948889"><ele>257.0</ele><time>2026-04-18T08:03:18.872Z</time></trkpt><trkpt lat="44.9349098" lon="9.1948939"><ele>256.3333333333333</ele><time>2026-04-18T08:03:20.863Z</time></trkpt><trkpt lat="44.9350022" lon="9.1949043"><ele>255.66666666666666</ele><time>2026-04-18T08:03:22.864Z</time></trkpt><trkpt lat="44.9350686" lon="9.1949064"><ele>255.0</ele><time>2026-04-18T08:03:24.858Z</time></trkpt><trkpt lat="44.9351555" lon="9.1949219"><ele>253.71428571428572</ele><time>2026-04-18T08:03:27.939Z</time></trkpt><trkpt lat="44.9352438" lon="9.1949479"><ele>252.42857142857144</ele><time>2026-04-18T08:03:30.866Z</time></trkpt><trkpt lat="44.9353215" lon="9.1949776"><ele>251.14285714285717</ele><time>2026-04-18T08:03:32.87Z</time></trkpt><trkpt lat="44.9353839" lon="9.1949976"><ele>249.8571428571429</ele><time>2026-04-18T08:03:34.873Z</time></trkpt><trkpt lat="44.9354474" lon="9.195032"><ele>248.57142857142858</ele><time>2026-04-18T08:03:36.864Z</time></trkpt><trkpt lat="44.9355095" lon="9.1950607"><ele>247.28571428571433</ele><time>2026-04-18T08:03:38.86Z</time></trkpt><trkpt lat="44.9355805" lon="9.1950904"><ele>246.00000000000003</ele><time>2026-04-18T08:03:40.917Z</time></trkpt><trkpt lat="44.9356379" lon="9.1951287"><ele>246.00000000000003</ele><time>2026-04-18T08:03:42.868Z</time></trkpt><trkpt lat="44.9356981" lon="9.1951624"><ele>246.0</ele><time>2026-04-18T08:03:45.866Z</time></trkpt><trkpt lat="44.9357597" lon="9.1952017"><ele>246.00000000000003</ele><time>2026-04-18T08:03:47.872Z</time></trkpt><trkpt lat="44.9358196" lon="9.1952578"><ele>246.00000000000003</ele><time>2026-04-18T08:03:49.864Z</time></trkpt><trkpt lat="44.9358773" lon="9.1953121"><ele>246.0</ele><time>2026-04-18T08:03:51.86Z</time></trkpt><trkpt lat="44.9359265" lon="9.1953715"><ele>246.00000000000003</ele><time>2026-04-18T08:03:53.865Z</time></trkpt><trkpt lat="44.9359776" lon="9.195433"><ele>246.00000000000003</ele><time>2026-04-18T08:03:55.861Z</time></trkpt><trkpt lat="44.9360303" lon="9.1955071"><ele>244.83333333333334</ele><time>2026-04-18T08:03:57.861Z</time></trkpt><trkpt lat="44.9360929" lon="9.1955779"><ele>243.66666666666669</ele><time>2026-04-18T08:03:59.864Z</time></trkpt><trkpt lat="44.936163" lon="9.1956569"><ele>242.5</ele><time>2026-04-18T08:04:02.87Z</time></trkpt><trkpt lat="44.9362313" lon="9.1957171"><ele>241.33333333333334</ele><time>2026-04-18T08:04:05.871Z</time></trkpt><trkpt lat="44.9362926" lon="9.1957719"><ele>240.16666666666669</ele><time>2026-04-18T08:04:08.871Z</time></trkpt><trkpt lat="44.9363575" lon="9.1958175"><ele>239.0</ele><time>2026-04-18T08:04:12.869Z</time></trkpt><trkpt lat="44.9363967" lon="9.1959111"><ele>238.71428571428575</ele><time>2026-04-18T08:04:17.865Z</time></trkpt><trkpt lat="44.9364031" lon="9.1960005"><ele>238.42857142857144</ele><time>2026-04-18T08:04:21.865Z</time></trkpt><trkpt lat="44.9363951" lon="9.1960963"><ele>238.14285714285714</ele><time>2026-04-18T08:04:25.864Z</time></trkpt><trkpt lat="44.9363924" lon="9.1961854"><ele>237.85714285714286</ele><time>2026-04-18T08:04:28.863Z</time></trkpt><trkpt lat="44.9363972" lon="9.1962848"><ele>237.57142857142856</ele><time>2026-04-18T08:04:32.858Z</time></trkpt><trkpt lat="44.9364521" lon="9.1963397"><ele>237.28571428571425</ele><time>2026-04-18T08:04:37.859Z</time></trkpt><trkpt lat="44.9365233" lon="9.1962754"><ele>236.99999999999997</ele><time>2026-04-18T08:04:41.864Z</time></trkpt><trkpt lat="44.9365614" lon="9.196202"><ele>237.0</ele><time>2026-04-18T08:04:43.855Z</time></trkpt><trkpt lat="44.9366172" lon="9.1961058"><ele>237.0</ele><time>2026-04-18T08:04:46.858Z</time></trkpt><trkpt lat="44.9366669" lon="9.196031"><ele>237.0</ele><time>2026-04-18T08:04:49.867Z</time></trkpt><trkpt lat="44.9367217" lon="9.1959582"><ele>237.0</ele><time>2026-04-18T08:04:52.865Z</time></trkpt><trkpt lat="44.9367839" lon="9.1958741"><ele>237.0</ele><time>2026-04-18T08:04:55.864Z</time></trkpt><trkpt lat="44.9368391" lon="9.1958133"><ele>237.0</ele><time>2026-04-18T08:04:57.856Z</time></trkpt><trkpt lat="44.9368932" lon="9.1957452"><ele>237.33333333333334</ele><time>2026-04-18T08:04:59.87Z</time></trkpt><trkpt lat="44.9369457" lon="9.195683"><ele>237.66666666666669</ele><time>2026-04-18T08:05:01.868Z</time></trkpt><trkpt lat="44.9369988" lon="9.1956077"><ele>238.0</ele><time>2026-04-18T08:05:03.864Z</time></trkpt><trkpt lat="44.9370632" lon="9.1955014"><ele>238.33333333333334</ele><time>2026-04-18T08:05:06.865Z</time></trkpt><trkpt lat="44.9371115" lon="9.1954157"><ele>238.66666666666669</ele><time>2026-04-18T08:05:08.867Z</time></trkpt><trkpt lat="44.9371509" lon="9.1953279"><ele>239.0</ele><time>2026-04-18T08:05:10.865Z</time></trkpt><trkpt lat="44.9372064" lon="9.1952665"><ele>238.33333333333334</ele><time>2026-04-18T08:05:13.933Z</time></trkpt><trkpt lat="44.9372646" lon="9.1951937"><ele>237.66666666666669</ele><time>2026-04-18T08:05:17.868Z</time></trkpt><trkpt lat="44.9373459" lon="9.1951427"><ele>237.0</ele><time>2026-04-18T08:05:21.854Z</time></trkpt><trkpt lat="44.9374189" lon="9.1951117"><ele>236.33333333333331</ele><time>2026-04-18T08:05:24.914Z</time></trkpt><trkpt lat="44.937497" lon="9.1950976"><ele>235.66666666666666</ele><time>2026-04-18T08:05:27.936Z</time></trkpt><trkpt lat="44.9375876" lon="9.1951178"><ele>235.0</ele><time>2026-04-18T08:05:30.865Z</time></trkpt><trkpt lat="44.93765" lon="9.1951419"><ele>236.33333333333331</ele><time>2026-04-18T08:05:33.856Z</time></trkpt><trkpt lat="44.9377215" lon="9.1951649"><ele>237.66666666666666</ele><time>2026-04-18T08:05:36.86Z</time></trkpt><trkpt lat="44.9378044" lon="9.1952036"><ele>239.0</ele><time>2026-04-18T08:05:40.86Z</time></trkpt><trkpt lat="44.9378676" lon="9.1952533"><ele>240.33333333333331</ele><time>2026-04-18T08:05:43.864Z</time></trkpt><trkpt lat="44.9379297" lon="9.1953096"><ele>241.66666666666666</ele><time>2026-04-18T08:05:46.865Z</time></trkpt><trkpt lat="44.9380112" lon="9.1953524"><ele>243.0</ele><time>2026-04-18T08:05:49.864Z</time></trkpt><trkpt lat="44.9380874" lon="9.1953738"><ele>243.0</ele><time>2026-04-18T08:05:52.943Z</time></trkpt><trkpt lat="44.9381721" lon="9.1953835"><ele>243.0</ele><time>2026-04-18T08:05:55.858Z</time></trkpt><trkpt lat="44.9382496" lon="9.1954121"><ele>243.0</ele><time>2026-04-18T08:05:58.864Z</time></trkpt><trkpt lat="44.9383198" lon="9.1954476"><ele>243.0</ele><time>2026-04-18T08:06:01.862Z</time></trkpt><trkpt lat="44.9383888" lon="9.1954639"><ele>243.0</ele><time>2026-04-18T08:06:04.859Z</time></trkpt><trkpt lat="44.9384572" lon="9.1954136"><ele>243.0</ele><time>2026-04-18T08:06:08.859Z</time></trkpt><trkpt lat="44.9385089" lon="9.1953388"><ele>244.71428571428572</ele><time>2026-04-18T08:06:11.858Z</time></trkpt><trkpt lat="44.938559" lon="9.1952745"><ele>246.42857142857144</ele><time>2026-04-18T08:06:14.852Z</time></trkpt><trkpt lat="44.9386025" lon="9.1952042"><ele>248.14285714285717</ele><time>2026-04-18T08:06:17.862Z</time></trkpt><trkpt lat="44.9386445" lon="9.1951346"><ele>249.85714285714286</ele><time>2026-04-18T08:06:20.866Z</time></trkpt><trkpt lat="44.9387298" lon="9.1950935"><ele>251.5714285714286</ele><time>2026-04-18T08:06:24.861Z</time></trkpt><trkpt lat="44.9387978" lon="9.1950754"><ele>253.2857142857143</ele><time>2026-04-18T08:06:27.856Z</time></trkpt><trkpt lat="44.9388791" lon="9.195058"><ele>255.0</ele><time>2026-04-18T08:06:30.88Z</time></trkpt><trkpt lat="44.9389566" lon="9.1950573"><ele>255.0</ele><time>2026-04-18T08:06:33.861Z</time></trkpt><trkpt lat="44.9390197" lon="9.1950466"><ele>255.00000000000003</ele><time>2026-04-18T08:06:36.867Z</time></trkpt><trkpt lat="44.9390888" lon="9.1950295"><ele>255.0</ele><time>2026-04-18T08:06:39.866Z</time></trkpt><trkpt lat="44.9391612" lon="9.1950313"><ele>255.0</ele><time>2026-04-18T08:06:43.937Z</time></trkpt><trkpt lat="44.9392308" lon="9.1950332"><ele>255.00000000000003</ele><time>2026-04-18T08:06:46.86Z</time></trkpt><trkpt lat="44.9393116" lon="9.1950593"><ele>255.0</ele><time>2026-04-18T08:06:49.873Z</time></trkpt><trkpt lat="44.9393835" lon="9.1950943"><ele>255.0</ele><time>2026-04-18T08:06:52.866Z</time></trkpt><trkpt lat="44.9394529" lon="9.1951176"><ele>256.57142857142856</ele><time>2026-04-18T08:06:55.868Z</time></trkpt><trkpt lat="44.9395254" lon="9.1951477"><ele>258.14285714285717</ele><time>2026-04-18T08:06:58.861Z</time></trkpt><trkpt lat="44.9395953" lon="9.1951848"><ele>259.7142857142857</ele><time>2026-04-18T08:07:01.864Z</time></trkpt><trkpt lat="44.9396639" lon="9.1952211"><ele>261.2857142857143</ele><time>2026-04-18T08:07:04.862Z</time></trkpt><trkpt lat="44.9397315" lon="9.1952567"><ele>262.8571428571429</ele><time>2026-04-18T08:07:07.862Z</time></trkpt><trkpt lat="44.9398032" lon="9.1952842"><ele>264.42857142857144</ele><time>2026-04-18T08:07:10.938Z</time></trkpt><trkpt lat="44.9398697" lon="9.1953066"><ele>266.0</ele><time>2026-04-18T08:07:13.858Z</time></trkpt><trkpt lat="44.9399442" lon="9.1953372"><ele>266.0</ele><time>2026-04-18T08:07:16.862Z</time></trkpt><trkpt lat="44.940017" lon="9.1953511"><ele>266.0</ele><time>2026-04-18T08:07:19.861Z</time></trkpt><trkpt lat="44.9400896" lon="9.1953669"><ele>266.0</ele><time>2026-04-18T08:07:22.861Z</time></trkpt><trkpt lat="44.9401597" lon="9.195383"><ele>266.0</ele><time>2026-04-18T08:07:25.863Z</time></trkpt><trkpt lat="44.9402341" lon="9.1953867"><ele>266.0</ele><time>2026-04-18T08:07:28.861Z</time></trkpt><trkpt lat="44.9402986" lon="9.1953839"><ele>266.0</ele><time>2026-04-18T08:07:31.866Z</time></trkpt><trkpt lat="44.9403724" lon="9.1953789"><ele>266.0</ele><time>2026-04-18T08:07:34.862Z</time></trkpt><trkpt lat="44.9404497" lon="9.1953421"><ele>267.1666666666667</ele><time>2026-04-18T08:07:38.863Z</time></trkpt><trkpt lat="44.9405326" lon="9.195309"><ele>268.33333333333337</ele><time>2026-04-18T08:07:42.859Z</time></trkpt><trkpt lat="44.9406018" lon="9.1952721"><ele>269.5</ele><time>2026-04-18T08:07:45.855Z</time></trkpt><trkpt lat="44.9406823" lon="9.1952491"><ele>270.6666666666667</ele><time>2026-04-18T08:07:48.857Z</time></trkpt><trkpt lat="44.9407655" lon="9.195247"><ele>271.8333333333333</ele><time>2026-04-18T08:07:51.883Z</time></trkpt><trkpt lat="44.9408546" lon="9.1952617"><ele>273.0</ele><time>2026-04-18T08:07:54.865Z</time></trkpt><trkpt lat="44.9409402" lon="9.1952671"><ele>273.0</ele><time>2026-04-18T08:07:57.863Z</time></trkpt><trkpt lat="44.941025" lon="9.1952887"><ele>273.0</ele><time>2026-04-18T08:08:00.854Z</time></trkpt><trkpt lat="44.9411033" lon="9.1953058"><ele>273.0</ele><time>2026-04-18T08:08:03.938Z</time></trkpt><trkpt lat="44.9411751" lon="9.1953268"><ele>273.0</ele><time>2026-04-18T08:08:06.857Z</time></trkpt><trkpt lat="44.9412408" lon="9.19534"><ele>273.0</ele><time>2026-04-18T08:08:21.049Z</time></trkpt><trkpt lat="44.941311" lon="9.19538"><ele>273.0</ele><time>2026-04-18T08:08:25.048Z</time></trkpt><trkpt lat="44.9413798" lon="9.1954428"><ele>273.0</ele><time>2026-04-18T08:08:29.057Z</time></trkpt><trkpt lat="44.9414411" lon="9.1955171"><ele>273.0</ele><time>2026-04-18T08:08:32.045Z</time></trkpt><trkpt lat="44.941503" lon="9.1955894"><ele>273.0</ele><time>2026-04-18T08:08:35.046Z</time></trkpt><trkpt lat="44.9415665" lon="9.1956577"><ele>273.0</ele><time>2026-04-18T08:08:38.045Z</time></trkpt><trkpt lat="44.9416271" lon="9.1957229"><ele>273.0</ele><time>2026-04-18T08:08:41.05Z</time></trkpt><trkpt lat="44.9416913" lon="9.1957989"><ele>273.0</ele><time>2026-04-18T08:08:45.046Z</time></trkpt><trkpt lat="44.9417491" lon="9.1958841"><ele>272.14285714285717</ele><time>2026-04-18T08:08:49.046Z</time></trkpt><trkpt lat="44.9418009" lon="9.1959468"><ele>271.2857142857143</ele><time>2026-04-18T08:08:52.053Z</time></trkpt><trkpt lat="44.9418635" lon="9.1960301"><ele>270.42857142857144</ele><time>2026-04-18T08:08:55.053Z</time></trkpt><trkpt lat="44.9419087" lon="9.1960972"><ele>269.57142857142856</ele><time>2026-04-18T08:08:57.045Z</time></trkpt><trkpt lat="44.9419495" lon="9.1961788"><ele>268.7142857142857</ele><time>2026-04-18T08:08:59.047Z</time></trkpt><trkpt lat="44.9419903" lon="9.1962865"><ele>267.8571428571429</ele><time>2026-04-18T08:09:01.045Z</time></trkpt><trkpt lat="44.9420142" lon="9.1963743"><ele>267.0</ele><time>2026-04-18T08:09:03.059Z</time></trkpt><trkpt lat="44.9420482" lon="9.196476"><ele>268.3333333333333</ele><time>2026-04-18T08:09:06.056Z</time></trkpt><trkpt lat="44.9420836" lon="9.1965807"><ele>269.6666666666667</ele><time>2026-04-18T08:09:09.059Z</time></trkpt><trkpt lat="44.9421234" lon="9.1966812"><ele>271.0</ele><time>2026-04-18T08:09:12.061Z</time></trkpt><trkpt lat="44.9421675" lon="9.1967644"><ele>272.33333333333337</ele><time>2026-04-18T08:09:15.057Z</time></trkpt><trkpt lat="44.9422347" lon="9.1968537"><ele>273.6666666666667</ele><time>2026-04-18T08:09:18.05Z</time></trkpt><trkpt lat="44.9422853" lon="9.196923"><ele>275.0</ele><time>2026-04-18T08:09:20.055Z</time></trkpt><trkpt lat="44.9423345" lon="9.1970178"><ele>275.0</ele><time>2026-04-18T08:09:22.051Z</time></trkpt><trkpt lat="44.942377" lon="9.1971144"><ele>275.0</ele><time>2026-04-18T08:09:24.055Z</time></trkpt><trkpt lat="44.942409" lon="9.1972056"><ele>275.0</ele><time>2026-04-18T08:09:26.047Z</time></trkpt><trkpt lat="44.9424348" lon="9.1972908"><ele>275.0</ele><time>2026-04-18T08:09:28.054Z</time></trkpt><trkpt lat="44.9424731" lon="9.1973978"><ele>275.0</ele><time>2026-04-18T08:09:31.041Z</time></trkpt><trkpt lat="44.9425392" lon="9.1974867"><ele>275.0</ele><time>2026-04-18T08:09:34.05Z</time></trkpt><trkpt lat="44.9425882" lon="9.1975479"><ele>274.0</ele><time>2026-04-18T08:09:36.054Z</time></trkpt><trkpt lat="44.9426365" lon="9.1976098"><ele>273.0</ele><time>2026-04-18T08:09:38.042Z</time></trkpt><trkpt lat="44.9427015" lon="9.1976962"><ele>272.0</ele><time>2026-04-18T08:09:41.048Z</time></trkpt><trkpt lat="44.9427358" lon="9.1977776"><ele>271.0</ele><time>2026-04-18T08:09:44.057Z</time></trkpt><trkpt lat="44.9427811" lon="9.1978683"><ele>270.0</ele><time>2026-04-18T08:09:47.048Z</time></trkpt><trkpt lat="44.9428149" lon="9.1979721"><ele>269.0</ele><time>2026-04-18T08:09:50.125Z</time></trkpt><trkpt lat="44.9428546" lon="9.1980468"><ele>268.0</ele><time>2026-04-18T08:09:52.055Z</time></trkpt><trkpt lat="44.942893" lon="9.198125"><ele>268.66666666666663</ele><time>2026-04-18T08:09:54.073Z</time></trkpt><trkpt lat="44.9429491" lon="9.1982095"><ele>269.3333333333333</ele><time>2026-04-18T08:09:56.052Z</time></trkpt><trkpt lat="44.9430227" lon="9.1983036"><ele>270.0</ele><time>2026-04-18T08:09:58.047Z</time></trkpt><trkpt lat="44.9431085" lon="9.1983694"><ele>270.6666666666667</ele><time>2026-04-18T08:10:00.051Z</time></trkpt><trkpt lat="44.9431877" lon="9.1984025"><ele>271.33333333333337</ele><time>2026-04-18T08:10:02.055Z</time></trkpt><trkpt lat="44.9432691" lon="9.1984285"><ele>272.0</ele><time>2026-04-18T08:10:04.052Z</time></trkpt><trkpt lat="44.9433406" lon="9.1984573"><ele>270.5</ele><time>2026-04-18T08:10:06.05Z</time></trkpt><trkpt lat="44.9434228" lon="9.1984947"><ele>269.0</ele><time>2026-04-18T08:10:08.045Z</time></trkpt><trkpt lat="44.9434956" lon="9.1985422"><ele>267.5</ele><time>2026-04-18T08:10:10.05Z</time></trkpt><trkpt lat="44.9435534" lon="9.1985992"><ele>266.0</ele><time>2026-04-18T08:10:12.044Z</time></trkpt><trkpt lat="44.9436061" lon="9.1986585"><ele>264.5</ele><time>2026-04-18T08:10:14.044Z</time></trkpt><trkpt lat="44.9436784" lon="9.1987338"><ele>263.0</ele><time>2026-04-18T08:10:17.047Z</time></trkpt><trkpt lat="44.9437528" lon="9.1988129"><ele>263.0</ele><time>2026-04-18T08:10:20.05Z</time></trkpt><trkpt lat="44.9438033" lon="9.1988848"><ele>263.0</ele><time>2026-04-18T08:10:22.048Z</time></trkpt><trkpt lat="44.9438663" lon="9.1989498"><ele>263.0</ele><time>2026-04-18T08:10:24.05Z</time></trkpt><trkpt lat="44.9439264" lon="9.1990302"><ele>263.0</ele><time>2026-04-18T08:10:26.055Z</time></trkpt><trkpt lat="44.9439813" lon="9.1991146"><ele>263.0</ele><time>2026-04-18T08:10:28.057Z</time></trkpt><trkpt lat="44.9440495" lon="9.1991855"><ele>263.0</ele><time>2026-04-18T08:10:30.054Z</time></trkpt><trkpt lat="44.9441258" lon="9.1992736"><ele>261.8</ele><time>2026-04-18T08:10:32.065Z</time></trkpt><trkpt lat="44.9441946" lon="9.1993672"><ele>260.6</ele><time>2026-04-18T08:10:34.051Z</time></trkpt><trkpt lat="44.9442445" lon="9.1994582"><ele>259.4</ele><time>2026-04-18T08:10:36.047Z</time></trkpt><trkpt lat="44.9443025" lon="9.1995783"><ele>258.2</ele><time>2026-04-18T08:10:38.045Z</time></trkpt><trkpt lat="44.9443668" lon="9.1996905"><ele>257.0</ele><time>2026-04-18T08:10:40.045Z</time></trkpt><trkpt lat="44.9444015" lon="9.1997851"><ele>258.6</ele><time>2026-04-18T08:10:42.052Z</time></trkpt><trkpt lat="44.9444528" lon="9.1999031"><ele>260.2</ele><time>2026-04-18T08:10:44.044Z</time></trkpt><trkpt lat="44.944547" lon="9.2000083"><ele>261.8</ele><time>2026-04-18T08:10:46.052Z</time></trkpt><trkpt lat="44.944635" lon="9.2000483"><ele>263.4</ele><time>2026-04-18T08:10:48.057Z</time></trkpt><trkpt lat="44.9447425" lon="9.2001161"><ele>265.0</ele><time>2026-04-18T08:10:50.063Z</time></trkpt><trkpt lat="44.9448036" lon="9.2001747"><ele>265.0</ele><time>2026-04-18T08:10:53.055Z</time></trkpt><trkpt lat="44.9448723" lon="9.2002305"><ele>265.0</ele><time>2026-04-18T08:10:57.044Z</time></trkpt><trkpt lat="44.944932" lon="9.2002726"><ele>265.0</ele><time>2026-04-18T08:10:59.055Z</time></trkpt><trkpt lat="44.9450089" lon="9.2002928"><ele>265.0</ele><time>2026-04-18T08:11:01.052Z</time></trkpt><trkpt lat="44.945071" lon="9.2003297"><ele>265.0</ele><time>2026-04-18T08:11:03.044Z</time></trkpt><trkpt lat="44.9451601" lon="9.2003373"><ele>265.0</ele><time>2026-04-18T08:11:05.056Z</time></trkpt><trkpt lat="44.9452523" lon="9.2003263"><ele>265.5</ele><time>2026-04-18T08:11:07.044Z</time></trkpt><trkpt lat="44.9453266" lon="9.200323"><ele>266.0</ele><time>2026-04-18T08:11:09.051Z</time></trkpt><trkpt lat="44.9454023" lon="9.2002609"><ele>266.5</ele><time>2026-04-18T08:11:12.05Z</time></trkpt><trkpt lat="44.9455" lon="9.2002119"><ele>267.0</ele><time>2026-04-18T08:11:26.066Z</time></trkpt><trkpt lat="44.9455636" lon="9.200188"><ele>267.5</ele><time>2026-04-18T08:11:31.074Z</time></trkpt><trkpt lat="44.9456503" lon="9.200165"><ele>268.0</ele><time>2026-04-18T08:11:34.06Z</time></trkpt><trkpt lat="44.9457246" lon="9.2001555"><ele>268.0</ele><time>2026-04-18T08:11:36.05Z</time></trkpt><trkpt lat="44.9457967" lon="9.2001189"><ele>268.0</ele><time>2026-04-18T08:11:39.044Z</time></trkpt><trkpt lat="44.9458219" lon="9.2000363"><ele>268.0</ele><time>2026-04-18T08:11:44.059Z</time></trkpt><trkpt lat="44.9458596" lon="9.1999565"><ele>268.0</ele><time>2026-04-18T08:11:47.048Z</time></trkpt><trkpt lat="44.9459086" lon="9.1998472"><ele>268.0</ele><time>2026-04-18T08:11:50.044Z</time></trkpt><trkpt lat="44.9459457" lon="9.1997606"><ele>268.0</ele><time>2026-04-18T08:11:52.046Z</time></trkpt><trkpt lat="44.9459772" lon="9.1996759"><ele>268.0</ele><time>2026-04-18T08:11:54.06Z</time></trkpt><trkpt lat="44.9460153" lon="9.1995712"><ele>268.3333333333333</ele><time>2026-04-18T08:11:56.05Z</time></trkpt><trkpt lat="44.9460486" lon="9.1994463"><ele>268.66666666666663</ele><time>2026-04-18T08:11:58.05Z</time></trkpt><trkpt lat="44.9460803" lon="9.1993561"><ele>269.0</ele><time>2026-04-18T08:12:00.048Z</time></trkpt><trkpt lat="44.9460951" lon="9.1992629"><ele>269.3333333333333</ele><time>2026-04-18T08:12:02.051Z</time></trkpt><trkpt lat="44.9461291" lon="9.199172"><ele>269.6666666666667</ele><time>2026-04-18T08:12:05.058Z</time></trkpt><trkpt lat="44.9460729" lon="9.1992758"><ele>270.0</ele><time>2026-04-18T08:12:19.038Z</time></trkpt><trkpt lat="44.9460407" lon="9.1993578"><ele>270.0</ele><time>2026-04-18T08:12:21.049Z</time></trkpt><trkpt lat="44.9460197" lon="9.1994622"><ele>270.0</ele><time>2026-04-18T08:12:24.045Z</time></trkpt><trkpt lat="44.9459961" lon="9.1995479"><ele>270.0</ele><time>2026-04-18T08:12:26.044Z</time></trkpt><trkpt lat="44.9459464" lon="9.1996427"><ele>270.0</ele><time>2026-04-18T08:12:29.045Z</time></trkpt><trkpt lat="44.945912" lon="9.1997202"><ele>270.0</ele><time>2026-04-18T08:12:32.04Z</time></trkpt><trkpt lat="44.9458614" lon="9.1997881"><ele>270.0</ele><time>2026-04-18T08:12:34.051Z</time></trkpt><trkpt lat="44.9458459" lon="9.1999149"><ele>269.6666666666667</ele><time>2026-04-18T08:12:37.052Z</time></trkpt><trkpt lat="44.9458283" lon="9.200006"><ele>269.3333333333333</ele><time>2026-04-18T08:12:39.055Z</time></trkpt><trkpt lat="44.9457898" lon="9.2000978"><ele>269.0</ele><time>2026-04-18T08:12:42.05Z</time></trkpt><trkpt lat="44.9457216" lon="9.2001592"><ele>268.66666666666663</ele><time>2026-04-18T08:12:45.052Z</time></trkpt><trkpt lat="44.9456492" lon="9.200188"><ele>268.3333333333333</ele><time>2026-04-18T08:12:48.044Z</time></trkpt><trkpt lat="44.9455708" lon="9.2002127"><ele>268.0</ele><time>2026-04-18T08:12:51.055Z</time></trkpt><trkpt lat="44.9455431" lon="9.2003142"><ele>268.0</ele><time>2026-04-18T08:12:57.048Z</time></trkpt><trkpt lat="44.9455914" lon="9.2003951"><ele>268.0</ele><time>2026-04-18T08:13:01.048Z</time></trkpt><trkpt lat="44.9456407" lon="9.2004808"><ele>268.0</ele><time>2026-04-18T08:13:05.112Z</time></trkpt><trkpt lat="44.9456891" lon="9.2005536"><ele>268.0</ele><time>2026-04-18T08:13:10.046Z</time></trkpt><trkpt lat="44.9457082" lon="9.2006445"><ele>268.0</ele><time>2026-04-18T08:13:14.045Z</time></trkpt><trkpt lat="44.9457074" lon="9.20076"><ele>268.0</ele><time>2026-04-18T08:13:21.057Z</time></trkpt><trkpt lat="44.9457008" lon="9.200859"><ele>268.0</ele><time>2026-04-18T08:13:25.04Z</time></trkpt><trkpt lat="44.9457296" lon="9.2009604"><ele>268.8571428571429</ele><time>2026-04-18T08:13:28.046Z</time></trkpt><trkpt lat="44.9457568" lon="9.2010454"><ele>269.7142857142857</ele><time>2026-04-18T08:13:32.05Z</time></trkpt><trkpt lat="44.9458061" lon="9.2011151"><ele>270.57142857142856</ele><time>2026-04-18T08:13:37.114Z</time></trkpt><trkpt lat="44.9458489" lon="9.2011835"><ele>271.42857142857144</ele><time>2026-04-18T08:13:41.053Z</time></trkpt><trkpt lat="44.9459118" lon="9.2012306"><ele>272.2857142857143</ele><time>2026-04-18T08:13:45.114Z</time></trkpt><trkpt lat="44.9459797" lon="9.2012299"><ele>273.14285714285717</ele><time>2026-04-18T08:14:15.051Z</time></trkpt><trkpt lat="44.9459163" lon="9.2012748"><ele>274.0</ele><time>2026-04-18T08:14:23.054Z</time></trkpt><trkpt lat="44.9459273" lon="9.2013946"><ele>275.8333333333333</ele><time>2026-04-18T08:14:27.046Z</time></trkpt><trkpt lat="44.9459654" lon="9.2015001"><ele>277.66666666666663</ele><time>2026-04-18T08:14:31.051Z</time></trkpt><trkpt lat="44.9459607" lon="9.2016004"><ele>279.5</ele><time>2026-04-18T08:14:36.042Z</time></trkpt><trkpt lat="44.9459744" lon="9.2016886"><ele>281.3333333333333</ele><time>2026-04-18T08:14:41.045Z</time></trkpt><trkpt lat="44.9459549" lon="9.2017922"><ele>283.1666666666667</ele><time>2026-04-18T08:14:46.048Z</time></trkpt><trkpt lat="44.945893" lon="9.2017413"><ele>285.0</ele><time>2026-04-18T08:14:55.041Z</time></trkpt><trkpt lat="44.9459524" lon="9.2018305"><ele>285.0</ele><time>2026-04-18T08:15:03.044Z</time></trkpt><trkpt lat="44.9459764" lon="9.2017375"><ele>285.0</ele><time>2026-04-18T08:15:08.044Z</time></trkpt><trkpt lat="44.9459815" lon="9.2016108"><ele>285.0</ele><time>2026-04-18T08:15:11.052Z</time></trkpt><trkpt lat="44.9459692" lon="9.201493"><ele>285.0</ele><time>2026-04-18T08:15:14.051Z</time></trkpt><trkpt lat="44.9459531" lon="9.2013944"><ele>285.0</ele><time>2026-04-18T08:15:18.044Z</time></trkpt><trkpt lat="44.9458805" lon="9.2013789"><ele>285.0</ele><time>2026-04-18T08:15:23.042Z</time></trkpt><trkpt lat="44.945819" lon="9.2014277"><ele>284.57142857142856</ele><time>2026-04-18T08:15:27.041Z</time></trkpt><trkpt lat="44.9457571" lon="9.2014914"><ele>284.14285714285717</ele><time>2026-04-18T08:15:32.045Z</time></trkpt><trkpt lat="44.9457032" lon="9.2015394"><ele>283.7142857142857</ele><time>2026-04-18T08:15:36.049Z</time></trkpt><trkpt lat="44.9456517" lon="9.2016215"><ele>283.2857142857143</ele><time>2026-04-18T08:15:41.041Z</time></trkpt><trkpt lat="44.9455926" lon="9.2017015"><ele>282.85714285714283</ele><time>2026-04-18T08:15:45.041Z</time></trkpt><trkpt lat="44.9455492" lon="9.201781"><ele>282.42857142857144</ele><time>2026-04-18T08:15:49.056Z</time></trkpt><trkpt lat="44.9455114" lon="9.2018614"><ele>282.0</ele><time>2026-04-18T08:15:53.048Z</time></trkpt><trkpt lat="44.9454658" lon="9.2019282"><ele>282.0</ele><time>2026-04-18T08:15:56.042Z</time></trkpt><trkpt lat="44.9454216" lon="9.2020122"><ele>282.0</ele><time>2026-04-18T08:16:00.05Z</time></trkpt><trkpt lat="44.9453716" lon="9.2020964"><ele>282.0</ele><time>2026-04-18T08:16:05.042Z</time></trkpt><trkpt lat="44.9453204" lon="9.2021683"><ele>282.0</ele><time>2026-04-18T08:16:10.05Z</time></trkpt><trkpt lat="44.9452618" lon="9.2022562"><ele>282.0</ele><time>2026-04-18T08:16:15.05Z</time></trkpt><trkpt lat="44.9451969" lon="9.2023167"><ele>282.0</ele><time>2026-04-18T08:16:19.046Z</time></trkpt><trkpt lat="44.9451416" lon="9.2023868"><ele>283.7142857142857</ele><time>2026-04-18T08:16:23.039Z</time></trkpt><trkpt lat="44.945078" lon="9.2024377"><ele>285.42857142857144</ele><time>2026-04-18T08:16:28.05Z</time></trkpt><trkpt lat="44.9450246" lon="9.2025065"><ele>287.1428571428571</ele><time>2026-04-18T08:16:33.053Z</time></trkpt><trkpt lat="44.9449659" lon="9.2025638"><ele>288.8571428571429</ele><time>2026-04-18T08:16:36.1Z</time></trkpt><trkpt lat="44.9449145" lon="9.2026477"><ele>290.57142857142856</ele><time>2026-04-18T08:16:42.043Z</time></trkpt><trkpt lat="44.9448365" lon="9.2026506"><ele>292.2857142857143</ele><time>2026-04-18T08:16:48.047Z</time></trkpt><trkpt lat="44.9447695" lon="9.2025993"><ele>294.0</ele><time>2026-04-18T08:16:51.057Z</time></trkpt><trkpt lat="44.9447057" lon="9.20258"><ele>294.0</ele><time>2026-04-18T08:16:58.054Z</time></trkpt><trkpt lat="44.9447809" lon="9.20267"><ele>294.0</ele><time>2026-04-18T08:18:11.071Z</time></trkpt><trkpt lat="44.9448469" lon="9.2026713"><ele>294.0</ele><time>2026-04-18T08:18:16.066Z</time></trkpt><trkpt lat="44.944905" lon="9.2026068"><ele>294.0</ele><time>2026-04-18T08:18:19.051Z</time></trkpt><trkpt lat="44.9449544" lon="9.2025378"><ele>294.0</ele><time>2026-04-18T08:18:21.051Z</time></trkpt><trkpt lat="44.9450144" lon="9.2024913"><ele>294.0</ele><time>2026-04-18T08:18:23.041Z</time></trkpt><trkpt lat="44.9450899" lon="9.2024229"><ele>294.0</ele><time>2026-04-18T08:18:26.036Z</time></trkpt><trkpt lat="44.9451451" lon="9.2023337"><ele>294.0</ele><time>2026-04-18T08:18:29.038Z</time></trkpt><trkpt lat="44.9452064" lon="9.202279"><ele>294.0</ele><time>2026-04-18T08:18:31.04Z</time></trkpt><trkpt lat="44.9452559" lon="9.202223"><ele>294.0</ele><time>2026-04-18T08:18:33.054Z</time></trkpt><trkpt lat="44.9453331" lon="9.2021379"><ele>294.0</ele><time>2026-04-18T08:18:36.047Z</time></trkpt><trkpt lat="44.9453782" lon="9.202069"><ele>294.0</ele><time>2026-04-18T08:18:38.051Z</time></trkpt><trkpt lat="44.9454399" lon="9.2019952"><ele>292.0</ele><time>2026-04-18T08:18:40.054Z</time></trkpt><trkpt lat="44.9454982" lon="9.201895"><ele>290.0</ele><time>2026-04-18T08:18:43.046Z</time></trkpt><trkpt lat="44.9455554" lon="9.2017862"><ele>288.0</ele><time>2026-04-18T08:18:46.048Z</time></trkpt><trkpt lat="44.9456017" lon="9.2016935"><ele>286.0</ele><time>2026-04-18T08:18:48.048Z</time></trkpt><trkpt lat="44.9456476" lon="9.2016325"><ele>284.0</ele><time>2026-04-18T08:18:50.047Z</time></trkpt><trkpt lat="44.9457045" lon="9.2015582"><ele>282.0</ele><time>2026-04-18T08:18:52.052Z</time></trkpt><trkpt lat="44.9457577" lon="9.2014954"><ele>282.7142857142857</ele><time>2026-04-18T08:18:54.057Z</time></trkpt><trkpt lat="44.9458119" lon="9.2014485"><ele>283.42857142857144</ele><time>2026-04-18T08:18:56.046Z</time></trkpt><trkpt lat="44.9458709" lon="9.2013985"><ele>284.1428571428571</ele><time>2026-04-18T08:18:58.04Z</time></trkpt><trkpt lat="44.9459321" lon="9.2013435"><ele>284.8571428571429</ele><time>2026-04-18T08:19:00.045Z</time></trkpt><trkpt lat="44.945987" lon="9.2012537"><ele>285.57142857142856</ele><time>2026-04-18T08:19:02.041Z</time></trkpt><trkpt lat="44.9460174" lon="9.2011695"><ele>286.2857142857143</ele><time>2026-04-18T08:19:04.043Z</time></trkpt><trkpt lat="44.9460542" lon="9.2010709"><ele>287.0</ele><time>2026-04-18T08:19:08.047Z</time></trkpt><trkpt lat="44.9461049" lon="9.2010144"><ele>287.0</ele><time>2026-04-18T08:19:12.048Z</time></trkpt><trkpt lat="44.9461792" lon="9.2009859"><ele>287.0</ele><time>2026-04-18T08:19:16.033Z</time></trkpt><trkpt lat="44.9462456" lon="9.2009922"><ele>287.0</ele><time>2026-04-18T08:19:21.049Z</time></trkpt><trkpt lat="44.9463194" lon="9.2009835"><ele>287.0</ele><time>2026-04-18T08:19:25.05Z</time></trkpt><trkpt lat="44.9463898" lon="9.2009679"><ele>287.0</ele><time>2026-04-18T08:19:29.049Z</time></trkpt><trkpt lat="44.9464638" lon="9.2009662"><ele>287.0</ele><time>2026-04-18T08:19:37.04Z</time></trkpt><trkpt lat="44.9465471" lon="9.2009561"><ele>287.0</ele><time>2026-04-18T08:19:42.044Z</time></trkpt><trkpt lat="44.9466131" lon="9.2009556"><ele>287.0</ele><time>2026-04-18T08:19:45.043Z</time></trkpt><trkpt lat="44.9466747" lon="9.2009306"><ele>287.0</ele><time>2026-04-18T08:19:49.041Z</time></trkpt><trkpt lat="44.9467521" lon="9.2008808"><ele>287.0</ele><time>2026-04-18T08:19:53.055Z</time></trkpt><trkpt lat="44.9468339" lon="9.2008644"><ele>287.0</ele><time>2026-04-18T08:19:56.043Z</time></trkpt><trkpt lat="44.946901" lon="9.2008564"><ele>287.0</ele><time>2026-04-18T08:19:58.046Z</time></trkpt><trkpt lat="44.9469626" lon="9.2008884"><ele>287.0</ele><time>2026-04-18T08:20:01.04Z</time></trkpt><trkpt lat="44.947027" lon="9.2008783"><ele>287.0</ele><time>2026-04-18T08:20:05.04Z</time></trkpt><trkpt lat="44.9470931" lon="9.2008852"><ele>287.57142857142856</ele><time>2026-04-18T08:20:07.044Z</time></trkpt><trkpt lat="44.9471589" lon="9.2008605"><ele>288.1428571428571</ele><time>2026-04-18T08:20:10.047Z</time></trkpt><trkpt lat="44.9472172" lon="9.2008159"><ele>288.7142857142857</ele><time>2026-04-18T08:20:13.051Z</time></trkpt><trkpt lat="44.9472933" lon="9.200801"><ele>289.2857142857143</ele><time>2026-04-18T08:20:16.045Z</time></trkpt><trkpt lat="44.9473753" lon="9.2008004"><ele>289.85714285714283</ele><time>2026-04-18T08:20:20.048Z</time></trkpt><trkpt lat="44.9474541" lon="9.2008213"><ele>290.42857142857144</ele><time>2026-04-18T08:20:24.055Z</time></trkpt><trkpt lat="44.9475167" lon="9.2008421"><ele>291.0</ele><time>2026-04-18T08:20:26.045Z</time></trkpt><trkpt lat="44.9475917" lon="9.2008709"><ele>293.57142857142856</ele><time>2026-04-18T08:20:28.047Z</time></trkpt><trkpt lat="44.9476623" lon="9.2009245"><ele>296.1428571428571</ele><time>2026-04-18T08:20:31.049Z</time></trkpt><trkpt lat="44.9477338" lon="9.2009699"><ele>298.7142857142857</ele><time>2026-04-18T08:20:34.049Z</time></trkpt><trkpt lat="44.947802" lon="9.201014"><ele>301.2857142857143</ele><time>2026-04-18T08:20:37.049Z</time></trkpt><trkpt lat="44.947866" lon="9.2010387"><ele>303.8571428571429</ele><time>2026-04-18T08:20:40.045Z</time></trkpt><trkpt lat="44.9479341" lon="9.2010423"><ele>306.42857142857144</ele><time>2026-04-18T08:20:43.111Z</time></trkpt><trkpt lat="44.9480042" lon="9.2010454"><ele>309.0</ele><time>2026-04-18T08:20:46.045Z</time></trkpt><trkpt lat="44.9480681" lon="9.2010509"><ele>309.0</ele><time>2026-04-18T08:20:49.045Z</time></trkpt><trkpt lat="44.9481534" lon="9.2009948"><ele>309.0</ele><time>2026-04-18T08:20:52.048Z</time></trkpt><trkpt lat="44.9482153" lon="9.2009154"><ele>309.0</ele><time>2026-04-18T08:20:55.047Z</time></trkpt><trkpt lat="44.9482317" lon="9.2008262"><ele>309.0</ele><time>2026-04-18T08:20:58.051Z</time></trkpt><trkpt lat="44.9482451" lon="9.2007052"><ele>309.0</ele><time>2026-04-18T08:21:01.043Z</time></trkpt><trkpt lat="44.9482469" lon="9.200602"><ele>309.0</ele><time>2026-04-18T08:21:04.037Z</time></trkpt><trkpt lat="44.9482479" lon="9.2004818"><ele>307.5</ele><time>2026-04-18T08:21:07.047Z</time></trkpt><trkpt lat="44.9482445" lon="9.2003694"><ele>306.0</ele><time>2026-04-18T08:21:09.044Z</time></trkpt><trkpt lat="44.9482749" lon="9.2002529"><ele>304.5</ele><time>2026-04-18T08:21:12.042Z</time></trkpt><trkpt lat="44.9483178" lon="9.200161"><ele>303.0</ele><time>2026-04-18T08:21:15.049Z</time></trkpt><trkpt lat="44.9483653" lon="9.200084"><ele>301.5</ele><time>2026-04-18T08:21:18.04Z</time></trkpt><trkpt lat="44.9484134" lon="9.2000234"><ele>300.0</ele><time>2026-04-18T08:21:20.047Z</time></trkpt><trkpt lat="44.9484933" lon="9.19996"><ele>304.71428571428567</ele><time>2026-04-18T08:21:23.044Z</time></trkpt><trkpt lat="44.9485525" lon="9.1998942"><ele>309.42857142857144</ele><time>2026-04-18T08:21:26.055Z</time></trkpt><trkpt lat="44.9485961" lon="9.1998078"><ele>314.1428571428571</ele><time>2026-04-18T08:21:29.047Z</time></trkpt><trkpt lat="44.9486365" lon="9.1997364"><ele>318.85714285714283</ele><time>2026-04-18T08:21:32.05Z</time></trkpt><trkpt lat="44.9486752" lon="9.1996559"><ele>323.57142857142856</ele><time>2026-04-18T08:21:35.041Z</time></trkpt><trkpt lat="44.9487441" lon="9.1996187"><ele>328.2857142857143</ele><time>2026-04-18T08:21:38.041Z</time></trkpt><trkpt lat="44.9488068" lon="9.1996577"><ele>333.0</ele><time>2026-04-18T08:21:41.045Z</time></trkpt><trkpt lat="44.9488447" lon="9.1997649"><ele>333.0</ele><time>2026-04-18T08:21:45.036Z</time></trkpt><trkpt lat="44.9489149" lon="9.199814"><ele>333.0</ele><time>2026-04-18T08:21:49.038Z</time></trkpt><trkpt lat="44.9489763" lon="9.1997664"><ele>333.0</ele><time>2026-04-18T08:21:52.062Z</time></trkpt><trkpt lat="44.9490095" lon="9.1996816"><ele>333.0</ele><time>2026-04-18T08:21:55.041Z</time></trkpt><trkpt lat="44.9490119" lon="9.1995786"><ele>333.0</ele><time>2026-04-18T08:21:58.043Z</time></trkpt><trkpt lat="44.9490042" lon="9.1994582"><ele>333.0</ele><time>2026-04-18T08:22:02.042Z</time></trkpt><trkpt lat="44.9490032" lon="9.1993653"><ele>333.0</ele><time>2026-04-18T08:22:05.056Z</time></trkpt><trkpt lat="44.948998" lon="9.1992727"><ele>333.0</ele><time>2026-04-18T08:22:08.044Z</time></trkpt><trkpt lat="44.9490147" lon="9.1991813"><ele>333.0</ele><time>2026-04-18T08:22:11.046Z</time></trkpt><trkpt lat="44.9490626" lon="9.1990956"><ele>333.0</ele><time>2026-04-18T08:22:14.046Z</time></trkpt><trkpt lat="44.9491268" lon="9.1990386"><ele>333.0</ele><time>2026-04-18T08:22:17.046Z</time></trkpt><trkpt lat="44.9491962" lon="9.1990127"><ele>333.0</ele><time>2026-04-18T08:22:20.04Z</time></trkpt><trkpt lat="44.9492809" lon="9.1989792"><ele>333.0</ele><time>2026-04-18T08:22:24.056Z</time></trkpt><trkpt lat="44.9493544" lon="9.1989708"><ele>332.6666666666667</ele><time>2026-04-18T08:22:27.048Z</time></trkpt><trkpt lat="44.9494212" lon="9.1989812"><ele>332.3333333333333</ele><time>2026-04-18T08:22:31.047Z</time></trkpt><trkpt lat="44.9494572" lon="9.1990661"><ele>332.0</ele><time>2026-04-18T08:22:34.049Z</time></trkpt><trkpt lat="44.9494385" lon="9.1991761"><ele>331.66666666666663</ele><time>2026-04-18T08:22:37.041Z</time></trkpt><trkpt lat="44.9493928" lon="9.1992655"><ele>331.3333333333333</ele><time>2026-04-18T08:22:41.052Z</time></trkpt><trkpt lat="44.9493832" lon="9.1993813"><ele>331.0</ele><time>2026-04-18T08:22:44.051Z</time></trkpt><trkpt lat="44.9493824" lon="9.199497"><ele>332.3333333333333</ele><time>2026-04-18T08:22:47.042Z</time></trkpt><trkpt lat="44.9493818" lon="9.1996002"><ele>333.66666666666663</ele><time>2026-04-18T08:22:50.052Z</time></trkpt><trkpt lat="44.9493834" lon="9.1996965"><ele>335.0</ele><time>2026-04-18T08:22:53.043Z</time></trkpt><trkpt lat="44.9493999" lon="9.1998022"><ele>336.3333333333333</ele><time>2026-04-18T08:22:56.048Z</time></trkpt><trkpt lat="44.9494269" lon="9.1998915"><ele>337.6666666666667</ele><time>2026-04-18T08:22:59.056Z</time></trkpt><trkpt lat="44.9494617" lon="9.1999922"><ele>339.0</ele><time>2026-04-18T08:23:02.055Z</time></trkpt><trkpt lat="44.9495089" lon="9.2000911"><ele>341.3333333333333</ele><time>2026-04-18T08:23:05.047Z</time></trkpt><trkpt lat="44.9495512" lon="9.2001766"><ele>343.6666666666667</ele><time>2026-04-18T08:23:08.044Z</time></trkpt><trkpt lat="44.9495952" lon="9.2002665"><ele>346.0</ele><time>2026-04-18T08:23:11.046Z</time></trkpt><trkpt lat="44.9496362" lon="9.2003644"><ele>348.33333333333337</ele><time>2026-04-18T08:23:14.05Z</time></trkpt><trkpt lat="44.9496684" lon="9.20046"><ele>350.6666666666667</ele><time>2026-04-18T08:23:17.045Z</time></trkpt><trkpt lat="44.949696" lon="9.2005739"><ele>353.0</ele><time>2026-04-18T08:23:20.045Z</time></trkpt><trkpt lat="44.9497225" lon="9.2006838"><ele>355.0</ele><time>2026-04-18T08:23:23.047Z</time></trkpt><trkpt lat="44.949736" lon="9.2007955"><ele>357.0</ele><time>2026-04-18T08:23:26.05Z</time></trkpt><trkpt lat="44.9497604" lon="9.2008904"><ele>359.0</ele><time>2026-04-18T08:23:29.05Z</time></trkpt><trkpt lat="44.9497758" lon="9.2009832"><ele>361.0</ele><time>2026-04-18T08:23:32.049Z</time></trkpt><trkpt lat="44.9497856" lon="9.2010975"><ele>363.0</ele><time>2026-04-18T08:23:36.041Z</time></trkpt><trkpt lat="44.9498" lon="9.2012079"><ele>365.0</ele><time>2026-04-18T08:23:40.05Z</time></trkpt><trkpt lat="44.9498172" lon="9.2013175"><ele>365.0</ele><time>2026-04-18T08:23:44.039Z</time></trkpt><trkpt lat="44.9498322" lon="9.201415"><ele>365.0</ele><time>2026-04-18T08:23:47.042Z</time></trkpt><trkpt lat="44.9498379" lon="9.201515"><ele>365.0</ele><time>2026-04-18T08:23:50.055Z</time></trkpt><trkpt lat="44.9498598" lon="9.2016246"><ele>365.0</ele><time>2026-04-18T08:23:53.049Z</time></trkpt><trkpt lat="44.9497225" lon="9.2006838"><ele>365.0</ele><time>2026-04-18T08:23:23.047Z</time></trkpt><trkpt lat="44.949736" lon="9.2007955"><ele>365.0</ele><time>2026-04-18T08:23:26.05Z</time></trkpt><trkpt lat="44.9497604" lon="9.2008904"><ele>365.0</ele><time>2026-04-18T08:23:29.05Z</time></trkpt><trkpt lat="44.9497758" lon="9.2009832"><ele>365.0</ele><time>2026-04-18T08:23:32.049Z</time></trkpt><trkpt lat="44.9497856" lon="9.2010975"><ele>365.0</ele><time>2026-04-18T08:23:36.041Z</time></trkpt><trkpt lat="44.9498" lon="9.2012079"><ele>365.0</ele><time>2026-04-18T08:23:40.05Z</time></trkpt><trkpt lat="44.9498172" lon="9.2013175"><ele>365.0</ele><time>2026-04-18T08:23:44.039Z</time></trkpt><trkpt lat="44.9498322" lon="9.201415"><ele>365.0</ele><time>2026-04-18T08:23:47.042Z</time></trkpt><trkpt lat="44.9498379" lon="9.201515"><ele>365.0</ele><time>2026-04-18T08:23:50.055Z</time></trkpt><trkpt lat="44.9498598" lon="9.2016246"><ele>365.0</ele><time>2026-04-18T08:23:53.049Z</time></trkpt><trkpt lat="44.9498732" lon="9.2017454"><ele>365.0</ele><time>2026-04-18T08:23:56.047Z</time></trkpt><trkpt lat="44.9498908" lon="9.2018439"><ele>365.0</ele><time>2026-04-18T08:24:00.052Z</time></trkpt><trkpt lat="44.9498811" lon="9.2019561"><ele>365.8571428571429</ele><time>2026-04-18T08:24:03.05Z</time></trkpt><trkpt lat="44.9498676" lon="9.2020629"><ele>366.7142857142857</ele><time>2026-04-18T08:24:05.051Z</time></trkpt><trkpt lat="44.9498718" lon="9.2021583"><ele>367.57142857142856</ele><time>2026-04-18T08:24:07.042Z</time></trkpt><trkpt lat="44.9498608" lon="9.2022565"><ele>368.42857142857144</ele><time>2026-04-18T08:24:10.051Z</time></trkpt><trkpt lat="44.9498432" lon="9.2023574"><ele>369.2857142857143</ele><time>2026-04-18T08:24:14.05Z</time></trkpt><trkpt lat="44.9498468" lon="9.2024485"><ele>370.14285714285717</ele><time>2026-04-18T08:24:18.045Z</time></trkpt><trkpt lat="44.9498768" lon="9.2025342"><ele>371.0</ele><time>2026-04-18T08:24:21.043Z</time></trkpt><trkpt lat="44.9499127" lon="9.2026315"><ele>370.85714285714283</ele><time>2026-04-18T08:24:25.046Z</time></trkpt><trkpt lat="44.9499571" lon="9.2027113"><ele>370.7142857142857</ele><time>2026-04-18T08:24:29.049Z</time></trkpt><trkpt lat="44.9499939" lon="9.2027937"><ele>370.57142857142856</ele><time>2026-04-18T08:24:32.045Z</time></trkpt><trkpt lat="44.9500379" lon="9.2028689"><ele>370.42857142857144</ele><time>2026-04-18T08:24:35.045Z</time></trkpt><trkpt lat="44.9500724" lon="9.2029547"><ele>370.2857142857143</ele><time>2026-04-18T08:24:39.063Z</time></trkpt><trkpt lat="44.95011" lon="9.2030554"><ele>370.1428571428571</ele><time>2026-04-18T08:24:44.041Z</time></trkpt><trkpt lat="44.9501528" lon="9.2031433"><ele>370.0</ele><time>2026-04-18T08:24:48.048Z</time></trkpt><trkpt lat="44.9501921" lon="9.2032189"><ele>371.57142857142856</ele><time>2026-04-18T08:24:51.059Z</time></trkpt><trkpt lat="44.9502212" lon="9.2033019"><ele>373.1428571428571</ele><time>2026-04-18T08:24:54.044Z</time></trkpt><trkpt lat="44.950243" lon="9.2033875"><ele>374.71428571428567</ele><time>2026-04-18T08:24:57.048Z</time></trkpt><trkpt lat="44.950279" lon="9.2034854"><ele>376.2857142857143</ele><time>2026-04-18T08:25:01.057Z</time></trkpt><trkpt lat="44.9503083" lon="9.2035902"><ele>377.8571428571429</ele><time>2026-04-18T08:25:05.046Z</time></trkpt><trkpt lat="44.9503358" lon="9.203682"><ele>379.4285714285714</ele><time>2026-04-18T08:25:09.043Z</time></trkpt><trkpt lat="44.9503762" lon="9.203772"><ele>381.0</ele><time>2026-04-18T08:25:13.079Z</time></trkpt><trkpt lat="44.9504217" lon="9.2038533"><ele>381.0</ele><time>2026-04-18T08:25:18.056Z</time></trkpt><trkpt lat="44.950482" lon="9.2039221"><ele>381.0</ele><time>2026-04-18T08:25:23.049Z</time></trkpt><trkpt lat="44.9505421" lon="9.203966"><ele>381.0</ele><time>2026-04-18T08:25:28.043Z</time></trkpt><trkpt lat="44.9506122" lon="9.2039814"><ele>381.0</ele><time>2026-04-18T08:25:33.049Z</time></trkpt><trkpt lat="44.9506867" lon="9.2040035"><ele>381.0</ele><time>2026-04-18T08:25:37.053Z</time></trkpt><trkpt lat="44.9507626" lon="9.2040084"><ele>381.0</ele><time>2026-04-18T08:25:41.049Z</time></trkpt><trkpt lat="44.9508274" lon="9.2039878"><ele>381.0</ele><time>2026-04-18T08:25:45.048Z</time></trkpt><trkpt lat="44.9508989" lon="9.2039784"><ele>378.1428571428571</ele><time>2026-04-18T08:25:50.042Z</time></trkpt><trkpt lat="44.9509673" lon="9.2039683"><ele>375.28571428571433</ele><time>2026-04-18T08:25:54.045Z</time></trkpt><trkpt lat="44.9510368" lon="9.2039557"><ele>372.42857142857144</ele><time>2026-04-18T08:25:57.046Z</time></trkpt><trkpt lat="44.9511021" lon="9.2039312"><ele>369.57142857142856</ele><time>2026-04-18T08:26:01.052Z</time></trkpt><trkpt lat="44.9511798" lon="9.2038978"><ele>366.71428571428567</ele><time>2026-04-18T08:26:05.047Z</time></trkpt><trkpt lat="44.9512469" lon="9.2038585"><ele>363.8571428571429</ele><time>2026-04-18T08:26:08.046Z</time></trkpt><trkpt lat="44.9513124" lon="9.2038367"><ele>361.0</ele><time>2026-04-18T08:26:10.05Z</time></trkpt><trkpt lat="44.9513926" lon="9.2038329"><ele>361.0</ele><time>2026-04-18T08:26:13.049Z</time></trkpt><trkpt lat="44.951468" lon="9.203851"><ele>361.0</ele><time>2026-04-18T08:26:16.042Z</time></trkpt><trkpt lat="44.9515339" lon="9.2038714"><ele>361.0</ele><time>2026-04-18T08:26:19.05Z</time></trkpt><trkpt lat="44.9515911" lon="9.2039262"><ele>361.0</ele><time>2026-04-18T08:26:22.047Z</time></trkpt><trkpt lat="44.9516637" lon="9.2039848"><ele>361.0</ele><time>2026-04-18T08:26:26.096Z</time></trkpt><trkpt lat="44.9517259" lon="9.2040019"><ele>361.0</ele><time>2026-04-18T08:26:29.049Z</time></trkpt><trkpt lat="44.9518107" lon="9.2039654"><ele>361.0</ele><time>2026-04-18T08:26:32.047Z</time></trkpt><trkpt lat="44.9518832" lon="9.2038636"><ele>361.0</ele><time>2026-04-18T08:26:34.042Z</time></trkpt><trkpt lat="44.9519653" lon="9.2037818"><ele>361.0</ele><time>2026-04-18T08:26:36.043Z</time></trkpt><trkpt lat="44.9520589" lon="9.2036885"><ele>361.0</ele><time>2026-04-18T08:26:38.045Z</time></trkpt><trkpt lat="44.9521307" lon="9.2036209"><ele>361.0</ele><time>2026-04-18T08:26:40.096Z</time></trkpt><trkpt lat="44.9521821" lon="9.2035396"><ele>361.0</ele><time>2026-04-18T08:26:43.046Z</time></trkpt><trkpt lat="44.9522478" lon="9.2034733"><ele>361.0</ele><time>2026-04-18T08:26:49.061Z</time></trkpt><trkpt lat="44.9522889" lon="9.2034044"><ele>361.0</ele><time>2026-04-18T08:26:57.047Z</time></trkpt><trkpt lat="44.9523629" lon="9.2033594"><ele>361.0</ele><time>2026-04-18T08:27:03.058Z</time></trkpt><trkpt lat="44.9524411" lon="9.2032913"><ele>361.0</ele><time>2026-04-18T08:27:06.042Z</time></trkpt><trkpt lat="44.9525096" lon="9.2032366"><ele>361.0</ele><time>2026-04-18T08:27:09.046Z</time></trkpt><trkpt lat="44.9525878" lon="9.2031874"><ele>361.0</ele><time>2026-04-18T08:27:12.043Z</time></trkpt><trkpt lat="44.9526659" lon="9.2031357"><ele>359.66666666666663</ele><time>2026-04-18T08:27:14.047Z</time></trkpt><trkpt lat="44.9527359" lon="9.2030902"><ele>358.3333333333333</ele><time>2026-04-18T08:27:16.048Z</time></trkpt><trkpt lat="44.9528047" lon="9.2030351"><ele>357.0</ele><time>2026-04-18T08:27:19.048Z</time></trkpt><trkpt lat="44.9528675" lon="9.2030156"><ele>355.6666666666667</ele><time>2026-04-18T08:27:22.044Z</time></trkpt><trkpt lat="44.952928" lon="9.2029282"><ele>354.33333333333337</ele><time>2026-04-18T08:27:26.047Z</time></trkpt><trkpt lat="44.9529976" lon="9.2028993"><ele>353.0</ele><time>2026-04-18T08:27:28.059Z</time></trkpt><trkpt lat="44.9530736" lon="9.2028851"><ele>353.0</ele><time>2026-04-18T08:27:30.044Z</time></trkpt><trkpt lat="44.9531393" lon="9.2028589"><ele>353.0</ele><time>2026-04-18T08:27:32.042Z</time></trkpt><trkpt lat="44.9532099" lon="9.2028234"><ele>353.0</ele><time>2026-04-18T08:27:35.055Z</time></trkpt><trkpt lat="44.9532867" lon="9.2027886"><ele>353.0</ele><time>2026-04-18T08:27:38.041Z</time></trkpt><trkpt lat="44.9533724" lon="9.2027857"><ele>353.0</ele><time>2026-04-18T08:27:41.044Z</time></trkpt><trkpt lat="44.9534595" lon="9.2027903"><ele>353.0</ele><time>2026-04-18T08:27:44.04Z</time></trkpt><trkpt lat="44.9535406" lon="9.2027764"><ele>352.83333333333337</ele><time>2026-04-18T08:27:46.052Z</time></trkpt><trkpt lat="44.9536275" lon="9.2027406"><ele>352.6666666666667</ele><time>2026-04-18T08:27:48.048Z</time></trkpt><trkpt lat="44.9537304" lon="9.2026736"><ele>352.5</ele><time>2026-04-18T08:27:50.047Z</time></trkpt><trkpt lat="44.9537953" lon="9.2026295"><ele>352.3333333333333</ele><time>2026-04-18T08:27:51.048Z</time></trkpt><trkpt lat="44.9538536" lon="9.202592"><ele>352.16666666666663</ele><time>2026-04-18T08:27:52.044Z</time></trkpt><trkpt lat="44.9539147" lon="9.2025606"><ele>352.0</ele><time>2026-04-18T08:27:53.069Z</time></trkpt><trkpt lat="44.9539876" lon="9.2025392"><ele>352.0</ele><time>2026-04-18T08:27:54.044Z</time></trkpt><trkpt lat="44.9540544" lon="9.202522"><ele>352.0</ele><time>2026-04-18T08:27:55.046Z</time></trkpt><trkpt lat="44.9541771" lon="9.2024869"><ele>352.0</ele><time>2026-04-18T08:27:57.043Z</time></trkpt><trkpt lat="44.9542861" lon="9.2024487"><ele>352.0</ele><time>2026-04-18T08:27:59.046Z</time></trkpt><trkpt lat="44.9543449" lon="9.2024167"><ele>352.0</ele><time>2026-04-18T08:28:01.041Z</time></trkpt><trkpt lat="44.9544167" lon="9.2023777"><ele>352.0</ele><time>2026-04-18T08:28:04.051Z</time></trkpt><trkpt lat="44.9544659" lon="9.202315"><ele>350.7142857142857</ele><time>2026-04-18T08:28:07.042Z</time></trkpt><trkpt lat="44.954528" lon="9.202255"><ele>349.42857142857144</ele><time>2026-04-18T08:28:09.046Z</time></trkpt><trkpt lat="44.9545949" lon="9.2022237"><ele>348.1428571428571</ele><time>2026-04-18T08:28:11.042Z</time></trkpt><trkpt lat="44.9546604" lon="9.2021968"><ele>346.8571428571429</ele><time>2026-04-18T08:28:13.051Z</time></trkpt><trkpt lat="44.9547301" lon="9.2021739"><ele>345.57142857142856</ele><time>2026-04-18T08:28:15.043Z</time></trkpt><trkpt lat="44.9548008" lon="9.2021591"><ele>344.2857142857143</ele><time>2026-04-18T08:28:17.042Z</time></trkpt><trkpt lat="44.9548738" lon="9.2021253"><ele>343.0</ele><time>2026-04-18T08:28:19.043Z</time></trkpt><trkpt lat="44.9549547" lon="9.2020921"><ele>343.0</ele><time>2026-04-18T08:28:22.042Z</time></trkpt><trkpt lat="44.9550201" lon="9.2020992"><ele>343.0</ele><time>2026-04-18T08:28:25.045Z</time></trkpt><trkpt lat="44.9550823" lon="9.2020772"><ele>343.0</ele><time>2026-04-18T08:28:27.043Z</time></trkpt><trkpt lat="44.9551689" lon="9.2020338"><ele>343.0</ele><time>2026-04-18T08:28:30.051Z</time></trkpt><trkpt lat="44.955246" lon="9.2019934"><ele>343.0</ele><time>2026-04-18T08:28:33.047Z</time></trkpt><trkpt lat="44.9553174" lon="9.2019202"><ele>343.0</ele><time>2026-04-18T08:28:36.042Z</time></trkpt><trkpt lat="44.9553988" lon="9.2018258"><ele>342.59999999999997</ele><time>2026-04-18T08:28:39.053Z</time></trkpt><trkpt lat="44.955453" lon="9.2017272"><ele>342.2</ele><time>2026-04-18T08:28:41.046Z</time></trkpt><trkpt lat="44.955505" lon="9.2016349"><ele>341.8</ele><time>2026-04-18T08:28:43.1Z</time></trkpt><trkpt lat="44.9555641" lon="9.2015028"><ele>341.4</ele><time>2026-04-18T08:28:45.05Z</time></trkpt><trkpt lat="44.9556345" lon="9.2013525"><ele>341.0</ele><time>2026-04-18T08:28:47.045Z</time></trkpt><trkpt lat="44.955668" lon="9.2012647"><ele>340.42857142857144</ele><time>2026-04-18T08:28:48.049Z</time></trkpt><trkpt lat="44.9557056" lon="9.201175"><ele>339.8571428571429</ele><time>2026-04-18T08:28:49.051Z</time></trkpt><trkpt lat="44.9557433" lon="9.2010949"><ele>339.28571428571433</ele><time>2026-04-18T08:28:50.048Z</time></trkpt><trkpt lat="44.955784" lon="9.2010221"><ele>338.7142857142857</ele><time>2026-04-18T08:28:51.047Z</time></trkpt><trkpt lat="44.9558321" lon="9.2009543"><ele>338.14285714285717</ele><time>2026-04-18T08:28:52.044Z</time></trkpt><trkpt lat="44.9558805" lon="9.2008824"><ele>337.5714285714286</ele><time>2026-04-18T08:28:53.047Z</time></trkpt><trkpt lat="44.9559288" lon="9.2008085"><ele>337.0</ele><time>2026-04-18T08:28:54.043Z</time></trkpt><trkpt lat="44.9559725" lon="9.200729"><ele>336.3333333333333</ele><time>2026-04-18T08:28:55.047Z</time></trkpt><trkpt lat="44.9560117" lon="9.2006406"><ele>335.66666666666663</ele><time>2026-04-18T08:28:56.05Z</time></trkpt><trkpt lat="44.9560458" lon="9.2005442"><ele>335.0</ele><time>2026-04-18T08:28:57.05Z</time></trkpt><trkpt lat="44.9560786" lon="9.20044"><ele>334.3333333333333</ele><time>2026-04-18T08:28:58.062Z</time></trkpt><trkpt lat="44.9561082" lon="9.2003347"><ele>333.6666666666667</ele><time>2026-04-18T08:28:59.055Z</time></trkpt><trkpt lat="44.9561397" lon="9.2002356"><ele>333.0</ele><time>2026-04-18T08:29:00.046Z</time></trkpt><trkpt lat="44.9561615" lon="9.2001384"><ele>333.0</ele><time>2026-04-18T08:29:01.048Z</time></trkpt><trkpt lat="44.9561812" lon="9.2000487"><ele>333.0</ele><time>2026-04-18T08:29:02.05Z</time></trkpt><trkpt lat="44.956217" lon="9.1998856"><ele>333.0</ele><time>2026-04-18T08:29:04.052Z</time></trkpt><trkpt lat="44.9562598" lon="9.1997641"><ele>333.0</ele><time>2026-04-18T08:29:06.052Z</time></trkpt><trkpt lat="44.9562873" lon="9.1996769"><ele>333.0</ele><time>2026-04-18T08:29:08.046Z</time></trkpt><trkpt lat="44.9563329" lon="9.1995882"><ele>333.0</ele><time>2026-04-18T08:29:10.045Z</time></trkpt><trkpt lat="44.9563809" lon="9.1994862"><ele>333.1666666666667</ele><time>2026-04-18T08:29:12.045Z</time></trkpt><trkpt lat="44.9564308" lon="9.1993914"><ele>333.3333333333333</ele><time>2026-04-18T08:29:14.04Z</time></trkpt><trkpt lat="44.9564814" lon="9.1992857"><ele>333.5</ele><time>2026-04-18T08:29:16.046Z</time></trkpt><trkpt lat="44.9565268" lon="9.1992163"><ele>333.66666666666663</ele><time>2026-04-18T08:29:18.046Z</time></trkpt><trkpt lat="44.9565812" lon="9.1991341"><ele>333.8333333333333</ele><time>2026-04-18T08:29:21.04Z</time></trkpt><trkpt lat="44.9566167" lon="9.1990408"><ele>334.0</ele><time>2026-04-18T08:29:24.044Z</time></trkpt><trkpt lat="44.9566523" lon="9.1989159"><ele>334.0</ele><time>2026-04-18T08:29:27.041Z</time></trkpt><trkpt lat="44.9566864" lon="9.1987875"><ele>334.0</ele><time>2026-04-18T08:29:29.04Z</time></trkpt><trkpt lat="44.9567405" lon="9.1986758"><ele>334.0</ele><time>2026-04-18T08:29:31.047Z</time></trkpt><trkpt lat="44.9568099" lon="9.1985669"><ele>334.0</ele><time>2026-04-18T08:29:33.044Z</time></trkpt><trkpt lat="44.956876" lon="9.1984563"><ele>334.0</ele><time>2026-04-18T08:29:35.042Z</time></trkpt><trkpt lat="44.9569385" lon="9.1983597"><ele>332.79999999999995</ele><time>2026-04-18T08:29:37.057Z</time></trkpt><trkpt lat="44.9569972" lon="9.1982447"><ele>331.59999999999997</ele><time>2026-04-18T08:29:39.055Z</time></trkpt><trkpt lat="44.9570509" lon="9.198087"><ele>330.4</ele><time>2026-04-18T08:29:41.056Z</time></trkpt><trkpt lat="44.9570773" lon="9.1980047"><ele>329.2</ele><time>2026-04-18T08:29:42.046Z</time></trkpt><trkpt lat="44.9571017" lon="9.1979159"><ele>328.0</ele><time>2026-04-18T08:29:43.041Z</time></trkpt><trkpt lat="44.9571474" lon="9.1977732"><ele>328.0</ele><time>2026-04-18T08:29:45.037Z</time></trkpt><trkpt lat="44.9571881" lon="9.1976559"><ele>328.0</ele><time>2026-04-18T08:29:47.051Z</time></trkpt><trkpt lat="44.9572362" lon="9.1975403"><ele>328.0</ele><time>2026-04-18T08:29:49.046Z</time></trkpt><trkpt lat="44.957275" lon="9.197452"><ele>328.0</ele><time>2026-04-18T08:29:51.044Z</time></trkpt><trkpt lat="44.9573114" lon="9.1973457"><ele>328.0</ele><time>2026-04-18T08:29:54.054Z</time></trkpt><trkpt lat="44.9573422" lon="9.1972663"><ele>328.0</ele><time>2026-04-18T08:29:56.044Z</time></trkpt><trkpt lat="44.9573612" lon="9.1971785"><ele>327.8333333333333</ele><time>2026-04-18T08:29:58.045Z</time></trkpt><trkpt lat="44.9573832" lon="9.1970819"><ele>327.66666666666663</ele><time>2026-04-18T08:30:00.042Z</time></trkpt><trkpt lat="44.9574108" lon="9.196976"><ele>327.5</ele><time>2026-04-18T08:30:02.042Z</time></trkpt><trkpt lat="44.9574303" lon="9.1968905"><ele>327.3333333333333</ele><time>2026-04-18T08:30:03.046Z</time></trkpt><trkpt lat="44.957474" lon="9.19675"><ele>327.1666666666667</ele><time>2026-04-18T08:30:05.055Z</time></trkpt><trkpt lat="44.9575272" lon="9.196636"><ele>327.0</ele><time>2026-04-18T08:30:07.048Z</time></trkpt><trkpt lat="44.9575637" lon="9.1965215"><ele>327.1428571428571</ele><time>2026-04-18T08:30:09.049Z</time></trkpt><trkpt lat="44.9576025" lon="9.1964153"><ele>327.2857142857143</ele><time>2026-04-18T08:30:12.044Z</time></trkpt><trkpt lat="44.9576392" lon="9.1963341"><ele>327.42857142857144</ele><time>2026-04-18T08:30:14.042Z</time></trkpt><trkpt lat="44.9576734" lon="9.1962572"><ele>327.57142857142856</ele><time>2026-04-18T08:30:16.045Z</time></trkpt><trkpt lat="44.9577108" lon="9.196172"><ele>327.7142857142857</ele><time>2026-04-18T08:30:18.059Z</time></trkpt><trkpt lat="44.9577483" lon="9.196086"><ele>327.85714285714283</ele><time>2026-04-18T08:30:20.04Z</time></trkpt><trkpt lat="44.9577889" lon="9.1959936"><ele>328.0</ele><time>2026-04-18T08:30:22.048Z</time></trkpt><trkpt lat="44.9578204" lon="9.1958855"><ele>328.0</ele><time>2026-04-18T08:30:24.038Z</time></trkpt><trkpt lat="44.9578503" lon="9.1957773"><ele>328.0</ele><time>2026-04-18T08:30:26.041Z</time></trkpt><trkpt lat="44.9578834" lon="9.1956769"><ele>328.0</ele><time>2026-04-18T08:30:28.039Z</time></trkpt><trkpt lat="44.9579235" lon="9.1955765"><ele>328.0</ele><time>2026-04-18T08:30:30.049Z</time></trkpt><trkpt lat="44.9579609" lon="9.1955024"><ele>328.0</ele><time>2026-04-18T08:30:32.044Z</time></trkpt><trkpt lat="44.9580249" lon="9.1954053"><ele>328.0</ele><time>2026-04-18T08:30:35.04Z</time></trkpt><trkpt lat="44.9580777" lon="9.1953274"><ele>329.16666666666663</ele><time>2026-04-18T08:30:38.039Z</time></trkpt><trkpt lat="44.9581192" lon="9.1952549"><ele>330.3333333333333</ele><time>2026-04-18T08:30:41.045Z</time></trkpt><trkpt lat="44.9581577" lon="9.1951727"><ele>331.5</ele><time>2026-04-18T08:30:44.038Z</time></trkpt><trkpt lat="44.9582045" lon="9.1950861"><ele>332.6666666666667</ele><time>2026-04-18T08:30:47.033Z</time></trkpt><trkpt lat="44.9582559" lon="9.1949873"><ele>333.83333333333337</ele><time>2026-04-18T08:30:50.039Z</time></trkpt><trkpt lat="44.9582901" lon="9.1948662"><ele>335.0</ele><time>2026-04-18T08:30:53.043Z</time></trkpt><trkpt lat="44.9583004" lon="9.1947648"><ele>336.0</ele><time>2026-04-18T08:30:56.05Z</time></trkpt><trkpt lat="44.9582985" lon="9.1946639"><ele>337.0</ele><time>2026-04-18T08:30:59.044Z</time></trkpt><trkpt lat="44.9583126" lon="9.1945649"><ele>338.0</ele><time>2026-04-18T08:31:02.053Z</time></trkpt><trkpt lat="44.9583227" lon="9.1944636"><ele>339.0</ele><time>2026-04-18T08:31:05.04Z</time></trkpt><trkpt lat="44.958327" lon="9.1943478"><ele>340.0</ele><time>2026-04-18T08:31:08.04Z</time></trkpt><trkpt lat="44.9583487" lon="9.1942295"><ele>341.0</ele><time>2026-04-18T08:31:11.047Z</time></trkpt><trkpt lat="44.9583903" lon="9.1941303"><ele>341.0</ele><time>2026-04-18T08:31:14.044Z</time></trkpt><trkpt lat="44.9584211" lon="9.1940175"><ele>341.0</ele><time>2026-04-18T08:31:17.039Z</time></trkpt><trkpt lat="44.9584562" lon="9.1938981"><ele>341.0</ele><time>2026-04-18T08:31:20.041Z</time></trkpt><trkpt lat="44.9584865" lon="9.1938197"><ele>341.0</ele><time>2026-04-18T08:31:22.042Z</time></trkpt><trkpt lat="44.9585196" lon="9.1937018"><ele>341.0</ele><time>2026-04-18T08:31:25.042Z</time></trkpt><trkpt lat="44.9585514" lon="9.1936244"><ele>341.0</ele><time>2026-04-18T08:31:28.047Z</time></trkpt><trkpt lat="44.9585828" lon="9.193534"><ele>342.1428571428571</ele><time>2026-04-18T08:31:31.045Z</time></trkpt><trkpt lat="44.9586161" lon="9.1934466"><ele>343.2857142857143</ele><time>2026-04-18T08:31:34.042Z</time></trkpt><trkpt lat="44.9586534" lon="9.1933549"><ele>344.42857142857144</ele><time>2026-04-18T08:31:37.096Z</time></trkpt><trkpt lat="44.9586872" lon="9.193266"><ele>345.57142857142856</ele><time>2026-04-18T08:31:40.044Z</time></trkpt><trkpt lat="44.9587456" lon="9.193213"><ele>346.7142857142857</ele><time>2026-04-18T08:31:44.05Z</time></trkpt><trkpt lat="44.9588058" lon="9.193281"><ele>347.85714285714283</ele><time>2026-04-18T08:31:49.043Z</time></trkpt><trkpt lat="44.9588596" lon="9.1933506"><ele>349.0</ele><time>2026-04-18T08:31:52.111Z</time></trkpt><trkpt lat="44.9589112" lon="9.1934178"><ele>349.0</ele><time>2026-04-18T08:31:55.048Z</time></trkpt><trkpt lat="44.9589694" lon="9.1934919"><ele>349.0</ele><time>2026-04-18T08:31:58.045Z</time></trkpt><trkpt lat="44.9590207" lon="9.1935464"><ele>349.0</ele><time>2026-04-18T08:32:00.046Z</time></trkpt><trkpt lat="44.9590774" lon="9.1936083"><ele>349.0</ele><time>2026-04-18T08:32:02.046Z</time></trkpt><trkpt lat="44.959145" lon="9.1936829"><ele>349.0</ele><time>2026-04-18T08:32:04.041Z</time></trkpt><trkpt lat="44.9592065" lon="9.1937535"><ele>349.0</ele><time>2026-04-18T08:32:06.039Z</time></trkpt><trkpt lat="44.9592855" lon="9.1938312"><ele>346.4285714285714</ele><time>2026-04-18T08:32:08.047Z</time></trkpt><trkpt lat="44.9593673" lon="9.193915"><ele>343.85714285714283</ele><time>2026-04-18T08:32:10.042Z</time></trkpt><trkpt lat="44.9594258" lon="9.1939559"><ele>341.2857142857143</ele><time>2026-04-18T08:32:11.045Z</time></trkpt><trkpt lat="44.9594845" lon="9.194002"><ele>338.71428571428567</ele><time>2026-04-18T08:32:12.044Z</time></trkpt><trkpt lat="44.959549" lon="9.1940276"><ele>336.1428571428571</ele><time>2026-04-18T08:32:13.044Z</time></trkpt><trkpt lat="44.9596101" lon="9.1940534"><ele>333.57142857142856</ele><time>2026-04-18T08:32:14.038Z</time></trkpt><trkpt lat="44.9596735" lon="9.1940734"><ele>331.0</ele><time>2026-04-18T08:32:15.04Z</time></trkpt><trkpt lat="44.959741" lon="9.1941096"><ele>331.0</ele><time>2026-04-18T08:32:16.045Z</time></trkpt><trkpt lat="44.9598151" lon="9.194142"><ele>331.0</ele><time>2026-04-18T08:32:17.046Z</time></trkpt><trkpt lat="44.9598967" lon="9.19416"><ele>331.0</ele><time>2026-04-18T08:32:18.094Z</time></trkpt><trkpt lat="44.9599779" lon="9.1941796"><ele>331.0</ele><time>2026-04-18T08:32:19.046Z</time></trkpt><trkpt lat="44.960056" lon="9.1941916"><ele>331.0</ele><time>2026-04-18T08:32:20.043Z</time></trkpt><trkpt lat="44.9601332" lon="9.1941958"><ele>331.0</ele><time>2026-04-18T08:32:21.054Z</time></trkpt><trkpt lat="44.9602065" lon="9.1942034"><ele>329.0</ele><time>2026-04-18T08:32:22.039Z</time></trkpt><trkpt lat="44.9602774" lon="9.1942003"><ele>327.0</ele><time>2026-04-18T08:32:23.04Z</time></trkpt><trkpt lat="44.9603422" lon="9.1942031"><ele>325.0</ele><time>2026-04-18T08:32:24.032Z</time></trkpt><trkpt lat="44.9604465" lon="9.1942015"><ele>323.0</ele><time>2026-04-18T08:32:26.054Z</time></trkpt><trkpt lat="44.9605429" lon="9.1942143"><ele>321.0</ele><time>2026-04-18T08:32:28.043Z</time></trkpt><trkpt lat="44.9606424" lon="9.1942552"><ele>319.0</ele><time>2026-04-18T08:32:30.047Z</time></trkpt><trkpt lat="44.9607323" lon="9.1943217"><ele>319.0</ele><time>2026-04-18T08:32:32.051Z</time></trkpt><trkpt lat="44.9608185" lon="9.1944255"><ele>319.0</ele><time>2026-04-18T08:32:34.043Z</time></trkpt><trkpt lat="44.9608872" lon="9.1945644"><ele>319.0</ele><time>2026-04-18T08:32:36.042Z</time></trkpt><trkpt lat="44.9609409" lon="9.1947308"><ele>319.0</ele><time>2026-04-18T08:32:38.043Z</time></trkpt><trkpt lat="44.960962" lon="9.1948249"><ele>319.0</ele><time>2026-04-18T08:32:39.049Z</time></trkpt><trkpt lat="44.9609789" lon="9.1949208"><ele>315.8333333333333</ele><time>2026-04-18T08:32:40.046Z</time></trkpt><trkpt lat="44.9610021" lon="9.1950199"><ele>312.66666666666663</ele><time>2026-04-18T08:32:41.052Z</time></trkpt><trkpt lat="44.9610304" lon="9.1951189"><ele>309.5</ele><time>2026-04-18T08:32:42.052Z</time></trkpt><trkpt lat="44.9610473" lon="9.1952104"><ele>306.3333333333333</ele><time>2026-04-18T08:32:43.1Z</time></trkpt><trkpt lat="44.9610686" lon="9.1953017"><ele>303.1666666666667</ele><time>2026-04-18T08:32:44.032Z</time></trkpt><trkpt lat="44.9611103" lon="9.1954626"><ele>300.0</ele><time>2026-04-18T08:32:46.041Z</time></trkpt><trkpt lat="44.9611527" lon="9.1956294"><ele>299.8333333333333</ele><time>2026-04-18T08:32:48.048Z</time></trkpt><trkpt lat="44.9611777" lon="9.195713"><ele>299.6666666666667</ele><time>2026-04-18T08:32:49.038Z</time></trkpt><trkpt lat="44.9612016" lon="9.1958041"><ele>299.5</ele><time>2026-04-18T08:32:50.041Z</time></trkpt><trkpt lat="44.9612316" lon="9.1958957"><ele>299.33333333333337</ele><time>2026-04-18T08:32:51.035Z</time></trkpt><trkpt lat="44.9612588" lon="9.1959799"><ele>299.1666666666667</ele><time>2026-04-18T08:32:52.057Z</time></trkpt><trkpt lat="44.9613147" lon="9.19612"><ele>299.0</ele><time>2026-04-18T08:32:54.043Z</time></trkpt><trkpt lat="44.961374" lon="9.1962357"><ele>299.0</ele><time>2026-04-18T08:32:56.092Z</time></trkpt><trkpt lat="44.9614378" lon="9.1963409"><ele>299.0</ele><time>2026-04-18T08:32:58.045Z</time></trkpt><trkpt lat="44.9614943" lon="9.1964624"><ele>299.0</ele><time>2026-04-18T08:33:00.041Z</time></trkpt><trkpt lat="44.9615394" lon="9.1965648"><ele>299.0</ele><time>2026-04-18T08:33:02.044Z</time></trkpt><trkpt lat="44.9615802" lon="9.1966391"><ele>299.0</ele><time>2026-04-18T08:33:04.041Z</time></trkpt><trkpt lat="44.9616233" lon="9.1967564"><ele>299.0</ele><time>2026-04-18T08:33:07.047Z</time></trkpt><trkpt lat="44.9616573" lon="9.1968444"><ele>297.6666666666667</ele><time>2026-04-18T08:33:09.037Z</time></trkpt><trkpt lat="44.9616935" lon="9.196948"><ele>296.33333333333337</ele><time>2026-04-18T08:33:11.041Z</time></trkpt><trkpt lat="44.9617229" lon="9.1970715"><ele>295.0</ele><time>2026-04-18T08:33:13.035Z</time></trkpt><trkpt lat="44.961754" lon="9.1972057"><ele>293.6666666666667</ele><time>2026-04-18T08:33:15.048Z</time></trkpt><trkpt lat="44.9617831" lon="9.1972851"><ele>292.3333333333333</ele><time>2026-04-18T08:33:16.044Z</time></trkpt><trkpt lat="44.961819" lon="9.1973615"><ele>291.0</ele><time>2026-04-18T08:33:17.04Z</time></trkpt><trkpt lat="44.961856" lon="9.197438"><ele>287.8333333333333</ele><time>2026-04-18T08:33:18.047Z</time></trkpt><trkpt lat="44.9619027" lon="9.197517"><ele>284.6666666666667</ele><time>2026-04-18T08:33:19.037Z</time></trkpt><trkpt lat="44.9619479" lon="9.1975868"><ele>281.5</ele><time>2026-04-18T08:33:20.037Z</time></trkpt><trkpt lat="44.9619914" lon="9.1976602"><ele>278.33333333333337</ele><time>2026-04-18T08:33:21.05Z</time></trkpt><trkpt lat="44.9620661" lon="9.1977786"><ele>275.1666666666667</ele><time>2026-04-18T08:33:23.101Z</time></trkpt><trkpt lat="44.9621309" lon="9.1978765"><ele>272.0</ele><time>2026-04-18T08:33:25.049Z</time></trkpt><trkpt lat="44.9622065" lon="9.197957"><ele>272.0</ele><time>2026-04-18T08:33:27.043Z</time></trkpt><trkpt lat="44.9622937" lon="9.1980165"><ele>272.0</ele><time>2026-04-18T08:33:29.05Z</time></trkpt><trkpt lat="44.9624088" lon="9.1980825"><ele>272.0</ele><time>2026-04-18T08:33:31.044Z</time></trkpt><trkpt lat="44.9625169" lon="9.1981492"><ele>272.0</ele><time>2026-04-18T08:33:33.051Z</time></trkpt><trkpt lat="44.9626284" lon="9.1982154"><ele>268.0</ele><time>2026-04-18T08:33:35.044Z</time></trkpt><trkpt lat="44.9627288" lon="9.1982873"><ele>264.0</ele><time>2026-04-18T08:33:37.05Z</time></trkpt><trkpt lat="44.9628434" lon="9.1983834"><ele>260.0</ele><time>2026-04-18T08:33:39.046Z</time></trkpt><trkpt lat="44.9629057" lon="9.1984423"><ele>256.0</ele><time>2026-04-18T08:33:40.036Z</time></trkpt><trkpt lat="44.9629719" lon="9.1984937"><ele>252.0</ele><time>2026-04-18T08:33:41.043Z</time></trkpt><trkpt lat="44.9630349" lon="9.198545"><ele>252.0</ele><time>2026-04-18T08:33:42.033Z</time></trkpt><trkpt lat="44.9630928" lon="9.198596"><ele>252.0</ele><time>2026-04-18T08:33:43.054Z</time></trkpt><trkpt lat="44.9631479" lon="9.1986421"><ele>252.0</ele><time>2026-04-18T08:33:44.037Z</time></trkpt><trkpt lat="44.9632467" lon="9.1987253"><ele>252.0</ele><time>2026-04-18T08:33:46.037Z</time></trkpt><trkpt lat="44.9633616" lon="9.198804"><ele>252.0</ele><time>2026-04-18T08:33:48.034Z</time></trkpt><trkpt lat="44.963418" lon="9.1988519"><ele>252.0</ele><time>2026-04-18T08:33:49.054Z</time></trkpt><trkpt lat="44.9634717" lon="9.1989025"><ele>249.66666666666666</ele><time>2026-04-18T08:33:50.104Z</time></trkpt><trkpt lat="44.9635536" lon="9.1990087"><ele>247.33333333333331</ele><time>2026-04-18T08:33:52.046Z</time></trkpt><trkpt lat="44.9636163" lon="9.1990893"><ele>245.0</ele><time>2026-04-18T08:33:54.042Z</time></trkpt><trkpt lat="44.9636683" lon="9.1991552"><ele>242.66666666666666</ele><time>2026-04-18T08:33:56.045Z</time></trkpt><trkpt lat="44.9636611" lon="9.1992772"><ele>240.33333333333331</ele><time>2026-04-18T08:33:59.046Z</time></trkpt><trkpt lat="44.9636099" lon="9.1993882"><ele>238.0</ele><time>2026-04-18T08:34:01.037Z</time></trkpt><trkpt lat="44.9636518" lon="9.1994797"><ele>238.0</ele><time>2026-04-18T08:34:04.043Z</time></trkpt><trkpt lat="44.9637204" lon="9.1995349"><ele>238.0</ele><time>2026-04-18T08:34:06.041Z</time></trkpt><trkpt lat="44.9638327" lon="9.1995957"><ele>238.0</ele><time>2026-04-18T08:34:08.04Z</time></trkpt><trkpt lat="44.9639393" lon="9.1996416"><ele>238.0</ele><time>2026-04-18T08:34:10.045Z</time></trkpt><trkpt lat="44.9640413" lon="9.1996383"><ele>238.0</ele><time>2026-04-18T08:34:12.053Z</time></trkpt><trkpt lat="44.9641471" lon="9.1996019"><ele>233.83333333333331</ele><time>2026-04-18T08:34:14.043Z</time></trkpt><trkpt lat="44.9642449" lon="9.1995159"><ele>229.66666666666666</ele><time>2026-04-18T08:34:16.096Z</time></trkpt><trkpt lat="44.9642966" lon="9.1994575"><ele>225.5</ele><time>2026-04-18T08:34:17.044Z</time></trkpt><trkpt lat="44.9643568" lon="9.1994064"><ele>221.33333333333331</ele><time>2026-04-18T08:34:18.04Z</time></trkpt><trkpt lat="44.9644179" lon="9.1993577"><ele>217.16666666666666</ele><time>2026-04-18T08:34:19.046Z</time></trkpt><trkpt lat="44.9644765" lon="9.1993067"><ele>213.0</ele><time>2026-04-18T08:34:20.042Z</time></trkpt><trkpt lat="44.9645304" lon="9.1992465"><ele>213.0</ele><time>2026-04-18T08:34:21.053Z</time></trkpt><trkpt lat="44.9645782" lon="9.1991773"><ele>213.0</ele><time>2026-04-18T08:34:22.043Z</time></trkpt><trkpt lat="44.9646227" lon="9.1991"><ele>213.0</ele><time>2026-04-18T08:34:23.045Z</time></trkpt><trkpt lat="44.9646715" lon="9.1990299"><ele>213.0</ele><time>2026-04-18T08:34:24.049Z</time></trkpt><trkpt lat="44.9647488" lon="9.1989578"><ele>213.0</ele><time>2026-04-18T08:34:26.036Z</time></trkpt><trkpt lat="44.9648468" lon="9.1989734"><ele>213.0</ele><time>2026-04-18T08:34:28.048Z</time></trkpt><trkpt lat="44.9649086" lon="9.1990927"><ele>213.0</ele><time>2026-04-18T08:34:30.11Z</time></trkpt><trkpt lat="44.9649268" lon="9.1991784"><ele>213.0</ele><time>2026-04-18T08:34:31.039Z</time></trkpt><trkpt lat="44.9649641" lon="9.1993449"><ele>213.0</ele><time>2026-04-18T08:34:33.041Z</time></trkpt><trkpt lat="44.9649768" lon="9.1994381"><ele>213.0</ele><time>2026-04-18T08:34:34.042Z</time></trkpt><trkpt lat="44.9649963" lon="9.199529"><ele>213.0</ele><time>2026-04-18T08:34:35.043Z</time></trkpt><trkpt lat="44.9650133" lon="9.1996288"><ele>213.0</ele><time>2026-04-18T08:34:36.041Z</time></trkpt><trkpt lat="44.9650339" lon="9.1997349"><ele>208.60000000000002</ele><time>2026-04-18T08:34:37.043Z</time></trkpt><trkpt lat="44.965054" lon="9.1998478"><ele>204.20000000000002</ele><time>2026-04-18T08:34:38.038Z</time></trkpt><trkpt lat="44.9650737" lon="9.199968"><ele>199.8</ele><time>2026-04-18T08:34:39.048Z</time></trkpt><trkpt lat="44.9650957" lon="9.2000952"><ele>195.4</ele><time>2026-04-18T08:34:40.046Z</time></trkpt><trkpt lat="44.9651109" lon="9.2002328"><ele>191.0</ele><time>2026-04-18T08:34:41.045Z</time></trkpt><trkpt lat="44.9651259" lon="9.2003694"><ele>191.0</ele><time>2026-04-18T08:34:42.042Z</time></trkpt><trkpt lat="44.9651308" lon="9.2005112"><ele>191.0</ele><time>2026-04-18T08:34:43.047Z</time></trkpt><trkpt lat="44.9651307" lon="9.2006571"><ele>191.0</ele><time>2026-04-18T08:34:44.04Z</time></trkpt><trkpt lat="44.9651212" lon="9.2008017"><ele>191.0</ele><time>2026-04-18T08:34:45.042Z</time></trkpt><trkpt lat="44.9651117" lon="9.200946"><ele>191.0</ele><time>2026-04-18T08:34:46.042Z</time></trkpt><trkpt lat="44.9651041" lon="9.2010723"><ele>191.0</ele><time>2026-04-18T08:34:47.042Z</time></trkpt><trkpt lat="44.9651022" lon="9.2012076"><ele>191.0</ele><time>2026-04-18T08:34:48.04Z</time></trkpt><trkpt lat="44.9650996" lon="9.2013417"><ele>191.0</ele><time>2026-04-18T08:34:49.05Z</time></trkpt><trkpt lat="44.9650974" lon="9.2014668"><ele>191.0</ele><time>2026-04-18T08:34:50.045Z</time></trkpt><trkpt lat="44.9651074" lon="9.201592"><ele>191.0</ele><time>2026-04-18T08:34:51.039Z</time></trkpt><trkpt lat="44.9651267" lon="9.2017031"><ele>191.0</ele><time>2026-04-18T08:34:52.041Z</time></trkpt><trkpt lat="44.9651547" lon="9.2018137"><ele>191.0</ele><time>2026-04-18T08:34:53.048Z</time></trkpt><trkpt lat="44.9651814" lon="9.2018943"><ele>191.0</ele><time>2026-04-18T08:34:54.042Z</time></trkpt><trkpt lat="44.9652317" lon="9.2020447"><ele>191.0</ele><time>2026-04-18T08:34:56.045Z</time></trkpt><trkpt lat="44.9652734" lon="9.2021806"><ele>191.0</ele><time>2026-04-18T08:34:58.04Z</time></trkpt><trkpt lat="44.9653118" lon="9.2023104"><ele>191.0</ele><time>2026-04-18T08:35:00.044Z</time></trkpt><trkpt lat="44.9653593" lon="9.2024463"><ele>191.83333333333331</ele><time>2026-04-18T08:35:02.039Z</time></trkpt><trkpt lat="44.9654245" lon="9.202574"><ele>192.66666666666666</ele><time>2026-04-18T08:35:04.045Z</time></trkpt><trkpt lat="44.9654825" lon="9.2026597"><ele>193.5</ele><time>2026-04-18T08:35:06.052Z</time></trkpt><trkpt lat="44.965538" lon="9.2027458"><ele>194.33333333333331</ele><time>2026-04-18T08:35:09.046Z</time></trkpt><trkpt lat="44.9655852" lon="9.2028263"><ele>195.16666666666666</ele><time>2026-04-18T08:35:13.043Z</time></trkpt><trkpt lat="44.9656376" lon="9.202913"><ele>196.0</ele><time>2026-04-18T08:35:16.052Z</time></trkpt><trkpt lat="44.9656848" lon="9.203011"><ele>195.99999999999997</ele><time>2026-04-18T08:35:19.04Z</time></trkpt><trkpt lat="44.9657269" lon="9.20311"><ele>196.0</ele><time>2026-04-18T08:35:22.042Z</time></trkpt><trkpt lat="44.9657691" lon="9.2032253"><ele>196.0</ele><time>2026-04-18T08:35:25.034Z</time></trkpt><trkpt lat="44.9658198" lon="9.2033278"><ele>196.0</ele><time>2026-04-18T08:35:28.044Z</time></trkpt><trkpt lat="44.965874" lon="9.2034228"><ele>195.99999999999997</ele><time>2026-04-18T08:35:31.053Z</time></trkpt><trkpt lat="44.965931" lon="9.2035161"><ele>196.0</ele><time>2026-04-18T08:35:34.047Z</time></trkpt><trkpt lat="44.9659679" lon="9.203591"><ele>197.33333333333331</ele><time>2026-04-18T08:35:36.048Z</time></trkpt><trkpt lat="44.9660267" lon="9.2036892"><ele>198.66666666666666</ele><time>2026-04-18T08:35:39.046Z</time></trkpt><trkpt lat="44.9660822" lon="9.2037691"><ele>200.0</ele><time>2026-04-18T08:35:42.046Z</time></trkpt><trkpt lat="44.9661367" lon="9.2038474"><ele>201.33333333333331</ele><time>2026-04-18T08:35:46.05Z</time></trkpt><trkpt lat="44.9661926" lon="9.2039155"><ele>202.66666666666666</ele><time>2026-04-18T08:35:49.103Z</time></trkpt><trkpt lat="44.9662563" lon="9.2039639"><ele>204.0</ele><time>2026-04-18T08:35:52.044Z</time></trkpt><trkpt lat="44.9663479" lon="9.2039594"><ele>204.0</ele><time>2026-04-18T08:35:55.041Z</time></trkpt><trkpt lat="44.9664175" lon="9.2039311"><ele>204.0</ele><time>2026-04-18T08:35:57.038Z</time></trkpt><trkpt lat="44.9664836" lon="9.2039048"><ele>204.0</ele><time>2026-04-18T08:35:59.048Z</time></trkpt><trkpt lat="44.9665403" lon="9.2038661"><ele>204.0</ele><time>2026-04-18T08:36:01.043Z</time></trkpt><trkpt lat="44.9666085" lon="9.2038291"><ele>204.0</ele><time>2026-04-18T08:36:03.047Z</time></trkpt><trkpt lat="44.966668" lon="9.2037945"><ele>204.0</ele><time>2026-04-18T08:36:05.046Z</time></trkpt><trkpt lat="44.9667543" lon="9.2037509"><ele>204.0</ele><time>2026-04-18T08:36:08.036Z</time></trkpt><trkpt lat="44.9668432" lon="9.2037056"><ele>205.16666666666666</ele><time>2026-04-18T08:36:11.046Z</time></trkpt><trkpt lat="44.9669055" lon="9.203671"><ele>206.33333333333331</ele><time>2026-04-18T08:36:13.049Z</time></trkpt><trkpt lat="44.9669922" lon="9.2036251"><ele>207.5</ele><time>2026-04-18T08:36:16.044Z</time></trkpt><trkpt lat="44.9670546" lon="9.2035947"><ele>208.66666666666666</ele><time>2026-04-18T08:36:18.054Z</time></trkpt><trkpt lat="44.9671399" lon="9.2035476"><ele>209.83333333333331</ele><time>2026-04-18T08:36:21.033Z</time></trkpt><trkpt lat="44.9672234" lon="9.2035109"><ele>211.0</ele><time>2026-04-18T08:36:24.055Z</time></trkpt><trkpt lat="44.9673087" lon="9.2034828"><ele>210.99999999999997</ele><time>2026-04-18T08:36:27.042Z</time></trkpt><trkpt lat="44.96739" lon="9.2034762"><ele>211.0</ele><time>2026-04-18T08:36:30.042Z</time></trkpt><trkpt lat="44.9674582" lon="9.2034749"><ele>211.0</ele><time>2026-04-18T08:36:32.049Z</time></trkpt><trkpt lat="44.9675213" lon="9.2034675"><ele>211.0</ele><time>2026-04-18T08:36:34.046Z</time></trkpt><trkpt lat="44.967614" lon="9.203463"><ele>210.99999999999997</ele><time>2026-04-18T08:36:37.047Z</time></trkpt><trkpt lat="44.9677021" lon="9.2034709"><ele>211.0</ele><time>2026-04-18T08:36:40.045Z</time></trkpt><trkpt lat="44.9677654" lon="9.2034851"><ele>212.66666666666666</ele><time>2026-04-18T08:36:42.045Z</time></trkpt><trkpt lat="44.9678474" lon="9.2035002"><ele>214.33333333333331</ele><time>2026-04-18T08:36:45.039Z</time></trkpt><trkpt lat="44.9679388" lon="9.2035087"><ele>216.0</ele><time>2026-04-18T08:36:48.041Z</time></trkpt><trkpt lat="44.9680274" lon="9.203516"><ele>217.66666666666669</ele><time>2026-04-18T08:36:51.048Z</time></trkpt><trkpt lat="44.9680914" lon="9.2035231"><ele>219.33333333333334</ele><time>2026-04-18T08:36:53.043Z</time></trkpt><trkpt lat="44.9681875" lon="9.2035134"><ele>221.0</ele><time>2026-04-18T08:36:56.044Z</time></trkpt><trkpt lat="44.9682686" lon="9.2035101"><ele>221.00000000000003</ele><time>2026-04-18T08:36:59.066Z</time></trkpt><trkpt lat="44.968332" lon="9.2035172"><ele>221.0</ele><time>2026-04-18T08:37:01.04Z</time></trkpt><trkpt lat="44.9683993" lon="9.2035301"><ele>221.0</ele><time>2026-04-18T08:37:03.04Z</time></trkpt><trkpt lat="44.9684951" lon="9.2035241"><ele>221.0</ele><time>2026-04-18T08:37:06.044Z</time></trkpt><trkpt lat="44.9685796" lon="9.2035199"><ele>221.00000000000003</ele><time>2026-04-18T08:37:09.059Z</time></trkpt><trkpt lat="44.9686692" lon="9.2035206"><ele>221.0</ele><time>2026-04-18T08:37:12.045Z</time></trkpt><trkpt lat="44.9687606" lon="9.2035329"><ele>221.8571428571429</ele><time>2026-04-18T08:37:15.045Z</time></trkpt><trkpt lat="44.9688232" lon="9.2035468"><ele>222.71428571428572</ele><time>2026-04-18T08:37:17.043Z</time></trkpt><trkpt lat="44.9689128" lon="9.2035747"><ele>223.57142857142858</ele><time>2026-04-18T08:37:20.046Z</time></trkpt><trkpt lat="44.9689931" lon="9.2036189"><ele>224.42857142857144</ele><time>2026-04-18T08:37:23.051Z</time></trkpt><trkpt lat="44.9690639" lon="9.2036593"><ele>225.2857142857143</ele><time>2026-04-18T08:37:26.052Z</time></trkpt><trkpt lat="44.9691232" lon="9.2036919"><ele>226.14285714285717</ele><time>2026-04-18T08:37:28.045Z</time></trkpt><trkpt lat="44.9691834" lon="9.2037318"><ele>227.0</ele><time>2026-04-18T08:37:30.042Z</time></trkpt><trkpt lat="44.9692469" lon="9.2037648"><ele>228.50000000000003</ele><time>2026-04-18T08:37:32.042Z</time></trkpt><trkpt lat="44.9693289" lon="9.2038208"><ele>230.0</ele><time>2026-04-18T08:37:35.041Z</time></trkpt><trkpt lat="44.9694139" lon="9.203879"><ele>231.5</ele><time>2026-04-18T08:37:38.042Z</time></trkpt><trkpt lat="44.9694786" lon="9.2039175"><ele>233.0</ele><time>2026-04-18T08:37:40.042Z</time></trkpt><trkpt lat="44.9695426" lon="9.2039408"><ele>234.50000000000003</ele><time>2026-04-18T08:37:42.04Z</time></trkpt><trkpt lat="44.969612" lon="9.2039608"><ele>236.0</ele><time>2026-04-18T08:37:44.046Z</time></trkpt><trkpt lat="44.9696855" lon="9.2039845"><ele>236.0</ele><time>2026-04-18T08:37:46.056Z</time></trkpt><trkpt lat="44.9697561" lon="9.2039937"><ele>236.0</ele><time>2026-04-18T08:37:48.042Z</time></trkpt><trkpt lat="44.969819" lon="9.2039996"><ele>236.0</ele><time>2026-04-18T08:37:50.048Z</time></trkpt><trkpt lat="44.9699085" lon="9.2039893"><ele>236.0</ele><time>2026-04-18T08:37:53.05Z</time></trkpt><trkpt lat="44.9699764" lon="9.2039854"><ele>236.0</ele><time>2026-04-18T08:37:55.04Z</time></trkpt><trkpt lat="44.9700404" lon="9.2039785"><ele>236.0</ele><time>2026-04-18T08:37:57.05Z</time></trkpt><trkpt lat="44.9701039" lon="9.2039868"><ele>236.0</ele><time>2026-04-18T08:37:59.042Z</time></trkpt><trkpt lat="44.9701685" lon="9.2039876"><ele>237.83333333333334</ele><time>2026-04-18T08:38:01.043Z</time></trkpt><trkpt lat="44.9702336" lon="9.2039941"><ele>239.66666666666669</ele><time>2026-04-18T08:38:03.044Z</time></trkpt><trkpt lat="44.9702977" lon="9.2040027"><ele>241.5</ele><time>2026-04-18T08:38:05.042Z</time></trkpt><trkpt lat="44.9703947" lon="9.204002"><ele>243.33333333333331</ele><time>2026-04-18T08:38:08.044Z</time></trkpt><trkpt lat="44.9704875" lon="9.2040116"><ele>245.16666666666666</ele><time>2026-04-18T08:38:11.056Z</time></trkpt><trkpt lat="44.9705794" lon="9.2040191"><ele>247.0</ele><time>2026-04-18T08:38:14.038Z</time></trkpt><trkpt lat="44.9706439" lon="9.2040165"><ele>247.99999999999997</ele><time>2026-04-18T08:38:16.04Z</time></trkpt><trkpt lat="44.9707292" lon="9.2040312"><ele>249.0</ele><time>2026-04-18T08:38:19.048Z</time></trkpt><trkpt lat="44.970793" lon="9.2040371"><ele>250.0</ele><time>2026-04-18T08:38:21.036Z</time></trkpt><trkpt lat="44.9708555" lon="9.2040509"><ele>251.0</ele><time>2026-04-18T08:38:23.045Z</time></trkpt><trkpt lat="44.9709185" lon="9.2040578"><ele>251.99999999999997</ele><time>2026-04-18T08:38:25.045Z</time></trkpt><trkpt lat="44.9710088" lon="9.2040597"><ele>253.0</ele><time>2026-04-18T08:38:28.038Z</time></trkpt><trkpt lat="44.971102" lon="9.2040661"><ele>255.33333333333331</ele><time>2026-04-18T08:38:31.045Z</time></trkpt><trkpt lat="44.9711948" lon="9.2040702"><ele>257.66666666666663</ele><time>2026-04-18T08:38:34.05Z</time></trkpt><trkpt lat="44.9712803" lon="9.2040777"><ele>260.0</ele><time>2026-04-18T08:38:37.042Z</time></trkpt><trkpt lat="44.9713675" lon="9.2040921"><ele>262.3333333333333</ele><time>2026-04-18T08:38:40.04Z</time></trkpt><trkpt lat="44.971433" lon="9.2040962"><ele>264.6666666666667</ele><time>2026-04-18T08:38:42.034Z</time></trkpt><trkpt lat="44.9714971" lon="9.2040971"><ele>267.0</ele><time>2026-04-18T08:38:44.043Z</time></trkpt><trkpt lat="44.9715631" lon="9.2041038"><ele>267.0</ele><time>2026-04-18T08:38:46.037Z</time></trkpt><trkpt lat="44.9716275" lon="9.204115"><ele>267.0</ele><time>2026-04-18T08:38:48.045Z</time></trkpt><trkpt lat="44.9717121" lon="9.2041154"><ele>267.0</ele><time>2026-04-18T08:38:51.05Z</time></trkpt><trkpt lat="44.9717976" lon="9.2041144"><ele>267.0</ele><time>2026-04-18T08:38:54.044Z</time></trkpt><trkpt lat="44.9718893" lon="9.204117"><ele>267.0</ele><time>2026-04-18T08:38:57.042Z</time></trkpt><trkpt lat="44.9719758" lon="9.2041493"><ele>267.0</ele><time>2026-04-18T08:39:00.057Z</time></trkpt><trkpt lat="44.9720655" lon="9.2041684"><ele>268.5</ele><time>2026-04-18T08:39:03.046Z</time></trkpt><trkpt lat="44.97213" lon="9.2041794"><ele>270.0</ele><time>2026-04-18T08:39:05.044Z</time></trkpt><trkpt lat="44.9721918" lon="9.2042085"><ele>271.5</ele><time>2026-04-18T08:39:07.038Z</time></trkpt><trkpt lat="44.9722503" lon="9.2042462"><ele>273.0</ele><time>2026-04-18T08:39:09.049Z</time></trkpt><trkpt lat="44.9723232" lon="9.2043116"><ele>274.5</ele><time>2026-04-18T08:39:12.047Z</time></trkpt><trkpt lat="44.972387" lon="9.2043872"><ele>276.0</ele><time>2026-04-18T08:39:15.051Z</time></trkpt><trkpt lat="44.9724464" lon="9.2044831"><ele>276.0</ele><time>2026-04-18T08:39:18.045Z</time></trkpt><trkpt lat="44.9725032" lon="9.2045711"><ele>276.0</ele><time>2026-04-18T08:39:21.041Z</time></trkpt><trkpt lat="44.9725628" lon="9.2046651"><ele>276.0</ele><time>2026-04-18T08:39:24.043Z</time></trkpt><trkpt lat="44.9726072" lon="9.2047692"><ele>276.0</ele><time>2026-04-18T08:39:27.048Z</time></trkpt><trkpt lat="44.9726473" lon="9.2048652"><ele>276.0</ele><time>2026-04-18T08:39:30.044Z</time></trkpt><trkpt lat="44.972685" lon="9.2049755"><ele>276.0</ele><time>2026-04-18T08:39:33.055Z</time></trkpt><trkpt lat="44.9727221" lon="9.2050852"><ele>278.1666666666667</ele><time>2026-04-18T08:39:36.107Z</time></trkpt><trkpt lat="44.9727514" lon="9.2052007"><ele>280.3333333333333</ele><time>2026-04-18T08:39:39.034Z</time></trkpt><trkpt lat="44.9727743" lon="9.2053127"><ele>282.5</ele><time>2026-04-18T08:39:42.043Z</time></trkpt><trkpt lat="44.9728117" lon="9.2054258"><ele>284.66666666666663</ele><time>2026-04-18T08:39:45.045Z</time></trkpt><trkpt lat="44.9728668" lon="9.205518"><ele>286.8333333333333</ele><time>2026-04-18T08:39:48.054Z</time></trkpt><trkpt lat="44.9729292" lon="9.205617"><ele>289.0</ele><time>2026-04-18T08:39:51.046Z</time></trkpt><trkpt lat="44.9729802" lon="9.2056699"><ele>289.66666666666663</ele><time>2026-04-18T08:39:53.038Z</time></trkpt><trkpt lat="44.9730536" lon="9.2057463"><ele>290.3333333333333</ele><time>2026-04-18T08:39:56.039Z</time></trkpt><trkpt lat="44.9731188" lon="9.2058338"><ele>291.0</ele><time>2026-04-18T08:39:59.04Z</time></trkpt><trkpt lat="44.9731878" lon="9.2059169"><ele>291.6666666666667</ele><time>2026-04-18T08:40:02.045Z</time></trkpt><trkpt lat="44.9732361" lon="9.2059779"><ele>292.33333333333337</ele><time>2026-04-18T08:40:04.043Z</time></trkpt><trkpt lat="44.9733029" lon="9.2060554"><ele>293.0</ele><time>2026-04-18T08:40:07.045Z</time></trkpt><trkpt lat="44.9733563" lon="9.2061118"><ele>294.1666666666667</ele><time>2026-04-18T08:40:09.049Z</time></trkpt><trkpt lat="44.9734057" lon="9.2061736"><ele>295.33333333333337</ele><time>2026-04-18T08:40:11.052Z</time></trkpt><trkpt lat="44.9734699" lon="9.2062628"><ele>296.5</ele><time>2026-04-18T08:40:14.038Z</time></trkpt><trkpt lat="44.9735346" lon="9.2063423"><ele>297.6666666666667</ele><time>2026-04-18T08:40:17.043Z</time></trkpt><trkpt lat="44.9735905" lon="9.2064465"><ele>298.8333333333333</ele><time>2026-04-18T08:40:20.043Z</time></trkpt><trkpt lat="44.9736221" lon="9.2065558"><ele>300.0</ele><time>2026-04-18T08:40:23.045Z</time></trkpt><trkpt lat="44.9736404" lon="9.2066843"><ele>301.2</ele><time>2026-04-18T08:40:26.045Z</time></trkpt><trkpt lat="44.9736553" lon="9.2068148"><ele>302.4</ele><time>2026-04-18T08:40:29.043Z</time></trkpt><trkpt lat="44.9736741" lon="9.2069385"><ele>303.6</ele><time>2026-04-18T08:40:32.042Z</time></trkpt><trkpt lat="44.9737015" lon="9.2070634"><ele>304.8</ele><time>2026-04-18T08:40:35.038Z</time></trkpt><trkpt lat="44.9737277" lon="9.2071785"><ele>306.0</ele><time>2026-04-18T08:40:38.037Z</time></trkpt><trkpt lat="44.9737636" lon="9.2072948"><ele>306.6666666666667</ele><time>2026-04-18T08:40:41.046Z</time></trkpt><trkpt lat="44.9738026" lon="9.2074021"><ele>307.3333333333333</ele><time>2026-04-18T08:40:44.045Z</time></trkpt><trkpt lat="44.9738376" lon="9.2075264"><ele>308.0</ele><time>2026-04-18T08:40:47.042Z</time></trkpt><trkpt lat="44.9738382" lon="9.2076179"><ele>308.66666666666663</ele><time>2026-04-18T08:40:49.041Z</time></trkpt><trkpt lat="44.9738408" lon="9.2077456"><ele>309.3333333333333</ele><time>2026-04-18T08:40:52.038Z</time></trkpt><trkpt lat="44.9738245" lon="9.2078565"><ele>310.0</ele><time>2026-04-18T08:40:55.045Z</time></trkpt><trkpt lat="44.9737938" lon="9.2079629"><ele>310.0</ele><time>2026-04-18T08:40:58.04Z</time></trkpt><trkpt lat="44.9737615" lon="9.2080718"><ele>310.0</ele><time>2026-04-18T08:41:01.06Z</time></trkpt><trkpt lat="44.9737235" lon="9.2081779"><ele>310.0</ele><time>2026-04-18T08:41:04.039Z</time></trkpt><trkpt lat="44.9736877" lon="9.2082928"><ele>310.0</ele><time>2026-04-18T08:41:07.047Z</time></trkpt><trkpt lat="44.9736933" lon="9.2083889"><ele>310.0</ele><time>2026-04-18T08:41:09.114Z</time></trkpt><trkpt lat="44.9737164" lon="9.208488"><ele>310.0</ele><time>2026-04-18T08:41:11.049Z</time></trkpt><trkpt lat="44.9737388" lon="9.208588"><ele>311.0</ele><time>2026-04-18T08:41:13.043Z</time></trkpt><trkpt lat="44.9737957" lon="9.2086853"><ele>312.0</ele><time>2026-04-18T08:41:16.044Z</time></trkpt><trkpt lat="44.9738546" lon="9.208767"><ele>313.0</ele><time>2026-04-18T08:41:19.049Z</time></trkpt><trkpt lat="44.9739198" lon="9.2088377"><ele>314.0</ele><time>2026-04-18T08:41:22.045Z</time></trkpt><trkpt lat="44.9739767" lon="9.2089055"><ele>315.0</ele><time>2026-04-18T08:41:25.04Z</time></trkpt><trkpt lat="44.9740399" lon="9.2089742"><ele>316.0</ele><time>2026-04-18T08:41:29.051Z</time></trkpt><trkpt lat="44.974113" lon="9.208965"><ele>316.00000000000006</ele><time>2026-04-18T08:41:32.042Z</time></trkpt><trkpt lat="44.974171" lon="9.2089228"><ele>316.0</ele><time>2026-04-18T08:41:34.115Z</time></trkpt><trkpt lat="44.9742367" lon="9.2088858"><ele>316.0</ele><time>2026-04-18T08:41:36.107Z</time></trkpt><trkpt lat="44.9743041" lon="9.2088482"><ele>316.0</ele><time>2026-04-18T08:41:38.036Z</time></trkpt><trkpt lat="44.9743634" lon="9.208813"><ele>316.0</ele><time>2026-04-18T08:41:40.048Z</time></trkpt><trkpt lat="44.9744271" lon="9.2087817"><ele>316.00000000000006</ele><time>2026-04-18T08:41:42.043Z</time></trkpt><trkpt lat="44.9744902" lon="9.2087632"><ele>316.0</ele><time>2026-04-18T08:41:44.044Z</time></trkpt><trkpt lat="44.9745606" lon="9.2087745"><ele>316.28571428571433</ele><time>2026-04-18T08:41:46.041Z</time></trkpt><trkpt lat="44.9746331" lon="9.2087893"><ele>316.57142857142856</ele><time>2026-04-18T08:41:48.044Z</time></trkpt><trkpt lat="44.9747006" lon="9.2088221"><ele>316.8571428571429</ele><time>2026-04-18T08:41:50.041Z</time></trkpt><trkpt lat="44.9747733" lon="9.2088484"><ele>317.14285714285717</ele><time>2026-04-18T08:41:52.043Z</time></trkpt><trkpt lat="44.9748382" lon="9.2088672"><ele>317.42857142857144</ele><time>2026-04-18T08:41:54.043Z</time></trkpt><trkpt lat="44.9749073" lon="9.2088824"><ele>317.7142857142857</ele><time>2026-04-18T08:41:56.041Z</time></trkpt><trkpt lat="44.9749789" lon="9.2089053"><ele>318.0</ele><time>2026-04-18T08:41:58.045Z</time></trkpt><trkpt lat="44.9750694" lon="9.2089404"><ele>319.4285714285714</ele><time>2026-04-18T08:42:01.07Z</time></trkpt><trkpt lat="44.9751358" lon="9.2089617"><ele>320.8571428571429</ele><time>2026-04-18T08:42:03.034Z</time></trkpt><trkpt lat="44.9752043" lon="9.2089805"><ele>322.2857142857143</ele><time>2026-04-18T08:42:05.041Z</time></trkpt><trkpt lat="44.9752759" lon="9.2089969"><ele>323.71428571428567</ele><time>2026-04-18T08:42:07.043Z</time></trkpt><trkpt lat="44.9753479" lon="9.2090066"><ele>325.1428571428571</ele><time>2026-04-18T08:42:09.041Z</time></trkpt><trkpt lat="44.9754176" lon="9.209001"><ele>326.57142857142856</ele><time>2026-04-18T08:42:11.041Z</time></trkpt><trkpt lat="44.9754844" lon="9.2089729"><ele>328.0</ele><time>2026-04-18T08:42:13.05Z</time></trkpt><trkpt lat="44.9755505" lon="9.2089233"><ele>327.99999999999994</ele><time>2026-04-18T08:42:15.046Z</time></trkpt><trkpt lat="44.9756196" lon="9.2088711"><ele>328.0</ele><time>2026-04-18T08:42:17.043Z</time></trkpt><trkpt lat="44.9756852" lon="9.2088052"><ele>328.0</ele><time>2026-04-18T08:42:19.041Z</time></trkpt><trkpt lat="44.9757494" lon="9.2087524"><ele>328.0</ele><time>2026-04-18T08:42:21.041Z</time></trkpt><trkpt lat="44.975812" lon="9.2087065"><ele>328.0</ele><time>2026-04-18T08:42:23.04Z</time></trkpt><trkpt lat="44.9758812" lon="9.2086793"><ele>327.99999999999994</ele><time>2026-04-18T08:42:25.035Z</time></trkpt><trkpt lat="44.9759501" lon="9.2086814"><ele>328.0</ele><time>2026-04-18T08:42:27.042Z</time></trkpt><trkpt lat="44.9760054" lon="9.208728"><ele>329.4285714285714</ele><time>2026-04-18T08:42:29.045Z</time></trkpt><trkpt lat="44.9760668" lon="9.2087874"><ele>330.85714285714283</ele><time>2026-04-18T08:42:31.041Z</time></trkpt><trkpt lat="44.976124" lon="9.208838"><ele>332.2857142857143</ele><time>2026-04-18T08:42:33.04Z</time></trkpt><trkpt lat="44.9761821" lon="9.2088897"><ele>333.71428571428567</ele><time>2026-04-18T08:42:35.038Z</time></trkpt><trkpt lat="44.9762402" lon="9.208937"><ele>335.1428571428571</ele><time>2026-04-18T08:42:37.039Z</time></trkpt><trkpt lat="44.9763019" lon="9.2089713"><ele>336.57142857142856</ele><time>2026-04-18T08:42:39.037Z</time></trkpt><trkpt lat="44.9763884" lon="9.2090053"><ele>338.0</ele><time>2026-04-18T08:42:42.043Z</time></trkpt><trkpt lat="44.9764756" lon="9.2090374"><ele>339.33333333333337</ele><time>2026-04-18T08:42:45.048Z</time></trkpt><trkpt lat="44.9765612" lon="9.20906"><ele>340.6666666666667</ele><time>2026-04-18T08:42:48.042Z</time></trkpt><trkpt lat="44.976645" lon="9.2090748"><ele>342.0</ele><time>2026-04-18T08:42:51.047Z</time></trkpt><trkpt lat="44.9767337" lon="9.209085"><ele>343.3333333333333</ele><time>2026-04-18T08:42:54.049Z</time></trkpt><trkpt lat="44.976817" lon="9.2091187"><ele>344.66666666666663</ele><time>2026-04-18T08:42:57.035Z</time></trkpt><trkpt lat="44.9768778" lon="9.2091438"><ele>346.0</ele><time>2026-04-18T08:42:59.035Z</time></trkpt><trkpt lat="44.9769633" lon="9.2091813"><ele>347.3333333333333</ele><time>2026-04-18T08:43:02.035Z</time></trkpt><trkpt lat="44.9770234" lon="9.2092113"><ele>348.66666666666663</ele><time>2026-04-18T08:43:04.047Z</time></trkpt><trkpt lat="44.977102" lon="9.2092611"><ele>350.0</ele><time>2026-04-18T08:43:07.041Z</time></trkpt><trkpt lat="44.9771645" lon="9.2092856"><ele>351.3333333333333</ele><time>2026-04-18T08:43:09.1Z</time></trkpt><trkpt lat="44.9772494" lon="9.2093413"><ele>352.6666666666667</ele><time>2026-04-18T08:43:12.039Z</time></trkpt><trkpt lat="44.9773122" lon="9.2093672"><ele>354.0</ele><time>2026-04-18T08:43:14.049Z</time></trkpt><trkpt lat="44.9774003" lon="9.2093988"><ele>354.0</ele><time>2026-04-18T08:43:17.048Z</time></trkpt><trkpt lat="44.9774943" lon="9.209403"><ele>354.0</ele><time>2026-04-18T08:43:20.037Z</time></trkpt><trkpt lat="44.9775586" lon="9.2094028"><ele>354.0</ele><time>2026-04-18T08:43:22.047Z</time></trkpt><trkpt lat="44.9776507" lon="9.209396"><ele>354.0</ele><time>2026-04-18T08:43:25.034Z</time></trkpt><trkpt lat="44.9777437" lon="9.2094071"><ele>354.0</ele><time>2026-04-18T08:43:28.037Z</time></trkpt><trkpt lat="44.9778334" lon="9.2094175"><ele>354.0</ele><time>2026-04-18T08:43:31.053Z</time></trkpt><trkpt lat="44.9779273" lon="9.209425"><ele>355.5714285714286</ele><time>2026-04-18T08:43:34.04Z</time></trkpt><trkpt lat="44.978026" lon="9.2094315"><ele>357.1428571428571</ele><time>2026-04-18T08:43:37.044Z</time></trkpt><trkpt lat="44.9780898" lon="9.2094326"><ele>358.7142857142857</ele><time>2026-04-18T08:43:39.048Z</time></trkpt><trkpt lat="44.9781545" lon="9.2094341"><ele>360.28571428571433</ele><time>2026-04-18T08:43:41.052Z</time></trkpt><trkpt lat="44.9782195" lon="9.2094277"><ele>361.8571428571429</ele><time>2026-04-18T08:43:43.04Z</time></trkpt><trkpt lat="44.9782915" lon="9.2094339"><ele>363.42857142857144</ele><time>2026-04-18T08:43:45.042Z</time></trkpt><trkpt lat="44.9783648" lon="9.2094407"><ele>365.0</ele><time>2026-04-18T08:43:47.042Z</time></trkpt><trkpt lat="44.978428" lon="9.2094444"><ele>367.1666666666667</ele><time>2026-04-18T08:43:49.041Z</time></trkpt><trkpt lat="44.9784952" lon="9.2094447"><ele>369.33333333333337</ele><time>2026-04-18T08:43:51.043Z</time></trkpt><trkpt lat="44.9785909" lon="9.2094536"><ele>371.5</ele><time>2026-04-18T08:43:54.051Z</time></trkpt><trkpt lat="44.9786564" lon="9.2094512"><ele>373.6666666666667</ele><time>2026-04-18T08:43:56.041Z</time></trkpt><trkpt lat="44.9787492" lon="9.2094415"><ele>375.8333333333333</ele><time>2026-04-18T08:43:59.035Z</time></trkpt><trkpt lat="44.9788136" lon="9.2094434"><ele>378.0</ele><time>2026-04-18T08:44:01.046Z</time></trkpt><trkpt lat="44.9788776" lon="9.2094531"><ele>378.0</ele><time>2026-04-18T08:44:03.038Z</time></trkpt><trkpt lat="44.9789579" lon="9.2094798"><ele>378.0</ele><time>2026-04-18T08:44:06.045Z</time></trkpt><trkpt lat="44.9790323" lon="9.2094743"><ele>378.0</ele><time>2026-04-18T08:44:08.036Z</time></trkpt><trkpt lat="44.9791071" lon="9.209444"><ele>378.0</ele><time>2026-04-18T08:44:11.042Z</time></trkpt><trkpt lat="44.97918" lon="9.2094262"><ele>378.0</ele><time>2026-04-18T08:44:14.051Z</time></trkpt><trkpt lat="44.9792511" lon="9.2094255"><ele>378.0</ele><time>2026-04-18T08:44:16.043Z</time></trkpt><trkpt lat="44.9793121" lon="9.2094481"><ele>378.0</ele><time>2026-04-18T08:44:18.045Z</time></trkpt><trkpt lat="44.9793837" lon="9.2094719"><ele>377.5</ele><time>2026-04-18T08:44:22.04Z</time></trkpt><trkpt lat="44.9794476" lon="9.2094282"><ele>377.0</ele><time>2026-04-18T08:44:26.042Z</time></trkpt><trkpt lat="44.9794838" lon="9.2093215"><ele>376.5</ele><time>2026-04-18T08:44:29.04Z</time></trkpt><trkpt lat="44.9795051" lon="9.2091905"><ele>376.0</ele><time>2026-04-18T08:44:32.046Z</time></trkpt><trkpt lat="44.9795193" lon="9.2090986"><ele>375.5</ele><time>2026-04-18T08:44:34.048Z</time></trkpt><trkpt lat="44.9795471" lon="9.2089884"><ele>375.0</ele><time>2026-04-18T08:44:37.111Z</time></trkpt><trkpt lat="44.9795687" lon="9.2089034"><ele>376.1666666666667</ele><time>2026-04-18T08:44:39.052Z</time></trkpt><trkpt lat="44.9795834" lon="9.20878"><ele>377.3333333333333</ele><time>2026-04-18T08:44:42.042Z</time></trkpt><trkpt lat="44.979612" lon="9.2086828"><ele>378.5</ele><time>2026-04-18T08:44:45.046Z</time></trkpt><trkpt lat="44.9796488" lon="9.2085795"><ele>379.66666666666663</ele><time>2026-04-18T08:44:48.042Z</time></trkpt><trkpt lat="44.9797007" lon="9.2084882"><ele>380.8333333333333</ele><time>2026-04-18T08:44:51.045Z</time></trkpt><trkpt lat="44.9797536" lon="9.2084107"><ele>382.0</ele><time>2026-04-18T08:44:54.045Z</time></trkpt><trkpt lat="44.9798238" lon="9.2083932"><ele>382.0</ele><time>2026-04-18T08:44:58.042Z</time></trkpt><trkpt lat="44.9798864" lon="9.2083825"><ele>382.0</ele><time>2026-04-18T08:45:00.054Z</time></trkpt><trkpt lat="44.9799842" lon="9.2083716"><ele>382.0</ele><time>2026-04-18T08:45:03.084Z</time></trkpt><trkpt lat="44.980046" lon="9.2083338"><ele>382.0</ele><time>2026-04-18T08:45:04.041Z</time></trkpt><trkpt lat="44.9801386" lon="9.2082904"><ele>382.0</ele><time>2026-04-18T08:45:06.038Z</time></trkpt><trkpt lat="44.98023" lon="9.2082629"><ele>382.0</ele><time>2026-04-18T08:45:08.039Z</time></trkpt><trkpt lat="44.9803022" lon="9.2082225"><ele>382.7142857142857</ele><time>2026-04-18T08:45:10.051Z</time></trkpt><trkpt lat="44.9803743" lon="9.208212"><ele>383.4285714285714</ele><time>2026-04-18T08:45:12.03Z</time></trkpt><trkpt lat="44.9804446" lon="9.2081939"><ele>384.1428571428571</ele><time>2026-04-18T08:45:14.105Z</time></trkpt><trkpt lat="44.9805099" lon="9.2081641"><ele>384.8571428571429</ele><time>2026-04-18T08:45:16.04Z</time></trkpt><trkpt lat="44.980572" lon="9.2081405"><ele>385.57142857142856</ele><time>2026-04-18T08:45:18.042Z</time></trkpt><trkpt lat="44.9806364" lon="9.2081222"><ele>386.2857142857143</ele><time>2026-04-18T08:45:20.039Z</time></trkpt><trkpt lat="44.9807271" lon="9.2080928"><ele>387.0</ele><time>2026-04-18T08:45:23.043Z</time></trkpt><trkpt lat="44.9807962" lon="9.2080551"><ele>387.1666666666667</ele><time>2026-04-18T08:45:25.039Z</time></trkpt><trkpt lat="44.9808884" lon="9.2080241"><ele>387.33333333333337</ele><time>2026-04-18T08:45:28.043Z</time></trkpt><trkpt lat="44.9809595" lon="9.208001"><ele>387.5</ele><time>2026-04-18T08:45:30.102Z</time></trkpt><trkpt lat="44.9810336" lon="9.207988"><ele>387.6666666666667</ele><time>2026-04-18T08:45:32.04Z</time></trkpt><trkpt lat="44.9811122" lon="9.2079769"><ele>387.83333333333337</ele><time>2026-04-18T08:45:34.041Z</time></trkpt><trkpt lat="44.9811895" lon="9.2079652"><ele>388.0</ele><time>2026-04-18T08:45:36.051Z</time></trkpt><trkpt lat="44.9812601" lon="9.2079748"><ele>388.0</ele><time>2026-04-18T08:45:38.041Z</time></trkpt><trkpt lat="44.981333" lon="9.208"><ele>388.0</ele><time>2026-04-18T08:45:40.047Z</time></trkpt><trkpt lat="44.9813996" lon="9.2080399"><ele>388.0</ele><time>2026-04-18T08:45:42.039Z</time></trkpt><trkpt lat="44.9814559" lon="9.2080928"><ele>388.0</ele><time>2026-04-18T08:45:44.113Z</time></trkpt><trkpt lat="44.9815119" lon="9.208164"><ele>388.0</ele><time>2026-04-18T08:45:46.057Z</time></trkpt><trkpt lat="44.981557" lon="9.208246"><ele>388.0</ele><time>2026-04-18T08:45:48.05Z</time></trkpt><trkpt lat="44.9815946" lon="9.208322"><ele>388.0</ele><time>2026-04-18T08:45:50.052Z</time></trkpt><trkpt lat="44.9816502" lon="9.2083979"><ele>381.33333333333337</ele><time>2026-04-18T08:45:52.042Z</time></trkpt><trkpt lat="44.9817222" lon="9.2084594"><ele>374.6666666666667</ele><time>2026-04-18T08:45:55.058Z</time></trkpt><trkpt lat="44.9817913" lon="9.2084874"><ele>368.0</ele><time>2026-04-18T08:45:58.05Z</time></trkpt><trkpt lat="44.9818665" lon="9.2084758"><ele>361.33333333333337</ele><time>2026-04-18T08:46:01.042Z</time></trkpt><trkpt lat="44.9819335" lon="9.2084206"><ele>354.6666666666667</ele><time>2026-04-18T08:46:04.041Z</time></trkpt><trkpt lat="44.9819808" lon="9.2083308"><ele>348.0</ele><time>2026-04-18T08:46:07.038Z</time></trkpt><trkpt lat="44.9820087" lon="9.2082424"><ele>351.1666666666667</ele><time>2026-04-18T08:46:10.046Z</time></trkpt><trkpt lat="44.9820357" lon="9.2081252"><ele>354.3333333333333</ele><time>2026-04-18T08:46:13.042Z</time></trkpt><trkpt lat="44.9820692" lon="9.2080055"><ele>357.5</ele><time>2026-04-18T08:46:16.043Z</time></trkpt><trkpt lat="44.9821043" lon="9.2078878"><ele>360.66666666666663</ele><time>2026-04-18T08:46:19.052Z</time></trkpt><trkpt lat="44.9821321" lon="9.2077655"><ele>363.8333333333333</ele><time>2026-04-18T08:46:22.045Z</time></trkpt><trkpt lat="44.9821762" lon="9.2076699"><ele>367.0</ele><time>2026-04-18T08:46:25.045Z</time></trkpt><trkpt lat="44.9822341" lon="9.2075573"><ele>367.0</ele><time>2026-04-18T08:46:28.043Z</time></trkpt><trkpt lat="44.9822864" lon="9.2074454"><ele>367.0</ele><time>2026-04-18T08:46:30.038Z</time></trkpt><trkpt lat="44.98233" lon="9.2073445"><ele>367.0</ele><time>2026-04-18T08:46:32.042Z</time></trkpt><trkpt lat="44.9823895" lon="9.2072344"><ele>367.0</ele><time>2026-04-18T08:46:34.04Z</time></trkpt><trkpt lat="44.9824617" lon="9.2071167"><ele>367.0</ele><time>2026-04-18T08:46:36.043Z</time></trkpt><trkpt lat="44.9825363" lon="9.206988"><ele>365.16666666666663</ele><time>2026-04-18T08:46:38.037Z</time></trkpt><trkpt lat="44.9825763" lon="9.206915"><ele>363.3333333333333</ele><time>2026-04-18T08:46:39.037Z</time></trkpt><trkpt lat="44.9826569" lon="9.2067797"><ele>361.5</ele><time>2026-04-18T08:46:41.034Z</time></trkpt><trkpt lat="44.9826982" lon="9.2067093"><ele>359.6666666666667</ele><time>2026-04-18T08:46:42.042Z</time></trkpt><trkpt lat="44.982742" lon="9.2066389"><ele>357.83333333333337</ele><time>2026-04-18T08:46:43.044Z</time></trkpt><trkpt lat="44.982784" lon="9.2065704"><ele>356.0</ele><time>2026-04-18T08:46:44.046Z</time></trkpt><trkpt lat="44.9828283" lon="9.2065028"><ele>358.6</ele><time>2026-04-18T08:46:45.077Z</time></trkpt><trkpt lat="44.9828683" lon="9.2064247"><ele>361.20000000000005</ele><time>2026-04-18T08:46:46.047Z</time></trkpt><trkpt lat="44.9829036" lon="9.2063426"><ele>363.79999999999995</ele><time>2026-04-18T08:46:47.036Z</time></trkpt><trkpt lat="44.9829688" lon="9.2061998"><ele>366.4</ele><time>2026-04-18T08:46:49.044Z</time></trkpt><trkpt lat="44.9830191" lon="9.2060496"><ele>369.0</ele><time>2026-04-18T08:46:51.071Z</time></trkpt><trkpt lat="44.9830914" lon="9.205916"><ele>369.0</ele><time>2026-04-18T08:46:53.047Z</time></trkpt><trkpt lat="44.9831855" lon="9.2058049"><ele>369.0</ele><time>2026-04-18T08:46:55.042Z</time></trkpt><trkpt lat="44.983235" lon="9.2057479"><ele>369.0</ele><time>2026-04-18T08:46:56.044Z</time></trkpt><trkpt lat="44.9832945" lon="9.2057025"><ele>369.0</ele><time>2026-04-18T08:46:57.042Z</time></trkpt><trkpt lat="44.9833603" lon="9.2056619"><ele>369.0</ele><time>2026-04-18T08:46:58.041Z</time></trkpt><trkpt lat="44.9834326" lon="9.2056412"><ele>369.0</ele><time>2026-04-18T08:46:59.042Z</time></trkpt><trkpt lat="44.9835062" lon="9.2056291"><ele>368.3333333333333</ele><time>2026-04-18T08:47:00.038Z</time></trkpt><trkpt lat="44.9835773" lon="9.2056222"><ele>367.6666666666667</ele><time>2026-04-18T08:47:01.041Z</time></trkpt><trkpt lat="44.9836511" lon="9.2056246"><ele>367.0</ele><time>2026-04-18T08:47:02.051Z</time></trkpt><trkpt lat="44.9837339" lon="9.2056358"><ele>366.33333333333337</ele><time>2026-04-18T08:47:03.044Z</time></trkpt><trkpt lat="44.9838176" lon="9.2056517"><ele>365.6666666666667</ele><time>2026-04-18T08:47:04.039Z</time></trkpt><trkpt lat="44.9838923" lon="9.205688"><ele>365.0</ele><time>2026-04-18T08:47:05.036Z</time></trkpt><trkpt lat="44.9839655" lon="9.2057282"><ele>363.83333333333337</ele><time>2026-04-18T08:47:06.043Z</time></trkpt><trkpt lat="44.984033" lon="9.2057794"><ele>362.6666666666667</ele><time>2026-04-18T08:47:07.041Z</time></trkpt><trkpt lat="44.9841094" lon="9.2058318"><ele>361.5</ele><time>2026-04-18T08:47:08.038Z</time></trkpt><trkpt lat="44.9841823" lon="9.2058735"><ele>360.3333333333333</ele><time>2026-04-18T08:47:09.043Z</time></trkpt><trkpt lat="44.9842568" lon="9.2059226"><ele>359.16666666666663</ele><time>2026-04-18T08:47:10.041Z</time></trkpt><trkpt lat="44.9843354" lon="9.2059686"><ele>358.0</ele><time>2026-04-18T08:47:11.056Z</time></trkpt><trkpt lat="44.9844095" lon="9.2060131"><ele>356.8333333333333</ele><time>2026-04-18T08:47:12.048Z</time></trkpt><trkpt lat="44.9844829" lon="9.2060588"><ele>355.66666666666663</ele><time>2026-04-18T08:47:13.042Z</time></trkpt><trkpt lat="44.9845635" lon="9.2060989"><ele>354.5</ele><time>2026-04-18T08:47:14.037Z</time></trkpt><trkpt lat="44.9846336" lon="9.2061433"><ele>353.3333333333333</ele><time>2026-04-18T08:47:15.046Z</time></trkpt><trkpt lat="44.9847054" lon="9.2061851"><ele>352.1666666666667</ele><time>2026-04-18T08:47:16.039Z</time></trkpt><trkpt lat="44.9847795" lon="9.2062272"><ele>351.0</ele><time>2026-04-18T08:47:17.048Z</time></trkpt><trkpt lat="44.9848558" lon="9.2062804"><ele>351.0</ele><time>2026-04-18T08:47:18.044Z</time></trkpt><trkpt lat="44.9849312" lon="9.2063281"><ele>351.0</ele><time>2026-04-18T08:47:19.045Z</time></trkpt><trkpt lat="44.9850078" lon="9.2063799"><ele>351.0</ele><time>2026-04-18T08:47:20.103Z</time></trkpt><trkpt lat="44.9850767" lon="9.2064306"><ele>351.0</ele><time>2026-04-18T08:47:21.045Z</time></trkpt><trkpt lat="44.9851418" lon="9.2064887"><ele>351.0</ele><time>2026-04-18T08:47:22.126Z</time></trkpt><trkpt lat="44.9852009" lon="9.2065583"><ele>351.0</ele><time>2026-04-18T08:47:23.053Z</time></trkpt><trkpt lat="44.9852508" lon="9.2066373"><ele>349.6666666666667</ele><time>2026-04-18T08:47:24.042Z</time></trkpt><trkpt lat="44.9852917" lon="9.2067159"><ele>348.3333333333333</ele><time>2026-04-18T08:47:25.041Z</time></trkpt><trkpt lat="44.9853155" lon="9.2068095"><ele>347.0</ele><time>2026-04-18T08:47:26.044Z</time></trkpt><trkpt lat="44.9853407" lon="9.2068957"><ele>345.66666666666663</ele><time>2026-04-18T08:47:27.052Z</time></trkpt><trkpt lat="44.9853902" lon="9.2070495"><ele>344.3333333333333</ele><time>2026-04-18T08:47:29.044Z</time></trkpt><trkpt lat="44.9854257" lon="9.207136"><ele>343.0</ele><time>2026-04-18T08:47:30.048Z</time></trkpt><trkpt lat="44.9854727" lon="9.2072333"><ele>343.0</ele><time>2026-04-18T08:47:31.045Z</time></trkpt><trkpt lat="44.9855307" lon="9.2073258"><ele>343.0</ele><time>2026-04-18T08:47:32.043Z</time></trkpt><trkpt lat="44.9855829" lon="9.2074154"><ele>343.0</ele><time>2026-04-18T08:47:33.042Z</time></trkpt><trkpt lat="44.9856351" lon="9.2075096"><ele>343.0</ele><time>2026-04-18T08:47:34.043Z</time></trkpt><trkpt lat="44.9856969" lon="9.2076037"><ele>343.0</ele><time>2026-04-18T08:47:35.044Z</time></trkpt><trkpt lat="44.9857625" lon="9.2076966"><ele>343.0</ele><time>2026-04-18T08:47:36.034Z</time></trkpt><trkpt lat="44.985834" lon="9.2077926"><ele>339.79999999999995</ele><time>2026-04-18T08:47:37.111Z</time></trkpt><trkpt lat="44.9859086" lon="9.2078948"><ele>336.6</ele><time>2026-04-18T08:47:38.043Z</time></trkpt><trkpt lat="44.9859815" lon="9.2079893"><ele>333.4</ele><time>2026-04-18T08:47:39.046Z</time></trkpt><trkpt lat="44.986053" lon="9.2080884"><ele>330.20000000000005</ele><time>2026-04-18T08:47:40.04Z</time></trkpt><trkpt lat="44.9861233" lon="9.208182"><ele>327.0</ele><time>2026-04-18T08:47:41.044Z</time></trkpt><trkpt lat="44.9861938" lon="9.2082679"><ele>325.8333333333333</ele><time>2026-04-18T08:47:42.037Z</time></trkpt><trkpt lat="44.9862586" lon="9.2083552"><ele>324.6666666666667</ele><time>2026-04-18T08:47:43.043Z</time></trkpt><trkpt lat="44.9863154" lon="9.2084332"><ele>323.5</ele><time>2026-04-18T08:47:44.034Z</time></trkpt><trkpt lat="44.9863716" lon="9.2084998"><ele>322.33333333333337</ele><time>2026-04-18T08:47:45.056Z</time></trkpt><trkpt lat="44.9864243" lon="9.2085732"><ele>321.1666666666667</ele><time>2026-04-18T08:47:46.038Z</time></trkpt><trkpt lat="44.9864713" lon="9.208644"><ele>320.0</ele><time>2026-04-18T08:47:47.051Z</time></trkpt><trkpt lat="44.9865152" lon="9.2087224"><ele>320.0</ele><time>2026-04-18T08:47:48.04Z</time></trkpt><trkpt lat="44.9865517" lon="9.2088029"><ele>320.0</ele><time>2026-04-18T08:47:49.034Z</time></trkpt><trkpt lat="44.9865817" lon="9.2088943"><ele>320.0</ele><time>2026-04-18T08:47:50.046Z</time></trkpt><trkpt lat="44.9866011" lon="9.2089942"><ele>320.0</ele><time>2026-04-18T08:47:51.105Z</time></trkpt><trkpt lat="44.9866254" lon="9.2090985"><ele>320.0</ele><time>2026-04-18T08:47:52.045Z</time></trkpt><trkpt lat="44.9866478" lon="9.209202"><ele>320.0</ele><time>2026-04-18T08:47:53.051Z</time></trkpt><trkpt lat="44.9866777" lon="9.2092945"><ele>320.0</ele><time>2026-04-18T08:47:54.042Z</time></trkpt><trkpt lat="44.9867164" lon="9.2093843"><ele>317.0</ele><time>2026-04-18T08:47:55.042Z</time></trkpt><trkpt lat="44.9867582" lon="9.2094682"><ele>314.0</ele><time>2026-04-18T08:47:56.04Z</time></trkpt><trkpt lat="44.9868145" lon="9.2095366"><ele>311.0</ele><time>2026-04-18T08:47:57.042Z</time></trkpt><trkpt lat="44.9868666" lon="9.2095978"><ele>308.0</ele><time>2026-04-18T08:47:58.047Z</time></trkpt><trkpt lat="44.9869377" lon="9.2096305"><ele>305.0</ele><time>2026-04-18T08:47:59.049Z</time></trkpt><trkpt lat="44.9870028" lon="9.209658"><ele>302.0</ele><time>2026-04-18T08:48:00.041Z</time></trkpt><trkpt lat="44.9870751" lon="9.2096841"><ele>299.0</ele><time>2026-04-18T08:48:01.04Z</time></trkpt><trkpt lat="44.9871503" lon="9.2097081"><ele>299.0</ele><time>2026-04-18T08:48:02.049Z</time></trkpt><trkpt lat="44.9872237" lon="9.2097378"><ele>299.0</ele><time>2026-04-18T08:48:03.037Z</time></trkpt><trkpt lat="44.9873011" lon="9.209777"><ele>299.0</ele><time>2026-04-18T08:48:04.054Z</time></trkpt><trkpt lat="44.9873822" lon="9.2097984"><ele>299.0</ele><time>2026-04-18T08:48:05.055Z</time></trkpt><trkpt lat="44.9874634" lon="9.2098117"><ele>299.0</ele><time>2026-04-18T08:48:06.041Z</time></trkpt><trkpt lat="44.9875348" lon="9.2098348"><ele>299.0</ele><time>2026-04-18T08:48:07.05Z</time></trkpt><trkpt lat="44.9876015" lon="9.2098673"><ele>296.2857142857143</ele><time>2026-04-18T08:48:08.035Z</time></trkpt><trkpt lat="44.9876634" lon="9.2099102"><ele>293.57142857142856</ele><time>2026-04-18T08:48:09.047Z</time></trkpt><trkpt lat="44.9877236" lon="9.2099663"><ele>290.8571428571429</ele><time>2026-04-18T08:48:10.04Z</time></trkpt><trkpt lat="44.9877832" lon="9.210022"><ele>288.1428571428571</ele><time>2026-04-18T08:48:11.043Z</time></trkpt><trkpt lat="44.9878505" lon="9.2100733"><ele>285.42857142857144</ele><time>2026-04-18T08:48:12.037Z</time></trkpt><trkpt lat="44.9879195" lon="9.2100843"><ele>282.7142857142857</ele><time>2026-04-18T08:48:13.046Z</time></trkpt><trkpt lat="44.9879941" lon="9.2100785"><ele>280.0</ele><time>2026-04-18T08:48:14.037Z</time></trkpt><trkpt lat="44.9880773" lon="9.2100636"><ele>280.0</ele><time>2026-04-18T08:48:15.047Z</time></trkpt><trkpt lat="44.9881565" lon="9.210041"><ele>280.0</ele><time>2026-04-18T08:48:16.047Z</time></trkpt><trkpt lat="44.9882466" lon="9.2100328"><ele>280.0</ele><time>2026-04-18T08:48:17.099Z</time></trkpt><trkpt lat="44.988327" lon="9.2100278"><ele>280.0</ele><time>2026-04-18T08:48:18.039Z</time></trkpt><trkpt lat="44.9884014" lon="9.2100397"><ele>280.0</ele><time>2026-04-18T08:48:19.053Z</time></trkpt><trkpt lat="44.9884741" lon="9.2100827"><ele>280.0</ele><time>2026-04-18T08:48:20.045Z</time></trkpt><trkpt lat="44.9885363" lon="9.2101422"><ele>277.16666666666663</ele><time>2026-04-18T08:48:21.05Z</time></trkpt><trkpt lat="44.9885935" lon="9.2102219"><ele>274.3333333333333</ele><time>2026-04-18T08:48:22.039Z</time></trkpt><trkpt lat="44.9886565" lon="9.2102955"><ele>271.5</ele><time>2026-04-18T08:48:23.044Z</time></trkpt><trkpt lat="44.9887262" lon="9.2103639"><ele>268.6666666666667</ele><time>2026-04-18T08:48:24.041Z</time></trkpt><trkpt lat="44.9887983" lon="9.2104174"><ele>265.83333333333337</ele><time>2026-04-18T08:48:25.038Z</time></trkpt><trkpt lat="44.9888775" lon="9.2104742"><ele>263.0</ele><time>2026-04-18T08:48:26.043Z</time></trkpt><trkpt lat="44.9889508" lon="9.2105321"><ele>263.0</ele><time>2026-04-18T08:48:27.043Z</time></trkpt><trkpt lat="44.989021" lon="9.2105852"><ele>263.0</ele><time>2026-04-18T08:48:28.043Z</time></trkpt><trkpt lat="44.9890938" lon="9.2106404"><ele>263.0</ele><time>2026-04-18T08:48:29.044Z</time></trkpt><trkpt lat="44.9891733" lon="9.2106938"><ele>263.0</ele><time>2026-04-18T08:48:30.065Z</time></trkpt><trkpt lat="44.9892484" lon="9.2107451"><ele>263.0</ele><time>2026-04-18T08:48:31.037Z</time></trkpt><trkpt lat="44.9893224" lon="9.2107959"><ele>263.0</ele><time>2026-04-18T08:48:32.045Z</time></trkpt><trkpt lat="44.9893954" lon="9.2108405"><ele>261.5</ele><time>2026-04-18T08:48:33.05Z</time></trkpt><trkpt lat="44.989467" lon="9.2108783"><ele>260.0</ele><time>2026-04-18T08:48:34.044Z</time></trkpt><trkpt lat="44.9895414" lon="9.2109236"><ele>258.5</ele><time>2026-04-18T08:48:35.047Z</time></trkpt><trkpt lat="44.9896133" lon="9.2109658"><ele>257.0</ele><time>2026-04-18T08:48:36.045Z</time></trkpt><trkpt lat="44.9896899" lon="9.2110159"><ele>255.50000000000003</ele><time>2026-04-18T08:48:37.046Z</time></trkpt><trkpt lat="44.9897667" lon="9.2110717"><ele>254.0</ele><time>2026-04-18T08:48:38.041Z</time></trkpt><trkpt lat="44.9898488" lon="9.211124"><ele>254.00000000000003</ele><time>2026-04-18T08:48:39.044Z</time></trkpt><trkpt lat="44.9899308" lon="9.211157"><ele>254.0</ele><time>2026-04-18T08:48:40.039Z</time></trkpt><trkpt lat="44.9900135" lon="9.2111881"><ele>254.0</ele><time>2026-04-18T08:48:41.048Z</time></trkpt><trkpt lat="44.9900964" lon="9.211214"><ele>254.0</ele><time>2026-04-18T08:48:42.039Z</time></trkpt><trkpt lat="44.9901852" lon="9.2112502"><ele>254.00000000000003</ele><time>2026-04-18T08:48:43.037Z</time></trkpt><trkpt lat="44.9902627" lon="9.2112979"><ele>254.0</ele><time>2026-04-18T08:48:44.043Z</time></trkpt><trkpt lat="44.9903352" lon="9.2113567"><ele>251.0</ele><time>2026-04-18T08:48:45.037Z</time></trkpt><trkpt lat="44.9904114" lon="9.2114059"><ele>247.99999999999997</ele><time>2026-04-18T08:48:46.042Z</time></trkpt><trkpt lat="44.9904985" lon="9.21145"><ele>244.99999999999997</ele><time>2026-04-18T08:48:47.04Z</time></trkpt><trkpt lat="44.9905878" lon="9.211488"><ele>242.0</ele><time>2026-04-18T08:48:48.041Z</time></trkpt><trkpt lat="44.9906741" lon="9.2115361"><ele>239.0</ele><time>2026-04-18T08:48:49.04Z</time></trkpt><trkpt lat="44.990753" lon="9.2115976"><ele>239.00000000000003</ele><time>2026-04-18T08:48:50.036Z</time></trkpt><trkpt lat="44.9908145" lon="9.2116551"><ele>239.0</ele><time>2026-04-18T08:48:51.057Z</time></trkpt><trkpt lat="44.9908772" lon="9.2117175"><ele>239.00000000000003</ele><time>2026-04-18T08:48:52.04Z</time></trkpt><trkpt lat="44.9909369" lon="9.2117648"><ele>239.00000000000003</ele><time>2026-04-18T08:48:53.038Z</time></trkpt><trkpt lat="44.9910006" lon="9.2118143"><ele>239.0</ele><time>2026-04-18T08:48:54.049Z</time></trkpt><trkpt lat="44.9910648" lon="9.211856"><ele>239.00000000000003</ele><time>2026-04-18T08:48:55.036Z</time></trkpt><trkpt lat="44.9911407" lon="9.2119011"><ele>239.00000000000003</ele><time>2026-04-18T08:48:56.05Z</time></trkpt><trkpt lat="44.9912132" lon="9.2119403"><ele>236.66666666666669</ele><time>2026-04-18T08:48:57.044Z</time></trkpt><trkpt lat="44.991282" lon="9.2119807"><ele>234.33333333333334</ele><time>2026-04-18T08:48:58.039Z</time></trkpt><trkpt lat="44.9913551" lon="9.2120306"><ele>232.0</ele><time>2026-04-18T08:48:59.049Z</time></trkpt><trkpt lat="44.9914256" lon="9.2120733"><ele>229.66666666666669</ele><time>2026-04-18T08:49:00.037Z</time></trkpt><trkpt lat="44.9914922" lon="9.2121165"><ele>227.33333333333334</ele><time>2026-04-18T08:49:01.043Z</time></trkpt><trkpt lat="44.9915609" lon="9.2121585"><ele>225.0</ele><time>2026-04-18T08:49:02.04Z</time></trkpt><trkpt lat="44.9916318" lon="9.2121948"><ele>223.0</ele><time>2026-04-18T08:49:03.047Z</time></trkpt><trkpt lat="44.991746" lon="9.2122407"><ele>221.0</ele><time>2026-04-18T08:49:05.041Z</time></trkpt><trkpt lat="44.9918561" lon="9.2122925"><ele>219.0</ele><time>2026-04-18T08:49:07.035Z</time></trkpt><trkpt lat="44.9919374" lon="9.2123548"><ele>217.0</ele><time>2026-04-18T08:49:09.039Z</time></trkpt><trkpt lat="44.9920351" lon="9.2123629"><ele>215.0</ele><time>2026-04-18T08:49:11.043Z</time></trkpt><trkpt lat="44.9921186" lon="9.2122483"><ele>214.2</ele><time>2026-04-18T08:49:13.041Z</time></trkpt><trkpt lat="44.9921831" lon="9.2121095"><ele>213.4</ele><time>2026-04-18T08:49:15.03Z</time></trkpt><trkpt lat="44.9922566" lon="9.212016"><ele>212.60000000000002</ele><time>2026-04-18T08:49:17.043Z</time></trkpt><trkpt lat="44.9923744" lon="9.2119853"><ele>211.8</ele><time>2026-04-18T08:49:19.099Z</time></trkpt><trkpt lat="44.9924403" lon="9.2120148"><ele>211.0</ele><time>2026-04-18T08:49:20.047Z</time></trkpt><trkpt lat="44.9925012" lon="9.2120505"><ele>210.14285714285714</ele><time>2026-04-18T08:49:21.044Z</time></trkpt><trkpt lat="44.9925617" lon="9.2120834"><ele>209.28571428571428</ele><time>2026-04-18T08:49:22.045Z</time></trkpt><trkpt lat="44.9926258" lon="9.2121133"><ele>208.42857142857144</ele><time>2026-04-18T08:49:23.045Z</time></trkpt><trkpt lat="44.992693" lon="9.2121321"><ele>207.57142857142856</ele><time>2026-04-18T08:49:24.046Z</time></trkpt><trkpt lat="44.9927608" lon="9.2121217"><ele>206.7142857142857</ele><time>2026-04-18T08:49:25.049Z</time></trkpt><trkpt lat="44.9928282" lon="9.2121299"><ele>205.85714285714286</ele><time>2026-04-18T08:49:26.044Z</time></trkpt><trkpt lat="44.9928945" lon="9.2121069"><ele>205.0</ele><time>2026-04-18T08:49:27.045Z</time></trkpt><trkpt lat="44.9930165" lon="9.2120795"><ele>205.0</ele><time>2026-04-18T08:49:29.046Z</time></trkpt><trkpt lat="44.993079" lon="9.2120551"><ele>205.0</ele><time>2026-04-18T08:49:30.039Z</time></trkpt><trkpt lat="44.9931412" lon="9.2120163"><ele>205.0</ele><time>2026-04-18T08:49:31.058Z</time></trkpt><trkpt lat="44.9932525" lon="9.2119587"><ele>205.0</ele><time>2026-04-18T08:49:33.044Z</time></trkpt><trkpt lat="44.993349" lon="9.2119457"><ele>205.0</ele><time>2026-04-18T08:49:35.042Z</time></trkpt><trkpt lat="44.9934549" lon="9.2119443"><ele>202.6</ele><time>2026-04-18T08:49:37.052Z</time></trkpt><trkpt lat="44.9935438" lon="9.2119398"><ele>200.2</ele><time>2026-04-18T08:49:39.045Z</time></trkpt><trkpt lat="44.9936448" lon="9.211925"><ele>197.8</ele><time>2026-04-18T08:49:41.046Z</time></trkpt><trkpt lat="44.9937605" lon="9.2119314"><ele>195.4</ele><time>2026-04-18T08:49:43.042Z</time></trkpt><trkpt lat="44.993863" lon="9.2119481"><ele>193.0</ele><time>2026-04-18T08:49:45.045Z</time></trkpt><trkpt lat="44.9939287" lon="9.2119582"><ele>192.99999999999997</ele><time>2026-04-18T08:49:46.106Z</time></trkpt><trkpt lat="44.9940009" lon="9.2119654"><ele>193.0</ele><time>2026-04-18T08:49:47.043Z</time></trkpt><trkpt lat="44.994074" lon="9.2119806"><ele>193.0</ele><time>2026-04-18T08:49:48.055Z</time></trkpt><trkpt lat="44.994148" lon="9.2119962"><ele>193.0</ele><time>2026-04-18T08:49:49.042Z</time></trkpt><trkpt lat="44.9942236" lon="9.2120127"><ele>192.99999999999997</ele><time>2026-04-18T08:49:50.044Z</time></trkpt><trkpt lat="44.9943088" lon="9.2120133"><ele>193.0</ele><time>2026-04-18T08:49:51.045Z</time></trkpt><trkpt lat="44.9943897" lon="9.2120216"><ele>191.71428571428572</ele><time>2026-04-18T08:49:52.05Z</time></trkpt><trkpt lat="44.9944653" lon="9.2120303"><ele>190.42857142857144</ele><time>2026-04-18T08:49:53.05Z</time></trkpt><trkpt lat="44.9945276" lon="9.2120468"><ele>189.14285714285717</ele><time>2026-04-18T08:49:54.047Z</time></trkpt><trkpt lat="44.9945895" lon="9.2121034"><ele>187.85714285714286</ele><time>2026-04-18T08:49:55.049Z</time></trkpt><trkpt lat="44.9946478" lon="9.2121567"><ele>186.57142857142856</ele><time>2026-04-18T08:49:56.045Z</time></trkpt><trkpt lat="44.9947161" lon="9.2122137"><ele>185.2857142857143</ele><time>2026-04-18T08:49:57.05Z</time></trkpt><trkpt lat="44.9947706" lon="9.2122842"><ele>184.0</ele><time>2026-04-18T08:49:58.12Z</time></trkpt><trkpt lat="44.9948353" lon="9.2123384"><ele>183.66666666666669</ele><time>2026-04-18T08:49:59.055Z</time></trkpt><trkpt lat="44.9949004" lon="9.2124016"><ele>183.33333333333334</ele><time>2026-04-18T08:50:00.052Z</time></trkpt><trkpt lat="44.9949924" lon="9.2125277"><ele>183.0</ele><time>2026-04-18T08:50:02.046Z</time></trkpt><trkpt lat="44.9950501" lon="9.2125941"><ele>182.66666666666666</ele><time>2026-04-18T08:50:03.044Z</time></trkpt><trkpt lat="44.9951029" lon="9.2126514"><ele>182.33333333333331</ele><time>2026-04-18T08:50:04.043Z</time></trkpt><trkpt lat="44.9951611" lon="9.2126868"><ele>182.0</ele><time>2026-04-18T08:50:05.037Z</time></trkpt><trkpt lat="44.9952632" lon="9.212764"><ele>181.39999999999998</ele><time>2026-04-18T08:50:07.047Z</time></trkpt><trkpt lat="44.9953853" lon="9.2128291"><ele>180.79999999999998</ele><time>2026-04-18T08:50:09.05Z</time></trkpt><trkpt lat="44.9954943" lon="9.2128701"><ele>180.2</ele><time>2026-04-18T08:50:11.051Z</time></trkpt><trkpt lat="44.9955622" lon="9.2128897"><ele>179.6</ele><time>2026-04-18T08:50:13.052Z</time></trkpt><trkpt lat="44.9956303" lon="9.2129339"><ele>179.0</ele><time>2026-04-18T08:50:16.041Z</time></trkpt><trkpt lat="44.9956946" lon="9.212969"><ele>179.0</ele><time>2026-04-18T08:50:19.056Z</time></trkpt><trkpt lat="44.9957755" lon="9.212984"><ele>179.0</ele><time>2026-04-18T08:50:22.046Z</time></trkpt><trkpt lat="44.9958415" lon="9.2129514"><ele>179.0</ele><time>2026-04-18T08:50:24.042Z</time></trkpt><trkpt lat="44.9959154" lon="9.2129017"><ele>179.0</ele><time>2026-04-18T08:50:26.049Z</time></trkpt><trkpt lat="44.9959834" lon="9.2128162"><ele>179.0</ele><time>2026-04-18T08:50:28.045Z</time></trkpt><trkpt lat="44.9960465" lon="9.2127987"><ele>179.0</ele><time>2026-04-18T08:50:29.05Z</time></trkpt><trkpt lat="44.9961502" lon="9.2127948"><ele>178.33333333333331</ele><time>2026-04-18T08:50:31.048Z</time></trkpt><trkpt lat="44.9962106" lon="9.2127683"><ele>177.66666666666666</ele><time>2026-04-18T08:50:32.05Z</time></trkpt><trkpt lat="44.9962752" lon="9.2127882"><ele>177.0</ele><time>2026-04-18T08:50:33.054Z</time></trkpt><trkpt lat="44.9963808" lon="9.2127698"><ele>176.33333333333334</ele><time>2026-04-18T08:50:35.054Z</time></trkpt><trkpt lat="44.9965146" lon="9.2127422"><ele>175.66666666666669</ele><time>2026-04-18T08:50:37.043Z</time></trkpt><trkpt lat="44.996585" lon="9.2127187"><ele>175.0</ele><time>2026-04-18T08:50:38.042Z</time></trkpt><trkpt lat="44.996657" lon="9.2126826"><ele>175.16666666666669</ele><time>2026-04-18T08:50:39.051Z</time></trkpt><trkpt lat="44.9967207" lon="9.212651"><ele>175.33333333333334</ele><time>2026-04-18T08:50:40.038Z</time></trkpt><trkpt lat="44.9967842" lon="9.2126183"><ele>175.5</ele><time>2026-04-18T08:50:41.046Z</time></trkpt><trkpt lat="44.9968941" lon="9.2125432"><ele>175.66666666666666</ele><time>2026-04-18T08:50:43.048Z</time></trkpt><trkpt lat="44.9969516" lon="9.2124965"><ele>175.83333333333331</ele><time>2026-04-18T08:50:44.041Z</time></trkpt><trkpt lat="44.9970168" lon="9.212445"><ele>176.0</ele><time>2026-04-18T08:50:45.05Z</time></trkpt><trkpt lat="44.9971121" lon="9.2123824"><ele>175.60000000000002</ele><time>2026-04-18T08:50:47.064Z</time></trkpt><trkpt lat="44.9972079" lon="9.212312"><ele>175.2</ele><time>2026-04-18T08:50:49.046Z</time></trkpt><trkpt lat="44.9972942" lon="9.2122567"><ele>174.8</ele><time>2026-04-18T08:50:51.126Z</time></trkpt><trkpt lat="44.9973809" lon="9.2122055"><ele>174.39999999999998</ele><time>2026-04-18T08:50:53.06Z</time></trkpt><trkpt lat="44.9974638" lon="9.2121488"><ele>174.0</ele><time>2026-04-18T08:50:55.045Z</time></trkpt><trkpt lat="44.9975676" lon="9.2120977"><ele>173.83333333333334</ele><time>2026-04-18T08:50:57.047Z</time></trkpt><trkpt lat="44.9976532" lon="9.2120467"><ele>173.66666666666666</ele><time>2026-04-18T08:50:59.046Z</time></trkpt><trkpt lat="44.9977158" lon="9.2120077"><ele>173.5</ele><time>2026-04-18T08:51:01.048Z</time></trkpt><trkpt lat="44.9977824" lon="9.2119583"><ele>173.33333333333331</ele><time>2026-04-18T08:51:03.048Z</time></trkpt><trkpt lat="44.9978539" lon="9.2119196"><ele>173.16666666666666</ele><time>2026-04-18T08:51:05.05Z</time></trkpt><trkpt lat="44.9979414" lon="9.211884"><ele>173.0</ele><time>2026-04-18T08:51:07.042Z</time></trkpt><trkpt lat="44.9980152" lon="9.211836"><ele>173.0</ele><time>2026-04-18T08:51:09.051Z</time></trkpt><trkpt lat="44.998115" lon="9.2117644"><ele>173.0</ele><time>2026-04-18T08:51:11.038Z</time></trkpt><trkpt lat="44.9981866" lon="9.2117015"><ele>173.0</ele><time>2026-04-18T08:51:13.06Z</time></trkpt><trkpt lat="44.9982696" lon="9.2116439"><ele>173.0</ele><time>2026-04-18T08:51:15.046Z</time></trkpt><trkpt lat="44.9983564" lon="9.2115978"><ele>173.0</ele><time>2026-04-18T08:51:17.041Z</time></trkpt><trkpt lat="44.9984334" lon="9.2115403"><ele>173.0</ele><time>2026-04-18T08:51:19.049Z</time></trkpt><trkpt lat="44.9985141" lon="9.2114923"><ele>173.0</ele><time>2026-04-18T08:51:21.04Z</time></trkpt><trkpt lat="44.9985939" lon="9.2114336"><ele>173.0</ele><time>2026-04-18T08:51:23.045Z</time></trkpt><trkpt lat="44.9986602" lon="9.2113906"><ele>173.0</ele><time>2026-04-18T08:51:25.047Z</time></trkpt><trkpt lat="44.9987205" lon="9.2113404"><ele>173.0</ele><time>2026-04-18T08:51:27.042Z</time></trkpt><trkpt lat="44.9987889" lon="9.2112958"><ele>173.0</ele><time>2026-04-18T08:51:29.046Z</time></trkpt><trkpt lat="44.9988844" lon="9.2112241"><ele>172.0</ele><time>2026-04-18T08:51:31.048Z</time></trkpt><trkpt lat="44.9989879" lon="9.2111515"><ele>171.0</ele><time>2026-04-18T08:51:33.049Z</time></trkpt><trkpt lat="44.999101" lon="9.2110963"><ele>170.0</ele><time>2026-04-18T08:51:35.06Z</time></trkpt><trkpt lat="44.999213" lon="9.2110387"><ele>169.0</ele><time>2026-04-18T08:51:37.044Z</time></trkpt><trkpt lat="44.9992728" lon="9.2110078"><ele>168.0</ele><time>2026-04-18T08:51:38.044Z</time></trkpt><trkpt lat="44.9993805" lon="9.2109291"><ele>167.60000000000002</ele><time>2026-04-18T08:51:40.048Z</time></trkpt><trkpt lat="44.9994844" lon="9.2108665"><ele>167.20000000000002</ele><time>2026-04-18T08:51:42.042Z</time></trkpt><trkpt lat="44.9995872" lon="9.2107939"><ele>166.8</ele><time>2026-04-18T08:51:44.044Z</time></trkpt><trkpt lat="44.9996742" lon="9.2107391"><ele>166.4</ele><time>2026-04-18T08:51:46.044Z</time></trkpt><trkpt lat="44.9997514" lon="9.2106918"><ele>166.0</ele><time>2026-04-18T08:51:48.036Z</time></trkpt><trkpt lat="44.9998217" lon="9.2106403"><ele>165.83333333333334</ele><time>2026-04-18T08:51:50.045Z</time></trkpt><trkpt lat="44.9998933" lon="9.210583"><ele>165.66666666666669</ele><time>2026-04-18T08:51:52.048Z</time></trkpt><trkpt lat="44.9999601" lon="9.2105557"><ele>165.5</ele><time>2026-04-18T08:51:54.047Z</time></trkpt><trkpt lat="45.0000301" lon="9.210513"><ele>165.33333333333334</ele><time>2026-04-18T08:51:56.042Z</time></trkpt><trkpt lat="45.00009" lon="9.2104677"><ele>165.16666666666666</ele><time>2026-04-18T08:51:58.045Z</time></trkpt><trkpt lat="45.0001684" lon="9.2104128"><ele>165.0</ele><time>2026-04-18T08:52:01.037Z</time></trkpt><trkpt lat="45.0002478" lon="9.2103647"><ele>165.0</ele><time>2026-04-18T08:52:04.047Z</time></trkpt><trkpt lat="45.0003201" lon="9.2103031"><ele>165.0</ele><time>2026-04-18T08:52:07.042Z</time></trkpt><trkpt lat="45.0004105" lon="9.2102494"><ele>165.0</ele><time>2026-04-18T08:52:10.049Z</time></trkpt><trkpt lat="45.0004741" lon="9.2102183"><ele>165.0</ele><time>2026-04-18T08:52:12.045Z</time></trkpt><trkpt lat="45.0005405" lon="9.2101712"><ele>165.0</ele><time>2026-04-18T08:52:14.046Z</time></trkpt><trkpt lat="45.0006132" lon="9.2101137"><ele>165.0</ele><time>2026-04-18T08:52:16.051Z</time></trkpt><trkpt lat="45.0006946" lon="9.2100728"><ele>165.0</ele><time>2026-04-18T08:52:18.056Z</time></trkpt><trkpt lat="45.0007772" lon="9.2100335"><ele>165.0</ele><time>2026-04-18T08:52:20.044Z</time></trkpt><trkpt lat="45.0008582" lon="9.209985"><ele>165.0</ele><time>2026-04-18T08:52:22.045Z</time></trkpt><trkpt lat="45.0009497" lon="9.2099579"><ele>165.0</ele><time>2026-04-18T08:52:24.044Z</time></trkpt><trkpt lat="45.0010454" lon="9.2099287"><ele>165.0</ele><time>2026-04-18T08:52:26.046Z</time></trkpt><trkpt lat="45.0011377" lon="9.2099035"><ele>164.8</ele><time>2026-04-18T08:52:28.049Z</time></trkpt><trkpt lat="45.0012282" lon="9.2098904"><ele>164.6</ele><time>2026-04-18T08:52:30.041Z</time></trkpt><trkpt lat="45.0013317" lon="9.2098857"><ele>164.39999999999998</ele><time>2026-04-18T08:52:32.04Z</time></trkpt><trkpt lat="45.0014401" lon="9.2098519"><ele>164.2</ele><time>2026-04-18T08:52:34.043Z</time></trkpt><trkpt lat="45.0015597" lon="9.2098429"><ele>164.0</ele><time>2026-04-18T08:52:36.043Z</time></trkpt><trkpt lat="45.0016253" lon="9.2098291"><ele>163.6</ele><time>2026-04-18T08:52:37.052Z</time></trkpt><trkpt lat="45.0017473" lon="9.2098068"><ele>163.2</ele><time>2026-04-18T08:52:39.046Z</time></trkpt><trkpt lat="45.0018594" lon="9.2097972"><ele>162.79999999999998</ele><time>2026-04-18T08:52:41.053Z</time></trkpt><trkpt lat="45.0019651" lon="9.2097801"><ele>162.39999999999998</ele><time>2026-04-18T08:52:43.043Z</time></trkpt><trkpt lat="45.0020642" lon="9.2097464"><ele>162.0</ele><time>2026-04-18T08:52:45.043Z</time></trkpt><trkpt lat="45.002151" lon="9.2097224"><ele>162.0</ele><time>2026-04-18T08:52:47.052Z</time></trkpt><trkpt lat="45.0022324" lon="9.2096958"><ele>162.0</ele><time>2026-04-18T08:52:49.057Z</time></trkpt><trkpt lat="45.0023" lon="9.2096695"><ele>162.0</ele><time>2026-04-18T08:52:51.044Z</time></trkpt><trkpt lat="45.002379" lon="9.2096396"><ele>162.0</ele><time>2026-04-18T08:52:53.11Z</time></trkpt><trkpt lat="45.0024588" lon="9.209603"><ele>162.0</ele><time>2026-04-18T08:52:55.048Z</time></trkpt><trkpt lat="45.0025332" lon="9.2095629"><ele>162.0</ele><time>2026-04-18T08:52:57.041Z</time></trkpt><trkpt lat="45.0026085" lon="9.2095213"><ele>161.66666666666666</ele><time>2026-04-18T08:52:59.043Z</time></trkpt><trkpt lat="45.0026892" lon="9.2094661"><ele>161.33333333333334</ele><time>2026-04-18T08:53:01.045Z</time></trkpt><trkpt lat="45.0027713" lon="9.2094054"><ele>161.0</ele><time>2026-04-18T08:53:03.044Z</time></trkpt><trkpt lat="45.0028512" lon="9.2093373"><ele>160.66666666666669</ele><time>2026-04-18T08:53:05.043Z</time></trkpt><trkpt lat="45.002915" lon="9.2092761"><ele>160.33333333333334</ele><time>2026-04-18T08:53:07.045Z</time></trkpt><trkpt lat="45.0029628" lon="9.2092053"><ele>160.0</ele><time>2026-04-18T08:53:09.045Z</time></trkpt><trkpt lat="45.003029" lon="9.2091373"><ele>160.0</ele><time>2026-04-18T08:53:11.05Z</time></trkpt><trkpt lat="45.003091" lon="9.2090561"><ele>160.0</ele><time>2026-04-18T08:53:13.046Z</time></trkpt><trkpt lat="45.0031512" lon="9.2089963"><ele>160.0</ele><time>2026-04-18T08:53:15.038Z</time></trkpt><trkpt lat="45.0032082" lon="9.2089412"><ele>160.0</ele><time>2026-04-18T08:53:17.039Z</time></trkpt><trkpt lat="45.0032814" lon="9.2088773"><ele>160.0</ele><time>2026-04-18T08:53:20.039Z</time></trkpt><trkpt lat="45.0033589" lon="9.2088681"><ele>160.0</ele><time>2026-04-18T08:53:23.046Z</time></trkpt><trkpt lat="45.0034157" lon="9.208959"><ele>160.57142857142856</ele><time>2026-04-18T08:53:26.042Z</time></trkpt><trkpt lat="45.0034198" lon="9.2090557"><ele>161.14285714285714</ele><time>2026-04-18T08:53:28.048Z</time></trkpt><trkpt lat="45.0034327" lon="9.2091439"><ele>161.71428571428572</ele><time>2026-04-18T08:53:30.043Z</time></trkpt><trkpt lat="45.0034418" lon="9.2092512"><ele>162.28571428571428</ele><time>2026-04-18T08:53:32.042Z</time></trkpt><trkpt lat="45.0034582" lon="9.2093434"><ele>162.85714285714286</ele><time>2026-04-18T08:53:34.038Z</time></trkpt><trkpt lat="45.0034776" lon="9.2094499"><ele>163.42857142857142</ele><time>2026-04-18T08:53:36.041Z</time></trkpt><trkpt lat="45.0035071" lon="9.2095646"><ele>164.0</ele><time>2026-04-18T08:53:38.046Z</time></trkpt><trkpt lat="45.003524" lon="9.2096789"><ele>164.0</ele><time>2026-04-18T08:53:40.048Z</time></trkpt><trkpt lat="45.0035423" lon="9.2097905"><ele>164.0</ele><time>2026-04-18T08:53:42.037Z</time></trkpt><trkpt lat="45.0035701" lon="9.209893"><ele>164.0</ele><time>2026-04-18T08:53:44.113Z</time></trkpt><trkpt lat="45.0035901" lon="9.2100119"><ele>164.0</ele><time>2026-04-18T08:53:46.05Z</time></trkpt><trkpt lat="45.0036083" lon="9.2101188"><ele>164.0</ele><time>2026-04-18T08:53:48.033Z</time></trkpt><trkpt lat="45.003634" lon="9.2102458"><ele>164.0</ele><time>2026-04-18T08:53:50.05Z</time></trkpt><trkpt lat="45.0036569" lon="9.2103692"><ele>164.5</ele><time>2026-04-18T08:53:52.05Z</time></trkpt><trkpt lat="45.0036722" lon="9.2104792"><ele>165.0</ele><time>2026-04-18T08:53:54.045Z</time></trkpt><trkpt lat="45.0036978" lon="9.210598"><ele>165.5</ele><time>2026-04-18T08:53:56.04Z</time></trkpt><trkpt lat="45.0037149" lon="9.2107253"><ele>166.0</ele><time>2026-04-18T08:53:58.044Z</time></trkpt><trkpt lat="45.003738" lon="9.2108378"><ele>166.5</ele><time>2026-04-18T08:54:00.043Z</time></trkpt><trkpt lat="45.0037583" lon="9.2109487"><ele>167.0</ele><time>2026-04-18T08:54:02.043Z</time></trkpt><trkpt lat="45.003783" lon="9.2110601"><ele>168.16666666666666</ele><time>2026-04-18T08:54:04.047Z</time></trkpt><trkpt lat="45.0038053" lon="9.2111746"><ele>169.33333333333331</ele><time>2026-04-18T08:54:06.049Z</time></trkpt><trkpt lat="45.0038229" lon="9.2112764"><ele>170.5</ele><time>2026-04-18T08:54:08.04Z</time></trkpt><trkpt lat="45.0038485" lon="9.2113856"><ele>171.66666666666666</ele><time>2026-04-18T08:54:10.115Z</time></trkpt><trkpt lat="45.0038684" lon="9.2115041"><ele>172.83333333333334</ele><time>2026-04-18T08:54:12.127Z</time></trkpt><trkpt lat="45.0038903" lon="9.2116139"><ele>174.0</ele><time>2026-04-18T08:54:14.047Z</time></trkpt><trkpt lat="45.0039119" lon="9.2117281"><ele>175.16666666666666</ele><time>2026-04-18T08:54:16.037Z</time></trkpt><trkpt lat="45.0039479" lon="9.2118262"><ele>176.33333333333334</ele><time>2026-04-18T08:54:19.048Z</time></trkpt><trkpt lat="45.0039784" lon="9.211939"><ele>177.5</ele><time>2026-04-18T08:54:23.045Z</time></trkpt><trkpt lat="45.004011" lon="9.2120585"><ele>178.66666666666669</ele><time>2026-04-18T08:54:26.045Z</time></trkpt><trkpt lat="45.0040492" lon="9.2121531"><ele>179.83333333333334</ele><time>2026-04-18T08:54:28.044Z</time></trkpt><trkpt lat="45.0040819" lon="9.2122408"><ele>181.0</ele><time>2026-04-18T08:54:30.06Z</time></trkpt><trkpt lat="45.0040888" lon="9.2123407"><ele>182.42857142857142</ele><time>2026-04-18T08:54:32.037Z</time></trkpt><trkpt lat="45.0040731" lon="9.2124355"><ele>183.85714285714283</ele><time>2026-04-18T08:54:34.048Z</time></trkpt><trkpt lat="45.0040312" lon="9.2125064"><ele>185.28571428571428</ele><time>2026-04-18T08:54:36.041Z</time></trkpt><trkpt lat="45.0039751" lon="9.2125489"><ele>186.71428571428572</ele><time>2026-04-18T08:54:38.046Z</time></trkpt><trkpt lat="45.003908" lon="9.2125589"><ele>188.14285714285714</ele><time>2026-04-18T08:54:40.044Z</time></trkpt><trkpt lat="45.0038348" lon="9.212549"><ele>189.57142857142858</ele><time>2026-04-18T08:54:42.039Z</time></trkpt><trkpt lat="45.0037701" lon="9.2125355"><ele>191.0</ele><time>2026-04-18T08:54:44.043Z</time></trkpt><trkpt lat="45.0037071" lon="9.2125147"><ele>191.0</ele><time>2026-04-18T08:54:46.045Z</time></trkpt><trkpt lat="45.0036436" lon="9.212508"><ele>191.0</ele><time>2026-04-18T08:54:48.04Z</time></trkpt><trkpt lat="45.0035762" lon="9.2125105"><ele>191.0</ele><time>2026-04-18T08:54:50.041Z</time></trkpt><trkpt lat="45.0035111" lon="9.2125063"><ele>191.0</ele><time>2026-04-18T08:54:52.048Z</time></trkpt><trkpt lat="45.003416" lon="9.2125021"><ele>191.0</ele><time>2026-04-18T08:54:55.048Z</time></trkpt><trkpt lat="45.0033514" lon="9.2124991"><ele>191.0</ele><time>2026-04-18T08:54:57.047Z</time></trkpt><trkpt lat="45.0032881" lon="9.2125011"><ele>191.0</ele><time>2026-04-18T08:54:59.045Z</time></trkpt><trkpt lat="45.0032225" lon="9.2125183"><ele>191.57142857142858</ele><time>2026-04-18T08:55:01.048Z</time></trkpt><trkpt lat="45.0031568" lon="9.2125194"><ele>192.14285714285714</ele><time>2026-04-18T08:55:03.047Z</time></trkpt><trkpt lat="45.003096" lon="9.2125492"><ele>192.71428571428572</ele><time>2026-04-18T08:55:06.046Z</time></trkpt><trkpt lat="45.0030779" lon="9.2126487"><ele>193.28571428571428</ele><time>2026-04-18T08:55:09.045Z</time></trkpt><trkpt lat="45.0030678" lon="9.21274"><ele>193.85714285714283</ele><time>2026-04-18T08:55:11.047Z</time></trkpt><trkpt lat="45.0030744" lon="9.2128757"><ele>194.42857142857142</ele><time>2026-04-18T08:55:14.053Z</time></trkpt><trkpt lat="45.0030799" lon="9.2129659"><ele>195.0</ele><time>2026-04-18T08:55:16.113Z</time></trkpt><trkpt lat="45.0030871" lon="9.2130567"><ele>195.0</ele><time>2026-04-18T08:55:18.051Z</time></trkpt><trkpt lat="45.0030844" lon="9.2131479"><ele>195.0</ele><time>2026-04-18T08:55:20.04Z</time></trkpt><trkpt lat="45.0030847" lon="9.2132383"><ele>195.0</ele><time>2026-04-18T08:55:22.041Z</time></trkpt><trkpt lat="45.0030871" lon="9.2133342"><ele>195.0</ele><time>2026-04-18T08:55:24.04Z</time></trkpt><trkpt lat="45.003093" lon="9.2134247"><ele>195.0</ele><time>2026-04-18T08:55:26.04Z</time></trkpt><trkpt lat="45.0030963" lon="9.2135195"><ele>195.0</ele><time>2026-04-18T08:55:28.054Z</time></trkpt><trkpt lat="45.0031028" lon="9.2136553"><ele>195.0</ele><time>2026-04-18T08:55:31.051Z</time></trkpt><trkpt lat="45.0031068" lon="9.2137928"><ele>195.71428571428572</ele><time>2026-04-18T08:55:34.041Z</time></trkpt><trkpt lat="45.0031142" lon="9.2138848"><ele>196.42857142857142</ele><time>2026-04-18T08:55:36.042Z</time></trkpt><trkpt lat="45.0031128" lon="9.2139777"><ele>197.14285714285717</ele><time>2026-04-18T08:55:38.047Z</time></trkpt><trkpt lat="45.0031207" lon="9.2140778"><ele>197.85714285714286</ele><time>2026-04-18T08:55:40.053Z</time></trkpt><trkpt lat="45.0031308" lon="9.2141842"><ele>198.57142857142858</ele><time>2026-04-18T08:55:42.041Z</time></trkpt><trkpt lat="45.0031378" lon="9.2142792"><ele>199.2857142857143</ele><time>2026-04-18T08:55:44.038Z</time></trkpt><trkpt lat="45.0031472" lon="9.2143733"><ele>200.0</ele><time>2026-04-18T08:55:46.044Z</time></trkpt><trkpt lat="45.0031529" lon="9.2145066"><ele>201.33333333333334</ele><time>2026-04-18T08:55:49.053Z</time></trkpt><trkpt lat="45.0031533" lon="9.2146031"><ele>202.66666666666669</ele><time>2026-04-18T08:55:51.039Z</time></trkpt><trkpt lat="45.0031577" lon="9.2147383"><ele>204.0</ele><time>2026-04-18T08:55:54.043Z</time></trkpt><trkpt lat="45.0031465" lon="9.2148274"><ele>205.33333333333331</ele><time>2026-04-18T08:55:56.052Z</time></trkpt><trkpt lat="45.003138" lon="9.2149173"><ele>206.66666666666666</ele><time>2026-04-18T08:55:58.043Z</time></trkpt><trkpt lat="45.0031163" lon="9.2150421"><ele>208.0</ele><time>2026-04-18T08:56:01.044Z</time></trkpt><trkpt lat="45.0030887" lon="9.2151592"><ele>209.16666666666666</ele><time>2026-04-18T08:56:04.044Z</time></trkpt><trkpt lat="45.0030635" lon="9.2152815"><ele>210.33333333333331</ele><time>2026-04-18T08:56:07.05Z</time></trkpt><trkpt lat="45.0030332" lon="9.215405"><ele>211.5</ele><time>2026-04-18T08:56:10.038Z</time></trkpt><trkpt lat="45.0030063" lon="9.2154886"><ele>212.66666666666669</ele><time>2026-04-18T08:56:12.047Z</time></trkpt><trkpt lat="45.0029912" lon="9.2155759"><ele>213.83333333333334</ele><time>2026-04-18T08:56:14.038Z</time></trkpt><trkpt lat="45.0029746" lon="9.215662"><ele>215.0</ele><time>2026-04-18T08:56:16.04Z</time></trkpt><trkpt lat="45.0029477" lon="9.2157832"><ele>216.28571428571428</ele><time>2026-04-18T08:56:19.049Z</time></trkpt><trkpt lat="45.0029382" lon="9.2158747"><ele>217.57142857142858</ele><time>2026-04-18T08:56:21.042Z</time></trkpt><trkpt lat="45.0029189" lon="9.2160031"><ele>218.85714285714286</ele><time>2026-04-18T08:56:24.038Z</time></trkpt><trkpt lat="45.0029086" lon="9.2160936"><ele>220.14285714285714</ele><time>2026-04-18T08:56:26.041Z</time></trkpt><trkpt lat="45.0029027" lon="9.2161868"><ele>221.42857142857144</ele><time>2026-04-18T08:56:28.045Z</time></trkpt><trkpt lat="45.00289" lon="9.2162782"><ele>222.71428571428572</ele><time>2026-04-18T08:56:30.067Z</time></trkpt><trkpt lat="45.0028775" lon="9.2163688"><ele>224.0</ele><time>2026-04-18T08:56:32.051Z</time></trkpt><trkpt lat="45.0028685" lon="9.216464"><ele>225.71428571428572</ele><time>2026-04-18T08:56:34.133Z</time></trkpt><trkpt lat="45.0028568" lon="9.2165566"><ele>227.42857142857144</ele><time>2026-04-18T08:56:36.064Z</time></trkpt><trkpt lat="45.0028314" lon="9.2166796"><ele>229.14285714285714</ele><time>2026-04-18T08:56:39.067Z</time></trkpt><trkpt lat="45.0028043" lon="9.21676"><ele>230.85714285714286</ele><time>2026-04-18T08:56:41.046Z</time></trkpt><trkpt lat="45.0027834" lon="9.2168451"><ele>232.57142857142858</ele><time>2026-04-18T08:56:43.05Z</time></trkpt><trkpt lat="45.0027462" lon="9.216953"><ele>234.28571428571428</ele><time>2026-04-18T08:56:46.045Z</time></trkpt><trkpt lat="45.0027123" lon="9.2170307"><ele>236.0</ele><time>2026-04-18T08:56:48.04Z</time></trkpt><trkpt lat="45.0026645" lon="9.2171201"><ele>236.00000000000003</ele><time>2026-04-18T08:56:51.048Z</time></trkpt><trkpt lat="45.0026178" lon="9.2171833"><ele>236.0</ele><time>2026-04-18T08:56:53.046Z</time></trkpt><trkpt lat="45.0025691" lon="9.2172463"><ele>236.0</ele><time>2026-04-18T08:56:55.038Z</time></trkpt><trkpt lat="45.0024937" lon="9.2173261"><ele>236.0</ele><time>2026-04-18T08:56:58.112Z</time></trkpt><trkpt lat="45.0024318" lon="9.2173784"><ele>236.00000000000003</ele><time>2026-04-18T08:57:00.048Z</time></trkpt><trkpt lat="45.0023739" lon="9.2174195"><ele>236.0</ele><time>2026-04-18T08:57:02.043Z</time></trkpt><trkpt lat="45.0022963" lon="9.2174985"><ele>237.66666666666669</ele><time>2026-04-18T08:57:05.043Z</time></trkpt><trkpt lat="45.0022586" lon="9.2175748"><ele>239.33333333333334</ele><time>2026-04-18T08:57:07.045Z</time></trkpt><trkpt lat="45.0022214" lon="9.2176577"><ele>241.0</ele><time>2026-04-18T08:57:09.047Z</time></trkpt><trkpt lat="45.0021903" lon="9.2177372"><ele>242.66666666666669</ele><time>2026-04-18T08:57:11.054Z</time></trkpt><trkpt lat="45.0021564" lon="9.2178633"><ele>244.33333333333334</ele><time>2026-04-18T08:57:14.042Z</time></trkpt><trkpt lat="45.0021334" lon="9.2179871"><ele>246.0</ele><time>2026-04-18T08:57:17.043Z</time></trkpt><trkpt lat="45.0021215" lon="9.2180776"><ele>247.5714285714286</ele><time>2026-04-18T08:57:19.051Z</time></trkpt><trkpt lat="45.0021152" lon="9.2181664"><ele>249.14285714285717</ele><time>2026-04-18T08:57:21.051Z</time></trkpt><trkpt lat="45.002112" lon="9.2182559"><ele>250.71428571428572</ele><time>2026-04-18T08:57:23.119Z</time></trkpt><trkpt lat="45.0021112" lon="9.2183537"><ele>252.2857142857143</ele><time>2026-04-18T08:57:25.047Z</time></trkpt><trkpt lat="45.0021173" lon="9.2184448"><ele>253.8571428571429</ele><time>2026-04-18T08:57:27.044Z</time></trkpt><trkpt lat="45.0021241" lon="9.2185395"><ele>255.42857142857142</ele><time>2026-04-18T08:57:29.058Z</time></trkpt><trkpt lat="45.0021319" lon="9.2186719"><ele>257.0</ele><time>2026-04-18T08:57:32.046Z</time></trkpt><trkpt lat="45.0021332" lon="9.2187657"><ele>257.0</ele><time>2026-04-18T08:57:34.045Z</time></trkpt><trkpt lat="45.0021369" lon="9.2188621"><ele>257.0</ele><time>2026-04-18T08:57:36.049Z</time></trkpt><trkpt lat="45.002125" lon="9.2189525"><ele>257.0</ele><time>2026-04-18T08:57:38.038Z</time></trkpt><trkpt lat="45.0021089" lon="9.2190704"><ele>257.0</ele><time>2026-04-18T08:57:41.045Z</time></trkpt><trkpt lat="45.0020717" lon="9.2191839"><ele>257.0</ele><time>2026-04-18T08:57:44.041Z</time></trkpt><trkpt lat="45.0020262" lon="9.2192811"><ele>257.0</ele><time>2026-04-18T08:57:47.047Z</time></trkpt><trkpt lat="45.0019772" lon="9.2193501"><ele>258.33333333333337</ele><time>2026-04-18T08:57:50.109Z</time></trkpt><trkpt lat="45.0018988" lon="9.2193759"><ele>259.6666666666667</ele><time>2026-04-18T08:57:54.045Z</time></trkpt><trkpt lat="45.0018258" lon="9.2193835"><ele>261.0</ele><time>2026-04-18T08:57:59.039Z</time></trkpt><trkpt lat="45.0017615" lon="9.2194762"><ele>262.3333333333333</ele><time>2026-04-18T08:58:02.038Z</time></trkpt><trkpt lat="45.0016978" lon="9.2195291"><ele>263.66666666666663</ele><time>2026-04-18T08:58:04.042Z</time></trkpt><trkpt lat="45.0016426" lon="9.2195769"><ele>265.0</ele><time>2026-04-18T08:58:06.043Z</time></trkpt><trkpt lat="45.0015618" lon="9.2196079"><ele>265.0</ele><time>2026-04-18T08:58:09.043Z</time></trkpt><trkpt lat="45.0014841" lon="9.2196118"><ele>265.0</ele><time>2026-04-18T08:58:12.04Z</time></trkpt><trkpt lat="45.0014126" lon="9.2196066"><ele>265.0</ele><time>2026-04-18T08:58:15.113Z</time></trkpt><trkpt lat="45.0013407" lon="9.2196017"><ele>265.0</ele><time>2026-04-18T08:58:18.045Z</time></trkpt><trkpt lat="45.0012489" lon="9.2196086"><ele>265.0</ele><time>2026-04-18T08:58:21.047Z</time></trkpt><trkpt lat="45.0011653" lon="9.2196285"><ele>265.0</ele><time>2026-04-18T08:58:24.055Z</time></trkpt><trkpt lat="45.0011025" lon="9.2196536"><ele>265.0</ele><time>2026-04-18T08:58:27.038Z</time></trkpt><trkpt lat="45.0010418" lon="9.219698"><ele>265.0</ele><time>2026-04-18T08:58:30.046Z</time></trkpt><trkpt lat="45.0009982" lon="9.2197962"><ele>265.0</ele><time>2026-04-18T08:58:33.041Z</time></trkpt><trkpt lat="45.0009679" lon="9.219902"><ele>265.0</ele><time>2026-04-18T08:58:36.049Z</time></trkpt><trkpt lat="45.0009424" lon="9.2200077"><ele>265.0</ele><time>2026-04-18T08:58:39.052Z</time></trkpt><trkpt lat="45.0009207" lon="9.2201285"><ele>265.0</ele><time>2026-04-18T08:58:42.046Z</time></trkpt><trkpt lat="45.000895" lon="9.2202531"><ele>266.3333333333333</ele><time>2026-04-18T08:58:45.044Z</time></trkpt><trkpt lat="45.0008846" lon="9.2203642"><ele>267.66666666666663</ele><time>2026-04-18T08:58:48.043Z</time></trkpt><trkpt lat="45.0008768" lon="9.2204734"><ele>269.0</ele><time>2026-04-18T08:58:51.048Z</time></trkpt><trkpt lat="45.0008779" lon="9.2205797"><ele>270.3333333333333</ele><time>2026-04-18T08:58:54.036Z</time></trkpt><trkpt lat="45.000898" lon="9.2206974"><ele>271.6666666666667</ele><time>2026-04-18T08:58:57.05Z</time></trkpt><trkpt lat="45.0009329" lon="9.2207934"><ele>273.0</ele><time>2026-04-18T08:59:00.043Z</time></trkpt><trkpt lat="45.0009748" lon="9.2208774"><ele>275.0</ele><time>2026-04-18T08:59:03.041Z</time></trkpt><trkpt lat="45.0010239" lon="9.2209575"><ele>277.0</ele><time>2026-04-18T08:59:06.041Z</time></trkpt><trkpt lat="45.0010796" lon="9.2210377"><ele>279.0</ele><time>2026-04-18T08:59:09.035Z</time></trkpt><trkpt lat="45.0011225" lon="9.2211266"><ele>281.0</ele><time>2026-04-18T08:59:12.039Z</time></trkpt><trkpt lat="45.0011652" lon="9.2212097"><ele>283.0</ele><time>2026-04-18T08:59:15.041Z</time></trkpt><trkpt lat="45.0011898" lon="9.2213046"><ele>285.0</ele><time>2026-04-18T08:59:18.039Z</time></trkpt><trkpt lat="45.0012271" lon="9.2214043"><ele>285.0</ele><time>2026-04-18T08:59:21.043Z</time></trkpt><trkpt lat="45.00128" lon="9.2214704"><ele>285.0</ele><time>2026-04-18T08:59:24.047Z</time></trkpt><trkpt lat="45.0013576" lon="9.2215359"><ele>285.0</ele><time>2026-04-18T08:59:27.045Z</time></trkpt><trkpt lat="45.0014253" lon="9.2216008"><ele>285.0</ele><time>2026-04-18T08:59:30.046Z</time></trkpt><trkpt lat="45.0014877" lon="9.2216628"><ele>285.0</ele><time>2026-04-18T08:59:33.045Z</time></trkpt><trkpt lat="45.0015397" lon="9.2217441"><ele>285.0</ele><time>2026-04-18T08:59:36.039Z</time></trkpt><trkpt lat="45.001579" lon="9.2218319"><ele>286.0</ele><time>2026-04-18T08:59:39.037Z</time></trkpt><trkpt lat="45.0016151" lon="9.2219368"><ele>287.0</ele><time>2026-04-18T08:59:42.045Z</time></trkpt><trkpt lat="45.001644" lon="9.2220376"><ele>288.0</ele><time>2026-04-18T08:59:45.044Z</time></trkpt><trkpt lat="45.0016683" lon="9.2221445"><ele>289.0</ele><time>2026-04-18T08:59:48.043Z</time></trkpt><trkpt lat="45.0016898" lon="9.2222315"><ele>290.0</ele><time>2026-04-18T08:59:51.04Z</time></trkpt><trkpt lat="45.0017156" lon="9.2223299"><ele>291.0</ele><time>2026-04-18T08:59:54.05Z</time></trkpt><trkpt lat="45.0017551" lon="9.2224415"><ele>292.5</ele><time>2026-04-18T08:59:57.061Z</time></trkpt><trkpt lat="45.0017983" lon="9.2225636"><ele>294.0</ele><time>2026-04-18T09:00:00.038Z</time></trkpt><trkpt lat="45.0018361" lon="9.2226839"><ele>295.5</ele><time>2026-04-18T09:00:03.053Z</time></trkpt><trkpt lat="45.0018644" lon="9.2227652"><ele>297.0</ele><time>2026-04-18T09:00:05.039Z</time></trkpt><trkpt lat="45.0018964" lon="9.222879"><ele>298.5</ele><time>2026-04-18T09:00:08.045Z</time></trkpt><trkpt lat="45.0019258" lon="9.2229826"><ele>300.0</ele><time>2026-04-18T09:00:11.037Z</time></trkpt><trkpt lat="45.0019439" lon="9.2231027"><ele>301.0</ele><time>2026-04-18T09:00:14.039Z</time></trkpt><trkpt lat="45.001965" lon="9.2232133"><ele>302.0</ele><time>2026-04-18T09:00:17.043Z</time></trkpt><trkpt lat="45.0019914" lon="9.22331"><ele>303.0</ele><time>2026-04-18T09:00:20.042Z</time></trkpt><trkpt lat="45.0020352" lon="9.2234038"><ele>304.0</ele><time>2026-04-18T09:00:23.044Z</time></trkpt><trkpt lat="45.0020679" lon="9.2235059"><ele>305.0</ele><time>2026-04-18T09:00:26.044Z</time></trkpt><trkpt lat="45.0020876" lon="9.2236001"><ele>306.0</ele><time>2026-04-18T09:00:29.055Z</time></trkpt><trkpt lat="45.0021" lon="9.2237161"><ele>306.0</ele><time>2026-04-18T09:00:32.042Z</time></trkpt><trkpt lat="45.0021004" lon="9.2238258"><ele>306.0</ele><time>2026-04-18T09:00:35.044Z</time></trkpt><trkpt lat="45.0020793" lon="9.2239435"><ele>306.0</ele><time>2026-04-18T09:00:38.049Z</time></trkpt><trkpt lat="45.0020666" lon="9.2240578"><ele>306.0</ele><time>2026-04-18T09:00:41.049Z</time></trkpt><trkpt lat="45.0020599" lon="9.2241616"><ele>306.0</ele><time>2026-04-18T09:00:44.037Z</time></trkpt><trkpt lat="45.0020407" lon="9.2242681"><ele>306.0</ele><time>2026-04-18T09:00:47.039Z</time></trkpt><trkpt lat="45.0020148" lon="9.2243895"><ele>306.8333333333333</ele><time>2026-04-18T09:00:50.044Z</time></trkpt><trkpt lat="45.0019866" lon="9.2245014"><ele>307.6666666666667</ele><time>2026-04-18T09:00:53.036Z</time></trkpt><trkpt lat="45.0019676" lon="9.2246167"><ele>308.5</ele><time>2026-04-18T09:00:56.048Z</time></trkpt><trkpt lat="45.0019701" lon="9.2247071"><ele>309.33333333333337</ele><time>2026-04-18T09:00:58.042Z</time></trkpt><trkpt lat="45.0019818" lon="9.2247997"><ele>310.1666666666667</ele><time>2026-04-18T09:01:00.039Z</time></trkpt><trkpt lat="45.0019963" lon="9.2248928"><ele>311.0</ele><time>2026-04-18T09:01:02.045Z</time></trkpt><trkpt lat="45.002023" lon="9.2250097"><ele>311.57142857142856</ele><time>2026-04-18T09:01:05.039Z</time></trkpt><trkpt lat="45.0020348" lon="9.2251007"><ele>312.14285714285717</ele><time>2026-04-18T09:01:07.045Z</time></trkpt><trkpt lat="45.0020493" lon="9.225197"><ele>312.7142857142857</ele><time>2026-04-18T09:01:09.046Z</time></trkpt><trkpt lat="45.0020547" lon="9.2253274"><ele>313.2857142857143</ele><time>2026-04-18T09:01:12.047Z</time></trkpt><trkpt lat="45.0020535" lon="9.2254208"><ele>313.8571428571429</ele><time>2026-04-18T09:01:14.038Z</time></trkpt><trkpt lat="45.0020508" lon="9.225513"><ele>314.42857142857144</ele><time>2026-04-18T09:01:16.046Z</time></trkpt><trkpt lat="45.0020506" lon="9.2256074"><ele>315.0</ele><time>2026-04-18T09:01:18.112Z</time></trkpt><trkpt lat="45.0020482" lon="9.2257125"><ele>315.42857142857144</ele><time>2026-04-18T09:01:20.045Z</time></trkpt><trkpt lat="45.0020558" lon="9.2258142"><ele>315.8571428571429</ele><time>2026-04-18T09:01:22.039Z</time></trkpt><trkpt lat="45.0020524" lon="9.2259502"><ele>316.2857142857143</ele><time>2026-04-18T09:01:25.048Z</time></trkpt><trkpt lat="45.0020501" lon="9.2260497"><ele>316.7142857142857</ele><time>2026-04-18T09:01:27.044Z</time></trkpt><trkpt lat="45.0020535" lon="9.2261495"><ele>317.14285714285717</ele><time>2026-04-18T09:01:29.05Z</time></trkpt><trkpt lat="45.0020521" lon="9.2262438"><ele>317.57142857142856</ele><time>2026-04-18T09:01:31.122Z</time></trkpt><trkpt lat="45.0020477" lon="9.2263333"><ele>318.0</ele><time>2026-04-18T09:01:33.052Z</time></trkpt><trkpt lat="45.0020601" lon="9.2264698"><ele>318.7142857142857</ele><time>2026-04-18T09:01:36.039Z</time></trkpt><trkpt lat="45.0020689" lon="9.2265634"><ele>319.42857142857144</ele><time>2026-04-18T09:01:38.043Z</time></trkpt><trkpt lat="45.0020723" lon="9.2266577"><ele>320.14285714285717</ele><time>2026-04-18T09:01:40.042Z</time></trkpt><trkpt lat="45.0020696" lon="9.2267657"><ele>320.8571428571429</ele><time>2026-04-18T09:01:42.042Z</time></trkpt><trkpt lat="45.0020677" lon="9.2268656"><ele>321.57142857142856</ele><time>2026-04-18T09:01:44.043Z</time></trkpt><trkpt lat="45.0020689" lon="9.2269625"><ele>322.28571428571433</ele><time>2026-04-18T09:01:46.031Z</time></trkpt><trkpt lat="45.0021027" lon="9.2270874"><ele>323.0</ele><time>2026-04-18T09:01:49.038Z</time></trkpt><trkpt lat="45.0021387" lon="9.2271684"><ele>323.00000000000006</ele><time>2026-04-18T09:01:51.038Z</time></trkpt><trkpt lat="45.0021775" lon="9.2272472"><ele>323.0</ele><time>2026-04-18T09:01:53.044Z</time></trkpt><trkpt lat="45.0022185" lon="9.2273276"><ele>323.0</ele><time>2026-04-18T09:01:55.047Z</time></trkpt><trkpt lat="45.0022548" lon="9.2274145"><ele>323.0</ele><time>2026-04-18T09:01:57.042Z</time></trkpt><trkpt lat="45.0022904" lon="9.2274991"><ele>323.0</ele><time>2026-04-18T09:01:59.041Z</time></trkpt><trkpt lat="45.0023265" lon="9.2275874"><ele>323.00000000000006</ele><time>2026-04-18T09:02:01.045Z</time></trkpt><trkpt lat="45.0023591" lon="9.2276759"><ele>323.0</ele><time>2026-04-18T09:02:03.042Z</time></trkpt><trkpt lat="45.0023872" lon="9.2277617"><ele>323.5714285714286</ele><time>2026-04-18T09:02:05.042Z</time></trkpt><trkpt lat="45.0024237" lon="9.2278436"><ele>324.14285714285717</ele><time>2026-04-18T09:02:07.032Z</time></trkpt><trkpt lat="45.0024551" lon="9.2279303"><ele>324.7142857142857</ele><time>2026-04-18T09:02:09.049Z</time></trkpt><trkpt lat="45.0024836" lon="9.2280134"><ele>325.28571428571433</ele><time>2026-04-18T09:02:11.044Z</time></trkpt><trkpt lat="45.0025253" lon="9.2280887"><ele>325.8571428571429</ele><time>2026-04-18T09:02:13.044Z</time></trkpt><trkpt lat="45.0025628" lon="9.2281721"><ele>326.42857142857144</ele><time>2026-04-18T09:02:15.056Z</time></trkpt><trkpt lat="45.0025962" lon="9.2282532"><ele>327.0</ele><time>2026-04-18T09:02:17.045Z</time></trkpt><trkpt lat="45.0026343" lon="9.2283298"><ele>328.1428571428571</ele><time>2026-04-18T09:02:19.035Z</time></trkpt><trkpt lat="45.0026697" lon="9.2284062"><ele>329.2857142857143</ele><time>2026-04-18T09:02:21.113Z</time></trkpt><trkpt lat="45.0027058" lon="9.2284829"><ele>330.42857142857144</ele><time>2026-04-18T09:02:23.11Z</time></trkpt><trkpt lat="45.0027481" lon="9.2285741"><ele>331.57142857142856</ele><time>2026-04-18T09:02:25.051Z</time></trkpt><trkpt lat="45.0027819" lon="9.228661"><ele>332.7142857142857</ele><time>2026-04-18T09:02:27.038Z</time></trkpt><trkpt lat="45.0028167" lon="9.228745"><ele>333.85714285714283</ele><time>2026-04-18T09:02:29.045Z</time></trkpt><trkpt lat="45.0028522" lon="9.2288349"><ele>335.0</ele><time>2026-04-18T09:02:31.037Z</time></trkpt><trkpt lat="45.0028862" lon="9.2289232"><ele>336.33333333333337</ele><time>2026-04-18T09:02:33.036Z</time></trkpt><trkpt lat="45.0029044" lon="9.2290277"><ele>337.6666666666667</ele><time>2026-04-18T09:02:36.042Z</time></trkpt><trkpt lat="45.00284" lon="9.2290977"><ele>339.0</ele><time>2026-04-18T09:02:39.036Z</time></trkpt><trkpt lat="45.0027497" lon="9.2291062"><ele>340.3333333333333</ele><time>2026-04-18T09:02:42.039Z</time></trkpt><trkpt lat="45.0026704" lon="9.2291217"><ele>341.66666666666663</ele><time>2026-04-18T09:02:44.04Z</time></trkpt><trkpt lat="45.0025931" lon="9.2291237"><ele>343.0</ele><time>2026-04-18T09:02:46.047Z</time></trkpt><trkpt lat="45.0025118" lon="9.2291352"><ele>343.5</ele><time>2026-04-18T09:02:48.039Z</time></trkpt><trkpt lat="45.0024317" lon="9.2291545"><ele>344.0</ele><time>2026-04-18T09:02:50.04Z</time></trkpt><trkpt lat="45.0023532" lon="9.2291723"><ele>344.5</ele><time>2026-04-18T09:02:52.038Z</time></trkpt><trkpt lat="45.0022724" lon="9.229192"><ele>345.0</ele><time>2026-04-18T09:02:54.053Z</time></trkpt><trkpt lat="45.0021891" lon="9.2292065"><ele>345.5</ele><time>2026-04-18T09:02:56.041Z</time></trkpt><trkpt lat="45.002109" lon="9.2292209"><ele>346.0</ele><time>2026-04-18T09:02:58.047Z</time></trkpt><trkpt lat="45.0020192" lon="9.229248"><ele>346.0</ele><time>2026-04-18T09:03:00.039Z</time></trkpt><trkpt lat="45.0019308" lon="9.2292538"><ele>346.0</ele><time>2026-04-18T09:03:02.113Z</time></trkpt><trkpt lat="45.0018431" lon="9.2292439"><ele>346.0</ele><time>2026-04-18T09:03:04.049Z</time></trkpt><trkpt lat="45.0017267" lon="9.2292307"><ele>346.0</ele><time>2026-04-18T09:03:07.036Z</time></trkpt><trkpt lat="45.0016482" lon="9.2292044"><ele>346.0</ele><time>2026-04-18T09:03:09.038Z</time></trkpt><trkpt lat="45.0015644" lon="9.2291907"><ele>345.16666666666663</ele><time>2026-04-18T09:03:11.042Z</time></trkpt><trkpt lat="45.0014888" lon="9.2292019"><ele>344.3333333333333</ele><time>2026-04-18T09:03:13.048Z</time></trkpt><trkpt lat="45.0014119" lon="9.229219"><ele>343.5</ele><time>2026-04-18T09:03:15.048Z</time></trkpt><trkpt lat="45.0013335" lon="9.2292679"><ele>342.6666666666667</ele><time>2026-04-18T09:03:17.042Z</time></trkpt><trkpt lat="45.0012673" lon="9.2293324"><ele>341.83333333333337</ele><time>2026-04-18T09:03:19.037Z</time></trkpt><trkpt lat="45.0011984" lon="9.2294072"><ele>341.0</ele><time>2026-04-18T09:03:21.04Z</time></trkpt><trkpt lat="45.0011312" lon="9.2295049"><ele>341.0</ele><time>2026-04-18T09:03:23.039Z</time></trkpt><trkpt lat="45.0010593" lon="9.2296162"><ele>341.0</ele><time>2026-04-18T09:03:25.049Z</time></trkpt><trkpt lat="45.0010179" lon="9.2296861"><ele>341.0</ele><time>2026-04-18T09:03:26.041Z</time></trkpt><trkpt lat="45.0009774" lon="9.2297556"><ele>341.0</ele><time>2026-04-18T09:03:27.039Z</time></trkpt><trkpt lat="45.0009324" lon="9.229825"><ele>341.0</ele><time>2026-04-18T09:03:28.046Z</time></trkpt><trkpt lat="45.0008849" lon="9.22989"><ele>341.0</ele><time>2026-04-18T09:03:29.048Z</time></trkpt><trkpt lat="45.0008346" lon="9.229957"><ele>341.0</ele><time>2026-04-18T09:03:30.041Z</time></trkpt><trkpt lat="45.000782" lon="9.2300072"><ele>340.83333333333337</ele><time>2026-04-18T09:03:31.041Z</time></trkpt><trkpt lat="45.0007272" lon="9.2300609"><ele>340.6666666666667</ele><time>2026-04-18T09:03:32.035Z</time></trkpt><trkpt lat="45.0006694" lon="9.2300975"><ele>340.5</ele><time>2026-04-18T09:03:33.054Z</time></trkpt><trkpt lat="45.0005677" lon="9.23017"><ele>340.3333333333333</ele><time>2026-04-18T09:03:35.041Z</time></trkpt><trkpt lat="45.0004823" lon="9.2302421"><ele>340.16666666666663</ele><time>2026-04-18T09:03:37.038Z</time></trkpt><trkpt lat="45.0004077" lon="9.2303215"><ele>340.0</ele><time>2026-04-18T09:03:39.121Z</time></trkpt><trkpt lat="45.0003372" lon="9.2303892"><ele>340.0</ele><time>2026-04-18T09:03:41.105Z</time></trkpt><trkpt lat="45.0002679" lon="9.2304425"><ele>340.0</ele><time>2026-04-18T09:03:43.041Z</time></trkpt><trkpt lat="45.0001739" lon="9.2305021"><ele>340.0</ele><time>2026-04-18T09:03:45.037Z</time></trkpt><trkpt lat="45.0000896" lon="9.2305802"><ele>340.0</ele><time>2026-04-18T09:03:47.038Z</time></trkpt><trkpt lat="45.0000064" lon="9.230646"><ele>340.0</ele><time>2026-04-18T09:03:49.045Z</time></trkpt><trkpt lat="44.9999197" lon="9.2307017"><ele>340.4</ele><time>2026-04-18T09:03:51.046Z</time></trkpt><trkpt lat="44.9998335" lon="9.230756"><ele>340.8</ele><time>2026-04-18T09:03:53.047Z</time></trkpt><trkpt lat="44.9997439" lon="9.2308227"><ele>341.20000000000005</ele><time>2026-04-18T09:03:55.042Z</time></trkpt><trkpt lat="44.9996608" lon="9.230894"><ele>341.6</ele><time>2026-04-18T09:03:57.036Z</time></trkpt><trkpt lat="44.999584" lon="9.2309605"><ele>342.0</ele><time>2026-04-18T09:03:59.046Z</time></trkpt><trkpt lat="44.9995109" lon="9.231022"><ele>342.0</ele><time>2026-04-18T09:04:01.05Z</time></trkpt><trkpt lat="44.9994326" lon="9.2310875"><ele>342.0</ele><time>2026-04-18T09:04:03.041Z</time></trkpt><trkpt lat="44.9993303" lon="9.2311401"><ele>342.0</ele><time>2026-04-18T09:04:05.034Z</time></trkpt><trkpt lat="44.9992353" lon="9.2311991"><ele>342.0</ele><time>2026-04-18T09:04:07.034Z</time></trkpt><trkpt lat="44.9991396" lon="9.2312359"><ele>342.0</ele><time>2026-04-18T09:04:09.046Z</time></trkpt><trkpt lat="44.9990404" lon="9.231279"><ele>342.20000000000005</ele><time>2026-04-18T09:04:11.045Z</time></trkpt><trkpt lat="44.9989416" lon="9.2313362"><ele>342.4</ele><time>2026-04-18T09:04:13.044Z</time></trkpt><trkpt lat="44.9988447" lon="9.2314076"><ele>342.6</ele><time>2026-04-18T09:04:15.041Z</time></trkpt><trkpt lat="44.9987464" lon="9.2314871"><ele>342.79999999999995</ele><time>2026-04-18T09:04:17.045Z</time></trkpt><trkpt lat="44.9986403" lon="9.2315612"><ele>343.0</ele><time>2026-04-18T09:04:19.1Z</time></trkpt><trkpt lat="44.9985824" lon="9.2316108"><ele>343.2</ele><time>2026-04-18T09:04:20.041Z</time></trkpt><trkpt lat="44.9985248" lon="9.2316558"><ele>343.4</ele><time>2026-04-18T09:04:21.126Z</time></trkpt><trkpt lat="44.9984674" lon="9.2317006"><ele>343.59999999999997</ele><time>2026-04-18T09:04:22.042Z</time></trkpt><trkpt lat="44.9983655" lon="9.2317905"><ele>343.79999999999995</ele><time>2026-04-18T09:04:24.041Z</time></trkpt><trkpt lat="44.9982598" lon="9.2318734"><ele>344.0</ele><time>2026-04-18T09:04:26.038Z</time></trkpt><trkpt lat="44.9981593" lon="9.2319462"><ele>344.2</ele><time>2026-04-18T09:04:28.037Z</time></trkpt><trkpt lat="44.9980536" lon="9.2320223"><ele>344.4</ele><time>2026-04-18T09:04:30.036Z</time></trkpt><trkpt lat="44.9979948" lon="9.2320635"><ele>344.6</ele><time>2026-04-18T09:04:31.046Z</time></trkpt><trkpt lat="44.9979375" lon="9.2321097"><ele>344.8</ele><time>2026-04-18T09:04:32.033Z</time></trkpt><trkpt lat="44.9978272" lon="9.232168"><ele>345.0</ele><time>2026-04-18T09:04:34.033Z</time></trkpt><trkpt lat="44.997717" lon="9.2322174"><ele>345.0</ele><time>2026-04-18T09:04:36.042Z</time></trkpt><trkpt lat="44.9976011" lon="9.2322494"><ele>345.0</ele><time>2026-04-18T09:04:38.044Z</time></trkpt><trkpt lat="44.9974943" lon="9.2322564"><ele>345.0</ele><time>2026-04-18T09:04:40.039Z</time></trkpt><trkpt lat="44.9973794" lon="9.232256"><ele>345.0</ele><time>2026-04-18T09:04:42.037Z</time></trkpt><trkpt lat="44.9972751" lon="9.2322608"><ele>345.0</ele><time>2026-04-18T09:04:44.04Z</time></trkpt><trkpt lat="44.9971807" lon="9.2322684"><ele>345.1666666666667</ele><time>2026-04-18T09:04:46.037Z</time></trkpt><trkpt lat="44.9971047" lon="9.232286"><ele>345.3333333333333</ele><time>2026-04-18T09:04:48.034Z</time></trkpt><trkpt lat="44.9970199" lon="9.2323185"><ele>345.5</ele><time>2026-04-18T09:04:50.034Z</time></trkpt><trkpt lat="44.9969494" lon="9.232355"><ele>345.66666666666663</ele><time>2026-04-18T09:04:52.038Z</time></trkpt><trkpt lat="44.9968791" lon="9.2324032"><ele>345.8333333333333</ele><time>2026-04-18T09:04:54.04Z</time></trkpt><trkpt lat="44.9968134" lon="9.2324534"><ele>346.0</ele><time>2026-04-18T09:04:56.043Z</time></trkpt><trkpt lat="44.9967492" lon="9.2325041"><ele>346.4285714285714</ele><time>2026-04-18T09:04:58.105Z</time></trkpt><trkpt lat="44.9966868" lon="9.2325503"><ele>346.8571428571429</ele><time>2026-04-18T09:05:00.045Z</time></trkpt><trkpt lat="44.9966221" lon="9.232603"><ele>347.2857142857143</ele><time>2026-04-18T09:05:02.032Z</time></trkpt><trkpt lat="44.996558" lon="9.2326616"><ele>347.71428571428567</ele><time>2026-04-18T09:05:04.033Z</time></trkpt><trkpt lat="44.9964931" lon="9.2327136"><ele>348.1428571428571</ele><time>2026-04-18T09:05:06.037Z</time></trkpt><trkpt lat="44.9964274" lon="9.2327633"><ele>348.57142857142856</ele><time>2026-04-18T09:05:08.036Z</time></trkpt><trkpt lat="44.9963615" lon="9.2328221"><ele>349.0</ele><time>2026-04-18T09:05:10.043Z</time></trkpt><trkpt lat="44.9963047" lon="9.2328882"><ele>350.3333333333333</ele><time>2026-04-18T09:05:12.036Z</time></trkpt><trkpt lat="44.9962504" lon="9.2329646"><ele>351.66666666666663</ele><time>2026-04-18T09:05:14.042Z</time></trkpt><trkpt lat="44.9961975" lon="9.2330341"><ele>353.0</ele><time>2026-04-18T09:05:16.04Z</time></trkpt><trkpt lat="44.9961372" lon="9.2331034"><ele>354.3333333333333</ele><time>2026-04-18T09:05:18.039Z</time></trkpt><trkpt lat="44.9960766" lon="9.2331871"><ele>355.6666666666667</ele><time>2026-04-18T09:05:20.041Z</time></trkpt><trkpt lat="44.9960235" lon="9.2332711"><ele>357.0</ele><time>2026-04-18T09:05:22.027Z</time></trkpt><trkpt lat="44.9959716" lon="9.2333527"><ele>357.0</ele><time>2026-04-18T09:05:24.04Z</time></trkpt><trkpt lat="44.9959194" lon="9.2334125"><ele>357.0</ele><time>2026-04-18T09:05:26.042Z</time></trkpt><trkpt lat="44.9958649" lon="9.2334884"><ele>357.0</ele><time>2026-04-18T09:05:28.041Z</time></trkpt><trkpt lat="44.9958111" lon="9.2335667"><ele>357.0</ele><time>2026-04-18T09:05:30.045Z</time></trkpt><trkpt lat="44.9957581" lon="9.2336346"><ele>357.0</ele><time>2026-04-18T09:05:32.037Z</time></trkpt><trkpt lat="44.9957076" lon="9.2337039"><ele>357.0</ele><time>2026-04-18T09:05:34.046Z</time></trkpt><trkpt lat="44.995662" lon="9.2337854"><ele>357.0</ele><time>2026-04-18T09:05:36.033Z</time></trkpt><trkpt lat="44.9956191" lon="9.2338594"><ele>358.3333333333333</ele><time>2026-04-18T09:05:38.038Z</time></trkpt><trkpt lat="44.9955808" lon="9.2339416"><ele>359.6666666666667</ele><time>2026-04-18T09:05:40.035Z</time></trkpt><trkpt lat="44.9955394" lon="9.2340405"><ele>361.0</ele><time>2026-04-18T09:05:42.038Z</time></trkpt><trkpt lat="44.9954905" lon="9.2341332"><ele>362.33333333333337</ele><time>2026-04-18T09:05:44.041Z</time></trkpt><trkpt lat="44.9954526" lon="9.2342184"><ele>363.6666666666667</ele><time>2026-04-18T09:05:46.037Z</time></trkpt><trkpt lat="44.9954139" lon="9.2343147"><ele>365.0</ele><time>2026-04-18T09:05:48.04Z</time></trkpt><trkpt lat="44.9953789" lon="9.2343969"><ele>365.5714285714286</ele><time>2026-04-18T09:05:50.039Z</time></trkpt><trkpt lat="44.995345" lon="9.2344792"><ele>366.14285714285717</ele><time>2026-04-18T09:05:52.108Z</time></trkpt><trkpt lat="44.9953081" lon="9.2345611"><ele>366.7142857142857</ele><time>2026-04-18T09:05:54.049Z</time></trkpt><trkpt lat="44.9952778" lon="9.2346402"><ele>367.28571428571433</ele><time>2026-04-18T09:05:56.038Z</time></trkpt><trkpt lat="44.9952348" lon="9.2347454"><ele>367.85714285714283</ele><time>2026-04-18T09:05:59.047Z</time></trkpt><trkpt lat="44.9951851" lon="9.2348575"><ele>368.42857142857144</ele><time>2026-04-18T09:06:02.041Z</time></trkpt><trkpt lat="44.9951499" lon="9.2349341"><ele>369.0</ele><time>2026-04-18T09:06:04.043Z</time></trkpt><trkpt lat="44.9951137" lon="9.235017"><ele>369.0</ele><time>2026-04-18T09:06:06.037Z</time></trkpt><trkpt lat="44.9950743" lon="9.2350927"><ele>369.0</ele><time>2026-04-18T09:06:08.04Z</time></trkpt><trkpt lat="44.9950452" lon="9.2351723"><ele>369.0</ele><time>2026-04-18T09:06:10.036Z</time></trkpt><trkpt lat="44.9950009" lon="9.2352812"><ele>369.0</ele><time>2026-04-18T09:06:13.04Z</time></trkpt><trkpt lat="44.9949702" lon="9.2353885"><ele>369.0</ele><time>2026-04-18T09:06:16.041Z</time></trkpt><trkpt lat="44.9949415" lon="9.235493"><ele>369.0</ele><time>2026-04-18T09:06:19.034Z</time></trkpt><trkpt lat="44.994903" lon="9.2356138"><ele>372.1666666666667</ele><time>2026-04-18T09:06:22.039Z</time></trkpt><trkpt lat="44.9948772" lon="9.2357144"><ele>375.33333333333337</ele><time>2026-04-18T09:06:24.044Z</time></trkpt><trkpt lat="44.9948734" lon="9.2358406"><ele>378.5</ele><time>2026-04-18T09:06:26.037Z</time></trkpt><trkpt lat="44.9948723" lon="9.2359618"><ele>381.6666666666667</ele><time>2026-04-18T09:06:28.04Z</time></trkpt><trkpt lat="44.9948792" lon="9.236089"><ele>384.83333333333337</ele><time>2026-04-18T09:06:30.044Z</time></trkpt><trkpt lat="44.9948871" lon="9.2362121"><ele>388.0</ele><time>2026-04-18T09:06:32.037Z</time></trkpt><trkpt lat="44.9949081" lon="9.236353"><ele>388.0</ele><time>2026-04-18T09:06:34.042Z</time></trkpt><trkpt lat="44.9949239" lon="9.2364903"><ele>388.0</ele><time>2026-04-18T09:06:36.034Z</time></trkpt><trkpt lat="44.9949364" lon="9.2366269"><ele>388.0</ele><time>2026-04-18T09:06:38.036Z</time></trkpt><trkpt lat="44.9949283" lon="9.2367666"><ele>388.0</ele><time>2026-04-18T09:06:40.038Z</time></trkpt><trkpt lat="44.9949178" lon="9.2369198"><ele>388.0</ele><time>2026-04-18T09:06:42.044Z</time></trkpt><trkpt lat="44.9949418" lon="9.2370588"><ele>388.0</ele><time>2026-04-18T09:06:44.04Z</time></trkpt><trkpt lat="44.994989" lon="9.2372142"><ele>388.0</ele><time>2026-04-18T09:06:46.039Z</time></trkpt><trkpt lat="44.9950135" lon="9.2373497"><ele>388.0</ele><time>2026-04-18T09:06:48.048Z</time></trkpt><trkpt lat="44.9950333" lon="9.2374731"><ele>388.0</ele><time>2026-04-18T09:06:51.036Z</time></trkpt><trkpt lat="44.9950506" lon="9.2375697"><ele>388.0</ele><time>2026-04-18T09:06:53.033Z</time></trkpt><trkpt lat="44.9950544" lon="9.2377038"><ele>387.4</ele><time>2026-04-18T09:06:55.033Z</time></trkpt><trkpt lat="44.995053" lon="9.2378227"><ele>386.79999999999995</ele><time>2026-04-18T09:06:57.043Z</time></trkpt><trkpt lat="44.9950546" lon="9.2379301"><ele>386.2</ele><time>2026-04-18T09:06:59.034Z</time></trkpt><trkpt lat="44.9950345" lon="9.2380613"><ele>385.6</ele><time>2026-04-18T09:07:01.034Z</time></trkpt><trkpt lat="44.9950167" lon="9.2382141"><ele>385.0</ele><time>2026-04-18T09:07:03.045Z</time></trkpt><trkpt lat="44.9949839" lon="9.2383629"><ele>385.0</ele><time>2026-04-18T09:07:05.036Z</time></trkpt><trkpt lat="44.9949581" lon="9.2384477"><ele>385.0</ele><time>2026-04-18T09:07:06.041Z</time></trkpt><trkpt lat="44.9949212" lon="9.238538"><ele>385.0</ele><time>2026-04-18T09:07:07.041Z</time></trkpt><trkpt lat="44.9948867" lon="9.2386219"><ele>385.0</ele><time>2026-04-18T09:07:08.029Z</time></trkpt><trkpt lat="44.9948441" lon="9.238713"><ele>385.0</ele><time>2026-04-18T09:07:09.093Z</time></trkpt><trkpt lat="44.9948028" lon="9.2387999"><ele>385.0</ele><time>2026-04-18T09:07:10.028Z</time></trkpt><trkpt lat="44.9947678" lon="9.2388863"><ele>385.0</ele><time>2026-04-18T09:07:11.032Z</time></trkpt><trkpt lat="44.9947315" lon="9.2389731"><ele>383.57142857142856</ele><time>2026-04-18T09:07:12.042Z</time></trkpt><trkpt lat="44.994694" lon="9.239063"><ele>382.1428571428571</ele><time>2026-04-18T09:07:13.044Z</time></trkpt><trkpt lat="44.9946592" lon="9.2391502"><ele>380.7142857142857</ele><time>2026-04-18T09:07:14.033Z</time></trkpt><trkpt lat="44.9946282" lon="9.2392322"><ele>379.2857142857143</ele><time>2026-04-18T09:07:15.04Z</time></trkpt><trkpt lat="44.9946003" lon="9.2393176"><ele>377.85714285714283</ele><time>2026-04-18T09:07:16.042Z</time></trkpt><trkpt lat="44.9945729" lon="9.2393995"><ele>376.42857142857144</ele><time>2026-04-18T09:07:17.04Z</time></trkpt><trkpt lat="44.9945441" lon="9.2394818"><ele>375.0</ele><time>2026-04-18T09:07:18.034Z</time></trkpt><trkpt lat="44.9945192" lon="9.2395656"><ele>375.0</ele><time>2026-04-18T09:07:19.05Z</time></trkpt><trkpt lat="44.9944941" lon="9.239718"><ele>375.0</ele><time>2026-04-18T09:07:21.041Z</time></trkpt><trkpt lat="44.9944894" lon="9.2398605"><ele>375.0</ele><time>2026-04-18T09:07:23.041Z</time></trkpt><trkpt lat="44.9944955" lon="9.2399856"><ele>375.0</ele><time>2026-04-18T09:07:25.049Z</time></trkpt><trkpt lat="44.9945078" lon="9.2401285"><ele>375.0</ele><time>2026-04-18T09:07:27.044Z</time></trkpt><trkpt lat="44.9945179" lon="9.2402371"><ele>373.6666666666667</ele><time>2026-04-18T09:07:29.041Z</time></trkpt><trkpt lat="44.9945276" lon="9.2403572"><ele>372.3333333333333</ele><time>2026-04-18T09:07:32.039Z</time></trkpt><trkpt lat="44.9945241" lon="9.2404514"><ele>371.0</ele><time>2026-04-18T09:07:34.107Z</time></trkpt><trkpt lat="44.9945284" lon="9.2405476"><ele>369.66666666666663</ele><time>2026-04-18T09:07:36.034Z</time></trkpt><trkpt lat="44.9945604" lon="9.2406466"><ele>368.3333333333333</ele><time>2026-04-18T09:07:38.038Z</time></trkpt><trkpt lat="44.9946" lon="9.2407701"><ele>367.0</ele><time>2026-04-18T09:07:40.034Z</time></trkpt><trkpt lat="44.994643" lon="9.2408793"><ele>366.6</ele><time>2026-04-18T09:07:42.036Z</time></trkpt><trkpt lat="44.9946982" lon="9.2409947"><ele>366.20000000000005</ele><time>2026-04-18T09:07:44.043Z</time></trkpt><trkpt lat="44.9947588" lon="9.2411278"><ele>365.8</ele><time>2026-04-18T09:07:46.034Z</time></trkpt><trkpt lat="44.9948195" lon="9.2412681"><ele>365.4</ele><time>2026-04-18T09:07:48.04Z</time></trkpt><trkpt lat="44.9948722" lon="9.2414102"><ele>365.0</ele><time>2026-04-18T09:07:50.035Z</time></trkpt><trkpt lat="44.9948916" lon="9.2415567"><ele>364.8</ele><time>2026-04-18T09:07:52.032Z</time></trkpt><trkpt lat="44.9948993" lon="9.2416453"><ele>364.6</ele><time>2026-04-18T09:07:53.047Z</time></trkpt><trkpt lat="44.9949264" lon="9.2417942"><ele>364.4</ele><time>2026-04-18T09:07:55.037Z</time></trkpt><trkpt lat="44.994975" lon="9.2419459"><ele>364.2</ele><time>2026-04-18T09:07:57.033Z</time></trkpt><trkpt lat="44.995014" lon="9.2420837"><ele>364.0</ele><time>2026-04-18T09:07:59.054Z</time></trkpt><trkpt lat="44.9950688" lon="9.2422288"><ele>358.75</ele><time>2026-04-18T09:08:01.039Z</time></trkpt><trkpt lat="44.9951138" lon="9.2423667"><ele>353.5</ele><time>2026-04-18T09:08:03.038Z</time></trkpt><trkpt lat="44.9951639" lon="9.242509"><ele>348.25</ele><time>2026-04-18T09:08:05.034Z</time></trkpt><trkpt lat="44.995228" lon="9.2426629"><ele>343.0</ele><time>2026-04-18T09:08:07.039Z</time></trkpt><trkpt lat="44.9952947" lon="9.2428127"><ele>343.0</ele><time>2026-04-18T09:08:09.033Z</time></trkpt><trkpt lat="44.9953615" lon="9.2429404"><ele>343.0</ele><time>2026-04-18T09:08:11.033Z</time></trkpt><trkpt lat="44.9954335" lon="9.2430705"><ele>343.0</ele><time>2026-04-18T09:08:13.033Z</time></trkpt><trkpt lat="44.9955177" lon="9.2431718"><ele>343.0</ele><time>2026-04-18T09:08:15.035Z</time></trkpt><trkpt lat="44.9955939" lon="9.2432221"><ele>343.0</ele><time>2026-04-18T09:08:17.037Z</time></trkpt><trkpt lat="44.9956725" lon="9.2432612"><ele>344.59999999999997</ele><time>2026-04-18T09:08:19.032Z</time></trkpt><trkpt lat="44.9957533" lon="9.2433051"><ele>346.2</ele><time>2026-04-18T09:08:21.038Z</time></trkpt><trkpt lat="44.9958392" lon="9.243351"><ele>347.8</ele><time>2026-04-18T09:08:23.034Z</time></trkpt><trkpt lat="44.9959058" lon="9.2434329"><ele>349.4</ele><time>2026-04-18T09:08:25.038Z</time></trkpt><trkpt lat="44.9959758" lon="9.2435649"><ele>351.0</ele><time>2026-04-18T09:08:27.041Z</time></trkpt><trkpt lat="44.9960215" lon="9.243635"><ele>348.0</ele><time>2026-04-18T09:08:28.045Z</time></trkpt><trkpt lat="44.9960718" lon="9.2437163"><ele>345.0</ele><time>2026-04-18T09:08:29.035Z</time></trkpt><trkpt lat="44.9961223" lon="9.2438101"><ele>342.0</ele><time>2026-04-18T09:08:30.037Z</time></trkpt><trkpt lat="44.9961702" lon="9.2439072"><ele>339.0</ele><time>2026-04-18T09:08:31.046Z</time></trkpt><trkpt lat="44.9962179" lon="9.2439992"><ele>336.0</ele><time>2026-04-18T09:08:32.035Z</time></trkpt><trkpt lat="44.9962735" lon="9.2441018"><ele>333.0</ele><time>2026-04-18T09:08:33.037Z</time></trkpt><trkpt lat="44.9963279" lon="9.2441985"><ele>333.0</ele><time>2026-04-18T09:08:34.036Z</time></trkpt><trkpt lat="44.9963784" lon="9.2443027"><ele>333.0</ele><time>2026-04-18T09:08:35.036Z</time></trkpt><trkpt lat="44.9964296" lon="9.2443979"><ele>333.0</ele><time>2026-04-18T09:08:36.04Z</time></trkpt><trkpt lat="44.9964842" lon="9.244491"><ele>333.0</ele><time>2026-04-18T09:08:37.031Z</time></trkpt><trkpt lat="44.9965277" lon="9.2445806"><ele>333.0</ele><time>2026-04-18T09:08:38.096Z</time></trkpt><trkpt lat="44.9965615" lon="9.2446706"><ele>333.0</ele><time>2026-04-18T09:08:39.042Z</time></trkpt><trkpt lat="44.996598" lon="9.2447483"><ele>334.1666666666667</ele><time>2026-04-18T09:08:40.103Z</time></trkpt><trkpt lat="44.9966428" lon="9.2448248"><ele>335.3333333333333</ele><time>2026-04-18T09:08:41.036Z</time></trkpt><trkpt lat="44.9966865" lon="9.2448958"><ele>336.5</ele><time>2026-04-18T09:08:42.03Z</time></trkpt><trkpt lat="44.9967557" lon="9.2450326"><ele>337.66666666666663</ele><time>2026-04-18T09:08:44.037Z</time></trkpt><trkpt lat="44.9968076" lon="9.2451309"><ele>338.8333333333333</ele><time>2026-04-18T09:08:46.032Z</time></trkpt><trkpt lat="44.9968386" lon="9.245224"><ele>340.0</ele><time>2026-04-18T09:08:48.042Z</time></trkpt><trkpt lat="44.9968653" lon="9.2453147"><ele>338.16666666666663</ele><time>2026-04-18T09:08:50.041Z</time></trkpt><trkpt lat="44.9968969" lon="9.2454357"><ele>336.3333333333333</ele><time>2026-04-18T09:08:52.031Z</time></trkpt><trkpt lat="44.9969248" lon="9.2455891"><ele>334.5</ele><time>2026-04-18T09:08:54.035Z</time></trkpt><trkpt lat="44.9969388" lon="9.2456764"><ele>332.6666666666667</ele><time>2026-04-18T09:08:55.03Z</time></trkpt><trkpt lat="44.996952" lon="9.2457757"><ele>330.83333333333337</ele><time>2026-04-18T09:08:56.036Z</time></trkpt><trkpt lat="44.9969572" lon="9.2458798"><ele>329.0</ele><time>2026-04-18T09:08:57.039Z</time></trkpt><trkpt lat="44.9969765" lon="9.2459812"><ele>329.0</ele><time>2026-04-18T09:08:58.04Z</time></trkpt><trkpt lat="44.9969883" lon="9.2460804"><ele>329.0</ele><time>2026-04-18T09:08:59.035Z</time></trkpt><trkpt lat="44.9970025" lon="9.2461854"><ele>329.0</ele><time>2026-04-18T09:09:00.044Z</time></trkpt><trkpt lat="44.9970181" lon="9.2462833"><ele>329.0</ele><time>2026-04-18T09:09:01.036Z</time></trkpt><trkpt lat="44.9970556" lon="9.2464203"><ele>329.0</ele><time>2026-04-18T09:09:03.041Z</time></trkpt><trkpt lat="44.9970968" lon="9.2465117"><ele>329.0</ele><time>2026-04-18T09:09:05.042Z</time></trkpt><trkpt lat="44.9971843" lon="9.2465573"><ele>328.4</ele><time>2026-04-18T09:09:07.029Z</time></trkpt><trkpt lat="44.9973149" lon="9.2465991"><ele>327.79999999999995</ele><time>2026-04-18T09:09:09.039Z</time></trkpt><trkpt lat="44.9973864" lon="9.2466175"><ele>327.20000000000005</ele><time>2026-04-18T09:09:10.036Z</time></trkpt><trkpt lat="44.9974497" lon="9.2466286"><ele>326.6</ele><time>2026-04-18T09:09:11.035Z</time></trkpt><trkpt lat="44.997514" lon="9.24664"><ele>326.0</ele><time>2026-04-18T09:09:12.038Z</time></trkpt><trkpt lat="44.9976416" lon="9.2466722"><ele>324.7142857142857</ele><time>2026-04-18T09:09:14.032Z</time></trkpt><trkpt lat="44.9977095" lon="9.2466813"><ele>323.4285714285714</ele><time>2026-04-18T09:09:15.045Z</time></trkpt><trkpt lat="44.9977781" lon="9.2467108"><ele>322.1428571428571</ele><time>2026-04-18T09:09:16.035Z</time></trkpt><trkpt lat="44.9978456" lon="9.2467533"><ele>320.8571428571429</ele><time>2026-04-18T09:09:17.041Z</time></trkpt><trkpt lat="44.997915" lon="9.2467957"><ele>319.57142857142856</ele><time>2026-04-18T09:09:18.033Z</time></trkpt><trkpt lat="44.9979794" lon="9.2468334"><ele>318.2857142857143</ele><time>2026-04-18T09:09:19.029Z</time></trkpt><trkpt lat="44.9980472" lon="9.2468655"><ele>317.0</ele><time>2026-04-18T09:09:20.03Z</time></trkpt><trkpt lat="44.9981164" lon="9.2468958"><ele>317.0</ele><time>2026-04-18T09:09:21.03Z</time></trkpt><trkpt lat="44.9981968" lon="9.2469172"><ele>317.0</ele><time>2026-04-18T09:09:22.04Z</time></trkpt><trkpt lat="44.9982765" lon="9.2469358"><ele>317.0</ele><time>2026-04-18T09:09:23.028Z</time></trkpt><trkpt lat="44.998363" lon="9.246951"><ele>317.0</ele><time>2026-04-18T09:09:24.044Z</time></trkpt><trkpt lat="44.9984589" lon="9.2469724"><ele>317.0</ele><time>2026-04-18T09:09:25.041Z</time></trkpt><trkpt lat="44.9985466" lon="9.2470038"><ele>317.0</ele><time>2026-04-18T09:09:26.028Z</time></trkpt><trkpt lat="44.9986298" lon="9.247045"><ele>314.83333333333337</ele><time>2026-04-18T09:09:27.037Z</time></trkpt><trkpt lat="44.9987142" lon="9.2470792"><ele>312.6666666666667</ele><time>2026-04-18T09:09:28.03Z</time></trkpt><trkpt lat="44.9987969" lon="9.2471093"><ele>310.5</ele><time>2026-04-18T09:09:29.11Z</time></trkpt><trkpt lat="44.9988814" lon="9.2471359"><ele>308.3333333333333</ele><time>2026-04-18T09:09:30.042Z</time></trkpt><trkpt lat="44.9989638" lon="9.2471624"><ele>306.16666666666663</ele><time>2026-04-18T09:09:31.036Z</time></trkpt><trkpt lat="44.9990465" lon="9.2471794"><ele>304.0</ele><time>2026-04-18T09:09:32.038Z</time></trkpt><trkpt lat="44.9991349" lon="9.2471915"><ele>303.2</ele><time>2026-04-18T09:09:33.035Z</time></trkpt><trkpt lat="44.9992243" lon="9.2472036"><ele>302.4</ele><time>2026-04-18T09:09:34.04Z</time></trkpt><trkpt lat="44.9993186" lon="9.2472085"><ele>301.6</ele><time>2026-04-18T09:09:35.023Z</time></trkpt><trkpt lat="44.9994117" lon="9.247204"><ele>300.8</ele><time>2026-04-18T09:09:36.036Z</time></trkpt><trkpt lat="44.9995039" lon="9.247197"><ele>300.0</ele><time>2026-04-18T09:09:37.04Z</time></trkpt><trkpt lat="44.9995958" lon="9.2471945"><ele>300.0</ele><time>2026-04-18T09:09:38.042Z</time></trkpt><trkpt lat="44.9996867" lon="9.2471869"><ele>300.0</ele><time>2026-04-18T09:09:39.04Z</time></trkpt><trkpt lat="44.9997837" lon="9.2471774"><ele>300.0</ele><time>2026-04-18T09:09:40.037Z</time></trkpt><trkpt lat="44.9998768" lon="9.2471721"><ele>300.0</ele><time>2026-04-18T09:09:41.03Z</time></trkpt><trkpt lat="44.9999585" lon="9.2471662"><ele>300.0</ele><time>2026-04-18T09:09:42.044Z</time></trkpt><trkpt lat="45.0000298" lon="9.2471778"><ele>300.0</ele><time>2026-04-18T09:09:43.039Z</time></trkpt><trkpt lat="45.0001325" lon="9.2471887"><ele>300.0</ele><time>2026-04-18T09:09:45.034Z</time></trkpt><trkpt lat="45.0001831" lon="9.2472449"><ele>300.0</ele><time>2026-04-18T09:09:47.042Z</time></trkpt><trkpt lat="45.0001983" lon="9.2473864"><ele>300.0</ele><time>2026-04-18T09:09:50.034Z</time></trkpt><trkpt lat="45.0001995" lon="9.2475042"><ele>300.0</ele><time>2026-04-18T09:09:52.035Z</time></trkpt><trkpt lat="45.0002192" lon="9.2476137"><ele>300.0</ele><time>2026-04-18T09:09:54.036Z</time></trkpt><trkpt lat="45.0002295" lon="9.2477503"><ele>300.0</ele><time>2026-04-18T09:09:56.028Z</time></trkpt><trkpt lat="45.0002386" lon="9.2478965"><ele>299.8</ele><time>2026-04-18T09:09:58.033Z</time></trkpt><trkpt lat="45.0002859" lon="9.2480563"><ele>299.6</ele><time>2026-04-18T09:10:00.028Z</time></trkpt><trkpt lat="45.0003651" lon="9.2481552"><ele>299.4</ele><time>2026-04-18T09:10:02.036Z</time></trkpt><trkpt lat="45.0004723" lon="9.2481635"><ele>299.2</ele><time>2026-04-18T09:10:04.027Z</time></trkpt><trkpt lat="45.0005783" lon="9.2481771"><ele>299.0</ele><time>2026-04-18T09:10:06.036Z</time></trkpt><trkpt lat="45.0006931" lon="9.2481983"><ele>299.0</ele><time>2026-04-18T09:10:08.029Z</time></trkpt><trkpt lat="45.000797" lon="9.2481798"><ele>299.0</ele><time>2026-04-18T09:10:10.033Z</time></trkpt><trkpt lat="45.0008913" lon="9.2481313"><ele>299.0</ele><time>2026-04-18T09:10:12.035Z</time></trkpt><trkpt lat="45.0010127" lon="9.2480756"><ele>299.0</ele><time>2026-04-18T09:10:14.025Z</time></trkpt><trkpt lat="45.0010925" lon="9.2480302"><ele>299.0</ele><time>2026-04-18T09:10:15.04Z</time></trkpt><trkpt lat="45.001171" lon="9.2479867"><ele>300.0</ele><time>2026-04-18T09:10:16.027Z</time></trkpt><trkpt lat="45.0012529" lon="9.2479181"><ele>301.0</ele><time>2026-04-18T09:10:17.033Z</time></trkpt><trkpt lat="45.0013348" lon="9.2478526"><ele>302.0</ele><time>2026-04-18T09:10:18.032Z</time></trkpt><trkpt lat="45.0014172" lon="9.2477859"><ele>303.0</ele><time>2026-04-18T09:10:19.04Z</time></trkpt><trkpt lat="45.0014964" lon="9.247723"><ele>304.0</ele><time>2026-04-18T09:10:20.034Z</time></trkpt><trkpt lat="45.0015802" lon="9.2476653"><ele>300.8</ele><time>2026-04-18T09:10:21.04Z</time></trkpt><trkpt lat="45.0016688" lon="9.2476152"><ele>297.59999999999997</ele><time>2026-04-18T09:10:22.053Z</time></trkpt><trkpt lat="45.0017467" lon="9.2475732"><ele>294.4</ele><time>2026-04-18T09:10:23.042Z</time></trkpt><trkpt lat="45.0018174" lon="9.2475364"><ele>291.2</ele><time>2026-04-18T09:10:24.034Z</time></trkpt><trkpt lat="45.0019422" lon="9.2474844"><ele>288.0</ele><time>2026-04-18T09:10:26.045Z</time></trkpt><trkpt lat="45.0020638" lon="9.2475173"><ele>288.0</ele><time>2026-04-18T09:10:28.035Z</time></trkpt><trkpt lat="45.0021336" lon="9.2475505"><ele>288.0</ele><time>2026-04-18T09:10:29.053Z</time></trkpt><trkpt lat="45.0022079" lon="9.2475847"><ele>288.0</ele><time>2026-04-18T09:10:30.037Z</time></trkpt><trkpt lat="45.0022878" lon="9.2476156"><ele>288.0</ele><time>2026-04-18T09:10:31.04Z</time></trkpt><trkpt lat="45.0023558" lon="9.2476415"><ele>288.0</ele><time>2026-04-18T09:10:32.029Z</time></trkpt><trkpt lat="45.0024291" lon="9.2476739"><ele>288.0</ele><time>2026-04-18T09:10:33.04Z</time></trkpt><trkpt lat="45.0025061" lon="9.2476896"><ele>286.3333333333333</ele><time>2026-04-18T09:10:34.041Z</time></trkpt><trkpt lat="45.0025887" lon="9.2477121"><ele>284.6666666666667</ele><time>2026-04-18T09:10:35.037Z</time></trkpt><trkpt lat="45.0026656" lon="9.2477486"><ele>283.0</ele><time>2026-04-18T09:10:36.046Z</time></trkpt><trkpt lat="45.0027361" lon="9.247785"><ele>281.33333333333337</ele><time>2026-04-18T09:10:37.036Z</time></trkpt><trkpt lat="45.0028108" lon="9.2478004"><ele>279.6666666666667</ele><time>2026-04-18T09:10:38.039Z</time></trkpt><trkpt lat="45.0028791" lon="9.2478156"><ele>278.0</ele><time>2026-04-18T09:10:39.033Z</time></trkpt><trkpt lat="45.002949" lon="9.2478115"><ele>278.0</ele><time>2026-04-18T09:10:40.043Z</time></trkpt><trkpt lat="45.0030709" lon="9.2478067"><ele>278.0</ele><time>2026-04-18T09:10:42.03Z</time></trkpt><trkpt lat="45.0031971" lon="9.2477503"><ele>278.0</ele><time>2026-04-18T09:10:44.031Z</time></trkpt><trkpt lat="45.0032655" lon="9.2477275"><ele>278.0</ele><time>2026-04-18T09:10:45.035Z</time></trkpt><trkpt lat="45.0033331" lon="9.2477099"><ele>278.0</ele><time>2026-04-18T09:10:46.031Z</time></trkpt><trkpt lat="45.0034016" lon="9.2477207"><ele>275.6</ele><time>2026-04-18T09:10:47.038Z</time></trkpt><trkpt lat="45.0034621" lon="9.247759"><ele>273.20000000000005</ele><time>2026-04-18T09:10:48.035Z</time></trkpt><trkpt lat="45.0035076" lon="9.2479129"><ele>270.8</ele><time>2026-04-18T09:10:50.034Z</time></trkpt><trkpt lat="45.0034779" lon="9.2480801"><ele>268.40000000000003</ele><time>2026-04-18T09:10:52.038Z</time></trkpt><trkpt lat="45.003385" lon="9.2482126"><ele>266.0</ele><time>2026-04-18T09:10:54.036Z</time></trkpt><trkpt lat="45.0033362" lon="9.2482795"><ele>267.6666666666667</ele><time>2026-04-18T09:10:55.036Z</time></trkpt><trkpt lat="45.0032863" lon="9.2483483"><ele>269.33333333333337</ele><time>2026-04-18T09:10:56.036Z</time></trkpt><trkpt lat="45.0032411" lon="9.2484183"><ele>271.0</ele><time>2026-04-18T09:10:57.043Z</time></trkpt><trkpt lat="45.0032028" lon="9.2484903"><ele>272.6666666666667</ele><time>2026-04-18T09:10:58.032Z</time></trkpt><trkpt lat="45.0031639" lon="9.2486153"><ele>274.3333333333333</ele><time>2026-04-18T09:11:00.037Z</time></trkpt><trkpt lat="45.0032182" lon="9.2487314"><ele>276.0</ele><time>2026-04-18T09:11:02.03Z</time></trkpt><trkpt lat="45.0033141" lon="9.2487541"><ele>274.3333333333333</ele><time>2026-04-18T09:11:04.041Z</time></trkpt><trkpt lat="45.0034301" lon="9.2487233"><ele>272.6666666666667</ele><time>2026-04-18T09:11:06.037Z</time></trkpt><trkpt lat="45.0034947" lon="9.2486917"><ele>271.0</ele><time>2026-04-18T09:11:07.041Z</time></trkpt><trkpt lat="45.0035638" lon="9.2486695"><ele>269.33333333333337</ele><time>2026-04-18T09:11:08.034Z</time></trkpt><trkpt lat="45.0036486" lon="9.2486329"><ele>267.6666666666667</ele><time>2026-04-18T09:11:09.048Z</time></trkpt><trkpt lat="45.0037263" lon="9.2486039"><ele>266.0</ele><time>2026-04-18T09:11:10.033Z</time></trkpt><trkpt lat="45.0038086" lon="9.2485788"><ele>266.0</ele><time>2026-04-18T09:11:11.043Z</time></trkpt><trkpt lat="45.0038951" lon="9.2485465"><ele>266.0</ele><time>2026-04-18T09:11:12.036Z</time></trkpt><trkpt lat="45.0039724" lon="9.2485104"><ele>266.0</ele><time>2026-04-18T09:11:13.035Z</time></trkpt><trkpt lat="45.0040306" lon="9.2484661"><ele>266.0</ele><time>2026-04-18T09:11:14.038Z</time></trkpt><trkpt lat="45.0041065" lon="9.2483734"><ele>266.0</ele><time>2026-04-18T09:11:16.029Z</time></trkpt><trkpt lat="45.0041684" lon="9.2482125"><ele>264.1666666666667</ele><time>2026-04-18T09:11:18.045Z</time></trkpt><trkpt lat="45.0042402" lon="9.2481253"><ele>262.33333333333337</ele><time>2026-04-18T09:11:20.04Z</time></trkpt><trkpt lat="45.0043008" lon="9.2481871"><ele>260.5</ele><time>2026-04-18T09:11:22.033Z</time></trkpt><trkpt lat="45.0043112" lon="9.2483326"><ele>258.6666666666667</ele><time>2026-04-18T09:11:24.033Z</time></trkpt><trkpt lat="45.0043036" lon="9.2484212"><ele>256.8333333333333</ele><time>2026-04-18T09:11:25.033Z</time></trkpt><trkpt lat="45.0043003" lon="9.2485117"><ele>255.0</ele><time>2026-04-18T09:11:26.034Z</time></trkpt><trkpt lat="45.0042916" lon="9.248691"><ele>254.85714285714286</ele><time>2026-04-18T09:11:28.042Z</time></trkpt><trkpt lat="45.0042885" lon="9.2487873"><ele>254.71428571428572</ele><time>2026-04-18T09:11:29.034Z</time></trkpt><trkpt lat="45.0042926" lon="9.2488905"><ele>254.57142857142858</ele><time>2026-04-18T09:11:30.035Z</time></trkpt><trkpt lat="45.0042989" lon="9.2489909"><ele>254.42857142857144</ele><time>2026-04-18T09:11:31.041Z</time></trkpt><trkpt lat="45.0043142" lon="9.2490894"><ele>254.28571428571428</ele><time>2026-04-18T09:11:32.033Z</time></trkpt><trkpt lat="45.0043375" lon="9.2491929"><ele>254.14285714285717</ele><time>2026-04-18T09:11:33.038Z</time></trkpt><trkpt lat="45.0043731" lon="9.2492972"><ele>254.0</ele><time>2026-04-18T09:11:34.028Z</time></trkpt><trkpt lat="45.0044171" lon="9.2493954"><ele>252.83333333333334</ele><time>2026-04-18T09:11:35.039Z</time></trkpt><trkpt lat="45.0044708" lon="9.2494756"><ele>251.66666666666669</ele><time>2026-04-18T09:11:36.041Z</time></trkpt><trkpt lat="45.0045303" lon="9.2495475"><ele>250.5</ele><time>2026-04-18T09:11:37.039Z</time></trkpt><trkpt lat="45.0045906" lon="9.2496109"><ele>249.33333333333331</ele><time>2026-04-18T09:11:38.05Z</time></trkpt><trkpt lat="45.0046536" lon="9.2496518"><ele>248.16666666666666</ele><time>2026-04-18T09:11:39.036Z</time></trkpt><trkpt lat="45.004723" lon="9.2496831"><ele>247.0</ele><time>2026-04-18T09:11:40.038Z</time></trkpt><trkpt lat="45.0048025" lon="9.2497038"><ele>247.0</ele><time>2026-04-18T09:11:41.037Z</time></trkpt><trkpt lat="45.0048866" lon="9.2497238"><ele>247.0</ele><time>2026-04-18T09:11:42.032Z</time></trkpt><trkpt lat="45.0049714" lon="9.2497373"><ele>247.0</ele><time>2026-04-18T09:11:43.038Z</time></trkpt><trkpt lat="45.0050647" lon="9.2497596"><ele>247.0</ele><time>2026-04-18T09:11:44.031Z</time></trkpt><trkpt lat="45.0051605" lon="9.249789"><ele>247.0</ele><time>2026-04-18T09:11:45.035Z</time></trkpt><trkpt lat="45.0052552" lon="9.2498222"><ele>244.2</ele><time>2026-04-18T09:11:46.03Z</time></trkpt><trkpt lat="45.0053541" lon="9.249863"><ele>241.39999999999998</ele><time>2026-04-18T09:11:47.044Z</time></trkpt><trkpt lat="45.005458" lon="9.2498954"><ele>238.60000000000002</ele><time>2026-04-18T09:11:48.034Z</time></trkpt><trkpt lat="45.0055641" lon="9.2499288"><ele>235.8</ele><time>2026-04-18T09:11:49.032Z</time></trkpt><trkpt lat="45.0056614" lon="9.2499614"><ele>233.0</ele><time>2026-04-18T09:11:50.036Z</time></trkpt><trkpt lat="45.0057644" lon="9.2499948"><ele>231.16666666666669</ele><time>2026-04-18T09:11:51.043Z</time></trkpt><trkpt lat="45.0058656" lon="9.2500228"><ele>229.33333333333334</ele><time>2026-04-18T09:11:52.103Z</time></trkpt><trkpt lat="45.0059607" lon="9.2500491"><ele>227.5</ele><time>2026-04-18T09:11:53.026Z</time></trkpt><trkpt lat="45.0060447" lon="9.2500839"><ele>225.66666666666669</ele><time>2026-04-18T09:11:54.06Z</time></trkpt><trkpt lat="45.0061047" lon="9.2501349"><ele>223.83333333333334</ele><time>2026-04-18T09:11:55.053Z</time></trkpt><trkpt lat="45.0061514" lon="9.2502032"><ele>222.0</ele><time>2026-04-18T09:11:56.06Z</time></trkpt><trkpt lat="45.0061918" lon="9.2502834"><ele>222.0</ele><time>2026-04-18T09:11:57.074Z</time></trkpt><trkpt lat="45.0061972" lon="9.2503846"><ele>222.0</ele><time>2026-04-18T09:11:58.055Z</time></trkpt><trkpt lat="45.0061813" lon="9.2504747"><ele>222.0</ele><time>2026-04-18T09:11:59.052Z</time></trkpt><trkpt lat="45.0061369" lon="9.2505406"><ele>222.0</ele><time>2026-04-18T09:12:00.037Z</time></trkpt><trkpt lat="45.006073" lon="9.2505814"><ele>222.0</ele><time>2026-04-18T09:12:01.035Z</time></trkpt><trkpt lat="45.0059961" lon="9.2506008"><ele>222.0</ele><time>2026-04-18T09:12:02.035Z</time></trkpt><trkpt lat="45.0059264" lon="9.25061"><ele>222.0</ele><time>2026-04-18T09:12:03.042Z</time></trkpt><trkpt lat="45.0058615" lon="9.2506267"><ele>222.6</ele><time>2026-04-18T09:12:04.028Z</time></trkpt><trkpt lat="45.0057475" lon="9.2506565"><ele>223.2</ele><time>2026-04-18T09:12:06.036Z</time></trkpt><trkpt lat="45.0057021" lon="9.250783"><ele>223.8</ele><time>2026-04-18T09:12:08.034Z</time></trkpt><trkpt lat="45.0057492" lon="9.2509304"><ele>224.4</ele><time>2026-04-18T09:12:10.043Z</time></trkpt><trkpt lat="45.0058157" lon="9.2509788"><ele>225.0</ele><time>2026-04-18T09:12:11.047Z</time></trkpt><trkpt lat="45.0058926" lon="9.2510154"><ele>223.83333333333334</ele><time>2026-04-18T09:12:12.037Z</time></trkpt><trkpt lat="45.0059668" lon="9.2510587"><ele>222.66666666666669</ele><time>2026-04-18T09:12:13.038Z</time></trkpt><trkpt lat="45.0060533" lon="9.251091"><ele>221.5</ele><time>2026-04-18T09:12:14.03Z</time></trkpt><trkpt lat="45.006139" lon="9.2511203"><ele>220.33333333333334</ele><time>2026-04-18T09:12:15.033Z</time></trkpt><trkpt lat="45.0062209" lon="9.2511476"><ele>219.16666666666669</ele><time>2026-04-18T09:12:16.044Z</time></trkpt><trkpt lat="45.0063107" lon="9.2511772"><ele>218.0</ele><time>2026-04-18T09:12:17.118Z</time></trkpt><trkpt lat="45.0064074" lon="9.2512076"><ele>218.00000000000003</ele><time>2026-04-18T09:12:18.056Z</time></trkpt><trkpt lat="45.0064978" lon="9.2512371"><ele>218.0</ele><time>2026-04-18T09:12:19.045Z</time></trkpt><trkpt lat="45.0065761" lon="9.2512612"><ele>218.0</ele><time>2026-04-18T09:12:20.04Z</time></trkpt><trkpt lat="45.0066512" lon="9.2512668"><ele>218.0</ele><time>2026-04-18T09:12:21.04Z</time></trkpt><trkpt lat="45.0067273" lon="9.2512629"><ele>218.00000000000003</ele><time>2026-04-18T09:12:22.049Z</time></trkpt><trkpt lat="45.0068177" lon="9.2511705"><ele>218.0</ele><time>2026-04-18T09:12:24.034Z</time></trkpt><trkpt lat="45.0068436" lon="9.2510859"><ele>216.16666666666669</ele><time>2026-04-18T09:12:25.029Z</time></trkpt><trkpt lat="45.0068779" lon="9.25098"><ele>214.33333333333334</ele><time>2026-04-18T09:12:26.032Z</time></trkpt><trkpt lat="45.0069122" lon="9.2508774"><ele>212.5</ele><time>2026-04-18T09:12:27.041Z</time></trkpt><trkpt lat="45.0069469" lon="9.2507692"><ele>210.66666666666669</ele><time>2026-04-18T09:12:28.04Z</time></trkpt><trkpt lat="45.0069812" lon="9.2506721"><ele>208.83333333333334</ele><time>2026-04-18T09:12:29.049Z</time></trkpt><trkpt lat="45.0070105" lon="9.2505874"><ele>207.0</ele><time>2026-04-18T09:12:30.028Z</time></trkpt><trkpt lat="45.0070462" lon="9.2504962"><ele>207.00000000000003</ele><time>2026-04-18T09:12:31.091Z</time></trkpt><trkpt lat="45.0070906" lon="9.2504228"><ele>207.0</ele><time>2026-04-18T09:12:32.031Z</time></trkpt><trkpt lat="45.0071389" lon="9.2503615"><ele>207.0</ele><time>2026-04-18T09:12:33.028Z</time></trkpt><trkpt lat="45.0072029" lon="9.2503329"><ele>207.0</ele><time>2026-04-18T09:12:34.036Z</time></trkpt><trkpt lat="45.007272" lon="9.2503201"><ele>207.0</ele><time>2026-04-18T09:12:35.036Z</time></trkpt><trkpt lat="45.0073658" lon="9.2504042"><ele>207.00000000000003</ele><time>2026-04-18T09:12:37.044Z</time></trkpt><trkpt lat="45.0073979" lon="9.2504888"><ele>207.0</ele><time>2026-04-18T09:12:38.028Z</time></trkpt><trkpt lat="45.0074186" lon="9.2505772"><ele>207.00000000000003</ele><time>2026-04-18T09:12:39.026Z</time></trkpt><trkpt lat="45.007423" lon="9.250677"><ele>207.0</ele><time>2026-04-18T09:12:40.038Z</time></trkpt><trkpt lat="45.0074202" lon="9.2507753"><ele>207.0</ele><time>2026-04-18T09:12:41.039Z</time></trkpt><trkpt lat="45.0074135" lon="9.2508716"><ele>207.0</ele><time>2026-04-18T09:12:42.038Z</time></trkpt><trkpt lat="45.0074008" lon="9.2509829"><ele>207.0</ele><time>2026-04-18T09:12:43.045Z</time></trkpt><trkpt lat="45.0073942" lon="9.2510926"><ele>207.00000000000003</ele><time>2026-04-18T09:12:44.081Z</time></trkpt><trkpt lat="45.0073905" lon="9.2512063"><ele>207.0</ele><time>2026-04-18T09:12:45.103Z</time></trkpt><trkpt lat="45.0073871" lon="9.2513244"><ele>207.0</ele><time>2026-04-18T09:12:46.03Z</time></trkpt><trkpt lat="45.0073879" lon="9.2514409"><ele>207.0</ele><time>2026-04-18T09:12:47.043Z</time></trkpt><trkpt lat="45.0073889" lon="9.2515599"><ele>207.0</ele><time>2026-04-18T09:12:48.028Z</time></trkpt><trkpt lat="45.0073908" lon="9.2516796"><ele>207.0</ele><time>2026-04-18T09:12:49.04Z</time></trkpt><trkpt lat="45.00739" lon="9.2517943"><ele>207.0</ele><time>2026-04-18T09:12:50.027Z</time></trkpt><trkpt lat="45.007386" lon="9.2519178"><ele>207.0</ele><time>2026-04-18T09:12:51.029Z</time></trkpt><trkpt lat="45.007384" lon="9.252027"><ele>205.39999999999998</ele><time>2026-04-18T09:12:52.033Z</time></trkpt><trkpt lat="45.0073873" lon="9.2521249"><ele>203.79999999999998</ele><time>2026-04-18T09:12:53.043Z</time></trkpt><trkpt lat="45.0074246" lon="9.2522487"><ele>202.2</ele><time>2026-04-18T09:12:55.042Z</time></trkpt><trkpt lat="45.0075049" lon="9.2522607"><ele>200.6</ele><time>2026-04-18T09:12:57.029Z</time></trkpt><trkpt lat="45.0076105" lon="9.2521624"><ele>199.0</ele><time>2026-04-18T09:12:59.043Z</time></trkpt><trkpt lat="45.0076783" lon="9.2520835"><ele>196.83333333333331</ele><time>2026-04-18T09:13:00.029Z</time></trkpt><trkpt lat="45.0077324" lon="9.2520041"><ele>194.66666666666666</ele><time>2026-04-18T09:13:01.044Z</time></trkpt><trkpt lat="45.007792" lon="9.2519207"><ele>192.5</ele><time>2026-04-18T09:13:02.036Z</time></trkpt><trkpt lat="45.0078433" lon="9.2518386"><ele>190.33333333333331</ele><time>2026-04-18T09:13:03.048Z</time></trkpt><trkpt lat="45.0078921" lon="9.2517588"><ele>188.16666666666666</ele><time>2026-04-18T09:13:04.031Z</time></trkpt><trkpt lat="45.00795" lon="9.2516707"><ele>186.0</ele><time>2026-04-18T09:13:05.039Z</time></trkpt><trkpt lat="45.0080025" lon="9.251578"><ele>186.0</ele><time>2026-04-18T09:13:06.03Z</time></trkpt><trkpt lat="45.0080556" lon="9.2514819"><ele>186.0</ele><time>2026-04-18T09:13:07.037Z</time></trkpt><trkpt lat="45.0081009" lon="9.2513821"><ele>186.0</ele><time>2026-04-18T09:13:08.032Z</time></trkpt><trkpt lat="45.0081551" lon="9.2512915"><ele>186.0</ele><time>2026-04-18T09:13:09.036Z</time></trkpt><trkpt lat="45.008204" lon="9.2512173"><ele>186.0</ele><time>2026-04-18T09:13:10.092Z</time></trkpt><trkpt lat="45.0082873" lon="9.2511003"><ele>186.0</ele><time>2026-04-18T09:13:12.035Z</time></trkpt><trkpt lat="45.0083863" lon="9.2510943"><ele>184.0</ele><time>2026-04-18T09:13:14.029Z</time></trkpt><trkpt lat="45.0084651" lon="9.2511707"><ele>182.0</ele><time>2026-04-18T09:13:16.03Z</time></trkpt><trkpt lat="45.0084594" lon="9.251268"><ele>180.0</ele><time>2026-04-18T09:13:17.049Z</time></trkpt><trkpt lat="45.0084529" lon="9.2513687"><ele>178.0</ele><time>2026-04-18T09:13:18.031Z</time></trkpt><trkpt lat="45.0084461" lon="9.2514804"><ele>176.0</ele><time>2026-04-18T09:13:19.038Z</time></trkpt><trkpt lat="45.0084411" lon="9.2515838"><ele>174.0</ele><time>2026-04-18T09:13:20.037Z</time></trkpt><trkpt lat="45.0084379" lon="9.2516875"><ele>173.16666666666666</ele><time>2026-04-18T09:13:21.034Z</time></trkpt><trkpt lat="45.0084305" lon="9.2517933"><ele>172.33333333333334</ele><time>2026-04-18T09:13:22.042Z</time></trkpt><trkpt lat="45.0084156" lon="9.2519046"><ele>171.5</ele><time>2026-04-18T09:13:23.038Z</time></trkpt><trkpt lat="45.0084028" lon="9.2520241"><ele>170.66666666666669</ele><time>2026-04-18T09:13:24.033Z</time></trkpt><trkpt lat="45.0083894" lon="9.2521455"><ele>169.83333333333334</ele><time>2026-04-18T09:13:25.033Z</time></trkpt><trkpt lat="45.0083804" lon="9.2522741"><ele>169.0</ele><time>2026-04-18T09:13:26.026Z</time></trkpt><trkpt lat="45.0083735" lon="9.2524042"><ele>168.16666666666669</ele><time>2026-04-18T09:13:27.041Z</time></trkpt><trkpt lat="45.0083714" lon="9.2525305"><ele>167.33333333333334</ele><time>2026-04-18T09:13:28.034Z</time></trkpt><trkpt lat="45.0083629" lon="9.252646"><ele>166.5</ele><time>2026-04-18T09:13:29.039Z</time></trkpt><trkpt lat="45.0083488" lon="9.2527459"><ele>165.66666666666666</ele><time>2026-04-18T09:13:30.038Z</time></trkpt><trkpt lat="45.0083445" lon="9.252843"><ele>164.83333333333331</ele><time>2026-04-18T09:13:31.037Z</time></trkpt><trkpt lat="45.0083505" lon="9.2529348"><ele>164.0</ele><time>2026-04-18T09:13:32.03Z</time></trkpt><trkpt lat="45.008389" lon="9.2530925"><ele>164.0</ele><time>2026-04-18T09:13:34.032Z</time></trkpt><trkpt lat="45.0084838" lon="9.2531851"><ele>164.0</ele><time>2026-04-18T09:13:36.03Z</time></trkpt><trkpt lat="45.0085542" lon="9.2531888"><ele>164.0</ele><time>2026-04-18T09:13:37.031Z</time></trkpt><trkpt lat="45.0086362" lon="9.25316"><ele>164.0</ele><time>2026-04-18T09:13:38.034Z</time></trkpt><trkpt lat="45.0087199" lon="9.2531357"><ele>164.0</ele><time>2026-04-18T09:13:39.033Z</time></trkpt><trkpt lat="45.0088058" lon="9.2531061"><ele>164.0</ele><time>2026-04-18T09:13:40.032Z</time></trkpt><trkpt lat="45.0088855" lon="9.2530782"><ele>164.0</ele><time>2026-04-18T09:13:41.039Z</time></trkpt><trkpt lat="45.0089752" lon="9.2530415"><ele>164.0</ele><time>2026-04-18T09:13:42.034Z</time></trkpt><trkpt lat="45.0090584" lon="9.2529935"><ele>164.0</ele><time>2026-04-18T09:13:43.044Z</time></trkpt><trkpt lat="45.0091455" lon="9.2529471"><ele>164.0</ele><time>2026-04-18T09:13:44.036Z</time></trkpt><trkpt lat="45.0092368" lon="9.2528971"><ele>164.0</ele><time>2026-04-18T09:13:45.037Z</time></trkpt><trkpt lat="45.0093229" lon="9.2528602"><ele>161.6</ele><time>2026-04-18T09:13:46.031Z</time></trkpt><trkpt lat="45.0094134" lon="9.2528199"><ele>159.2</ele><time>2026-04-18T09:13:47.04Z</time></trkpt><trkpt lat="45.0094997" lon="9.2527729"><ele>156.79999999999998</ele><time>2026-04-18T09:13:48.028Z</time></trkpt><trkpt lat="45.0095829" lon="9.2527339"><ele>154.39999999999998</ele><time>2026-04-18T09:13:49.086Z</time></trkpt><trkpt lat="45.0096736" lon="9.2526916"><ele>152.0</ele><time>2026-04-18T09:13:50.036Z</time></trkpt><trkpt lat="45.0097678" lon="9.2526464"><ele>152.0</ele><time>2026-04-18T09:13:51.03Z</time></trkpt><trkpt lat="45.0098508" lon="9.2526102"><ele>152.0</ele><time>2026-04-18T09:13:52.033Z</time></trkpt><trkpt lat="45.0099356" lon="9.2525728"><ele>152.0</ele><time>2026-04-18T09:13:53.044Z</time></trkpt><trkpt lat="45.0100227" lon="9.2525356"><ele>152.0</ele><time>2026-04-18T09:13:54.032Z</time></trkpt><trkpt lat="45.0100997" lon="9.2524988"><ele>152.0</ele><time>2026-04-18T09:13:55.055Z</time></trkpt><trkpt lat="45.0101722" lon="9.2524628"><ele>152.0</ele><time>2026-04-18T09:13:56.031Z</time></trkpt><trkpt lat="45.0102367" lon="9.2524302"><ele>150.0</ele><time>2026-04-18T09:13:57.036Z</time></trkpt><trkpt lat="45.0102993" lon="9.2523947"><ele>148.0</ele><time>2026-04-18T09:13:58.033Z</time></trkpt><trkpt lat="45.0104107" lon="9.2523334"><ele>146.0</ele><time>2026-04-18T09:14:00.034Z</time></trkpt><trkpt lat="45.0105328" lon="9.2522825"><ele>144.0</ele><time>2026-04-18T09:14:02.03Z</time></trkpt><trkpt lat="45.0106028" lon="9.2522582"><ele>142.0</ele><time>2026-04-18T09:14:03.042Z</time></trkpt><trkpt lat="45.0106697" lon="9.2522207"><ele>142.0</ele><time>2026-04-18T09:14:04.032Z</time></trkpt><trkpt lat="45.0107385" lon="9.2521875"><ele>142.0</ele><time>2026-04-18T09:14:05.037Z</time></trkpt><trkpt lat="45.0108046" lon="9.2521527"><ele>142.0</ele><time>2026-04-18T09:14:06.035Z</time></trkpt><trkpt lat="45.0109193" lon="9.252114"><ele>142.0</ele><time>2026-04-18T09:14:08.032Z</time></trkpt><trkpt lat="45.0110103" lon="9.2520781"><ele>142.0</ele><time>2026-04-18T09:14:10.03Z</time></trkpt><trkpt lat="45.0110869" lon="9.2520645"><ele>142.0</ele><time>2026-04-18T09:14:12.034Z</time></trkpt><trkpt lat="45.011152" lon="9.2520865"><ele>141.16666666666669</ele><time>2026-04-18T09:14:14.085Z</time></trkpt><trkpt lat="45.0111993" lon="9.2521493"><ele>140.33333333333334</ele><time>2026-04-18T09:14:16.035Z</time></trkpt><trkpt lat="45.0112385" lon="9.2522616"><ele>139.5</ele><time>2026-04-18T09:14:19.035Z</time></trkpt><trkpt lat="45.0112729" lon="9.2523381"><ele>138.66666666666666</ele><time>2026-04-18T09:14:22.039Z</time></trkpt><trkpt lat="45.0113517" lon="9.2523098"><ele>137.83333333333331</ele><time>2026-04-18T09:14:26.03Z</time></trkpt><trkpt lat="45.0114208" lon="9.2522645"><ele>137.0</ele><time>2026-04-18T09:14:29.04Z</time></trkpt><trkpt lat="45.0114939" lon="9.2521904"><ele>137.0</ele><time>2026-04-18T09:14:32.038Z</time></trkpt><trkpt lat="45.0115658" lon="9.2521222"><ele>137.0</ele><time>2026-04-18T09:14:35.028Z</time></trkpt><trkpt lat="45.0116408" lon="9.2520407"><ele>137.0</ele><time>2026-04-18T09:14:38.03Z</time></trkpt><trkpt lat="45.0116876" lon="9.2519683"><ele>137.0</ele><time>2026-04-18T09:14:41.041Z</time></trkpt><trkpt lat="45.0117329" lon="9.2518881"><ele>137.0</ele><time>2026-04-18T09:14:46.033Z</time></trkpt><trkpt lat="45.0118063" lon="9.2518337"><ele>137.0</ele><time>2026-04-18T09:14:50.033Z</time></trkpt><trkpt lat="45.011864" lon="9.2517963"><ele>136.0</ele><time>2026-04-18T09:14:54.034Z</time></trkpt><trkpt lat="45.011864" lon="9.2517963"><ele>136.0</ele><time>2026-04-18T09:14:54.034Z</time></trkpt></trkseg></trk></gpx>